<?xml version="1.0" encoding="UTF-8" standalone="no" ?>
<gpx xmlns="http://www.topografix.com/GPX/1/1" xmlns:xsi="http://www.w3.org/2001/XMLSchema-instance" xsi:schemaLocation="http://www.topografix.com/GPX/1/1 http://www.topografix.com/GPX/1/1/gpx.xsd" version="1.1" creator="VisuGPX - https://www.visugpx.com">
  <metadata>
    <name>Santenoge (Combe Larron) 11 Km </name>
  </metadata>
  <trk>
    <name><![CDATA[Santenoge (Combe Larron) 11 Km ]]></name>
    <trkseg>
      <trkpt lat="47.73945" lon="4.99346">
        <ele>363.53</ele>
        <time>2022-05-30T07:12:54Z</time>
      </trkpt>
      <trkpt lat="47.73943" lon="4.9935">
        <ele>363.56</ele>
        <time>2022-05-30T07:12:56Z</time>
      </trkpt>
      <trkpt lat="47.73942" lon="4.99353">
        <ele>363.56</ele>
        <time>2022-05-30T07:12:58Z</time>
      </trkpt>
      <trkpt lat="47.7394" lon="4.99356">
        <ele>363.66</ele>
        <time>2022-05-30T07:13:01Z</time>
      </trkpt>
      <trkpt lat="47.73937" lon="4.99359">
        <ele>363.88</ele>
        <time>2022-05-30T07:13:04Z</time>
      </trkpt>
      <trkpt lat="47.73935" lon="4.99363">
        <ele>364.16</ele>
        <time>2022-05-30T07:13:07Z</time>
      </trkpt>
      <trkpt lat="47.73934" lon="4.99367">
        <ele>364.55</ele>
        <time>2022-05-30T07:13:09Z</time>
      </trkpt>
      <trkpt lat="47.73933" lon="4.99371">
        <ele>364.95</ele>
        <time>2022-05-30T07:13:11Z</time>
      </trkpt>
      <trkpt lat="47.73931" lon="4.99375">
        <ele>365.45</ele>
        <time>2022-05-30T07:13:13Z</time>
      </trkpt>
      <trkpt lat="47.73929" lon="4.99379">
        <ele>365.96</ele>
        <time>2022-05-30T07:13:16Z</time>
      </trkpt>
      <trkpt lat="47.73924" lon="4.99379">
        <ele>366.5</ele>
        <time>2022-05-30T07:13:19Z</time>
      </trkpt>
      <trkpt lat="47.73918" lon="4.9938">
        <ele>367.22</ele>
        <time>2022-05-30T07:13:24Z</time>
      </trkpt>
      <trkpt lat="47.73914" lon="4.99374">
        <ele>367.02</ele>
        <time>2022-05-30T07:13:27Z</time>
      </trkpt>
      <trkpt lat="47.73912" lon="4.99368">
        <ele>366.66</ele>
        <time>2022-05-30T07:13:30Z</time>
      </trkpt>
      <trkpt lat="47.73912" lon="4.99364">
        <ele>366.38</ele>
        <time>2022-05-30T07:13:33Z</time>
      </trkpt>
      <trkpt lat="47.73911" lon="4.9936">
        <ele>366.24</ele>
        <time>2022-05-30T07:13:36Z</time>
      </trkpt>
      <trkpt lat="47.73908" lon="4.99358">
        <ele>366.39</ele>
        <time>2022-05-30T07:13:46Z</time>
      </trkpt>
      <trkpt lat="47.73906" lon="4.99355">
        <ele>366.52</ele>
        <time>2022-05-30T07:13:48Z</time>
      </trkpt>
      <trkpt lat="47.73904" lon="4.99351">
        <ele>366.65</ele>
        <time>2022-05-30T07:13:50Z</time>
      </trkpt>
      <trkpt lat="47.73902" lon="4.99347">
        <ele>366.77</ele>
        <time>2022-05-30T07:13:52Z</time>
      </trkpt>
      <trkpt lat="47.739" lon="4.99344">
        <ele>366.85</ele>
        <time>2022-05-30T07:13:55Z</time>
      </trkpt>
      <trkpt lat="47.73898" lon="4.99341">
        <ele>366.91</ele>
        <time>2022-05-30T07:13:57Z</time>
      </trkpt>
      <trkpt lat="47.73896" lon="4.99336">
        <ele>366.98</ele>
        <time>2022-05-30T07:14:01Z</time>
      </trkpt>
      <trkpt lat="47.73896" lon="4.99331">
        <ele>367.06</ele>
        <time>2022-05-30T07:14:02Z</time>
      </trkpt>
      <trkpt lat="47.73895" lon="4.99327">
        <ele>367.18</ele>
        <time>2022-05-30T07:14:06Z</time>
      </trkpt>
      <trkpt lat="47.73893" lon="4.99323">
        <ele>367.32</ele>
        <time>2022-05-30T07:14:08Z</time>
      </trkpt>
      <trkpt lat="47.7389" lon="4.9932">
        <ele>367.46</ele>
        <time>2022-05-30T07:14:11Z</time>
      </trkpt>
      <trkpt lat="47.73887" lon="4.99318">
        <ele>367.72</ele>
        <time>2022-05-30T07:14:12Z</time>
      </trkpt>
      <trkpt lat="47.73887" lon="4.99313">
        <ele>367.89</ele>
        <time>2022-05-30T07:14:15Z</time>
      </trkpt>
      <trkpt lat="47.73886" lon="4.99308">
        <ele>368.13</ele>
        <time>2022-05-30T07:14:18Z</time>
      </trkpt>
      <trkpt lat="47.73886" lon="4.99304">
        <ele>368.21</ele>
        <time>2022-05-30T07:14:21Z</time>
      </trkpt>
      <trkpt lat="47.73887" lon="4.993">
        <ele>368.14</ele>
        <time>2022-05-30T07:14:23Z</time>
      </trkpt>
      <trkpt lat="47.73887" lon="4.99296">
        <ele>368.14</ele>
        <time>2022-05-30T07:14:25Z</time>
      </trkpt>
      <trkpt lat="47.73886" lon="4.99292">
        <ele>368.21</ele>
        <time>2022-05-30T07:14:27Z</time>
      </trkpt>
      <trkpt lat="47.73884" lon="4.99289">
        <ele>368.35</ele>
        <time>2022-05-30T07:14:29Z</time>
      </trkpt>
      <trkpt lat="47.73882" lon="4.99285">
        <ele>368.5</ele>
        <time>2022-05-30T07:14:30Z</time>
      </trkpt>
      <trkpt lat="47.7388" lon="4.99281">
        <ele>368.64</ele>
        <time>2022-05-30T07:14:33Z</time>
      </trkpt>
      <trkpt lat="47.73878" lon="4.99278">
        <ele>368.78</ele>
        <time>2022-05-30T07:14:35Z</time>
      </trkpt>
      <trkpt lat="47.73876" lon="4.99273">
        <ele>368.76</ele>
        <time>2022-05-30T07:14:37Z</time>
      </trkpt>
      <trkpt lat="47.73875" lon="4.9927">
        <ele>368.72</ele>
        <time>2022-05-30T07:14:40Z</time>
      </trkpt>
      <trkpt lat="47.73873" lon="4.99266">
        <ele>368.72</ele>
        <time>2022-05-30T07:14:41Z</time>
      </trkpt>
      <trkpt lat="47.73871" lon="4.99262">
        <ele>368.72</ele>
        <time>2022-05-30T07:14:44Z</time>
      </trkpt>
      <trkpt lat="47.73869" lon="4.99258">
        <ele>368.72</ele>
        <time>2022-05-30T07:14:46Z</time>
      </trkpt>
      <trkpt lat="47.73867" lon="4.99253">
        <ele>368.68</ele>
        <time>2022-05-30T07:14:50Z</time>
      </trkpt>
      <trkpt lat="47.73865" lon="4.99249">
        <ele>368.77</ele>
        <time>2022-05-30T07:14:52Z</time>
      </trkpt>
      <trkpt lat="47.73864" lon="4.99245">
        <ele>369.01</ele>
        <time>2022-05-30T07:14:55Z</time>
      </trkpt>
      <trkpt lat="47.73863" lon="4.9924">
        <ele>369.27</ele>
        <time>2022-05-30T07:14:57Z</time>
      </trkpt>
      <trkpt lat="47.73862" lon="4.99236">
        <ele>369.47</ele>
        <time>2022-05-30T07:15:00Z</time>
      </trkpt>
      <trkpt lat="47.73861" lon="4.99232">
        <ele>369.64</ele>
        <time>2022-05-30T07:15:03Z</time>
      </trkpt>
      <trkpt lat="47.73859" lon="4.99228">
        <ele>369.58</ele>
        <time>2022-05-30T07:15:04Z</time>
      </trkpt>
      <trkpt lat="47.73858" lon="4.99224">
        <ele>369.61</ele>
        <time>2022-05-30T07:15:07Z</time>
      </trkpt>
      <trkpt lat="47.73856" lon="4.99221">
        <ele>369.51</ele>
        <time>2022-05-30T07:15:09Z</time>
      </trkpt>
      <trkpt lat="47.73855" lon="4.99217">
        <ele>369.61</ele>
        <time>2022-05-30T07:15:12Z</time>
      </trkpt>
      <trkpt lat="47.73853" lon="4.99212">
        <ele>369.71</ele>
        <time>2022-05-30T07:15:14Z</time>
      </trkpt>
      <trkpt lat="47.73853" lon="4.99208">
        <ele>369.94</ele>
        <time>2022-05-30T07:15:17Z</time>
      </trkpt>
      <trkpt lat="47.73852" lon="4.99204">
        <ele>370.1</ele>
        <time>2022-05-30T07:15:19Z</time>
      </trkpt>
      <trkpt lat="47.73851" lon="4.99199">
        <ele>370.35</ele>
        <time>2022-05-30T07:15:21Z</time>
      </trkpt>
      <trkpt lat="47.7385" lon="4.99195">
        <ele>370.56</ele>
        <time>2022-05-30T07:15:24Z</time>
      </trkpt>
      <trkpt lat="47.73848" lon="4.99193">
        <ele>370.5</ele>
        <time>2022-05-30T07:15:26Z</time>
      </trkpt>
      <trkpt lat="47.73845" lon="4.99191">
        <ele>370.37</ele>
        <time>2022-05-30T07:15:28Z</time>
      </trkpt>
      <trkpt lat="47.73842" lon="4.9919">
        <ele>370.26</ele>
        <time>2022-05-30T07:15:31Z</time>
      </trkpt>
      <trkpt lat="47.73839" lon="4.99189">
        <ele>370.16</ele>
        <time>2022-05-30T07:15:35Z</time>
      </trkpt>
      <trkpt lat="47.73836" lon="4.9919">
        <ele>370.08</ele>
        <time>2022-05-30T07:15:39Z</time>
      </trkpt>
      <trkpt lat="47.73833" lon="4.9919">
        <ele>369.94</ele>
        <time>2022-05-30T07:15:43Z</time>
      </trkpt>
      <trkpt lat="47.73829" lon="4.9919">
        <ele>369.27</ele>
        <time>2022-05-30T07:15:45Z</time>
      </trkpt>
      <trkpt lat="47.73826" lon="4.99189">
        <ele>368.78</ele>
        <time>2022-05-30T07:15:47Z</time>
      </trkpt>
      <trkpt lat="47.73824" lon="4.99187">
        <ele>368.5</ele>
        <time>2022-05-30T07:15:50Z</time>
      </trkpt>
      <trkpt lat="47.73821" lon="4.99186">
        <ele>368.05</ele>
        <time>2022-05-30T07:15:52Z</time>
      </trkpt>
      <trkpt lat="47.73818" lon="4.99186">
        <ele>367.58</ele>
        <time>2022-05-30T07:15:54Z</time>
      </trkpt>
      <trkpt lat="47.73815" lon="4.99187">
        <ele>367.05</ele>
        <time>2022-05-30T07:15:57Z</time>
      </trkpt>
      <trkpt lat="47.73812" lon="4.99187">
        <ele>366.57</ele>
        <time>2022-05-30T07:15:59Z</time>
      </trkpt>
      <trkpt lat="47.73809" lon="4.99186">
        <ele>366.15</ele>
        <time>2022-05-30T07:16:01Z</time>
      </trkpt>
      <trkpt lat="47.73806" lon="4.99186">
        <ele>365.68</ele>
        <time>2022-05-30T07:16:03Z</time>
      </trkpt>
      <trkpt lat="47.73803" lon="4.99185">
        <ele>364.97</ele>
        <time>2022-05-30T07:16:06Z</time>
      </trkpt>
      <trkpt lat="47.73799" lon="4.99186">
        <ele>363.83</ele>
        <time>2022-05-30T07:16:09Z</time>
      </trkpt>
      <trkpt lat="47.73796" lon="4.99186">
        <ele>363.02</ele>
        <time>2022-05-30T07:16:11Z</time>
      </trkpt>
      <trkpt lat="47.73793" lon="4.99186">
        <ele>362.21</ele>
        <time>2022-05-30T07:16:14Z</time>
      </trkpt>
      <trkpt lat="47.7379" lon="4.99186">
        <ele>361.4</ele>
        <time>2022-05-30T07:16:17Z</time>
      </trkpt>
      <trkpt lat="47.73787" lon="4.99185">
        <ele>360.54</ele>
        <time>2022-05-30T07:16:20Z</time>
      </trkpt>
      <trkpt lat="47.73783" lon="4.99185">
        <ele>359.43</ele>
        <time>2022-05-30T07:16:22Z</time>
      </trkpt>
      <trkpt lat="47.7378" lon="4.99185">
        <ele>358.6</ele>
        <time>2022-05-30T07:16:25Z</time>
      </trkpt>
      <trkpt lat="47.73777" lon="4.99185">
        <ele>358.05</ele>
        <time>2022-05-30T07:16:26Z</time>
      </trkpt>
      <trkpt lat="47.73774" lon="4.99185">
        <ele>358.3</ele>
        <time>2022-05-30T07:16:29Z</time>
      </trkpt>
      <trkpt lat="47.73771" lon="4.99185">
        <ele>358.56</ele>
        <time>2022-05-30T07:16:32Z</time>
      </trkpt>
      <trkpt lat="47.73768" lon="4.99185">
        <ele>358.81</ele>
        <time>2022-05-30T07:16:34Z</time>
      </trkpt>
      <trkpt lat="47.73765" lon="4.99185">
        <ele>359.07</ele>
        <time>2022-05-30T07:16:37Z</time>
      </trkpt>
      <trkpt lat="47.73762" lon="4.99186">
        <ele>359.35</ele>
        <time>2022-05-30T07:16:40Z</time>
      </trkpt>
      <trkpt lat="47.73759" lon="4.99187">
        <ele>359.6</ele>
        <time>2022-05-30T07:16:43Z</time>
      </trkpt>
      <trkpt lat="47.73756" lon="4.99188">
        <ele>359.82</ele>
        <time>2022-05-30T07:16:45Z</time>
      </trkpt>
      <trkpt lat="47.73754" lon="4.99188">
        <ele>359.95</ele>
        <time>2022-05-30T07:16:47Z</time>
      </trkpt>
      <trkpt lat="47.73751" lon="4.99189">
        <ele>360.13</ele>
        <time>2022-05-30T07:16:49Z</time>
      </trkpt>
      <trkpt lat="47.73748" lon="4.99189">
        <ele>360.27</ele>
        <time>2022-05-30T07:16:52Z</time>
      </trkpt>
      <trkpt lat="47.73745" lon="4.99188">
        <ele>360.44</ele>
        <time>2022-05-30T07:16:54Z</time>
      </trkpt>
      <trkpt lat="47.73742" lon="4.99189">
        <ele>360.48</ele>
        <time>2022-05-30T07:16:56Z</time>
      </trkpt>
      <trkpt lat="47.73738" lon="4.99189">
        <ele>360.62</ele>
        <time>2022-05-30T07:16:59Z</time>
      </trkpt>
      <trkpt lat="47.73735" lon="4.99189">
        <ele>360.73</ele>
        <time>2022-05-30T07:17:01Z</time>
      </trkpt>
      <trkpt lat="47.73732" lon="4.99189">
        <ele>360.83</ele>
        <time>2022-05-30T07:17:03Z</time>
      </trkpt>
      <trkpt lat="47.7373" lon="4.99189">
        <ele>360.9</ele>
        <time>2022-05-30T07:17:05Z</time>
      </trkpt>
      <trkpt lat="47.73726" lon="4.9919">
        <ele>360.85</ele>
        <time>2022-05-30T07:17:07Z</time>
      </trkpt>
      <trkpt lat="47.73724" lon="4.99191">
        <ele>360.7</ele>
        <time>2022-05-30T07:17:09Z</time>
      </trkpt>
      <trkpt lat="47.73721" lon="4.99192">
        <ele>360.47</ele>
        <time>2022-05-30T07:17:11Z</time>
      </trkpt>
      <trkpt lat="47.73717" lon="4.99193">
        <ele>360.08</ele>
        <time>2022-05-30T07:17:14Z</time>
      </trkpt>
      <trkpt lat="47.73714" lon="4.99194">
        <ele>359.78</ele>
        <time>2022-05-30T07:17:17Z</time>
      </trkpt>
      <trkpt lat="47.73711" lon="4.99195">
        <ele>359.53</ele>
        <time>2022-05-30T07:17:19Z</time>
      </trkpt>
      <trkpt lat="47.73708" lon="4.99196">
        <ele>359.32</ele>
        <time>2022-05-30T07:17:21Z</time>
      </trkpt>
      <trkpt lat="47.73705" lon="4.99197">
        <ele>359.13</ele>
        <time>2022-05-30T07:17:23Z</time>
      </trkpt>
      <trkpt lat="47.73703" lon="4.99198">
        <ele>358.97</ele>
        <time>2022-05-30T07:17:26Z</time>
      </trkpt>
      <trkpt lat="47.737" lon="4.99199">
        <ele>358.81</ele>
        <time>2022-05-30T07:17:28Z</time>
      </trkpt>
      <trkpt lat="47.73697" lon="4.992">
        <ele>358.66</ele>
        <time>2022-05-30T07:17:29Z</time>
      </trkpt>
      <trkpt lat="47.73694" lon="4.99201">
        <ele>358.44</ele>
        <time>2022-05-30T07:17:32Z</time>
      </trkpt>
      <trkpt lat="47.73691" lon="4.99203">
        <ele>357.75</ele>
        <time>2022-05-30T07:17:33Z</time>
      </trkpt>
      <trkpt lat="47.73689" lon="4.99205">
        <ele>357.29</ele>
        <time>2022-05-30T07:17:36Z</time>
      </trkpt>
      <trkpt lat="47.73686" lon="4.99207">
        <ele>356.68</ele>
        <time>2022-05-30T07:17:38Z</time>
      </trkpt>
      <trkpt lat="47.73683" lon="4.99208">
        <ele>356.16</ele>
        <time>2022-05-30T07:17:40Z</time>
      </trkpt>
      <trkpt lat="47.7368" lon="4.99208">
        <ele>355.67</ele>
        <time>2022-05-30T07:17:42Z</time>
      </trkpt>
      <trkpt lat="47.73678" lon="4.9921">
        <ele>355.32</ele>
        <time>2022-05-30T07:17:44Z</time>
      </trkpt>
      <trkpt lat="47.73675" lon="4.99211">
        <ele>354.86</ele>
        <time>2022-05-30T07:17:47Z</time>
      </trkpt>
      <trkpt lat="47.73671" lon="4.99213">
        <ele>354.29</ele>
        <time>2022-05-30T07:17:49Z</time>
      </trkpt>
      <trkpt lat="47.73669" lon="4.99215">
        <ele>354.06</ele>
        <time>2022-05-30T07:17:51Z</time>
      </trkpt>
      <trkpt lat="47.73666" lon="4.99217">
        <ele>353.78</ele>
        <time>2022-05-30T07:17:53Z</time>
      </trkpt>
      <trkpt lat="47.73663" lon="4.99219">
        <ele>353.74</ele>
        <time>2022-05-30T07:17:56Z</time>
      </trkpt>
      <trkpt lat="47.7366" lon="4.99221">
        <ele>353.71</ele>
        <time>2022-05-30T07:17:59Z</time>
      </trkpt>
      <trkpt lat="47.73657" lon="4.99222">
        <ele>353.64</ele>
        <time>2022-05-30T07:18:01Z</time>
      </trkpt>
      <trkpt lat="47.73654" lon="4.99224">
        <ele>353.75</ele>
        <time>2022-05-30T07:18:03Z</time>
      </trkpt>
      <trkpt lat="47.73651" lon="4.99225">
        <ele>353.82</ele>
        <time>2022-05-30T07:18:05Z</time>
      </trkpt>
      <trkpt lat="47.73648" lon="4.99227">
        <ele>354.08</ele>
        <time>2022-05-30T07:18:08Z</time>
      </trkpt>
      <trkpt lat="47.73646" lon="4.99229">
        <ele>354.41</ele>
        <time>2022-05-30T07:18:10Z</time>
      </trkpt>
      <trkpt lat="47.73643" lon="4.99231">
        <ele>354.81</ele>
        <time>2022-05-30T07:18:13Z</time>
      </trkpt>
      <trkpt lat="47.7364" lon="4.99234">
        <ele>355.5</ele>
        <time>2022-05-30T07:18:15Z</time>
      </trkpt>
      <trkpt lat="47.73637" lon="4.99237">
        <ele>356.41</ele>
        <time>2022-05-30T07:18:18Z</time>
      </trkpt>
      <trkpt lat="47.73634" lon="4.99239">
        <ele>357.26</ele>
        <time>2022-05-30T07:18:21Z</time>
      </trkpt>
      <trkpt lat="47.73631" lon="4.9924">
        <ele>357.93</ele>
        <time>2022-05-30T07:18:23Z</time>
      </trkpt>
      <trkpt lat="47.73628" lon="4.99241">
        <ele>358.65</ele>
        <time>2022-05-30T07:18:25Z</time>
      </trkpt>
      <trkpt lat="47.73625" lon="4.99243">
        <ele>359.73</ele>
        <time>2022-05-30T07:18:28Z</time>
      </trkpt>
      <trkpt lat="47.73622" lon="4.99245">
        <ele>360.91</ele>
        <time>2022-05-30T07:18:30Z</time>
      </trkpt>
      <trkpt lat="47.73619" lon="4.99246">
        <ele>361.81</ele>
        <time>2022-05-30T07:18:33Z</time>
      </trkpt>
      <trkpt lat="47.73616" lon="4.99247">
        <ele>362.76</ele>
        <time>2022-05-30T07:18:35Z</time>
      </trkpt>
      <trkpt lat="47.73613" lon="4.99248">
        <ele>363.76</ele>
        <time>2022-05-30T07:18:37Z</time>
      </trkpt>
      <trkpt lat="47.7361" lon="4.99248">
        <ele>364.03</ele>
        <time>2022-05-30T07:18:39Z</time>
      </trkpt>
      <trkpt lat="47.73607" lon="4.99249">
        <ele>364.16</ele>
        <time>2022-05-30T07:18:42Z</time>
      </trkpt>
      <trkpt lat="47.73604" lon="4.9925">
        <ele>364.23</ele>
        <time>2022-05-30T07:18:45Z</time>
      </trkpt>
      <trkpt lat="47.736" lon="4.99251">
        <ele>363.9</ele>
        <time>2022-05-30T07:18:47Z</time>
      </trkpt>
      <trkpt lat="47.73597" lon="4.99251">
        <ele>363.58</ele>
        <time>2022-05-30T07:18:50Z</time>
      </trkpt>
      <trkpt lat="47.73594" lon="4.99251">
        <ele>363.27</ele>
        <time>2022-05-30T07:18:52Z</time>
      </trkpt>
      <trkpt lat="47.7359" lon="4.99251">
        <ele>362.85</ele>
        <time>2022-05-30T07:18:54Z</time>
      </trkpt>
      <trkpt lat="47.73587" lon="4.99252">
        <ele>362.66</ele>
        <time>2022-05-30T07:18:57Z</time>
      </trkpt>
      <trkpt lat="47.73583" lon="4.99252">
        <ele>362.24</ele>
        <time>2022-05-30T07:18:59Z</time>
      </trkpt>
      <trkpt lat="47.7358" lon="4.99252">
        <ele>361.81</ele>
        <time>2022-05-30T07:19:02Z</time>
      </trkpt>
      <trkpt lat="47.73576" lon="4.99252">
        <ele>361.23</ele>
        <time>2022-05-30T07:19:04Z</time>
      </trkpt>
      <trkpt lat="47.73573" lon="4.99251">
        <ele>360.66</ele>
        <time>2022-05-30T07:19:07Z</time>
      </trkpt>
      <trkpt lat="47.7357" lon="4.99251">
        <ele>360.22</ele>
        <time>2022-05-30T07:19:09Z</time>
      </trkpt>
      <trkpt lat="47.73567" lon="4.99252">
        <ele>359.94</ele>
        <time>2022-05-30T07:19:12Z</time>
      </trkpt>
      <trkpt lat="47.73564" lon="4.99252">
        <ele>359.5</ele>
        <time>2022-05-30T07:19:14Z</time>
      </trkpt>
      <trkpt lat="47.73561" lon="4.99252">
        <ele>359.07</ele>
        <time>2022-05-30T07:19:16Z</time>
      </trkpt>
      <trkpt lat="47.73559" lon="4.99252">
        <ele>358.78</ele>
        <time>2022-05-30T07:19:18Z</time>
      </trkpt>
      <trkpt lat="47.73556" lon="4.99252">
        <ele>358.35</ele>
        <time>2022-05-30T07:19:21Z</time>
      </trkpt>
      <trkpt lat="47.73553" lon="4.99252">
        <ele>357.67</ele>
        <time>2022-05-30T07:19:23Z</time>
      </trkpt>
      <trkpt lat="47.73549" lon="4.99252">
        <ele>356.7</ele>
        <time>2022-05-30T07:19:26Z</time>
      </trkpt>
      <trkpt lat="47.73546" lon="4.99252">
        <ele>355.98</ele>
        <time>2022-05-30T07:19:28Z</time>
      </trkpt>
      <trkpt lat="47.73543" lon="4.99252">
        <ele>355.25</ele>
        <time>2022-05-30T07:19:31Z</time>
      </trkpt>
      <trkpt lat="47.7354" lon="4.99251">
        <ele>354.3</ele>
        <time>2022-05-30T07:19:34Z</time>
      </trkpt>
      <trkpt lat="47.73536" lon="4.99251">
        <ele>353.32</ele>
        <time>2022-05-30T07:19:37Z</time>
      </trkpt>
      <trkpt lat="47.73533" lon="4.99252">
        <ele>352.84</ele>
        <time>2022-05-30T07:19:39Z</time>
      </trkpt>
      <trkpt lat="47.73529" lon="4.99251">
        <ele>351.59</ele>
        <time>2022-05-30T07:19:41Z</time>
      </trkpt>
      <trkpt lat="47.73526" lon="4.99251">
        <ele>351.54</ele>
        <time>2022-05-30T07:19:44Z</time>
      </trkpt>
      <trkpt lat="47.73523" lon="4.99252">
        <ele>352.25</ele>
        <time>2022-05-30T07:19:47Z</time>
      </trkpt>
      <trkpt lat="47.7352" lon="4.99252">
        <ele>352.68</ele>
        <time>2022-05-30T07:19:49Z</time>
      </trkpt>
      <trkpt lat="47.73517" lon="4.99251">
        <ele>352.83</ele>
        <time>2022-05-30T07:19:52Z</time>
      </trkpt>
      <trkpt lat="47.73514" lon="4.99251">
        <ele>353.25</ele>
        <time>2022-05-30T07:19:54Z</time>
      </trkpt>
      <trkpt lat="47.7351" lon="4.99251">
        <ele>353.82</ele>
        <time>2022-05-30T07:19:56Z</time>
      </trkpt>
      <trkpt lat="47.73507" lon="4.99251">
        <ele>354.25</ele>
        <time>2022-05-30T07:19:59Z</time>
      </trkpt>
      <trkpt lat="47.73504" lon="4.9925">
        <ele>354.42</ele>
        <time>2022-05-30T07:20:01Z</time>
      </trkpt>
      <trkpt lat="47.735" lon="4.9925">
        <ele>355</ele>
        <time>2022-05-30T07:20:04Z</time>
      </trkpt>
      <trkpt lat="47.73497" lon="4.99249">
        <ele>355.14</ele>
        <time>2022-05-30T07:20:06Z</time>
      </trkpt>
      <trkpt lat="47.73494" lon="4.99249">
        <ele>355.36</ele>
        <time>2022-05-30T07:20:09Z</time>
      </trkpt>
      <trkpt lat="47.7349" lon="4.99249">
        <ele>355.65</ele>
        <time>2022-05-30T07:20:11Z</time>
      </trkpt>
      <trkpt lat="47.73487" lon="4.99249">
        <ele>355.86</ele>
        <time>2022-05-30T07:20:13Z</time>
      </trkpt>
      <trkpt lat="47.73483" lon="4.99249">
        <ele>356.15</ele>
        <time>2022-05-30T07:20:16Z</time>
      </trkpt>
      <trkpt lat="47.73481" lon="4.99249">
        <ele>356.3</ele>
        <time>2022-05-30T07:20:18Z</time>
      </trkpt>
      <trkpt lat="47.73478" lon="4.99249">
        <ele>356.51</ele>
        <time>2022-05-30T07:20:20Z</time>
      </trkpt>
      <trkpt lat="47.73475" lon="4.99248">
        <ele>356.66</ele>
        <time>2022-05-30T07:20:22Z</time>
      </trkpt>
      <trkpt lat="47.73472" lon="4.99248">
        <ele>356.89</ele>
        <time>2022-05-30T07:20:25Z</time>
      </trkpt>
      <trkpt lat="47.73468" lon="4.99248">
        <ele>357.43</ele>
        <time>2022-05-30T07:20:28Z</time>
      </trkpt>
      <trkpt lat="47.73465" lon="4.99248">
        <ele>357.84</ele>
        <time>2022-05-30T07:20:30Z</time>
      </trkpt>
      <trkpt lat="47.73462" lon="4.99247">
        <ele>358.14</ele>
        <time>2022-05-30T07:20:32Z</time>
      </trkpt>
      <trkpt lat="47.73459" lon="4.99246">
        <ele>358.41</ele>
        <time>2022-05-30T07:20:35Z</time>
      </trkpt>
      <trkpt lat="47.73456" lon="4.99245">
        <ele>358.66</ele>
        <time>2022-05-30T07:20:37Z</time>
      </trkpt>
      <trkpt lat="47.73453" lon="4.99245">
        <ele>359.03</ele>
        <time>2022-05-30T07:20:40Z</time>
      </trkpt>
      <trkpt lat="47.73449" lon="4.99244">
        <ele>359.37</ele>
        <time>2022-05-30T07:20:42Z</time>
      </trkpt>
      <trkpt lat="47.73446" lon="4.99243">
        <ele>359.56</ele>
        <time>2022-05-30T07:20:44Z</time>
      </trkpt>
      <trkpt lat="47.73443" lon="4.99242">
        <ele>359.39</ele>
        <time>2022-05-30T07:20:46Z</time>
      </trkpt>
      <trkpt lat="47.7344" lon="4.99242">
        <ele>359.04</ele>
        <time>2022-05-30T07:20:48Z</time>
      </trkpt>
      <trkpt lat="47.73437" lon="4.99242">
        <ele>358.68</ele>
        <time>2022-05-30T07:20:51Z</time>
      </trkpt>
      <trkpt lat="47.73434" lon="4.99241">
        <ele>358.23</ele>
        <time>2022-05-30T07:20:53Z</time>
      </trkpt>
      <trkpt lat="47.73431" lon="4.9924">
        <ele>357.83</ele>
        <time>2022-05-30T07:20:56Z</time>
      </trkpt>
      <trkpt lat="47.73428" lon="4.99239">
        <ele>357.47</ele>
        <time>2022-05-30T07:20:59Z</time>
      </trkpt>
      <trkpt lat="47.73426" lon="4.99238">
        <ele>357.24</ele>
        <time>2022-05-30T07:21:01Z</time>
      </trkpt>
      <trkpt lat="47.73422" lon="4.99237">
        <ele>356.89</ele>
        <time>2022-05-30T07:21:03Z</time>
      </trkpt>
      <trkpt lat="47.73419" lon="4.99236">
        <ele>356.67</ele>
        <time>2022-05-30T07:21:06Z</time>
      </trkpt>
      <trkpt lat="47.73416" lon="4.99235">
        <ele>356.43</ele>
        <time>2022-05-30T07:21:09Z</time>
      </trkpt>
      <trkpt lat="47.73413" lon="4.99233">
        <ele>355.91</ele>
        <time>2022-05-30T07:21:11Z</time>
      </trkpt>
      <trkpt lat="47.7341" lon="4.99232">
        <ele>355.32</ele>
        <time>2022-05-30T07:21:13Z</time>
      </trkpt>
      <trkpt lat="47.73407" lon="4.9923">
        <ele>354.62</ele>
        <time>2022-05-30T07:21:15Z</time>
      </trkpt>
      <trkpt lat="47.73404" lon="4.99229">
        <ele>353.89</ele>
        <time>2022-05-30T07:21:18Z</time>
      </trkpt>
      <trkpt lat="47.73401" lon="4.99229">
        <ele>353.21</ele>
        <time>2022-05-30T07:21:20Z</time>
      </trkpt>
      <trkpt lat="47.73398" lon="4.99229">
        <ele>352.53</ele>
        <time>2022-05-30T07:21:23Z</time>
      </trkpt>
      <trkpt lat="47.73395" lon="4.99228">
        <ele>351.69</ele>
        <time>2022-05-30T07:21:25Z</time>
      </trkpt>
      <trkpt lat="47.73392" lon="4.99227">
        <ele>350.79</ele>
        <time>2022-05-30T07:21:27Z</time>
      </trkpt>
      <trkpt lat="47.73389" lon="4.99226">
        <ele>349.84</ele>
        <time>2022-05-30T07:21:29Z</time>
      </trkpt>
      <trkpt lat="47.73386" lon="4.99225">
        <ele>350.1</ele>
        <time>2022-05-30T07:21:31Z</time>
      </trkpt>
      <trkpt lat="47.73382" lon="4.99223">
        <ele>350.39</ele>
        <time>2022-05-30T07:21:34Z</time>
      </trkpt>
      <trkpt lat="47.73379" lon="4.99223">
        <ele>350.93</ele>
        <time>2022-05-30T07:21:36Z</time>
      </trkpt>
      <trkpt lat="47.73376" lon="4.99222">
        <ele>351.33</ele>
        <time>2022-05-30T07:21:38Z</time>
      </trkpt>
      <trkpt lat="47.73373" lon="4.99221">
        <ele>351.9</ele>
        <time>2022-05-30T07:21:42Z</time>
      </trkpt>
      <trkpt lat="47.73371" lon="4.99221">
        <ele>352.24</ele>
        <time>2022-05-30T07:21:45Z</time>
      </trkpt>
      <trkpt lat="47.73367" lon="4.9922">
        <ele>352.9</ele>
        <time>2022-05-30T07:21:47Z</time>
      </trkpt>
      <trkpt lat="47.73364" lon="4.9922">
        <ele>353.38</ele>
        <time>2022-05-30T07:21:49Z</time>
      </trkpt>
      <trkpt lat="47.73361" lon="4.99219">
        <ele>353.77</ele>
        <time>2022-05-30T07:21:52Z</time>
      </trkpt>
      <trkpt lat="47.73358" lon="4.99219">
        <ele>353.83</ele>
        <time>2022-05-30T07:21:54Z</time>
      </trkpt>
      <trkpt lat="47.73355" lon="4.99218">
        <ele>353.78</ele>
        <time>2022-05-30T07:21:56Z</time>
      </trkpt>
      <trkpt lat="47.73351" lon="4.99217">
        <ele>353.71</ele>
        <time>2022-05-30T07:21:58Z</time>
      </trkpt>
      <trkpt lat="47.73348" lon="4.99217">
        <ele>353.74</ele>
        <time>2022-05-30T07:22:01Z</time>
      </trkpt>
      <trkpt lat="47.73344" lon="4.99216">
        <ele>353.62</ele>
        <time>2022-05-30T07:22:03Z</time>
      </trkpt>
      <trkpt lat="47.73341" lon="4.99216">
        <ele>353.63</ele>
        <time>2022-05-30T07:22:05Z</time>
      </trkpt>
      <trkpt lat="47.73338" lon="4.99216">
        <ele>353.64</ele>
        <time>2022-05-30T07:22:07Z</time>
      </trkpt>
      <trkpt lat="47.73335" lon="4.99216">
        <ele>353.65</ele>
        <time>2022-05-30T07:22:09Z</time>
      </trkpt>
      <trkpt lat="47.73332" lon="4.99216">
        <ele>353.58</ele>
        <time>2022-05-30T07:22:11Z</time>
      </trkpt>
      <trkpt lat="47.73329" lon="4.99215">
        <ele>353.26</ele>
        <time>2022-05-30T07:22:13Z</time>
      </trkpt>
      <trkpt lat="47.73326" lon="4.99215">
        <ele>353.14</ele>
        <time>2022-05-30T07:22:16Z</time>
      </trkpt>
      <trkpt lat="47.73323" lon="4.99215">
        <ele>353.02</ele>
        <time>2022-05-30T07:22:19Z</time>
      </trkpt>
      <trkpt lat="47.7332" lon="4.99215">
        <ele>352.89</ele>
        <time>2022-05-30T07:22:21Z</time>
      </trkpt>
      <trkpt lat="47.73316" lon="4.99215">
        <ele>352.73</ele>
        <time>2022-05-30T07:22:24Z</time>
      </trkpt>
      <trkpt lat="47.73314" lon="4.99215">
        <ele>352.65</ele>
        <time>2022-05-30T07:22:25Z</time>
      </trkpt>
      <trkpt lat="47.73311" lon="4.99215">
        <ele>352.52</ele>
        <time>2022-05-30T07:22:28Z</time>
      </trkpt>
      <trkpt lat="47.73308" lon="4.99215">
        <ele>352.4</ele>
        <time>2022-05-30T07:22:29Z</time>
      </trkpt>
      <trkpt lat="47.73305" lon="4.99214">
        <ele>352.5</ele>
        <time>2022-05-30T07:22:32Z</time>
      </trkpt>
      <trkpt lat="47.73302" lon="4.99214">
        <ele>352.58</ele>
        <time>2022-05-30T07:22:34Z</time>
      </trkpt>
      <trkpt lat="47.73298" lon="4.99213">
        <ele>352.84</ele>
        <time>2022-05-30T07:22:36Z</time>
      </trkpt>
      <trkpt lat="47.73295" lon="4.99213">
        <ele>352.92</ele>
        <time>2022-05-30T07:22:38Z</time>
      </trkpt>
      <trkpt lat="47.73292" lon="4.99213">
        <ele>352.99</ele>
        <time>2022-05-30T07:22:42Z</time>
      </trkpt>
      <trkpt lat="47.73288" lon="4.99214">
        <ele>353</ele>
        <time>2022-05-30T07:22:44Z</time>
      </trkpt>
      <trkpt lat="47.73285" lon="4.99214">
        <ele>353.08</ele>
        <time>2022-05-30T07:22:47Z</time>
      </trkpt>
      <trkpt lat="47.73281" lon="4.99214">
        <ele>353.2</ele>
        <time>2022-05-30T07:22:49Z</time>
      </trkpt>
      <trkpt lat="47.73279" lon="4.99214">
        <ele>353.26</ele>
        <time>2022-05-30T07:22:51Z</time>
      </trkpt>
      <trkpt lat="47.73276" lon="4.99214">
        <ele>353.64</ele>
        <time>2022-05-30T07:22:53Z</time>
      </trkpt>
      <trkpt lat="47.73273" lon="4.99214">
        <ele>354.23</ele>
        <time>2022-05-30T07:22:56Z</time>
      </trkpt>
      <trkpt lat="47.7327" lon="4.99214">
        <ele>354.81</ele>
        <time>2022-05-30T07:22:58Z</time>
      </trkpt>
      <trkpt lat="47.73267" lon="4.99214">
        <ele>355.39</ele>
        <time>2022-05-30T07:23:00Z</time>
      </trkpt>
      <trkpt lat="47.73264" lon="4.99214">
        <ele>355.98</ele>
        <time>2022-05-30T07:23:03Z</time>
      </trkpt>
      <trkpt lat="47.7326" lon="4.99214">
        <ele>356.76</ele>
        <time>2022-05-30T07:23:05Z</time>
      </trkpt>
      <trkpt lat="47.73257" lon="4.99215">
        <ele>357.36</ele>
        <time>2022-05-30T07:23:06Z</time>
      </trkpt>
      <trkpt lat="47.73254" lon="4.99215">
        <ele>357.95</ele>
        <time>2022-05-30T07:23:09Z</time>
      </trkpt>
      <trkpt lat="47.73251" lon="4.99214">
        <ele>358.51</ele>
        <time>2022-05-30T07:23:11Z</time>
      </trkpt>
      <trkpt lat="47.73248" lon="4.99215">
        <ele>359.24</ele>
        <time>2022-05-30T07:23:13Z</time>
      </trkpt>
      <trkpt lat="47.73245" lon="4.99215">
        <ele>360</ele>
        <time>2022-05-30T07:23:16Z</time>
      </trkpt>
      <trkpt lat="47.73242" lon="4.99215">
        <ele>360.76</ele>
        <time>2022-05-30T07:23:19Z</time>
      </trkpt>
      <trkpt lat="47.73239" lon="4.99215">
        <ele>361.51</ele>
        <time>2022-05-30T07:23:20Z</time>
      </trkpt>
      <trkpt lat="47.73235" lon="4.99215">
        <ele>362.52</ele>
        <time>2022-05-30T07:23:23Z</time>
      </trkpt>
      <trkpt lat="47.73232" lon="4.99215">
        <ele>363.28</ele>
        <time>2022-05-30T07:23:25Z</time>
      </trkpt>
      <trkpt lat="47.73229" lon="4.99216">
        <ele>364.07</ele>
        <time>2022-05-30T07:23:27Z</time>
      </trkpt>
      <trkpt lat="47.73226" lon="4.99216">
        <ele>364.82</ele>
        <time>2022-05-30T07:23:30Z</time>
      </trkpt>
      <trkpt lat="47.73222" lon="4.99216">
        <ele>365.76</ele>
        <time>2022-05-30T07:23:32Z</time>
      </trkpt>
      <trkpt lat="47.73219" lon="4.99216">
        <ele>365.54</ele>
        <time>2022-05-30T07:23:35Z</time>
      </trkpt>
      <trkpt lat="47.73216" lon="4.99216">
        <ele>365.33</ele>
        <time>2022-05-30T07:23:37Z</time>
      </trkpt>
      <trkpt lat="47.73213" lon="4.99216">
        <ele>365.11</ele>
        <time>2022-05-30T07:23:39Z</time>
      </trkpt>
      <trkpt lat="47.73209" lon="4.99215">
        <ele>364.79</ele>
        <time>2022-05-30T07:23:41Z</time>
      </trkpt>
      <trkpt lat="47.73206" lon="4.99216">
        <ele>364.61</ele>
        <time>2022-05-30T07:23:44Z</time>
      </trkpt>
      <trkpt lat="47.73203" lon="4.99216">
        <ele>364.39</ele>
        <time>2022-05-30T07:23:47Z</time>
      </trkpt>
      <trkpt lat="47.732" lon="4.99216">
        <ele>364.18</ele>
        <time>2022-05-30T07:23:49Z</time>
      </trkpt>
      <trkpt lat="47.73196" lon="4.99217">
        <ele>363.92</ele>
        <time>2022-05-30T07:23:52Z</time>
      </trkpt>
      <trkpt lat="47.73193" lon="4.99217">
        <ele>363.8</ele>
        <time>2022-05-30T07:23:54Z</time>
      </trkpt>
      <trkpt lat="47.7319" lon="4.99219">
        <ele>363.87</ele>
        <time>2022-05-30T07:23:57Z</time>
      </trkpt>
      <trkpt lat="47.73187" lon="4.9922">
        <ele>363.9</ele>
        <time>2022-05-30T07:24:00Z</time>
      </trkpt>
      <trkpt lat="47.73184" lon="4.99221">
        <ele>363.94</ele>
        <time>2022-05-30T07:24:02Z</time>
      </trkpt>
      <trkpt lat="47.73181" lon="4.99222">
        <ele>363.99</ele>
        <time>2022-05-30T07:24:04Z</time>
      </trkpt>
      <trkpt lat="47.73178" lon="4.99224">
        <ele>363.85</ele>
        <time>2022-05-30T07:24:07Z</time>
      </trkpt>
      <trkpt lat="47.73175" lon="4.99225">
        <ele>363.72</ele>
        <time>2022-05-30T07:24:10Z</time>
      </trkpt>
      <trkpt lat="47.73172" lon="4.99227">
        <ele>363.44</ele>
        <time>2022-05-30T07:24:12Z</time>
      </trkpt>
      <trkpt lat="47.7317" lon="4.99229">
        <ele>363.14</ele>
        <time>2022-05-30T07:24:14Z</time>
      </trkpt>
      <trkpt lat="47.73167" lon="4.99231">
        <ele>362.75</ele>
        <time>2022-05-30T07:24:16Z</time>
      </trkpt>
      <trkpt lat="47.73165" lon="4.99235">
        <ele>361.81</ele>
        <time>2022-05-30T07:24:19Z</time>
      </trkpt>
      <trkpt lat="47.73162" lon="4.99238">
        <ele>360.88</ele>
        <time>2022-05-30T07:24:21Z</time>
      </trkpt>
      <trkpt lat="47.7316" lon="4.99241">
        <ele>360.27</ele>
        <time>2022-05-30T07:24:23Z</time>
      </trkpt>
      <trkpt lat="47.73157" lon="4.99244">
        <ele>359.64</ele>
        <time>2022-05-30T07:24:27Z</time>
      </trkpt>
      <trkpt lat="47.73155" lon="4.99247">
        <ele>359.27</ele>
        <time>2022-05-30T07:24:28Z</time>
      </trkpt>
      <trkpt lat="47.73153" lon="4.9925">
        <ele>359.02</ele>
        <time>2022-05-30T07:24:31Z</time>
      </trkpt>
      <trkpt lat="47.7315" lon="4.99253">
        <ele>359.36</ele>
        <time>2022-05-30T07:24:33Z</time>
      </trkpt>
      <trkpt lat="47.73148" lon="4.99256">
        <ele>359.73</ele>
        <time>2022-05-30T07:24:35Z</time>
      </trkpt>
      <trkpt lat="47.73145" lon="4.9926">
        <ele>360.12</ele>
        <time>2022-05-30T07:24:38Z</time>
      </trkpt>
      <trkpt lat="47.73143" lon="4.99263">
        <ele>360.38</ele>
        <time>2022-05-30T07:24:40Z</time>
      </trkpt>
      <trkpt lat="47.73141" lon="4.99266">
        <ele>360.59</ele>
        <time>2022-05-30T07:24:42Z</time>
      </trkpt>
      <trkpt lat="47.73139" lon="4.99269">
        <ele>360.75</ele>
        <time>2022-05-30T07:24:45Z</time>
      </trkpt>
      <trkpt lat="47.73138" lon="4.99273">
        <ele>361.2</ele>
        <time>2022-05-30T07:24:47Z</time>
      </trkpt>
      <trkpt lat="47.73135" lon="4.99276">
        <ele>361.2</ele>
        <time>2022-05-30T07:24:49Z</time>
      </trkpt>
      <trkpt lat="47.73133" lon="4.99279">
        <ele>361.29</ele>
        <time>2022-05-30T07:24:52Z</time>
      </trkpt>
      <trkpt lat="47.73131" lon="4.99283">
        <ele>361.48</ele>
        <time>2022-05-30T07:24:54Z</time>
      </trkpt>
      <trkpt lat="47.73129" lon="4.99286">
        <ele>361.57</ele>
        <time>2022-05-30T07:24:56Z</time>
      </trkpt>
      <trkpt lat="47.73126" lon="4.9929">
        <ele>361.67</ele>
        <time>2022-05-30T07:24:59Z</time>
      </trkpt>
      <trkpt lat="47.73124" lon="4.99292">
        <ele>361.67</ele>
        <time>2022-05-30T07:25:01Z</time>
      </trkpt>
      <trkpt lat="47.73122" lon="4.99295">
        <ele>361.8</ele>
        <time>2022-05-30T07:25:03Z</time>
      </trkpt>
      <trkpt lat="47.7312" lon="4.99299">
        <ele>362.09</ele>
        <time>2022-05-30T07:25:05Z</time>
      </trkpt>
      <trkpt lat="47.73119" lon="4.99303">
        <ele>362.51</ele>
        <time>2022-05-30T07:25:08Z</time>
      </trkpt>
      <trkpt lat="47.73117" lon="4.99306">
        <ele>362.67</ele>
        <time>2022-05-30T07:25:11Z</time>
      </trkpt>
      <trkpt lat="47.73116" lon="4.99311">
        <ele>362.92</ele>
        <time>2022-05-30T07:25:13Z</time>
      </trkpt>
      <trkpt lat="47.73114" lon="4.99315">
        <ele>362.99</ele>
        <time>2022-05-30T07:25:16Z</time>
      </trkpt>
      <trkpt lat="47.73112" lon="4.99319">
        <ele>363.06</ele>
        <time>2022-05-30T07:25:19Z</time>
      </trkpt>
      <trkpt lat="47.7311" lon="4.99323">
        <ele>363.15</ele>
        <time>2022-05-30T07:25:23Z</time>
      </trkpt>
      <trkpt lat="47.73108" lon="4.99326">
        <ele>363.17</ele>
        <time>2022-05-30T07:25:26Z</time>
      </trkpt>
      <trkpt lat="47.73106" lon="4.9933">
        <ele>363.23</ele>
        <time>2022-05-30T07:25:28Z</time>
      </trkpt>
      <trkpt lat="47.73104" lon="4.99333">
        <ele>363.21</ele>
        <time>2022-05-30T07:25:31Z</time>
      </trkpt>
      <trkpt lat="47.73102" lon="4.99337">
        <ele>363.19</ele>
        <time>2022-05-30T07:25:34Z</time>
      </trkpt>
      <trkpt lat="47.73101" lon="4.99341">
        <ele>363.28</ele>
        <time>2022-05-30T07:25:37Z</time>
      </trkpt>
      <trkpt lat="47.731" lon="4.99344">
        <ele>363.34</ele>
        <time>2022-05-30T07:25:39Z</time>
      </trkpt>
      <trkpt lat="47.73098" lon="4.99348">
        <ele>363.36</ele>
        <time>2022-05-30T07:25:41Z</time>
      </trkpt>
      <trkpt lat="47.73097" lon="4.99351">
        <ele>363.44</ele>
        <time>2022-05-30T07:25:44Z</time>
      </trkpt>
      <trkpt lat="47.73095" lon="4.99356">
        <ele>363.55</ele>
        <time>2022-05-30T07:25:46Z</time>
      </trkpt>
      <trkpt lat="47.73094" lon="4.99361">
        <ele>363.76</ele>
        <time>2022-05-30T07:25:48Z</time>
      </trkpt>
      <trkpt lat="47.73093" lon="4.99365">
        <ele>364.02</ele>
        <time>2022-05-30T07:25:50Z</time>
      </trkpt>
      <trkpt lat="47.73092" lon="4.99369">
        <ele>364.28</ele>
        <time>2022-05-30T07:25:52Z</time>
      </trkpt>
      <trkpt lat="47.73091" lon="4.99373">
        <ele>364.53</ele>
        <time>2022-05-30T07:25:54Z</time>
      </trkpt>
      <trkpt lat="47.73089" lon="4.99377">
        <ele>364.67</ele>
        <time>2022-05-30T07:25:56Z</time>
      </trkpt>
      <trkpt lat="47.73087" lon="4.99381">
        <ele>364.79</ele>
        <time>2022-05-30T07:25:58Z</time>
      </trkpt>
      <trkpt lat="47.73086" lon="4.99385">
        <ele>364.99</ele>
        <time>2022-05-30T07:26:00Z</time>
      </trkpt>
      <trkpt lat="47.73083" lon="4.9939">
        <ele>364.87</ele>
        <time>2022-05-30T07:26:04Z</time>
      </trkpt>
      <trkpt lat="47.73081" lon="4.99393">
        <ele>364.37</ele>
        <time>2022-05-30T07:26:05Z</time>
      </trkpt>
      <trkpt lat="47.73079" lon="4.99398">
        <ele>363.72</ele>
        <time>2022-05-30T07:26:08Z</time>
      </trkpt>
      <trkpt lat="47.73077" lon="4.99402">
        <ele>363.14</ele>
        <time>2022-05-30T07:26:11Z</time>
      </trkpt>
      <trkpt lat="47.73075" lon="4.99406">
        <ele>362.57</ele>
        <time>2022-05-30T07:26:13Z</time>
      </trkpt>
      <trkpt lat="47.73073" lon="4.99408">
        <ele>362.14</ele>
        <time>2022-05-30T07:26:15Z</time>
      </trkpt>
      <trkpt lat="47.7307" lon="4.99411">
        <ele>361.49</ele>
        <time>2022-05-30T07:26:18Z</time>
      </trkpt>
      <trkpt lat="47.73068" lon="4.99415">
        <ele>360.91</ele>
        <time>2022-05-30T07:26:20Z</time>
      </trkpt>
      <trkpt lat="47.73065" lon="4.99418">
        <ele>360.33</ele>
        <time>2022-05-30T07:26:22Z</time>
      </trkpt>
      <trkpt lat="47.73063" lon="4.99421">
        <ele>359.96</ele>
        <time>2022-05-30T07:26:24Z</time>
      </trkpt>
      <trkpt lat="47.73061" lon="4.99424">
        <ele>359.57</ele>
        <time>2022-05-30T07:26:26Z</time>
      </trkpt>
      <trkpt lat="47.7306" lon="4.99428">
        <ele>359.3</ele>
        <time>2022-05-30T07:26:28Z</time>
      </trkpt>
      <trkpt lat="47.73057" lon="4.99431">
        <ele>358.72</ele>
        <time>2022-05-30T07:26:32Z</time>
      </trkpt>
      <trkpt lat="47.73054" lon="4.99435">
        <ele>358.3</ele>
        <time>2022-05-30T07:26:34Z</time>
      </trkpt>
      <trkpt lat="47.73052" lon="4.99438">
        <ele>358.13</ele>
        <time>2022-05-30T07:26:36Z</time>
      </trkpt>
      <trkpt lat="47.7305" lon="4.99442">
        <ele>357.91</ele>
        <time>2022-05-30T07:26:39Z</time>
      </trkpt>
      <trkpt lat="47.73048" lon="4.99445">
        <ele>357.75</ele>
        <time>2022-05-30T07:26:40Z</time>
      </trkpt>
      <trkpt lat="47.73046" lon="4.99448">
        <ele>357.78</ele>
        <time>2022-05-30T07:26:44Z</time>
      </trkpt>
      <trkpt lat="47.73044" lon="4.99452">
        <ele>357.86</ele>
        <time>2022-05-30T07:26:46Z</time>
      </trkpt>
      <trkpt lat="47.73042" lon="4.99455">
        <ele>357.89</ele>
        <time>2022-05-30T07:26:49Z</time>
      </trkpt>
      <trkpt lat="47.7304" lon="4.99458">
        <ele>357.93</ele>
        <time>2022-05-30T07:26:51Z</time>
      </trkpt>
      <trkpt lat="47.73038" lon="4.9946">
        <ele>357.93</ele>
        <time>2022-05-30T07:26:54Z</time>
      </trkpt>
      <trkpt lat="47.73035" lon="4.99463">
        <ele>357.93</ele>
        <time>2022-05-30T07:26:56Z</time>
      </trkpt>
      <trkpt lat="47.73032" lon="4.99465">
        <ele>357.89</ele>
        <time>2022-05-30T07:26:59Z</time>
      </trkpt>
      <trkpt lat="47.73029" lon="4.99468">
        <ele>357.89</ele>
        <time>2022-05-30T07:27:01Z</time>
      </trkpt>
      <trkpt lat="47.73026" lon="4.99469">
        <ele>358.05</ele>
        <time>2022-05-30T07:27:04Z</time>
      </trkpt>
      <trkpt lat="47.73023" lon="4.9947">
        <ele>358.39</ele>
        <time>2022-05-30T07:27:06Z</time>
      </trkpt>
      <trkpt lat="47.7302" lon="4.99471">
        <ele>358.76</ele>
        <time>2022-05-30T07:27:09Z</time>
      </trkpt>
      <trkpt lat="47.73017" lon="4.99471">
        <ele>359.07</ele>
        <time>2022-05-30T07:27:11Z</time>
      </trkpt>
      <trkpt lat="47.73014" lon="4.99471">
        <ele>359.38</ele>
        <time>2022-05-30T07:27:13Z</time>
      </trkpt>
      <trkpt lat="47.73011" lon="4.99471">
        <ele>359.69</ele>
        <time>2022-05-30T07:27:16Z</time>
      </trkpt>
      <trkpt lat="47.73008" lon="4.99471">
        <ele>360</ele>
        <time>2022-05-30T07:27:19Z</time>
      </trkpt>
      <trkpt lat="47.73005" lon="4.99472">
        <ele>360.43</ele>
        <time>2022-05-30T07:27:21Z</time>
      </trkpt>
      <trkpt lat="47.73002" lon="4.99472">
        <ele>360.75</ele>
        <time>2022-05-30T07:27:24Z</time>
      </trkpt>
      <trkpt lat="47.72999" lon="4.99472">
        <ele>361.08</ele>
        <time>2022-05-30T07:27:27Z</time>
      </trkpt>
      <trkpt lat="47.72996" lon="4.99473">
        <ele>361.54</ele>
        <time>2022-05-30T07:27:29Z</time>
      </trkpt>
      <trkpt lat="47.72993" lon="4.99474">
        <ele>361.98</ele>
        <time>2022-05-30T07:27:32Z</time>
      </trkpt>
      <trkpt lat="47.72989" lon="4.99474">
        <ele>362.39</ele>
        <time>2022-05-30T07:27:34Z</time>
      </trkpt>
      <trkpt lat="47.72986" lon="4.99474">
        <ele>362.7</ele>
        <time>2022-05-30T07:27:37Z</time>
      </trkpt>
      <trkpt lat="47.72984" lon="4.99475">
        <ele>363.01</ele>
        <time>2022-05-30T07:27:40Z</time>
      </trkpt>
      <trkpt lat="47.7298" lon="4.99477">
        <ele>363.6</ele>
        <time>2022-05-30T07:27:44Z</time>
      </trkpt>
      <trkpt lat="47.72977" lon="4.99478">
        <ele>363.97</ele>
        <time>2022-05-30T07:27:46Z</time>
      </trkpt>
      <trkpt lat="47.72974" lon="4.99478">
        <ele>364.25</ele>
        <time>2022-05-30T07:27:48Z</time>
      </trkpt>
      <trkpt lat="47.72971" lon="4.99479">
        <ele>364.45</ele>
        <time>2022-05-30T07:27:51Z</time>
      </trkpt>
      <trkpt lat="47.72967" lon="4.9948">
        <ele>364.42</ele>
        <time>2022-05-30T07:27:55Z</time>
      </trkpt>
      <trkpt lat="47.72964" lon="4.99481">
        <ele>364.43</ele>
        <time>2022-05-30T07:27:57Z</time>
      </trkpt>
      <trkpt lat="47.72962" lon="4.99482">
        <ele>364.47</ele>
        <time>2022-05-30T07:28:00Z</time>
      </trkpt>
      <trkpt lat="47.72959" lon="4.99484">
        <ele>364.57</ele>
        <time>2022-05-30T07:28:03Z</time>
      </trkpt>
      <trkpt lat="47.72956" lon="4.99485">
        <ele>364.6</ele>
        <time>2022-05-30T07:28:06Z</time>
      </trkpt>
      <trkpt lat="47.72953" lon="4.99487">
        <ele>364.74</ele>
        <time>2022-05-30T07:28:09Z</time>
      </trkpt>
      <trkpt lat="47.7295" lon="4.99488">
        <ele>364.79</ele>
        <time>2022-05-30T07:28:12Z</time>
      </trkpt>
      <trkpt lat="47.72947" lon="4.99489">
        <ele>364.85</ele>
        <time>2022-05-30T07:28:14Z</time>
      </trkpt>
      <trkpt lat="47.72944" lon="4.9949">
        <ele>364.86</ele>
        <time>2022-05-30T07:28:18Z</time>
      </trkpt>
      <trkpt lat="47.72942" lon="4.99492">
        <ele>364.77</ele>
        <time>2022-05-30T07:28:20Z</time>
      </trkpt>
      <trkpt lat="47.72939" lon="4.99493">
        <ele>364.41</ele>
        <time>2022-05-30T07:28:22Z</time>
      </trkpt>
      <trkpt lat="47.72936" lon="4.99494">
        <ele>364.03</ele>
        <time>2022-05-30T07:28:25Z</time>
      </trkpt>
      <trkpt lat="47.72933" lon="4.99495">
        <ele>363.62</ele>
        <time>2022-05-30T07:28:28Z</time>
      </trkpt>
      <trkpt lat="47.7293" lon="4.99497">
        <ele>363.24</ele>
        <time>2022-05-30T07:28:30Z</time>
      </trkpt>
      <trkpt lat="47.72928" lon="4.99499">
        <ele>363</ele>
        <time>2022-05-30T07:28:33Z</time>
      </trkpt>
      <trkpt lat="47.72925" lon="4.99502">
        <ele>362.77</ele>
        <time>2022-05-30T07:28:36Z</time>
      </trkpt>
      <trkpt lat="47.72922" lon="4.99504">
        <ele>362.51</ele>
        <time>2022-05-30T07:28:39Z</time>
      </trkpt>
      <trkpt lat="47.7292" lon="4.99506">
        <ele>362.44</ele>
        <time>2022-05-30T07:28:42Z</time>
      </trkpt>
      <trkpt lat="47.72917" lon="4.99509">
        <ele>362.35</ele>
        <time>2022-05-30T07:28:46Z</time>
      </trkpt>
      <trkpt lat="47.72915" lon="4.99512">
        <ele>362.78</ele>
        <time>2022-05-30T07:28:52Z</time>
      </trkpt>
      <trkpt lat="47.72912" lon="4.99515">
        <ele>363.21</ele>
        <time>2022-05-30T07:28:55Z</time>
      </trkpt>
      <trkpt lat="47.7291" lon="4.99517">
        <ele>363.43</ele>
        <time>2022-05-30T07:28:56Z</time>
      </trkpt>
      <trkpt lat="47.72907" lon="4.99519">
        <ele>363.59</ele>
        <time>2022-05-30T07:28:59Z</time>
      </trkpt>
      <trkpt lat="47.72905" lon="4.99521">
        <ele>363.7</ele>
        <time>2022-05-30T07:29:01Z</time>
      </trkpt>
      <trkpt lat="47.72901" lon="4.99524">
        <ele>363.71</ele>
        <time>2022-05-30T07:29:03Z</time>
      </trkpt>
      <trkpt lat="47.72898" lon="4.99526">
        <ele>363.62</ele>
        <time>2022-05-30T07:29:06Z</time>
      </trkpt>
      <trkpt lat="47.72896" lon="4.99528">
        <ele>363.53</ele>
        <time>2022-05-30T07:29:09Z</time>
      </trkpt>
      <trkpt lat="47.72893" lon="4.9953">
        <ele>363.41</ele>
        <time>2022-05-30T07:29:10Z</time>
      </trkpt>
      <trkpt lat="47.7289" lon="4.99533">
        <ele>363.29</ele>
        <time>2022-05-30T07:29:13Z</time>
      </trkpt>
      <trkpt lat="47.72888" lon="4.99535">
        <ele>363.4</ele>
        <time>2022-05-30T07:29:15Z</time>
      </trkpt>
      <trkpt lat="47.72885" lon="4.99537">
        <ele>363.94</ele>
        <time>2022-05-30T07:29:17Z</time>
      </trkpt>
      <trkpt lat="47.72882" lon="4.9954">
        <ele>364.54</ele>
        <time>2022-05-30T07:29:20Z</time>
      </trkpt>
      <trkpt lat="47.72879" lon="4.99542">
        <ele>365.12</ele>
        <time>2022-05-30T07:29:22Z</time>
      </trkpt>
      <trkpt lat="47.72877" lon="4.99545">
        <ele>365.6</ele>
        <time>2022-05-30T07:29:24Z</time>
      </trkpt>
      <trkpt lat="47.72874" lon="4.99548">
        <ele>366.26</ele>
        <time>2022-05-30T07:29:27Z</time>
      </trkpt>
      <trkpt lat="47.72872" lon="4.99552">
        <ele>366.83</ele>
        <time>2022-05-30T07:29:31Z</time>
      </trkpt>
      <trkpt lat="47.72869" lon="4.99555">
        <ele>367.55</ele>
        <time>2022-05-30T07:29:34Z</time>
      </trkpt>
      <trkpt lat="47.72867" lon="4.99557">
        <ele>368.15</ele>
        <time>2022-05-30T07:29:35Z</time>
      </trkpt>
      <trkpt lat="47.72865" lon="4.99561">
        <ele>369.03</ele>
        <time>2022-05-30T07:29:38Z</time>
      </trkpt>
      <trkpt lat="47.72863" lon="4.99564">
        <ele>369.68</ele>
        <time>2022-05-30T07:29:40Z</time>
      </trkpt>
      <trkpt lat="47.72861" lon="4.99567">
        <ele>370.24</ele>
        <time>2022-05-30T07:29:42Z</time>
      </trkpt>
      <trkpt lat="47.72858" lon="4.99571">
        <ele>370.82</ele>
        <time>2022-05-30T07:29:45Z</time>
      </trkpt>
      <trkpt lat="47.72856" lon="4.99574">
        <ele>371.18</ele>
        <time>2022-05-30T07:29:48Z</time>
      </trkpt>
      <trkpt lat="47.72853" lon="4.99576">
        <ele>371.44</ele>
        <time>2022-05-30T07:29:51Z</time>
      </trkpt>
      <trkpt lat="47.7285" lon="4.99579">
        <ele>371.72</ele>
        <time>2022-05-30T07:29:54Z</time>
      </trkpt>
      <trkpt lat="47.72848" lon="4.99582">
        <ele>371.92</ele>
        <time>2022-05-30T07:29:56Z</time>
      </trkpt>
      <trkpt lat="47.72846" lon="4.99585">
        <ele>372.09</ele>
        <time>2022-05-30T07:29:59Z</time>
      </trkpt>
      <trkpt lat="47.72844" lon="4.99588">
        <ele>372.23</ele>
        <time>2022-05-30T07:30:02Z</time>
      </trkpt>
      <trkpt lat="47.72842" lon="4.99591">
        <ele>372.36</ele>
        <time>2022-05-30T07:30:04Z</time>
      </trkpt>
      <trkpt lat="47.7284" lon="4.99595">
        <ele>372.52</ele>
        <time>2022-05-30T07:30:06Z</time>
      </trkpt>
      <trkpt lat="47.72838" lon="4.99599">
        <ele>372.66</ele>
        <time>2022-05-30T07:30:10Z</time>
      </trkpt>
      <trkpt lat="47.72836" lon="4.99603">
        <ele>372.78</ele>
        <time>2022-05-30T07:30:12Z</time>
      </trkpt>
      <trkpt lat="47.72834" lon="4.99607">
        <ele>372.87</ele>
        <time>2022-05-30T07:30:16Z</time>
      </trkpt>
      <trkpt lat="47.72832" lon="4.99609">
        <ele>372.97</ele>
        <time>2022-05-30T07:30:17Z</time>
      </trkpt>
      <trkpt lat="47.72829" lon="4.99611">
        <ele>373.15</ele>
        <time>2022-05-30T07:30:20Z</time>
      </trkpt>
      <trkpt lat="47.72827" lon="4.99614">
        <ele>373.6</ele>
        <time>2022-05-30T07:30:22Z</time>
      </trkpt>
      <trkpt lat="47.72824" lon="4.99616">
        <ele>373.92</ele>
        <time>2022-05-30T07:30:24Z</time>
      </trkpt>
      <trkpt lat="47.72822" lon="4.99619">
        <ele>374.31</ele>
        <time>2022-05-30T07:30:27Z</time>
      </trkpt>
      <trkpt lat="47.7282" lon="4.99622">
        <ele>374.67</ele>
        <time>2022-05-30T07:30:29Z</time>
      </trkpt>
      <trkpt lat="47.72818" lon="4.99626">
        <ele>375.1</ele>
        <time>2022-05-30T07:30:31Z</time>
      </trkpt>
      <trkpt lat="47.72816" lon="4.99629">
        <ele>375.4</ele>
        <time>2022-05-30T07:30:34Z</time>
      </trkpt>
      <trkpt lat="47.72814" lon="4.99632">
        <ele>375.66</ele>
        <time>2022-05-30T07:30:35Z</time>
      </trkpt>
      <trkpt lat="47.72811" lon="4.99634">
        <ele>375.78</ele>
        <time>2022-05-30T07:30:39Z</time>
      </trkpt>
      <trkpt lat="47.72809" lon="4.99638">
        <ele>376.05</ele>
        <time>2022-05-30T07:30:42Z</time>
      </trkpt>
      <trkpt lat="47.72807" lon="4.99641">
        <ele>376.36</ele>
        <time>2022-05-30T07:30:44Z</time>
      </trkpt>
      <trkpt lat="47.72805" lon="4.99644">
        <ele>376.74</ele>
        <time>2022-05-30T07:30:48Z</time>
      </trkpt>
      <trkpt lat="47.72803" lon="4.99647">
        <ele>377.15</ele>
        <time>2022-05-30T07:30:51Z</time>
      </trkpt>
      <trkpt lat="47.72801" lon="4.99651">
        <ele>377.62</ele>
        <time>2022-05-30T07:30:53Z</time>
      </trkpt>
      <trkpt lat="47.72798" lon="4.99654">
        <ele>377.86</ele>
        <time>2022-05-30T07:30:56Z</time>
      </trkpt>
      <trkpt lat="47.72796" lon="4.99656">
        <ele>377.96</ele>
        <time>2022-05-30T07:30:58Z</time>
      </trkpt>
      <trkpt lat="47.72793" lon="4.99659">
        <ele>378.04</ele>
        <time>2022-05-30T07:31:00Z</time>
      </trkpt>
      <trkpt lat="47.7279" lon="4.99663">
        <ele>378.09</ele>
        <time>2022-05-30T07:31:02Z</time>
      </trkpt>
      <trkpt lat="47.72788" lon="4.99666">
        <ele>378.07</ele>
        <time>2022-05-30T07:31:05Z</time>
      </trkpt>
      <trkpt lat="47.72786" lon="4.99669">
        <ele>378.22</ele>
        <time>2022-05-30T07:31:07Z</time>
      </trkpt>
      <trkpt lat="47.72783" lon="4.99673">
        <ele>378.48</ele>
        <time>2022-05-30T07:31:10Z</time>
      </trkpt>
      <trkpt lat="47.72782" lon="4.99676">
        <ele>378.8</ele>
        <time>2022-05-30T07:31:12Z</time>
      </trkpt>
      <trkpt lat="47.72779" lon="4.99679">
        <ele>378.91</ele>
        <time>2022-05-30T07:31:14Z</time>
      </trkpt>
      <trkpt lat="47.72778" lon="4.99682">
        <ele>379.23</ele>
        <time>2022-05-30T07:31:16Z</time>
      </trkpt>
      <trkpt lat="47.72776" lon="4.99686">
        <ele>379.6</ele>
        <time>2022-05-30T07:31:19Z</time>
      </trkpt>
      <trkpt lat="47.72773" lon="4.99689">
        <ele>379.59</ele>
        <time>2022-05-30T07:31:21Z</time>
      </trkpt>
      <trkpt lat="47.72771" lon="4.99691">
        <ele>379.5</ele>
        <time>2022-05-30T07:31:23Z</time>
      </trkpt>
      <trkpt lat="47.72768" lon="4.99693">
        <ele>379.16</ele>
        <time>2022-05-30T07:31:25Z</time>
      </trkpt>
      <trkpt lat="47.72765" lon="4.99696">
        <ele>378.73</ele>
        <time>2022-05-30T07:31:28Z</time>
      </trkpt>
      <trkpt lat="47.72762" lon="4.99698">
        <ele>378.22</ele>
        <time>2022-05-30T07:31:30Z</time>
      </trkpt>
      <trkpt lat="47.7276" lon="4.99699">
        <ele>377.86</ele>
        <time>2022-05-30T07:31:32Z</time>
      </trkpt>
      <trkpt lat="47.72757" lon="4.99701">
        <ele>377.32</ele>
        <time>2022-05-30T07:31:35Z</time>
      </trkpt>
      <trkpt lat="47.72754" lon="4.99703">
        <ele>376.76</ele>
        <time>2022-05-30T07:31:37Z</time>
      </trkpt>
      <trkpt lat="47.72752" lon="4.99705">
        <ele>376.39</ele>
        <time>2022-05-30T07:31:40Z</time>
      </trkpt>
      <trkpt lat="47.72749" lon="4.99707">
        <ele>376.18</ele>
        <time>2022-05-30T07:31:51Z</time>
      </trkpt>
      <trkpt lat="47.72747" lon="4.99709">
        <ele>376.53</ele>
        <time>2022-05-30T07:31:56Z</time>
      </trkpt>
      <trkpt lat="47.72744" lon="4.99711">
        <ele>377.04</ele>
        <time>2022-05-30T07:31:58Z</time>
      </trkpt>
      <trkpt lat="47.72741" lon="4.99712">
        <ele>377.53</ele>
        <time>2022-05-30T07:32:00Z</time>
      </trkpt>
      <trkpt lat="47.72738" lon="4.99714">
        <ele>377.98</ele>
        <time>2022-05-30T07:32:02Z</time>
      </trkpt>
      <trkpt lat="47.72735" lon="4.99717">
        <ele>378.36</ele>
        <time>2022-05-30T07:32:03Z</time>
      </trkpt>
      <trkpt lat="47.72732" lon="4.99719">
        <ele>378.74</ele>
        <time>2022-05-30T07:32:05Z</time>
      </trkpt>
      <trkpt lat="47.72728" lon="4.99723">
        <ele>379.1</ele>
        <time>2022-05-30T07:32:08Z</time>
      </trkpt>
      <trkpt lat="47.72724" lon="4.99725">
        <ele>379.39</ele>
        <time>2022-05-30T07:32:09Z</time>
      </trkpt>
      <trkpt lat="47.72721" lon="4.99726">
        <ele>379.45</ele>
        <time>2022-05-30T07:32:11Z</time>
      </trkpt>
      <trkpt lat="47.72718" lon="4.99728">
        <ele>379.14</ele>
        <time>2022-05-30T07:32:16Z</time>
      </trkpt>
      <trkpt lat="47.72715" lon="4.9973">
        <ele>378.81</ele>
        <time>2022-05-30T07:32:18Z</time>
      </trkpt>
      <trkpt lat="47.72713" lon="4.99732">
        <ele>378.48</ele>
        <time>2022-05-30T07:32:20Z</time>
      </trkpt>
      <trkpt lat="47.72709" lon="4.99733">
        <ele>378.26</ele>
        <time>2022-05-30T07:32:22Z</time>
      </trkpt>
      <trkpt lat="47.72706" lon="4.99735">
        <ele>377.89</ele>
        <time>2022-05-30T07:32:23Z</time>
      </trkpt>
      <trkpt lat="47.72704" lon="4.99736">
        <ele>377.69</ele>
        <time>2022-05-30T07:32:25Z</time>
      </trkpt>
      <trkpt lat="47.72701" lon="4.99738">
        <ele>377.29</ele>
        <time>2022-05-30T07:32:27Z</time>
      </trkpt>
      <trkpt lat="47.72698" lon="4.99739">
        <ele>377.06</ele>
        <time>2022-05-30T07:32:30Z</time>
      </trkpt>
      <trkpt lat="47.72694" lon="4.99741">
        <ele>376.74</ele>
        <time>2022-05-30T07:32:32Z</time>
      </trkpt>
      <trkpt lat="47.72691" lon="4.99743">
        <ele>377.25</ele>
        <time>2022-05-30T07:32:34Z</time>
      </trkpt>
      <trkpt lat="47.72688" lon="4.99745">
        <ele>377.82</ele>
        <time>2022-05-30T07:32:37Z</time>
      </trkpt>
      <trkpt lat="47.72685" lon="4.99747">
        <ele>378.45</ele>
        <time>2022-05-30T07:32:38Z</time>
      </trkpt>
      <trkpt lat="47.72682" lon="4.99749">
        <ele>379.15</ele>
        <time>2022-05-30T07:32:41Z</time>
      </trkpt>
      <trkpt lat="47.72679" lon="4.99752">
        <ele>379.89</ele>
        <time>2022-05-30T07:32:42Z</time>
      </trkpt>
      <trkpt lat="47.72676" lon="4.99754">
        <ele>380.6</ele>
        <time>2022-05-30T07:32:45Z</time>
      </trkpt>
      <trkpt lat="47.72673" lon="4.99756">
        <ele>381.14</ele>
        <time>2022-05-30T07:32:47Z</time>
      </trkpt>
      <trkpt lat="47.7267" lon="4.99757">
        <ele>381.71</ele>
        <time>2022-05-30T07:32:49Z</time>
      </trkpt>
      <trkpt lat="47.72668" lon="4.99759">
        <ele>381.78</ele>
        <time>2022-05-30T07:32:51Z</time>
      </trkpt>
      <trkpt lat="47.72665" lon="4.99761">
        <ele>382.04</ele>
        <time>2022-05-30T07:32:53Z</time>
      </trkpt>
      <trkpt lat="47.72662" lon="4.99764">
        <ele>382.24</ele>
        <time>2022-05-30T07:32:55Z</time>
      </trkpt>
      <trkpt lat="47.7266" lon="4.99766">
        <ele>382.44</ele>
        <time>2022-05-30T07:32:58Z</time>
      </trkpt>
      <trkpt lat="47.72657" lon="4.99769">
        <ele>382.83</ele>
        <time>2022-05-30T07:33:01Z</time>
      </trkpt>
      <trkpt lat="47.72655" lon="4.99772">
        <ele>383.01</ele>
        <time>2022-05-30T07:33:03Z</time>
      </trkpt>
      <trkpt lat="47.72653" lon="4.99774">
        <ele>383.4</ele>
        <time>2022-05-30T07:33:06Z</time>
      </trkpt>
      <trkpt lat="47.7265" lon="4.99776">
        <ele>384.19</ele>
        <time>2022-05-30T07:33:08Z</time>
      </trkpt>
      <trkpt lat="47.72648" lon="4.99778">
        <ele>384.71</ele>
        <time>2022-05-30T07:33:12Z</time>
      </trkpt>
      <trkpt lat="47.72645" lon="4.99776">
        <ele>385.93</ele>
        <time>2022-05-30T07:33:15Z</time>
      </trkpt>
      <trkpt lat="47.72643" lon="4.99773">
        <ele>386.82</ele>
        <time>2022-05-30T07:33:24Z</time>
      </trkpt>
      <trkpt lat="47.72641" lon="4.99776">
        <ele>387.33</ele>
        <time>2022-05-30T07:33:32Z</time>
      </trkpt>
      <trkpt lat="47.72638" lon="4.99779">
        <ele>388.06</ele>
        <time>2022-05-30T07:33:34Z</time>
      </trkpt>
      <trkpt lat="47.72636" lon="4.99781">
        <ele>388.25</ele>
        <time>2022-05-30T07:33:36Z</time>
      </trkpt>
      <trkpt lat="47.72633" lon="4.99784">
        <ele>388.51</ele>
        <time>2022-05-30T07:33:38Z</time>
      </trkpt>
      <trkpt lat="47.7263" lon="4.99787">
        <ele>388.71</ele>
        <time>2022-05-30T07:33:41Z</time>
      </trkpt>
      <trkpt lat="47.72627" lon="4.9979">
        <ele>388.87</ele>
        <time>2022-05-30T07:33:43Z</time>
      </trkpt>
      <trkpt lat="47.72625" lon="4.99793">
        <ele>388.81</ele>
        <time>2022-05-30T07:33:46Z</time>
      </trkpt>
      <trkpt lat="47.72622" lon="4.99795">
        <ele>389.03</ele>
        <time>2022-05-30T07:33:49Z</time>
      </trkpt>
      <trkpt lat="47.7262" lon="4.99798">
        <ele>388.91</ele>
        <time>2022-05-30T07:33:51Z</time>
      </trkpt>
      <trkpt lat="47.72617" lon="4.99801">
        <ele>388.9</ele>
        <time>2022-05-30T07:33:54Z</time>
      </trkpt>
      <trkpt lat="47.72615" lon="4.99805">
        <ele>388.53</ele>
        <time>2022-05-30T07:33:56Z</time>
      </trkpt>
      <trkpt lat="47.72612" lon="4.99808">
        <ele>388.89</ele>
        <time>2022-05-30T07:33:58Z</time>
      </trkpt>
      <trkpt lat="47.72609" lon="4.9981">
        <ele>389.2</ele>
        <time>2022-05-30T07:34:01Z</time>
      </trkpt>
      <trkpt lat="47.72606" lon="4.99812">
        <ele>389.47</ele>
        <time>2022-05-30T07:34:03Z</time>
      </trkpt>
      <trkpt lat="47.72603" lon="4.99815">
        <ele>389.68</ele>
        <time>2022-05-30T07:34:06Z</time>
      </trkpt>
      <trkpt lat="47.726" lon="4.99817">
        <ele>389.87</ele>
        <time>2022-05-30T07:34:09Z</time>
      </trkpt>
      <trkpt lat="47.72597" lon="4.99819">
        <ele>390.03</ele>
        <time>2022-05-30T07:34:11Z</time>
      </trkpt>
      <trkpt lat="47.72595" lon="4.99822">
        <ele>390.05</ele>
        <time>2022-05-30T07:34:14Z</time>
      </trkpt>
      <trkpt lat="47.72592" lon="4.99824">
        <ele>390.15</ele>
        <time>2022-05-30T07:34:17Z</time>
      </trkpt>
      <trkpt lat="47.72589" lon="4.99826">
        <ele>390.22</ele>
        <time>2022-05-30T07:34:18Z</time>
      </trkpt>
      <trkpt lat="47.72587" lon="4.99828">
        <ele>390.2</ele>
        <time>2022-05-30T07:34:22Z</time>
      </trkpt>
      <trkpt lat="47.72584" lon="4.99831">
        <ele>390.14</ele>
        <time>2022-05-30T07:34:24Z</time>
      </trkpt>
      <trkpt lat="47.72581" lon="4.99833">
        <ele>390.36</ele>
        <time>2022-05-30T07:34:26Z</time>
      </trkpt>
      <trkpt lat="47.72579" lon="4.99836">
        <ele>390.45</ele>
        <time>2022-05-30T07:34:29Z</time>
      </trkpt>
      <trkpt lat="47.72576" lon="4.99838">
        <ele>390.76</ele>
        <time>2022-05-30T07:34:31Z</time>
      </trkpt>
      <trkpt lat="47.72573" lon="4.99839">
        <ele>391.16</ele>
        <time>2022-05-30T07:34:34Z</time>
      </trkpt>
      <trkpt lat="47.7257" lon="4.99842">
        <ele>391.45</ele>
        <time>2022-05-30T07:34:37Z</time>
      </trkpt>
      <trkpt lat="47.72567" lon="4.99844">
        <ele>391.81</ele>
        <time>2022-05-30T07:34:39Z</time>
      </trkpt>
      <trkpt lat="47.72565" lon="4.99847">
        <ele>391.98</ele>
        <time>2022-05-30T07:34:42Z</time>
      </trkpt>
      <trkpt lat="47.72562" lon="4.99849">
        <ele>392.38</ele>
        <time>2022-05-30T07:34:44Z</time>
      </trkpt>
      <trkpt lat="47.72559" lon="4.99851">
        <ele>392.79</ele>
        <time>2022-05-30T07:34:46Z</time>
      </trkpt>
      <trkpt lat="47.72557" lon="4.99853">
        <ele>393.05</ele>
        <time>2022-05-30T07:34:49Z</time>
      </trkpt>
      <trkpt lat="47.72554" lon="4.99855">
        <ele>393.51</ele>
        <time>2022-05-30T07:34:51Z</time>
      </trkpt>
      <trkpt lat="47.72551" lon="4.99857">
        <ele>393.99</ele>
        <time>2022-05-30T07:34:54Z</time>
      </trkpt>
      <trkpt lat="47.72549" lon="4.9986">
        <ele>394.23</ele>
        <time>2022-05-30T07:34:56Z</time>
      </trkpt>
      <trkpt lat="47.72546" lon="4.99862">
        <ele>394.61</ele>
        <time>2022-05-30T07:34:59Z</time>
      </trkpt>
      <trkpt lat="47.72543" lon="4.99864">
        <ele>394.94</ele>
        <time>2022-05-30T07:35:01Z</time>
      </trkpt>
      <trkpt lat="47.72541" lon="4.99866">
        <ele>395.1</ele>
        <time>2022-05-30T07:35:03Z</time>
      </trkpt>
      <trkpt lat="47.72538" lon="4.99869">
        <ele>395.38</ele>
        <time>2022-05-30T07:35:06Z</time>
      </trkpt>
      <trkpt lat="47.72535" lon="4.99871">
        <ele>395.8</ele>
        <time>2022-05-30T07:35:08Z</time>
      </trkpt>
      <trkpt lat="47.72533" lon="4.99873">
        <ele>396.04</ele>
        <time>2022-05-30T07:35:11Z</time>
      </trkpt>
      <trkpt lat="47.7253" lon="4.99875">
        <ele>396.52</ele>
        <time>2022-05-30T07:35:13Z</time>
      </trkpt>
      <trkpt lat="47.72527" lon="4.99877">
        <ele>397.04</ele>
        <time>2022-05-30T07:35:15Z</time>
      </trkpt>
      <trkpt lat="47.72525" lon="4.99879">
        <ele>397.38</ele>
        <time>2022-05-30T07:35:17Z</time>
      </trkpt>
      <trkpt lat="47.72522" lon="4.99881">
        <ele>397.96</ele>
        <time>2022-05-30T07:35:20Z</time>
      </trkpt>
      <trkpt lat="47.7252" lon="4.99884">
        <ele>398.26</ele>
        <time>2022-05-30T07:35:22Z</time>
      </trkpt>
      <trkpt lat="47.72518" lon="4.99886">
        <ele>398.64</ele>
        <time>2022-05-30T07:35:24Z</time>
      </trkpt>
      <trkpt lat="47.72515" lon="4.99889">
        <ele>399.22</ele>
        <time>2022-05-30T07:35:27Z</time>
      </trkpt>
      <trkpt lat="47.72513" lon="4.99891">
        <ele>399.68</ele>
        <time>2022-05-30T07:35:29Z</time>
      </trkpt>
      <trkpt lat="47.7251" lon="4.99893">
        <ele>400.34</ele>
        <time>2022-05-30T07:35:31Z</time>
      </trkpt>
      <trkpt lat="47.72507" lon="4.99895">
        <ele>400.96</ele>
        <time>2022-05-30T07:35:34Z</time>
      </trkpt>
      <trkpt lat="47.72504" lon="4.99895">
        <ele>401.65</ele>
        <time>2022-05-30T07:35:37Z</time>
      </trkpt>
      <trkpt lat="47.72501" lon="4.99896">
        <ele>402.26</ele>
        <time>2022-05-30T07:35:38Z</time>
      </trkpt>
      <trkpt lat="47.72498" lon="4.99898">
        <ele>402.37</ele>
        <time>2022-05-30T07:35:40Z</time>
      </trkpt>
      <trkpt lat="47.72496" lon="4.999">
        <ele>402.23</ele>
        <time>2022-05-30T07:35:42Z</time>
      </trkpt>
      <trkpt lat="47.72493" lon="4.99902">
        <ele>402.07</ele>
        <time>2022-05-30T07:35:45Z</time>
      </trkpt>
      <trkpt lat="47.7249" lon="4.99904">
        <ele>401.88</ele>
        <time>2022-05-30T07:35:47Z</time>
      </trkpt>
      <trkpt lat="47.72487" lon="4.99907">
        <ele>401.55</ele>
        <time>2022-05-30T07:35:50Z</time>
      </trkpt>
      <trkpt lat="47.72484" lon="4.99909">
        <ele>401.29</ele>
        <time>2022-05-30T07:35:52Z</time>
      </trkpt>
      <trkpt lat="47.72481" lon="4.99912">
        <ele>400.88</ele>
        <time>2022-05-30T07:35:55Z</time>
      </trkpt>
      <trkpt lat="47.72479" lon="4.99914">
        <ele>400.58</ele>
        <time>2022-05-30T07:35:58Z</time>
      </trkpt>
      <trkpt lat="47.72476" lon="4.99916">
        <ele>400.23</ele>
        <time>2022-05-30T07:36:00Z</time>
      </trkpt>
      <trkpt lat="47.72474" lon="4.99919">
        <ele>399.76</ele>
        <time>2022-05-30T07:36:03Z</time>
      </trkpt>
      <trkpt lat="47.72471" lon="4.99921">
        <ele>399.51</ele>
        <time>2022-05-30T07:36:05Z</time>
      </trkpt>
      <trkpt lat="47.72468" lon="4.99923">
        <ele>399.54</ele>
        <time>2022-05-30T07:36:07Z</time>
      </trkpt>
      <trkpt lat="47.72465" lon="4.99926">
        <ele>399.44</ele>
        <time>2022-05-30T07:36:10Z</time>
      </trkpt>
      <trkpt lat="47.72462" lon="4.99928">
        <ele>399.47</ele>
        <time>2022-05-30T07:36:13Z</time>
      </trkpt>
      <trkpt lat="47.72459" lon="4.9993">
        <ele>399.51</ele>
        <time>2022-05-30T07:36:16Z</time>
      </trkpt>
      <trkpt lat="47.72456" lon="4.99931">
        <ele>399.69</ele>
        <time>2022-05-30T07:36:19Z</time>
      </trkpt>
      <trkpt lat="47.72452" lon="4.99933">
        <ele>399.83</ele>
        <time>2022-05-30T07:36:22Z</time>
      </trkpt>
      <trkpt lat="47.72449" lon="4.99934">
        <ele>400.01</ele>
        <time>2022-05-30T07:36:24Z</time>
      </trkpt>
      <trkpt lat="47.72446" lon="4.99935">
        <ele>400.19</ele>
        <time>2022-05-30T07:36:28Z</time>
      </trkpt>
      <trkpt lat="47.72443" lon="4.99936">
        <ele>400.38</ele>
        <time>2022-05-30T07:36:32Z</time>
      </trkpt>
      <trkpt lat="47.72441" lon="4.99938">
        <ele>400.38</ele>
        <time>2022-05-30T07:36:34Z</time>
      </trkpt>
      <trkpt lat="47.72438" lon="4.9994">
        <ele>400.58</ele>
        <time>2022-05-30T07:36:37Z</time>
      </trkpt>
      <trkpt lat="47.72435" lon="4.99942">
        <ele>400.87</ele>
        <time>2022-05-30T07:36:40Z</time>
      </trkpt>
      <trkpt lat="47.72432" lon="4.99943">
        <ele>401.31</ele>
        <time>2022-05-30T07:36:43Z</time>
      </trkpt>
      <trkpt lat="47.72429" lon="4.99945">
        <ele>401.8</ele>
        <time>2022-05-30T07:36:45Z</time>
      </trkpt>
      <trkpt lat="47.72427" lon="4.99947">
        <ele>402.22</ele>
        <time>2022-05-30T07:36:48Z</time>
      </trkpt>
      <trkpt lat="47.72424" lon="4.99948">
        <ele>402.72</ele>
        <time>2022-05-30T07:36:50Z</time>
      </trkpt>
      <trkpt lat="47.72421" lon="4.9995">
        <ele>403.18</ele>
        <time>2022-05-30T07:36:52Z</time>
      </trkpt>
      <trkpt lat="47.72418" lon="4.99951">
        <ele>403.58</ele>
        <time>2022-05-30T07:36:55Z</time>
      </trkpt>
      <trkpt lat="47.72415" lon="4.99952">
        <ele>403.74</ele>
        <time>2022-05-30T07:36:57Z</time>
      </trkpt>
      <trkpt lat="47.72412" lon="4.99953">
        <ele>403.74</ele>
        <time>2022-05-30T07:37:00Z</time>
      </trkpt>
      <trkpt lat="47.72408" lon="4.99955">
        <ele>403.74</ele>
        <time>2022-05-30T07:37:03Z</time>
      </trkpt>
      <trkpt lat="47.72406" lon="4.99957">
        <ele>403.72</ele>
        <time>2022-05-30T07:37:05Z</time>
      </trkpt>
      <trkpt lat="47.72403" lon="4.99959">
        <ele>403.73</ele>
        <time>2022-05-30T07:37:08Z</time>
      </trkpt>
      <trkpt lat="47.724" lon="4.99961">
        <ele>403.76</ele>
        <time>2022-05-30T07:37:10Z</time>
      </trkpt>
      <trkpt lat="47.72397" lon="4.99963">
        <ele>403.8</ele>
        <time>2022-05-30T07:37:13Z</time>
      </trkpt>
      <trkpt lat="47.72394" lon="4.99964">
        <ele>403.87</ele>
        <time>2022-05-30T07:37:15Z</time>
      </trkpt>
      <trkpt lat="47.72391" lon="4.99966">
        <ele>403.94</ele>
        <time>2022-05-30T07:37:18Z</time>
      </trkpt>
      <trkpt lat="47.72389" lon="4.99967">
        <ele>404</ele>
        <time>2022-05-30T07:37:20Z</time>
      </trkpt>
      <trkpt lat="47.72386" lon="4.99969">
        <ele>404.07</ele>
        <time>2022-05-30T07:37:24Z</time>
      </trkpt>
      <trkpt lat="47.72383" lon="4.9997">
        <ele>404.1</ele>
        <time>2022-05-30T07:37:26Z</time>
      </trkpt>
      <trkpt lat="47.7238" lon="4.99972">
        <ele>404.02</ele>
        <time>2022-05-30T07:37:29Z</time>
      </trkpt>
      <trkpt lat="47.72377" lon="4.99973">
        <ele>403.99</ele>
        <time>2022-05-30T07:37:31Z</time>
      </trkpt>
      <trkpt lat="47.72374" lon="4.99974">
        <ele>404.01</ele>
        <time>2022-05-30T07:37:34Z</time>
      </trkpt>
      <trkpt lat="47.72372" lon="4.99975">
        <ele>404.04</ele>
        <time>2022-05-30T07:37:36Z</time>
      </trkpt>
      <trkpt lat="47.72369" lon="4.99977">
        <ele>404.15</ele>
        <time>2022-05-30T07:37:40Z</time>
      </trkpt>
      <trkpt lat="47.72366" lon="4.99978">
        <ele>404.27</ele>
        <time>2022-05-30T07:37:41Z</time>
      </trkpt>
      <trkpt lat="47.72363" lon="4.99978">
        <ele>404.36</ele>
        <time>2022-05-30T07:37:44Z</time>
      </trkpt>
      <trkpt lat="47.72359" lon="4.99979">
        <ele>404.72</ele>
        <time>2022-05-30T07:37:47Z</time>
      </trkpt>
      <trkpt lat="47.72356" lon="4.9998">
        <ele>405.09</ele>
        <time>2022-05-30T07:37:50Z</time>
      </trkpt>
      <trkpt lat="47.72353" lon="4.99981">
        <ele>405.43</ele>
        <time>2022-05-30T07:37:53Z</time>
      </trkpt>
      <trkpt lat="47.7235" lon="4.99982">
        <ele>405.74</ele>
        <time>2022-05-30T07:37:55Z</time>
      </trkpt>
      <trkpt lat="47.72348" lon="4.99984">
        <ele>405.94</ele>
        <time>2022-05-30T07:37:57Z</time>
      </trkpt>
      <trkpt lat="47.72345" lon="4.99985">
        <ele>406.17</ele>
        <time>2022-05-30T07:38:00Z</time>
      </trkpt>
      <trkpt lat="47.72341" lon="4.99986">
        <ele>406.45</ele>
        <time>2022-05-30T07:38:03Z</time>
      </trkpt>
      <trkpt lat="47.72338" lon="4.99987">
        <ele>406.62</ele>
        <time>2022-05-30T07:38:05Z</time>
      </trkpt>
      <trkpt lat="47.72334" lon="4.99988">
        <ele>406.82</ele>
        <time>2022-05-30T07:38:07Z</time>
      </trkpt>
      <trkpt lat="47.72332" lon="4.99989">
        <ele>406.88</ele>
        <time>2022-05-30T07:38:10Z</time>
      </trkpt>
      <trkpt lat="47.72328" lon="4.99991">
        <ele>407.04</ele>
        <time>2022-05-30T07:38:12Z</time>
      </trkpt>
      <trkpt lat="47.72325" lon="4.99992">
        <ele>407.22</ele>
        <time>2022-05-30T07:38:14Z</time>
      </trkpt>
      <trkpt lat="47.72322" lon="4.99993">
        <ele>407.42</ele>
        <time>2022-05-30T07:38:17Z</time>
      </trkpt>
      <trkpt lat="47.72319" lon="4.99994">
        <ele>407.65</ele>
        <time>2022-05-30T07:38:20Z</time>
      </trkpt>
      <trkpt lat="47.72316" lon="4.99996">
        <ele>407.89</ele>
        <time>2022-05-30T07:38:22Z</time>
      </trkpt>
      <trkpt lat="47.72313" lon="4.99998">
        <ele>408.18</ele>
        <time>2022-05-30T07:38:24Z</time>
      </trkpt>
      <trkpt lat="47.7231" lon="5">
        <ele>408.52</ele>
        <time>2022-05-30T07:38:27Z</time>
      </trkpt>
      <trkpt lat="47.72307" lon="5.00003">
        <ele>408.86</ele>
        <time>2022-05-30T07:38:30Z</time>
      </trkpt>
      <trkpt lat="47.72304" lon="5.00004">
        <ele>408.86</ele>
        <time>2022-05-30T07:38:34Z</time>
      </trkpt>
      <trkpt lat="47.72301" lon="5.00006">
        <ele>408.61</ele>
        <time>2022-05-30T07:38:37Z</time>
      </trkpt>
      <trkpt lat="47.72298" lon="5.00008">
        <ele>408.42</ele>
        <time>2022-05-30T07:38:39Z</time>
      </trkpt>
      <trkpt lat="47.72295" lon="5.00009">
        <ele>408.23</ele>
        <time>2022-05-30T07:38:42Z</time>
      </trkpt>
      <trkpt lat="47.72292" lon="5.00011">
        <ele>408.12</ele>
        <time>2022-05-30T07:38:44Z</time>
      </trkpt>
      <trkpt lat="47.72289" lon="5.00012">
        <ele>407.98</ele>
        <time>2022-05-30T07:38:47Z</time>
      </trkpt>
      <trkpt lat="47.72286" lon="5.00014">
        <ele>407.95</ele>
        <time>2022-05-30T07:38:49Z</time>
      </trkpt>
      <trkpt lat="47.72284" lon="5.00016">
        <ele>408.01</ele>
        <time>2022-05-30T07:38:51Z</time>
      </trkpt>
      <trkpt lat="47.72281" lon="5.00018">
        <ele>408.07</ele>
        <time>2022-05-30T07:38:54Z</time>
      </trkpt>
      <trkpt lat="47.72278" lon="5.00019">
        <ele>408.06</ele>
        <time>2022-05-30T07:38:56Z</time>
      </trkpt>
      <trkpt lat="47.72275" lon="5.0002">
        <ele>408.86</ele>
        <time>2022-05-30T07:38:58Z</time>
      </trkpt>
      <trkpt lat="47.72272" lon="5.00021">
        <ele>409.72</ele>
        <time>2022-05-30T07:39:01Z</time>
      </trkpt>
      <trkpt lat="47.72269" lon="5.00021">
        <ele>410.48</ele>
        <time>2022-05-30T07:39:03Z</time>
      </trkpt>
      <trkpt lat="47.72266" lon="5.00021">
        <ele>411.24</ele>
        <time>2022-05-30T07:39:05Z</time>
      </trkpt>
      <trkpt lat="47.72263" lon="5.0002">
        <ele>411.88</ele>
        <time>2022-05-30T07:39:07Z</time>
      </trkpt>
      <trkpt lat="47.7226" lon="5.00019">
        <ele>412.53</ele>
        <time>2022-05-30T07:39:11Z</time>
      </trkpt>
      <trkpt lat="47.72257" lon="5.00018">
        <ele>413.18</ele>
        <time>2022-05-30T07:39:12Z</time>
      </trkpt>
      <trkpt lat="47.72254" lon="5.00017">
        <ele>413.83</ele>
        <time>2022-05-30T07:39:15Z</time>
      </trkpt>
      <trkpt lat="47.72251" lon="5.00017">
        <ele>414.58</ele>
        <time>2022-05-30T07:39:17Z</time>
      </trkpt>
      <trkpt lat="47.72248" lon="5.00016">
        <ele>415.33</ele>
        <time>2022-05-30T07:39:20Z</time>
      </trkpt>
      <trkpt lat="47.72245" lon="5.00015">
        <ele>416.14</ele>
        <time>2022-05-30T07:39:22Z</time>
      </trkpt>
      <trkpt lat="47.72243" lon="5.00013">
        <ele>416.55</ele>
        <time>2022-05-30T07:39:25Z</time>
      </trkpt>
      <trkpt lat="47.7224" lon="5.00012">
        <ele>417.38</ele>
        <time>2022-05-30T07:39:27Z</time>
      </trkpt>
      <trkpt lat="47.72236" lon="5.0001">
        <ele>418.43</ele>
        <time>2022-05-30T07:39:31Z</time>
      </trkpt>
      <trkpt lat="47.72233" lon="5.00009">
        <ele>419.28</ele>
        <time>2022-05-30T07:39:33Z</time>
      </trkpt>
      <trkpt lat="47.7223" lon="5.00007">
        <ele>420.05</ele>
        <time>2022-05-30T07:39:35Z</time>
      </trkpt>
      <trkpt lat="47.72227" lon="5.00005">
        <ele>420.84</ele>
        <time>2022-05-30T07:39:38Z</time>
      </trkpt>
      <trkpt lat="47.72224" lon="5.00003">
        <ele>421.65</ele>
        <time>2022-05-30T07:39:41Z</time>
      </trkpt>
      <trkpt lat="47.72221" lon="5.00002">
        <ele>422.37</ele>
        <time>2022-05-30T07:39:43Z</time>
      </trkpt>
      <trkpt lat="47.72218" lon="5">
        <ele>422.76</ele>
        <time>2022-05-30T07:39:46Z</time>
      </trkpt>
      <trkpt lat="47.72215" lon="4.99998">
        <ele>423.62</ele>
        <time>2022-05-30T07:39:48Z</time>
      </trkpt>
      <trkpt lat="47.72212" lon="4.99996">
        <ele>424.39</ele>
        <time>2022-05-30T07:39:52Z</time>
      </trkpt>
      <trkpt lat="47.72209" lon="4.99995">
        <ele>424.95</ele>
        <time>2022-05-30T07:39:53Z</time>
      </trkpt>
      <trkpt lat="47.72207" lon="4.99993">
        <ele>425.42</ele>
        <time>2022-05-30T07:39:55Z</time>
      </trkpt>
      <trkpt lat="47.72204" lon="4.99992">
        <ele>425.87</ele>
        <time>2022-05-30T07:39:58Z</time>
      </trkpt>
      <trkpt lat="47.72201" lon="4.9999">
        <ele>426.33</ele>
        <time>2022-05-30T07:40:00Z</time>
      </trkpt>
      <trkpt lat="47.72198" lon="4.99989">
        <ele>426.66</ele>
        <time>2022-05-30T07:40:03Z</time>
      </trkpt>
      <trkpt lat="47.72194" lon="4.99987">
        <ele>427.03</ele>
        <time>2022-05-30T07:40:06Z</time>
      </trkpt>
      <trkpt lat="47.72191" lon="4.99985">
        <ele>427.15</ele>
        <time>2022-05-30T07:40:08Z</time>
      </trkpt>
      <trkpt lat="47.72188" lon="4.99984">
        <ele>427.22</ele>
        <time>2022-05-30T07:40:10Z</time>
      </trkpt>
      <trkpt lat="47.72185" lon="4.99983">
        <ele>427.24</ele>
        <time>2022-05-30T07:40:13Z</time>
      </trkpt>
      <trkpt lat="47.72182" lon="4.99981">
        <ele>427.09</ele>
        <time>2022-05-30T07:40:15Z</time>
      </trkpt>
      <trkpt lat="47.72179" lon="4.9998">
        <ele>426.98</ele>
        <time>2022-05-30T07:40:18Z</time>
      </trkpt>
      <trkpt lat="47.72176" lon="4.99979">
        <ele>426.81</ele>
        <time>2022-05-30T07:40:19Z</time>
      </trkpt>
      <trkpt lat="47.72174" lon="4.99978">
        <ele>426.6</ele>
        <time>2022-05-30T07:40:21Z</time>
      </trkpt>
      <trkpt lat="47.72171" lon="4.99978">
        <ele>426.54</ele>
        <time>2022-05-30T07:40:24Z</time>
      </trkpt>
      <trkpt lat="47.72167" lon="4.99977">
        <ele>426.21</ele>
        <time>2022-05-30T07:40:25Z</time>
      </trkpt>
      <trkpt lat="47.72164" lon="4.99977">
        <ele>426.57</ele>
        <time>2022-05-30T07:40:28Z</time>
      </trkpt>
      <trkpt lat="47.72161" lon="4.99976">
        <ele>426.74</ele>
        <time>2022-05-30T07:40:31Z</time>
      </trkpt>
      <trkpt lat="47.72158" lon="4.99975">
        <ele>426.92</ele>
        <time>2022-05-30T07:40:33Z</time>
      </trkpt>
      <trkpt lat="47.72155" lon="4.99974">
        <ele>427.1</ele>
        <time>2022-05-30T07:40:35Z</time>
      </trkpt>
      <trkpt lat="47.72152" lon="4.99974">
        <ele>427.53</ele>
        <time>2022-05-30T07:40:38Z</time>
      </trkpt>
      <trkpt lat="47.72149" lon="4.99974">
        <ele>427.95</ele>
        <time>2022-05-30T07:40:41Z</time>
      </trkpt>
      <trkpt lat="47.72146" lon="4.99974">
        <ele>428.38</ele>
        <time>2022-05-30T07:40:44Z</time>
      </trkpt>
      <trkpt lat="47.72143" lon="4.99973">
        <ele>428.58</ele>
        <time>2022-05-30T07:40:46Z</time>
      </trkpt>
      <trkpt lat="47.7214" lon="4.99972">
        <ele>428.81</ele>
        <time>2022-05-30T07:40:49Z</time>
      </trkpt>
      <trkpt lat="47.72137" lon="4.99972">
        <ele>429.24</ele>
        <time>2022-05-30T07:40:51Z</time>
      </trkpt>
      <trkpt lat="47.72134" lon="4.99971">
        <ele>429.52</ele>
        <time>2022-05-30T07:40:53Z</time>
      </trkpt>
      <trkpt lat="47.72131" lon="4.9997">
        <ele>429.79</ele>
        <time>2022-05-30T07:40:56Z</time>
      </trkpt>
      <trkpt lat="47.72127" lon="4.9997">
        <ele>430.36</ele>
        <time>2022-05-30T07:40:59Z</time>
      </trkpt>
      <trkpt lat="47.72124" lon="4.99969">
        <ele>430.62</ele>
        <time>2022-05-30T07:41:01Z</time>
      </trkpt>
      <trkpt lat="47.72121" lon="4.99969">
        <ele>431.04</ele>
        <time>2022-05-30T07:41:04Z</time>
      </trkpt>
      <trkpt lat="47.72118" lon="4.99969">
        <ele>431.46</ele>
        <time>2022-05-30T07:41:06Z</time>
      </trkpt>
      <trkpt lat="47.72115" lon="4.99969">
        <ele>431.88</ele>
        <time>2022-05-30T07:41:08Z</time>
      </trkpt>
      <trkpt lat="47.72112" lon="4.9997">
        <ele>432.47</ele>
        <time>2022-05-30T07:41:11Z</time>
      </trkpt>
      <trkpt lat="47.72109" lon="4.9997">
        <ele>432.76</ele>
        <time>2022-05-30T07:41:13Z</time>
      </trkpt>
      <trkpt lat="47.72106" lon="4.9997">
        <ele>433</ele>
        <time>2022-05-30T07:41:16Z</time>
      </trkpt>
      <trkpt lat="47.72102" lon="4.9997">
        <ele>433.31</ele>
        <time>2022-05-30T07:41:18Z</time>
      </trkpt>
      <trkpt lat="47.72099" lon="4.9997">
        <ele>433.54</ele>
        <time>2022-05-30T07:41:20Z</time>
      </trkpt>
      <trkpt lat="47.72096" lon="4.99971">
        <ele>433.92</ele>
        <time>2022-05-30T07:41:23Z</time>
      </trkpt>
      <trkpt lat="47.72094" lon="4.99971">
        <ele>434.07</ele>
        <time>2022-05-30T07:41:25Z</time>
      </trkpt>
      <trkpt lat="47.7209" lon="4.99971">
        <ele>434.37</ele>
        <time>2022-05-30T07:41:27Z</time>
      </trkpt>
      <trkpt lat="47.72088" lon="4.99972">
        <ele>434.64</ele>
        <time>2022-05-30T07:41:29Z</time>
      </trkpt>
      <trkpt lat="47.72085" lon="4.99974">
        <ele>435.2</ele>
        <time>2022-05-30T07:41:32Z</time>
      </trkpt>
      <trkpt lat="47.72082" lon="4.99976">
        <ele>435.75</ele>
        <time>2022-05-30T07:41:35Z</time>
      </trkpt>
      <trkpt lat="47.7208" lon="4.99978">
        <ele>436.23</ele>
        <time>2022-05-30T07:41:37Z</time>
      </trkpt>
      <trkpt lat="47.72077" lon="4.9998">
        <ele>436.82</ele>
        <time>2022-05-30T07:41:39Z</time>
      </trkpt>
      <trkpt lat="47.72075" lon="4.99983">
        <ele>437.59</ele>
        <time>2022-05-30T07:41:41Z</time>
      </trkpt>
      <trkpt lat="47.72072" lon="4.99985">
        <ele>438.27</ele>
        <time>2022-05-30T07:41:45Z</time>
      </trkpt>
      <trkpt lat="47.7207" lon="4.9999">
        <ele>439.6</ele>
        <time>2022-05-30T07:41:48Z</time>
      </trkpt>
      <trkpt lat="47.72068" lon="4.99993">
        <ele>440.53</ele>
        <time>2022-05-30T07:41:51Z</time>
      </trkpt>
      <trkpt lat="47.72066" lon="4.99997">
        <ele>441.75</ele>
        <time>2022-05-30T07:41:53Z</time>
      </trkpt>
      <trkpt lat="47.72064" lon="5">
        <ele>442.78</ele>
        <time>2022-05-30T07:41:56Z</time>
      </trkpt>
      <trkpt lat="47.72062" lon="5.00003">
        <ele>443.71</ele>
        <time>2022-05-30T07:41:58Z</time>
      </trkpt>
      <trkpt lat="47.7206" lon="5.00007">
        <ele>444.78</ele>
        <time>2022-05-30T07:42:01Z</time>
      </trkpt>
      <trkpt lat="47.72057" lon="5.00009">
        <ele>445.48</ele>
        <time>2022-05-30T07:42:04Z</time>
      </trkpt>
      <trkpt lat="47.72055" lon="5.00012">
        <ele>446.15</ele>
        <time>2022-05-30T07:42:06Z</time>
      </trkpt>
      <trkpt lat="47.72052" lon="5.00014">
        <ele>446.46</ele>
        <time>2022-05-30T07:42:09Z</time>
      </trkpt>
      <trkpt lat="47.7205" lon="5.00016">
        <ele>446.76</ele>
        <time>2022-05-30T07:42:11Z</time>
      </trkpt>
      <trkpt lat="47.72047" lon="5.00017">
        <ele>446.87</ele>
        <time>2022-05-30T07:42:15Z</time>
      </trkpt>
      <trkpt lat="47.72044" lon="5.00018">
        <ele>446.97</ele>
        <time>2022-05-30T07:42:18Z</time>
      </trkpt>
      <trkpt lat="47.72041" lon="5.00019">
        <ele>447.06</ele>
        <time>2022-05-30T07:42:20Z</time>
      </trkpt>
      <trkpt lat="47.72037" lon="5.00022">
        <ele>447.43</ele>
        <time>2022-05-30T07:42:23Z</time>
      </trkpt>
      <trkpt lat="47.72034" lon="5.00024">
        <ele>447.65</ele>
        <time>2022-05-30T07:42:25Z</time>
      </trkpt>
      <trkpt lat="47.72031" lon="5.00026">
        <ele>447.85</ele>
        <time>2022-05-30T07:42:28Z</time>
      </trkpt>
      <trkpt lat="47.72028" lon="5.00028">
        <ele>448.07</ele>
        <time>2022-05-30T07:42:31Z</time>
      </trkpt>
      <trkpt lat="47.72025" lon="5.00029">
        <ele>449.03</ele>
        <time>2022-05-30T07:42:35Z</time>
      </trkpt>
      <trkpt lat="47.72022" lon="5.0003">
        <ele>450.03</ele>
        <time>2022-05-30T07:42:37Z</time>
      </trkpt>
      <trkpt lat="47.72019" lon="5.00031">
        <ele>450.99</ele>
        <time>2022-05-30T07:42:41Z</time>
      </trkpt>
      <trkpt lat="47.72016" lon="5.00031">
        <ele>451.7</ele>
        <time>2022-05-30T07:42:43Z</time>
      </trkpt>
      <trkpt lat="47.72013" lon="5.00034">
        <ele>453.04</ele>
        <time>2022-05-30T07:42:47Z</time>
      </trkpt>
      <trkpt lat="47.72014" lon="5.00038">
        <ele>453.69</ele>
        <time>2022-05-30T07:42:50Z</time>
      </trkpt>
      <trkpt lat="47.72017" lon="5.00042">
        <ele>454.02</ele>
        <time>2022-05-30T07:42:52Z</time>
      </trkpt>
      <trkpt lat="47.72019" lon="5.00044">
        <ele>454.15</ele>
        <time>2022-05-30T07:42:54Z</time>
      </trkpt>
      <trkpt lat="47.72022" lon="5.00046">
        <ele>454.16</ele>
        <time>2022-05-30T07:42:56Z</time>
      </trkpt>
      <trkpt lat="47.72024" lon="5.0005">
        <ele>454.92</ele>
        <time>2022-05-30T07:42:59Z</time>
      </trkpt>
      <trkpt lat="47.72027" lon="5.00052">
        <ele>455.07</ele>
        <time>2022-05-30T07:43:01Z</time>
      </trkpt>
      <trkpt lat="47.72029" lon="5.00055">
        <ele>455.84</ele>
        <time>2022-05-30T07:43:03Z</time>
      </trkpt>
      <trkpt lat="47.72032" lon="5.00058">
        <ele>456.28</ele>
        <time>2022-05-30T07:43:06Z</time>
      </trkpt>
      <trkpt lat="47.72034" lon="5.00061">
        <ele>456.63</ele>
        <time>2022-05-30T07:43:08Z</time>
      </trkpt>
      <trkpt lat="47.72036" lon="5.00063">
        <ele>456.88</ele>
        <time>2022-05-30T07:43:10Z</time>
      </trkpt>
      <trkpt lat="47.72038" lon="5.00066">
        <ele>457.27</ele>
        <time>2022-05-30T07:43:14Z</time>
      </trkpt>
      <trkpt lat="47.72041" lon="5.00068">
        <ele>457.56</ele>
        <time>2022-05-30T07:43:16Z</time>
      </trkpt>
      <trkpt lat="47.72043" lon="5.00072">
        <ele>458.1</ele>
        <time>2022-05-30T07:43:19Z</time>
      </trkpt>
      <trkpt lat="47.72045" lon="5.00075">
        <ele>458.53</ele>
        <time>2022-05-30T07:43:22Z</time>
      </trkpt>
      <trkpt lat="47.72046" lon="5.00079">
        <ele>459.09</ele>
        <time>2022-05-30T07:43:27Z</time>
      </trkpt>
      <trkpt lat="47.72048" lon="5.00081">
        <ele>459.41</ele>
        <time>2022-05-30T07:43:31Z</time>
      </trkpt>
      <trkpt lat="47.72051" lon="5.00084">
        <ele>459.95</ele>
        <time>2022-05-30T07:48:57Z</time>
      </trkpt>
      <trkpt lat="47.72052" lon="5.00087">
        <ele>460.52</ele>
        <time>2022-05-30T07:49:02Z</time>
      </trkpt>
      <trkpt lat="47.72055" lon="5.0009">
        <ele>461.18</ele>
        <time>2022-05-30T07:49:04Z</time>
      </trkpt>
      <trkpt lat="47.72057" lon="5.00093">
        <ele>461.74</ele>
        <time>2022-05-30T07:49:06Z</time>
      </trkpt>
      <trkpt lat="47.72059" lon="5.00096">
        <ele>462.23</ele>
        <time>2022-05-30T07:49:09Z</time>
      </trkpt>
      <trkpt lat="47.72061" lon="5.00099">
        <ele>462.68</ele>
        <time>2022-05-30T07:49:10Z</time>
      </trkpt>
      <trkpt lat="47.72064" lon="5.001">
        <ele>462.76</ele>
        <time>2022-05-30T07:49:13Z</time>
      </trkpt>
      <trkpt lat="47.72067" lon="5.00103">
        <ele>463.08</ele>
        <time>2022-05-30T07:49:15Z</time>
      </trkpt>
      <trkpt lat="47.72072" lon="5.00105">
        <ele>463.11</ele>
        <time>2022-05-30T07:49:19Z</time>
      </trkpt>
      <trkpt lat="47.72077" lon="5.00106">
        <ele>462.96</ele>
        <time>2022-05-30T07:49:24Z</time>
      </trkpt>
      <trkpt lat="47.72079" lon="5.00109">
        <ele>463.12</ele>
        <time>2022-05-30T07:49:27Z</time>
      </trkpt>
      <trkpt lat="47.72081" lon="5.00112">
        <ele>463.27</ele>
        <time>2022-05-30T07:49:29Z</time>
      </trkpt>
      <trkpt lat="47.72084" lon="5.00116">
        <ele>463.43</ele>
        <time>2022-05-30T07:49:31Z</time>
      </trkpt>
      <trkpt lat="47.72086" lon="5.00119">
        <ele>463.47</ele>
        <time>2022-05-30T07:49:33Z</time>
      </trkpt>
      <trkpt lat="47.72088" lon="5.00121">
        <ele>463.4</ele>
        <time>2022-05-30T07:49:36Z</time>
      </trkpt>
      <trkpt lat="47.7209" lon="5.00124">
        <ele>463.43</ele>
        <time>2022-05-30T07:49:38Z</time>
      </trkpt>
      <trkpt lat="47.72092" lon="5.00127">
        <ele>463.47</ele>
        <time>2022-05-30T07:49:39Z</time>
      </trkpt>
      <trkpt lat="47.72094" lon="5.00131">
        <ele>463.61</ele>
        <time>2022-05-30T07:49:41Z</time>
      </trkpt>
      <trkpt lat="47.72096" lon="5.00133">
        <ele>463.54</ele>
        <time>2022-05-30T07:49:44Z</time>
      </trkpt>
      <trkpt lat="47.721" lon="5.00136">
        <ele>463.29</ele>
        <time>2022-05-30T07:49:46Z</time>
      </trkpt>
      <trkpt lat="47.72103" lon="5.00139">
        <ele>463.17</ele>
        <time>2022-05-30T07:49:49Z</time>
      </trkpt>
      <trkpt lat="47.72107" lon="5.00143">
        <ele>462.57</ele>
        <time>2022-05-30T07:49:53Z</time>
      </trkpt>
      <trkpt lat="47.72111" lon="5.00147">
        <ele>462.01</ele>
        <time>2022-05-30T07:49:56Z</time>
      </trkpt>
      <trkpt lat="47.72115" lon="5.0015">
        <ele>461.86</ele>
        <time>2022-05-30T07:49:59Z</time>
      </trkpt>
      <trkpt lat="47.72118" lon="5.00152">
        <ele>461.75</ele>
        <time>2022-05-30T07:50:01Z</time>
      </trkpt>
      <trkpt lat="47.7212" lon="5.00155">
        <ele>461.68</ele>
        <time>2022-05-30T07:50:03Z</time>
      </trkpt>
      <trkpt lat="47.72123" lon="5.00158">
        <ele>461.57</ele>
        <time>2022-05-30T07:50:05Z</time>
      </trkpt>
      <trkpt lat="47.72126" lon="5.00161">
        <ele>461.46</ele>
        <time>2022-05-30T07:50:07Z</time>
      </trkpt>
      <trkpt lat="47.72129" lon="5.00164">
        <ele>461.36</ele>
        <time>2022-05-30T07:50:10Z</time>
      </trkpt>
      <trkpt lat="47.72131" lon="5.00167">
        <ele>461.27</ele>
        <time>2022-05-30T07:50:12Z</time>
      </trkpt>
      <trkpt lat="47.72134" lon="5.0017">
        <ele>461.03</ele>
        <time>2022-05-30T07:50:14Z</time>
      </trkpt>
      <trkpt lat="47.72136" lon="5.00173">
        <ele>460.85</ele>
        <time>2022-05-30T07:50:16Z</time>
      </trkpt>
      <trkpt lat="47.72139" lon="5.00176">
        <ele>460.64</ele>
        <time>2022-05-30T07:50:18Z</time>
      </trkpt>
      <trkpt lat="47.72141" lon="5.00178">
        <ele>460.23</ele>
        <time>2022-05-30T07:50:20Z</time>
      </trkpt>
      <trkpt lat="47.72144" lon="5.0018">
        <ele>459.68</ele>
        <time>2022-05-30T07:50:22Z</time>
      </trkpt>
      <trkpt lat="47.72146" lon="5.00183">
        <ele>459.33</ele>
        <time>2022-05-30T07:50:24Z</time>
      </trkpt>
      <trkpt lat="47.7215" lon="5.00185">
        <ele>458.73</ele>
        <time>2022-05-30T07:50:26Z</time>
      </trkpt>
      <trkpt lat="47.72153" lon="5.00188">
        <ele>458.35</ele>
        <time>2022-05-30T07:50:30Z</time>
      </trkpt>
      <trkpt lat="47.72157" lon="5.00192">
        <ele>457.96</ele>
        <time>2022-05-30T07:50:33Z</time>
      </trkpt>
      <trkpt lat="47.72161" lon="5.00195">
        <ele>457.62</ele>
        <time>2022-05-30T07:50:35Z</time>
      </trkpt>
      <trkpt lat="47.72165" lon="5.00197">
        <ele>457.19</ele>
        <time>2022-05-30T07:50:39Z</time>
      </trkpt>
      <trkpt lat="47.72169" lon="5.00201">
        <ele>456.35</ele>
        <time>2022-05-30T07:50:41Z</time>
      </trkpt>
      <trkpt lat="47.72173" lon="5.00205">
        <ele>455.26</ele>
        <time>2022-05-30T07:50:44Z</time>
      </trkpt>
      <trkpt lat="47.72177" lon="5.0021">
        <ele>454.23</ele>
        <time>2022-05-30T07:50:47Z</time>
      </trkpt>
      <trkpt lat="47.72182" lon="5.00214">
        <ele>452.97</ele>
        <time>2022-05-30T07:50:52Z</time>
      </trkpt>
      <trkpt lat="47.72186" lon="5.00217">
        <ele>452</ele>
        <time>2022-05-30T07:50:55Z</time>
      </trkpt>
      <trkpt lat="47.7219" lon="5.0022">
        <ele>451.05</ele>
        <time>2022-05-30T07:50:58Z</time>
      </trkpt>
      <trkpt lat="47.72193" lon="5.00224">
        <ele>450.24</ele>
        <time>2022-05-30T07:51:01Z</time>
      </trkpt>
      <trkpt lat="47.72197" lon="5.00228">
        <ele>449.11</ele>
        <time>2022-05-30T07:51:04Z</time>
      </trkpt>
      <trkpt lat="47.72201" lon="5.00231">
        <ele>448.25</ele>
        <time>2022-05-30T07:51:08Z</time>
      </trkpt>
      <trkpt lat="47.72205" lon="5.00234">
        <ele>447.52</ele>
        <time>2022-05-30T07:51:11Z</time>
      </trkpt>
      <trkpt lat="47.72209" lon="5.00238">
        <ele>446.91</ele>
        <time>2022-05-30T07:51:14Z</time>
      </trkpt>
      <trkpt lat="47.72211" lon="5.0024">
        <ele>446.67</ele>
        <time>2022-05-30T07:51:16Z</time>
      </trkpt>
      <trkpt lat="47.72214" lon="5.00242">
        <ele>446.36</ele>
        <time>2022-05-30T07:51:18Z</time>
      </trkpt>
      <trkpt lat="47.72218" lon="5.00245">
        <ele>446.05</ele>
        <time>2022-05-30T07:51:22Z</time>
      </trkpt>
      <trkpt lat="47.72222" lon="5.00247">
        <ele>445.8</ele>
        <time>2022-05-30T07:51:24Z</time>
      </trkpt>
      <trkpt lat="47.72225" lon="5.00249">
        <ele>446.11</ele>
        <time>2022-05-30T07:51:27Z</time>
      </trkpt>
      <trkpt lat="47.72229" lon="5.00251">
        <ele>446.75</ele>
        <time>2022-05-30T07:51:30Z</time>
      </trkpt>
      <trkpt lat="47.72232" lon="5.00252">
        <ele>447.23</ele>
        <time>2022-05-30T07:51:32Z</time>
      </trkpt>
      <trkpt lat="47.72235" lon="5.00252">
        <ele>447.46</ele>
        <time>2022-05-30T07:51:33Z</time>
      </trkpt>
      <trkpt lat="47.72237" lon="5.00253">
        <ele>447.88</ele>
        <time>2022-05-30T07:51:36Z</time>
      </trkpt>
      <trkpt lat="47.72241" lon="5.00253">
        <ele>448.18</ele>
        <time>2022-05-30T07:51:39Z</time>
      </trkpt>
      <trkpt lat="47.72243" lon="5.00253">
        <ele>448.33</ele>
        <time>2022-05-30T07:51:40Z</time>
      </trkpt>
      <trkpt lat="47.72246" lon="5.00253">
        <ele>448.56</ele>
        <time>2022-05-30T07:51:43Z</time>
      </trkpt>
      <trkpt lat="47.7225" lon="5.00253">
        <ele>448.86</ele>
        <time>2022-05-30T07:51:45Z</time>
      </trkpt>
      <trkpt lat="47.72253" lon="5.00251">
        <ele>448.52</ele>
        <time>2022-05-30T07:51:48Z</time>
      </trkpt>
      <trkpt lat="47.72256" lon="5.0025">
        <ele>448.43</ele>
        <time>2022-05-30T07:51:51Z</time>
      </trkpt>
      <trkpt lat="47.72259" lon="5.00249">
        <ele>448.34</ele>
        <time>2022-05-30T07:51:54Z</time>
      </trkpt>
      <trkpt lat="47.72262" lon="5.00248">
        <ele>448.2</ele>
        <time>2022-05-30T07:51:56Z</time>
      </trkpt>
      <trkpt lat="47.72266" lon="5.00248">
        <ele>448.44</ele>
        <time>2022-05-30T07:51:59Z</time>
      </trkpt>
      <trkpt lat="47.72269" lon="5.00248">
        <ele>448.62</ele>
        <time>2022-05-30T07:52:01Z</time>
      </trkpt>
      <trkpt lat="47.72272" lon="5.00247">
        <ele>448.4</ele>
        <time>2022-05-30T07:52:04Z</time>
      </trkpt>
      <trkpt lat="47.72275" lon="5.00246">
        <ele>448.14</ele>
        <time>2022-05-30T07:52:07Z</time>
      </trkpt>
      <trkpt lat="47.72278" lon="5.00245">
        <ele>447.85</ele>
        <time>2022-05-30T07:52:11Z</time>
      </trkpt>
      <trkpt lat="47.72282" lon="5.00244">
        <ele>447.56</ele>
        <time>2022-05-30T07:52:13Z</time>
      </trkpt>
      <trkpt lat="47.72284" lon="5.00244">
        <ele>447.63</ele>
        <time>2022-05-30T07:52:15Z</time>
      </trkpt>
      <trkpt lat="47.72287" lon="5.00243">
        <ele>447.31</ele>
        <time>2022-05-30T07:52:17Z</time>
      </trkpt>
      <trkpt lat="47.7229" lon="5.00242">
        <ele>446.98</ele>
        <time>2022-05-30T07:52:20Z</time>
      </trkpt>
      <trkpt lat="47.72293" lon="5.0024">
        <ele>446.23</ele>
        <time>2022-05-30T07:52:21Z</time>
      </trkpt>
      <trkpt lat="47.72296" lon="5.00238">
        <ele>445.47</ele>
        <time>2022-05-30T07:52:24Z</time>
      </trkpt>
      <trkpt lat="47.72299" lon="5.00237">
        <ele>445.15</ele>
        <time>2022-05-30T07:52:26Z</time>
      </trkpt>
      <trkpt lat="47.72303" lon="5.00235">
        <ele>444.43</ele>
        <time>2022-05-30T07:52:30Z</time>
      </trkpt>
      <trkpt lat="47.72305" lon="5.00234">
        <ele>444.07</ele>
        <time>2022-05-30T07:52:31Z</time>
      </trkpt>
      <trkpt lat="47.72308" lon="5.00233">
        <ele>443.57</ele>
        <time>2022-05-30T07:52:33Z</time>
      </trkpt>
      <trkpt lat="47.72311" lon="5.00231">
        <ele>442.68</ele>
        <time>2022-05-30T07:52:36Z</time>
      </trkpt>
      <trkpt lat="47.72314" lon="5.00229">
        <ele>441.86</ele>
        <time>2022-05-30T07:52:39Z</time>
      </trkpt>
      <trkpt lat="47.72321" lon="5.00228">
        <ele>441.47</ele>
        <time>2022-05-30T07:52:43Z</time>
      </trkpt>
      <trkpt lat="47.72325" lon="5.00228">
        <ele>441.47</ele>
        <time>2022-05-30T07:52:46Z</time>
      </trkpt>
      <trkpt lat="47.72329" lon="5.00228">
        <ele>441.46</ele>
        <time>2022-05-30T07:52:48Z</time>
      </trkpt>
      <trkpt lat="47.72332" lon="5.00228">
        <ele>441.46</ele>
        <time>2022-05-30T07:52:50Z</time>
      </trkpt>
      <trkpt lat="47.72335" lon="5.00227">
        <ele>441.19</ele>
        <time>2022-05-30T07:52:53Z</time>
      </trkpt>
      <trkpt lat="47.72338" lon="5.00227">
        <ele>441.18</ele>
        <time>2022-05-30T07:52:55Z</time>
      </trkpt>
      <trkpt lat="47.72341" lon="5.00226">
        <ele>440.91</ele>
        <time>2022-05-30T07:52:58Z</time>
      </trkpt>
      <trkpt lat="47.72344" lon="5.00227">
        <ele>441.14</ele>
        <time>2022-05-30T07:53:00Z</time>
      </trkpt>
      <trkpt lat="47.72348" lon="5.00227">
        <ele>441.11</ele>
        <time>2022-05-30T07:53:03Z</time>
      </trkpt>
      <trkpt lat="47.72351" lon="5.00227">
        <ele>441.09</ele>
        <time>2022-05-30T07:53:05Z</time>
      </trkpt>
      <trkpt lat="47.72354" lon="5.00226">
        <ele>440.85</ele>
        <time>2022-05-30T07:53:07Z</time>
      </trkpt>
      <trkpt lat="47.72357" lon="5.00225">
        <ele>440.61</ele>
        <time>2022-05-30T07:53:09Z</time>
      </trkpt>
      <trkpt lat="47.7236" lon="5.00225">
        <ele>440.6</ele>
        <time>2022-05-30T07:53:11Z</time>
      </trkpt>
      <trkpt lat="47.72363" lon="5.00225">
        <ele>440.98</ele>
        <time>2022-05-30T07:53:13Z</time>
      </trkpt>
      <trkpt lat="47.72366" lon="5.00225">
        <ele>441.59</ele>
        <time>2022-05-30T07:53:15Z</time>
      </trkpt>
      <trkpt lat="47.72369" lon="5.00225">
        <ele>442.19</ele>
        <time>2022-05-30T07:53:18Z</time>
      </trkpt>
      <trkpt lat="47.72372" lon="5.00225">
        <ele>442.8</ele>
        <time>2022-05-30T07:53:20Z</time>
      </trkpt>
      <trkpt lat="47.72375" lon="5.00225">
        <ele>443.4</ele>
        <time>2022-05-30T07:53:22Z</time>
      </trkpt>
      <trkpt lat="47.72377" lon="5.00225">
        <ele>443.8</ele>
        <time>2022-05-30T07:53:25Z</time>
      </trkpt>
      <trkpt lat="47.7238" lon="5.00225">
        <ele>444.41</ele>
        <time>2022-05-30T07:53:28Z</time>
      </trkpt>
      <trkpt lat="47.72383" lon="5.00225">
        <ele>445.01</ele>
        <time>2022-05-30T07:53:30Z</time>
      </trkpt>
      <trkpt lat="47.72386" lon="5.00224">
        <ele>445.53</ele>
        <time>2022-05-30T07:53:33Z</time>
      </trkpt>
      <trkpt lat="47.72389" lon="5.00222">
        <ele>445.99</ele>
        <time>2022-05-30T07:53:35Z</time>
      </trkpt>
      <trkpt lat="47.72392" lon="5.00222">
        <ele>446.31</ele>
        <time>2022-05-30T07:53:39Z</time>
      </trkpt>
      <trkpt lat="47.72395" lon="5.00221">
        <ele>446.53</ele>
        <time>2022-05-30T07:53:42Z</time>
      </trkpt>
      <trkpt lat="47.72398" lon="5.0022">
        <ele>446.74</ele>
        <time>2022-05-30T07:53:45Z</time>
      </trkpt>
      <trkpt lat="47.724" lon="5.00218">
        <ele>446.74</ele>
        <time>2022-05-30T07:53:48Z</time>
      </trkpt>
      <trkpt lat="47.72403" lon="5.00215">
        <ele>446.74</ele>
        <time>2022-05-30T07:53:51Z</time>
      </trkpt>
      <trkpt lat="47.72405" lon="5.00213">
        <ele>446.74</ele>
        <time>2022-05-30T07:53:54Z</time>
      </trkpt>
      <trkpt lat="47.72408" lon="5.00211">
        <ele>446.85</ele>
        <time>2022-05-30T07:53:57Z</time>
      </trkpt>
      <trkpt lat="47.72411" lon="5.00209">
        <ele>446.96</ele>
        <time>2022-05-30T07:53:59Z</time>
      </trkpt>
      <trkpt lat="47.72414" lon="5.00207">
        <ele>447.07</ele>
        <time>2022-05-30T07:54:02Z</time>
      </trkpt>
      <trkpt lat="47.72417" lon="5.00206">
        <ele>447.25</ele>
        <time>2022-05-30T07:54:04Z</time>
      </trkpt>
      <trkpt lat="47.7242" lon="5.00206">
        <ele>447.3</ele>
        <time>2022-05-30T07:54:08Z</time>
      </trkpt>
      <trkpt lat="47.72423" lon="5.00206">
        <ele>447.34</ele>
        <time>2022-05-30T07:54:09Z</time>
      </trkpt>
      <trkpt lat="47.72426" lon="5.00205">
        <ele>447.27</ele>
        <time>2022-05-30T07:54:12Z</time>
      </trkpt>
      <trkpt lat="47.72429" lon="5.00204">
        <ele>447.18</ele>
        <time>2022-05-30T07:54:16Z</time>
      </trkpt>
      <trkpt lat="47.72432" lon="5.00203">
        <ele>447.09</ele>
        <time>2022-05-30T07:54:19Z</time>
      </trkpt>
      <trkpt lat="47.72434" lon="5.00201">
        <ele>446.86</ele>
        <time>2022-05-30T07:54:22Z</time>
      </trkpt>
      <trkpt lat="47.72437" lon="5.00199">
        <ele>446.61</ele>
        <time>2022-05-30T07:54:23Z</time>
      </trkpt>
      <trkpt lat="47.7244" lon="5.00198">
        <ele>446.49</ele>
        <time>2022-05-30T07:54:26Z</time>
      </trkpt>
      <trkpt lat="47.72443" lon="5.00196">
        <ele>446.22</ele>
        <time>2022-05-30T07:54:28Z</time>
      </trkpt>
      <trkpt lat="47.72447" lon="5.00195">
        <ele>445.99</ele>
        <time>2022-05-30T07:54:31Z</time>
      </trkpt>
      <trkpt lat="47.7245" lon="5.00194">
        <ele>445.77</ele>
        <time>2022-05-30T07:54:32Z</time>
      </trkpt>
      <trkpt lat="47.72455" lon="5.00193">
        <ele>445.52</ele>
        <time>2022-05-30T07:54:36Z</time>
      </trkpt>
      <trkpt lat="47.7246" lon="5.00194">
        <ele>445.41</ele>
        <time>2022-05-30T07:54:39Z</time>
      </trkpt>
      <trkpt lat="47.72464" lon="5.00194">
        <ele>445.26</ele>
        <time>2022-05-30T07:54:42Z</time>
      </trkpt>
      <trkpt lat="47.72467" lon="5.00194">
        <ele>445.16</ele>
        <time>2022-05-30T07:54:44Z</time>
      </trkpt>
      <trkpt lat="47.7247" lon="5.00194">
        <ele>445.05</ele>
        <time>2022-05-30T07:54:47Z</time>
      </trkpt>
      <trkpt lat="47.72474" lon="5.00194">
        <ele>444.97</ele>
        <time>2022-05-30T07:54:48Z</time>
      </trkpt>
      <trkpt lat="47.72477" lon="5.00194">
        <ele>444.97</ele>
        <time>2022-05-30T07:54:51Z</time>
      </trkpt>
      <trkpt lat="47.72479" lon="5.00193">
        <ele>444.9</ele>
        <time>2022-05-30T07:54:53Z</time>
      </trkpt>
      <trkpt lat="47.72482" lon="5.00193">
        <ele>444.9</ele>
        <time>2022-05-30T07:54:55Z</time>
      </trkpt>
      <trkpt lat="47.72486" lon="5.00193">
        <ele>444.9</ele>
        <time>2022-05-30T07:54:58Z</time>
      </trkpt>
      <trkpt lat="47.72489" lon="5.00192">
        <ele>444.82</ele>
        <time>2022-05-30T07:55:00Z</time>
      </trkpt>
      <trkpt lat="47.72493" lon="5.00191">
        <ele>444.75</ele>
        <time>2022-05-30T07:55:03Z</time>
      </trkpt>
      <trkpt lat="47.72495" lon="5.0019">
        <ele>444.68</ele>
        <time>2022-05-30T07:55:04Z</time>
      </trkpt>
      <trkpt lat="47.72498" lon="5.00188">
        <ele>444.54</ele>
        <time>2022-05-30T07:55:07Z</time>
      </trkpt>
      <trkpt lat="47.72502" lon="5.00187">
        <ele>444.43</ele>
        <time>2022-05-30T07:55:10Z</time>
      </trkpt>
      <trkpt lat="47.72504" lon="5.00186">
        <ele>444.34</ele>
        <time>2022-05-30T07:55:12Z</time>
      </trkpt>
      <trkpt lat="47.72508" lon="5.00185">
        <ele>444.23</ele>
        <time>2022-05-30T07:55:15Z</time>
      </trkpt>
      <trkpt lat="47.7251" lon="5.00183">
        <ele>444.11</ele>
        <time>2022-05-30T07:55:17Z</time>
      </trkpt>
      <trkpt lat="47.72513" lon="5.00181">
        <ele>444.02</ele>
        <time>2022-05-30T07:55:20Z</time>
      </trkpt>
      <trkpt lat="47.72516" lon="5.00179">
        <ele>443.95</ele>
        <time>2022-05-30T07:55:21Z</time>
      </trkpt>
      <trkpt lat="47.72519" lon="5.00178">
        <ele>443.94</ele>
        <time>2022-05-30T07:55:24Z</time>
      </trkpt>
      <trkpt lat="47.72522" lon="5.00177">
        <ele>443.95</ele>
        <time>2022-05-30T07:55:26Z</time>
      </trkpt>
      <trkpt lat="47.72525" lon="5.00176">
        <ele>443.97</ele>
        <time>2022-05-30T07:55:28Z</time>
      </trkpt>
      <trkpt lat="47.72527" lon="5.00175">
        <ele>443.99</ele>
        <time>2022-05-30T07:55:30Z</time>
      </trkpt>
      <trkpt lat="47.72531" lon="5.00174">
        <ele>443.51</ele>
        <time>2022-05-30T07:55:33Z</time>
      </trkpt>
      <trkpt lat="47.72534" lon="5.00173">
        <ele>443.03</ele>
        <time>2022-05-30T07:55:36Z</time>
      </trkpt>
      <trkpt lat="47.72536" lon="5.00171">
        <ele>442.66</ele>
        <time>2022-05-30T07:55:38Z</time>
      </trkpt>
      <trkpt lat="47.72539" lon="5.00169">
        <ele>442.08</ele>
        <time>2022-05-30T07:55:40Z</time>
      </trkpt>
      <trkpt lat="47.72541" lon="5.00167">
        <ele>441.64</ele>
        <time>2022-05-30T07:55:43Z</time>
      </trkpt>
      <trkpt lat="47.72544" lon="5.00164">
        <ele>441.15</ele>
        <time>2022-05-30T07:55:46Z</time>
      </trkpt>
      <trkpt lat="47.72546" lon="5.00162">
        <ele>440.88</ele>
        <time>2022-05-30T07:55:49Z</time>
      </trkpt>
      <trkpt lat="47.72549" lon="5.00159">
        <ele>440.54</ele>
        <time>2022-05-30T07:55:52Z</time>
      </trkpt>
      <trkpt lat="47.72551" lon="5.00157">
        <ele>440.34</ele>
        <time>2022-05-30T07:55:54Z</time>
      </trkpt>
      <trkpt lat="47.72554" lon="5.00155">
        <ele>440.05</ele>
        <time>2022-05-30T07:55:56Z</time>
      </trkpt>
      <trkpt lat="47.72557" lon="5.00153">
        <ele>440.06</ele>
        <time>2022-05-30T07:55:58Z</time>
      </trkpt>
      <trkpt lat="47.7256" lon="5.00151">
        <ele>440.34</ele>
        <time>2022-05-30T07:56:01Z</time>
      </trkpt>
      <trkpt lat="47.72563" lon="5.0015">
        <ele>440.52</ele>
        <time>2022-05-30T07:56:02Z</time>
      </trkpt>
      <trkpt lat="47.72565" lon="5.00148">
        <ele>440.68</ele>
        <time>2022-05-30T07:56:04Z</time>
      </trkpt>
      <trkpt lat="47.72568" lon="5.00146">
        <ele>440.83</ele>
        <time>2022-05-30T07:56:07Z</time>
      </trkpt>
      <trkpt lat="47.72571" lon="5.00144">
        <ele>440.94</ele>
        <time>2022-05-30T07:56:10Z</time>
      </trkpt>
      <trkpt lat="47.72574" lon="5.00143">
        <ele>441</ele>
        <time>2022-05-30T07:56:13Z</time>
      </trkpt>
      <trkpt lat="47.72577" lon="5.00142">
        <ele>441.04</ele>
        <time>2022-05-30T07:56:15Z</time>
      </trkpt>
      <trkpt lat="47.7258" lon="5.00142">
        <ele>441.07</ele>
        <time>2022-05-30T07:56:18Z</time>
      </trkpt>
      <trkpt lat="47.72583" lon="5.00141">
        <ele>441.07</ele>
        <time>2022-05-30T07:56:20Z</time>
      </trkpt>
      <trkpt lat="47.72587" lon="5.0014">
        <ele>441.57</ele>
        <time>2022-05-30T07:56:22Z</time>
      </trkpt>
      <trkpt lat="47.7259" lon="5.00138">
        <ele>441.93</ele>
        <time>2022-05-30T07:56:24Z</time>
      </trkpt>
      <trkpt lat="47.72593" lon="5.00135">
        <ele>442.25</ele>
        <time>2022-05-30T07:56:27Z</time>
      </trkpt>
      <trkpt lat="47.72596" lon="5.00133">
        <ele>442.61</ele>
        <time>2022-05-30T07:56:29Z</time>
      </trkpt>
      <trkpt lat="47.72599" lon="5.00131">
        <ele>442.97</ele>
        <time>2022-05-30T07:56:31Z</time>
      </trkpt>
      <trkpt lat="47.72602" lon="5.00129">
        <ele>443.33</ele>
        <time>2022-05-30T07:56:34Z</time>
      </trkpt>
      <trkpt lat="47.72604" lon="5.00127">
        <ele>443.55</ele>
        <time>2022-05-30T07:56:36Z</time>
      </trkpt>
      <trkpt lat="47.72607" lon="5.00125">
        <ele>443.91</ele>
        <time>2022-05-30T07:56:39Z</time>
      </trkpt>
      <trkpt lat="47.7261" lon="5.00123">
        <ele>444.27</ele>
        <time>2022-05-30T07:56:42Z</time>
      </trkpt>
      <trkpt lat="47.72613" lon="5.00121">
        <ele>444.58</ele>
        <time>2022-05-30T07:56:45Z</time>
      </trkpt>
      <trkpt lat="47.72616" lon="5.0012">
        <ele>444.9</ele>
        <time>2022-05-30T07:56:46Z</time>
      </trkpt>
      <trkpt lat="47.72619" lon="5.00119">
        <ele>445.22</ele>
        <time>2022-05-30T07:56:48Z</time>
      </trkpt>
      <trkpt lat="47.72622" lon="5.00118">
        <ele>445.52</ele>
        <time>2022-05-30T07:56:50Z</time>
      </trkpt>
      <trkpt lat="47.72624" lon="5.00116">
        <ele>445.65</ele>
        <time>2022-05-30T07:56:53Z</time>
      </trkpt>
      <trkpt lat="47.72627" lon="5.00115">
        <ele>445.94</ele>
        <time>2022-05-30T07:56:55Z</time>
      </trkpt>
      <trkpt lat="47.7263" lon="5.00115">
        <ele>446.28</ele>
        <time>2022-05-30T07:56:57Z</time>
      </trkpt>
      <trkpt lat="47.72634" lon="5.00113">
        <ele>446.6</ele>
        <time>2022-05-30T07:57:00Z</time>
      </trkpt>
      <trkpt lat="47.72636" lon="5.00112">
        <ele>446.75</ele>
        <time>2022-05-30T07:57:02Z</time>
      </trkpt>
      <trkpt lat="47.72639" lon="5.00111">
        <ele>446.99</ele>
        <time>2022-05-30T07:57:03Z</time>
      </trkpt>
      <trkpt lat="47.72643" lon="5.00109">
        <ele>446.7</ele>
        <time>2022-05-30T07:57:06Z</time>
      </trkpt>
      <trkpt lat="47.72646" lon="5.00108">
        <ele>446.52</ele>
        <time>2022-05-30T07:57:09Z</time>
      </trkpt>
      <trkpt lat="47.72649" lon="5.00106">
        <ele>446.27</ele>
        <time>2022-05-30T07:57:11Z</time>
      </trkpt>
      <trkpt lat="47.72651" lon="5.00105">
        <ele>446.12</ele>
        <time>2022-05-30T07:57:13Z</time>
      </trkpt>
      <trkpt lat="47.72654" lon="5.00103">
        <ele>445.87</ele>
        <time>2022-05-30T07:57:15Z</time>
      </trkpt>
      <trkpt lat="47.72657" lon="5.00101">
        <ele>445.62</ele>
        <time>2022-05-30T07:57:18Z</time>
      </trkpt>
      <trkpt lat="47.7266" lon="5.00099">
        <ele>445.37</ele>
        <time>2022-05-30T07:57:20Z</time>
      </trkpt>
      <trkpt lat="47.72663" lon="5.00097">
        <ele>445.12</ele>
        <time>2022-05-30T07:57:22Z</time>
      </trkpt>
      <trkpt lat="47.72666" lon="5.00095">
        <ele>444.86</ele>
        <time>2022-05-30T07:57:25Z</time>
      </trkpt>
      <trkpt lat="47.72669" lon="5.00093">
        <ele>445.03</ele>
        <time>2022-05-30T07:57:27Z</time>
      </trkpt>
      <trkpt lat="47.72671" lon="5.00091">
        <ele>445.18</ele>
        <time>2022-05-30T07:57:30Z</time>
      </trkpt>
      <trkpt lat="47.72674" lon="5.0009">
        <ele>445.54</ele>
        <time>2022-05-30T07:57:32Z</time>
      </trkpt>
      <trkpt lat="47.72676" lon="5.00088">
        <ele>445.68</ele>
        <time>2022-05-30T07:57:35Z</time>
      </trkpt>
      <trkpt lat="47.72679" lon="5.00085">
        <ele>445.9</ele>
        <time>2022-05-30T07:57:38Z</time>
      </trkpt>
      <trkpt lat="47.72682" lon="5.00084">
        <ele>446.26</ele>
        <time>2022-05-30T07:57:40Z</time>
      </trkpt>
      <trkpt lat="47.72685" lon="5.00083">
        <ele>446.58</ele>
        <time>2022-05-30T07:57:44Z</time>
      </trkpt>
      <trkpt lat="47.72687" lon="5.00083">
        <ele>446.86</ele>
        <time>2022-05-30T07:57:46Z</time>
      </trkpt>
      <trkpt lat="47.72691" lon="5.00083">
        <ele>447.44</ele>
        <time>2022-05-30T07:57:49Z</time>
      </trkpt>
      <trkpt lat="47.72694" lon="5.00082">
        <ele>447.7</ele>
        <time>2022-05-30T07:57:52Z</time>
      </trkpt>
      <trkpt lat="47.72697" lon="5.0008">
        <ele>447.69</ele>
        <time>2022-05-30T07:57:55Z</time>
      </trkpt>
      <trkpt lat="47.727" lon="5.00079">
        <ele>447.85</ele>
        <time>2022-05-30T07:57:58Z</time>
      </trkpt>
      <trkpt lat="47.72703" lon="5.00077">
        <ele>447.85</ele>
        <time>2022-05-30T07:58:00Z</time>
      </trkpt>
      <trkpt lat="47.72707" lon="5.00074">
        <ele>447.83</ele>
        <time>2022-05-30T07:58:01Z</time>
      </trkpt>
      <trkpt lat="47.7271" lon="5.00072">
        <ele>447.87</ele>
        <time>2022-05-30T07:58:04Z</time>
      </trkpt>
      <trkpt lat="47.72712" lon="5.0007">
        <ele>447.8</ele>
        <time>2022-05-30T07:58:06Z</time>
      </trkpt>
      <trkpt lat="47.72715" lon="5.0007">
        <ele>448.18</ele>
        <time>2022-05-30T07:58:09Z</time>
      </trkpt>
      <trkpt lat="47.72718" lon="5.00069">
        <ele>448.4</ele>
        <time>2022-05-30T07:58:11Z</time>
      </trkpt>
      <trkpt lat="47.72721" lon="5.00067">
        <ele>448.49</ele>
        <time>2022-05-30T07:58:13Z</time>
      </trkpt>
      <trkpt lat="47.72724" lon="5.00066">
        <ele>448.55</ele>
        <time>2022-05-30T07:58:15Z</time>
      </trkpt>
      <trkpt lat="47.72727" lon="5.00066">
        <ele>448.63</ele>
        <time>2022-05-30T07:58:17Z</time>
      </trkpt>
      <trkpt lat="47.7273" lon="5.00065">
        <ele>448.55</ele>
        <time>2022-05-30T07:58:19Z</time>
      </trkpt>
      <trkpt lat="47.72733" lon="5.00064">
        <ele>448.45</ele>
        <time>2022-05-30T07:58:22Z</time>
      </trkpt>
      <trkpt lat="47.72737" lon="5.00064">
        <ele>448.54</ele>
        <time>2022-05-30T07:58:25Z</time>
      </trkpt>
      <trkpt lat="47.7274" lon="5.00064">
        <ele>448.61</ele>
        <time>2022-05-30T07:58:28Z</time>
      </trkpt>
      <trkpt lat="47.72743" lon="5.00064">
        <ele>448.67</ele>
        <time>2022-05-30T07:58:29Z</time>
      </trkpt>
      <trkpt lat="47.72747" lon="5.00064">
        <ele>448.76</ele>
        <time>2022-05-30T07:58:32Z</time>
      </trkpt>
      <trkpt lat="47.7275" lon="5.00064">
        <ele>448.82</ele>
        <time>2022-05-30T07:58:34Z</time>
      </trkpt>
      <trkpt lat="47.72753" lon="5.00065">
        <ele>449.18</ele>
        <time>2022-05-30T07:58:36Z</time>
      </trkpt>
      <trkpt lat="47.72756" lon="5.00065">
        <ele>449.33</ele>
        <time>2022-05-30T07:58:39Z</time>
      </trkpt>
      <trkpt lat="47.72759" lon="5.00066">
        <ele>449.7</ele>
        <time>2022-05-30T07:58:41Z</time>
      </trkpt>
      <trkpt lat="47.72762" lon="5.00065">
        <ele>449.62</ele>
        <time>2022-05-30T07:58:43Z</time>
      </trkpt>
      <trkpt lat="47.72765" lon="5.00065">
        <ele>449.76</ele>
        <time>2022-05-30T07:58:45Z</time>
      </trkpt>
      <trkpt lat="47.72768" lon="5.00065">
        <ele>449.91</ele>
        <time>2022-05-30T07:58:48Z</time>
      </trkpt>
      <trkpt lat="47.72771" lon="5.00065">
        <ele>450.05</ele>
        <time>2022-05-30T07:58:50Z</time>
      </trkpt>
      <trkpt lat="47.72774" lon="5.00065">
        <ele>450.2</ele>
        <time>2022-05-30T07:58:52Z</time>
      </trkpt>
      <trkpt lat="47.72777" lon="5.00065">
        <ele>450.34</ele>
        <time>2022-05-30T07:58:55Z</time>
      </trkpt>
      <trkpt lat="47.7278" lon="5.00066">
        <ele>450.65</ele>
        <time>2022-05-30T07:58:57Z</time>
      </trkpt>
      <trkpt lat="47.72783" lon="5.00067">
        <ele>450.92</ele>
        <time>2022-05-30T07:58:59Z</time>
      </trkpt>
      <trkpt lat="47.72786" lon="5.00068">
        <ele>451.17</ele>
        <time>2022-05-30T07:59:01Z</time>
      </trkpt>
      <trkpt lat="47.72789" lon="5.0007">
        <ele>451.62</ele>
        <time>2022-05-30T07:59:03Z</time>
      </trkpt>
      <trkpt lat="47.72792" lon="5.00071">
        <ele>451.83</ele>
        <time>2022-05-30T07:59:06Z</time>
      </trkpt>
      <trkpt lat="47.72795" lon="5.00073">
        <ele>452.24</ele>
        <time>2022-05-30T07:59:07Z</time>
      </trkpt>
      <trkpt lat="47.72798" lon="5.00075">
        <ele>452.61</ele>
        <time>2022-05-30T07:59:10Z</time>
      </trkpt>
      <trkpt lat="47.72801" lon="5.00077">
        <ele>452.95</ele>
        <time>2022-05-30T07:59:12Z</time>
      </trkpt>
      <trkpt lat="47.72804" lon="5.0008">
        <ele>453.44</ele>
        <time>2022-05-30T07:59:15Z</time>
      </trkpt>
      <trkpt lat="47.72806" lon="5.00082">
        <ele>453.66</ele>
        <time>2022-05-30T07:59:18Z</time>
      </trkpt>
      <trkpt lat="47.72809" lon="5.00085">
        <ele>453.49</ele>
        <time>2022-05-30T07:59:20Z</time>
      </trkpt>
      <trkpt lat="47.72811" lon="5.00088">
        <ele>453.46</ele>
        <time>2022-05-30T07:59:22Z</time>
      </trkpt>
      <trkpt lat="47.72814" lon="5.0009">
        <ele>453.06</ele>
        <time>2022-05-30T07:59:24Z</time>
      </trkpt>
      <trkpt lat="47.72816" lon="5.00093">
        <ele>453.01</ele>
        <time>2022-05-30T07:59:27Z</time>
      </trkpt>
      <trkpt lat="47.72818" lon="5.00097">
        <ele>453.06</ele>
        <time>2022-05-30T07:59:29Z</time>
      </trkpt>
      <trkpt lat="47.7282" lon="5.001">
        <ele>452.97</ele>
        <time>2022-05-30T07:59:31Z</time>
      </trkpt>
      <trkpt lat="47.72823" lon="5.00103">
        <ele>452.62</ele>
        <time>2022-05-30T07:59:35Z</time>
      </trkpt>
      <trkpt lat="47.72826" lon="5.00107">
        <ele>452.36</ele>
        <time>2022-05-30T07:59:37Z</time>
      </trkpt>
      <trkpt lat="47.72828" lon="5.00109">
        <ele>452.1</ele>
        <time>2022-05-30T07:59:39Z</time>
      </trkpt>
      <trkpt lat="47.7283" lon="5.00112">
        <ele>451.94</ele>
        <time>2022-05-30T07:59:41Z</time>
      </trkpt>
      <trkpt lat="47.72832" lon="5.00116">
        <ele>451.86</ele>
        <time>2022-05-30T07:59:44Z</time>
      </trkpt>
      <trkpt lat="47.72834" lon="5.00119">
        <ele>451.66</ele>
        <time>2022-05-30T07:59:46Z</time>
      </trkpt>
      <trkpt lat="47.72835" lon="5.00122">
        <ele>451.7</ele>
        <time>2022-05-30T07:59:48Z</time>
      </trkpt>
      <trkpt lat="47.72837" lon="5.00126">
        <ele>451.55</ele>
        <time>2022-05-30T07:59:50Z</time>
      </trkpt>
      <trkpt lat="47.72839" lon="5.0013">
        <ele>451.41</ele>
        <time>2022-05-30T07:59:52Z</time>
      </trkpt>
      <trkpt lat="47.72841" lon="5.00134">
        <ele>451.26</ele>
        <time>2022-05-30T07:59:55Z</time>
      </trkpt>
      <trkpt lat="47.72842" lon="5.00138">
        <ele>451.41</ele>
        <time>2022-05-30T07:59:57Z</time>
      </trkpt>
      <trkpt lat="47.72844" lon="5.00143">
        <ele>451.34</ele>
        <time>2022-05-30T08:00:00Z</time>
      </trkpt>
      <trkpt lat="47.72845" lon="5.00147">
        <ele>451.47</ele>
        <time>2022-05-30T08:00:03Z</time>
      </trkpt>
      <trkpt lat="47.72846" lon="5.00151">
        <ele>451.62</ele>
        <time>2022-05-30T08:00:05Z</time>
      </trkpt>
      <trkpt lat="47.72847" lon="5.00155">
        <ele>451.79</ele>
        <time>2022-05-30T08:00:08Z</time>
      </trkpt>
      <trkpt lat="47.72848" lon="5.0016">
        <ele>452.1</ele>
        <time>2022-05-30T08:00:10Z</time>
      </trkpt>
      <trkpt lat="47.72849" lon="5.00164">
        <ele>452.32</ele>
        <time>2022-05-30T08:00:12Z</time>
      </trkpt>
      <trkpt lat="47.72851" lon="5.00168">
        <ele>452.29</ele>
        <time>2022-05-30T08:00:14Z</time>
      </trkpt>
      <trkpt lat="47.72852" lon="5.00173">
        <ele>452.5</ele>
        <time>2022-05-30T08:00:16Z</time>
      </trkpt>
      <trkpt lat="47.72853" lon="5.00177">
        <ele>452.65</ele>
        <time>2022-05-30T08:00:20Z</time>
      </trkpt>
      <trkpt lat="47.72854" lon="5.0018">
        <ele>452.73</ele>
        <time>2022-05-30T08:00:22Z</time>
      </trkpt>
      <trkpt lat="47.72854" lon="5.00186">
        <ele>453.27</ele>
        <time>2022-05-30T08:00:24Z</time>
      </trkpt>
      <trkpt lat="47.72855" lon="5.00191">
        <ele>453.56</ele>
        <time>2022-05-30T08:00:28Z</time>
      </trkpt>
      <trkpt lat="47.72857" lon="5.00195">
        <ele>453.69</ele>
        <time>2022-05-30T08:00:31Z</time>
      </trkpt>
      <trkpt lat="47.72858" lon="5.00199">
        <ele>454.25</ele>
        <time>2022-05-30T08:00:33Z</time>
      </trkpt>
      <trkpt lat="47.72861" lon="5.00202">
        <ele>454.37</ele>
        <time>2022-05-30T08:00:36Z</time>
      </trkpt>
      <trkpt lat="47.72863" lon="5.00205">
        <ele>454.56</ele>
        <time>2022-05-30T08:00:39Z</time>
      </trkpt>
      <trkpt lat="47.72865" lon="5.0021">
        <ele>455.1</ele>
        <time>2022-05-30T08:00:41Z</time>
      </trkpt>
      <trkpt lat="47.72864" lon="5.00214">
        <ele>456</ele>
        <time>2022-05-30T08:00:43Z</time>
      </trkpt>
      <trkpt lat="47.72865" lon="5.00219">
        <ele>456.72</ele>
        <time>2022-05-30T08:00:46Z</time>
      </trkpt>
      <trkpt lat="47.72866" lon="5.00223">
        <ele>457.16</ele>
        <time>2022-05-30T08:00:48Z</time>
      </trkpt>
      <trkpt lat="47.72867" lon="5.00227">
        <ele>457.18</ele>
        <time>2022-05-30T08:00:50Z</time>
      </trkpt>
      <trkpt lat="47.72868" lon="5.00231">
        <ele>457.23</ele>
        <time>2022-05-30T08:00:53Z</time>
      </trkpt>
      <trkpt lat="47.72868" lon="5.00236">
        <ele>457.5</ele>
        <time>2022-05-30T08:00:56Z</time>
      </trkpt>
      <trkpt lat="47.72868" lon="5.0024">
        <ele>457.72</ele>
        <time>2022-05-30T08:00:59Z</time>
      </trkpt>
      <trkpt lat="47.72868" lon="5.00245">
        <ele>457.99</ele>
        <time>2022-05-30T08:01:01Z</time>
      </trkpt>
      <trkpt lat="47.72868" lon="5.00249">
        <ele>458.2</ele>
        <time>2022-05-30T08:01:03Z</time>
      </trkpt>
      <trkpt lat="47.72868" lon="5.00255">
        <ele>458.57</ele>
        <time>2022-05-30T08:01:07Z</time>
      </trkpt>
      <trkpt lat="47.72869" lon="5.0026">
        <ele>458.77</ele>
        <time>2022-05-30T08:01:09Z</time>
      </trkpt>
      <trkpt lat="47.72869" lon="5.00264">
        <ele>459.01</ele>
        <time>2022-05-30T08:01:12Z</time>
      </trkpt>
      <trkpt lat="47.7287" lon="5.00268">
        <ele>459.13</ele>
        <time>2022-05-30T08:01:15Z</time>
      </trkpt>
      <trkpt lat="47.7287" lon="5.00273">
        <ele>459.43</ele>
        <time>2022-05-30T08:01:18Z</time>
      </trkpt>
      <trkpt lat="47.7287" lon="5.00278">
        <ele>459.7</ele>
        <time>2022-05-30T08:01:21Z</time>
      </trkpt>
      <trkpt lat="47.72869" lon="5.00283">
        <ele>459.49</ele>
        <time>2022-05-30T08:01:23Z</time>
      </trkpt>
      <trkpt lat="47.72869" lon="5.00287">
        <ele>459.2</ele>
        <time>2022-05-30T08:01:26Z</time>
      </trkpt>
      <trkpt lat="47.7287" lon="5.00292">
        <ele>458.7</ele>
        <time>2022-05-30T08:01:29Z</time>
      </trkpt>
      <trkpt lat="47.72871" lon="5.00296">
        <ele>458.26</ele>
        <time>2022-05-30T08:01:32Z</time>
      </trkpt>
      <trkpt lat="47.72871" lon="5.00301">
        <ele>457.9</ele>
        <time>2022-05-30T08:01:34Z</time>
      </trkpt>
      <trkpt lat="47.72871" lon="5.00306">
        <ele>457.57</ele>
        <time>2022-05-30T08:01:37Z</time>
      </trkpt>
      <trkpt lat="47.72871" lon="5.0031">
        <ele>457.47</ele>
        <time>2022-05-30T08:01:40Z</time>
      </trkpt>
      <trkpt lat="47.72871" lon="5.00315">
        <ele>457.36</ele>
        <time>2022-05-30T08:01:43Z</time>
      </trkpt>
      <trkpt lat="47.72872" lon="5.00319">
        <ele>457.14</ele>
        <time>2022-05-30T08:01:45Z</time>
      </trkpt>
      <trkpt lat="47.72873" lon="5.00323">
        <ele>456.93</ele>
        <time>2022-05-30T08:01:48Z</time>
      </trkpt>
      <trkpt lat="47.72874" lon="5.00327">
        <ele>456.73</ele>
        <time>2022-05-30T08:01:50Z</time>
      </trkpt>
      <trkpt lat="47.72875" lon="5.00331">
        <ele>456.54</ele>
        <time>2022-05-30T08:01:52Z</time>
      </trkpt>
      <trkpt lat="47.72876" lon="5.00336">
        <ele>456.44</ele>
        <time>2022-05-30T08:01:55Z</time>
      </trkpt>
      <trkpt lat="47.72876" lon="5.0034">
        <ele>456.52</ele>
        <time>2022-05-30T08:01:57Z</time>
      </trkpt>
      <trkpt lat="47.72877" lon="5.00345">
        <ele>456.52</ele>
        <time>2022-05-30T08:02:00Z</time>
      </trkpt>
      <trkpt lat="47.72877" lon="5.00348">
        <ele>456.59</ele>
        <time>2022-05-30T08:02:02Z</time>
      </trkpt>
      <trkpt lat="47.72878" lon="5.00353">
        <ele>456.61</ele>
        <time>2022-05-30T08:02:04Z</time>
      </trkpt>
      <trkpt lat="47.72877" lon="5.00358">
        <ele>456.79</ele>
        <time>2022-05-30T08:02:06Z</time>
      </trkpt>
      <trkpt lat="47.72877" lon="5.00363">
        <ele>456.96</ele>
        <time>2022-05-30T08:02:11Z</time>
      </trkpt>
      <trkpt lat="47.72877" lon="5.00368">
        <ele>457.25</ele>
        <time>2022-05-30T08:02:12Z</time>
      </trkpt>
      <trkpt lat="47.72878" lon="5.00373">
        <ele>457.47</ele>
        <time>2022-05-30T08:02:14Z</time>
      </trkpt>
      <trkpt lat="47.72878" lon="5.00378">
        <ele>457.76</ele>
        <time>2022-05-30T08:02:17Z</time>
      </trkpt>
      <trkpt lat="47.72878" lon="5.00383">
        <ele>458.05</ele>
        <time>2022-05-30T08:02:20Z</time>
      </trkpt>
      <trkpt lat="47.72877" lon="5.00387">
        <ele>458.32</ele>
        <time>2022-05-30T08:02:22Z</time>
      </trkpt>
      <trkpt lat="47.72877" lon="5.00391">
        <ele>458.61</ele>
        <time>2022-05-30T08:02:24Z</time>
      </trkpt>
      <trkpt lat="47.72876" lon="5.00396">
        <ele>459.09</ele>
        <time>2022-05-30T08:02:26Z</time>
      </trkpt>
      <trkpt lat="47.72877" lon="5.004">
        <ele>459.4</ele>
        <time>2022-05-30T08:02:30Z</time>
      </trkpt>
      <trkpt lat="47.72876" lon="5.00405">
        <ele>459.89</ele>
        <time>2022-05-30T08:02:32Z</time>
      </trkpt>
      <trkpt lat="47.72875" lon="5.00409">
        <ele>460.31</ele>
        <time>2022-05-30T08:02:34Z</time>
      </trkpt>
      <trkpt lat="47.72875" lon="5.00414">
        <ele>460.76</ele>
        <time>2022-05-30T08:02:36Z</time>
      </trkpt>
      <trkpt lat="47.72875" lon="5.00418">
        <ele>460.88</ele>
        <time>2022-05-30T08:02:38Z</time>
      </trkpt>
      <trkpt lat="47.72875" lon="5.00423">
        <ele>460.43</ele>
        <time>2022-05-30T08:02:41Z</time>
      </trkpt>
      <trkpt lat="47.72875" lon="5.00427">
        <ele>460.07</ele>
        <time>2022-05-30T08:02:43Z</time>
      </trkpt>
      <trkpt lat="47.72874" lon="5.00433">
        <ele>459.5</ele>
        <time>2022-05-30T08:02:46Z</time>
      </trkpt>
      <trkpt lat="47.72873" lon="5.00438">
        <ele>458.95</ele>
        <time>2022-05-30T08:02:49Z</time>
      </trkpt>
      <trkpt lat="47.72872" lon="5.00442">
        <ele>458.44</ele>
        <time>2022-05-30T08:02:50Z</time>
      </trkpt>
      <trkpt lat="47.72871" lon="5.00447">
        <ele>458.09</ele>
        <time>2022-05-30T08:02:53Z</time>
      </trkpt>
      <trkpt lat="47.72871" lon="5.00452">
        <ele>458.13</ele>
        <time>2022-05-30T08:02:55Z</time>
      </trkpt>
      <trkpt lat="47.7287" lon="5.00456">
        <ele>458.13</ele>
        <time>2022-05-30T08:02:58Z</time>
      </trkpt>
      <trkpt lat="47.7287" lon="5.00461">
        <ele>458.2</ele>
        <time>2022-05-30T08:03:00Z</time>
      </trkpt>
      <trkpt lat="47.72871" lon="5.00466">
        <ele>458.24</ele>
        <time>2022-05-30T08:03:02Z</time>
      </trkpt>
      <trkpt lat="47.72871" lon="5.00471">
        <ele>458.28</ele>
        <time>2022-05-30T08:03:04Z</time>
      </trkpt>
      <trkpt lat="47.72872" lon="5.00475">
        <ele>458.18</ele>
        <time>2022-05-30T08:03:06Z</time>
      </trkpt>
      <trkpt lat="47.72872" lon="5.0048">
        <ele>458.12</ele>
        <time>2022-05-30T08:03:10Z</time>
      </trkpt>
      <trkpt lat="47.72873" lon="5.00484">
        <ele>457.9</ele>
        <time>2022-05-30T08:03:12Z</time>
      </trkpt>
      <trkpt lat="47.72873" lon="5.00489">
        <ele>457.8</ele>
        <time>2022-05-30T08:03:15Z</time>
      </trkpt>
      <trkpt lat="47.72872" lon="5.00494">
        <ele>457.94</ele>
        <time>2022-05-30T08:03:17Z</time>
      </trkpt>
      <trkpt lat="47.72872" lon="5.00498">
        <ele>457.89</ele>
        <time>2022-05-30T08:03:20Z</time>
      </trkpt>
      <trkpt lat="47.72872" lon="5.00504">
        <ele>457.81</ele>
        <time>2022-05-30T08:03:23Z</time>
      </trkpt>
      <trkpt lat="47.72872" lon="5.00509">
        <ele>457.74</ele>
        <time>2022-05-30T08:03:26Z</time>
      </trkpt>
      <trkpt lat="47.72872" lon="5.00513">
        <ele>457.68</ele>
        <time>2022-05-30T08:03:28Z</time>
      </trkpt>
      <trkpt lat="47.72871" lon="5.00518">
        <ele>457.92</ele>
        <time>2022-05-30T08:03:30Z</time>
      </trkpt>
      <trkpt lat="47.72871" lon="5.00523">
        <ele>457.86</ele>
        <time>2022-05-30T08:03:33Z</time>
      </trkpt>
      <trkpt lat="47.7287" lon="5.00528">
        <ele>458.1</ele>
        <time>2022-05-30T08:03:36Z</time>
      </trkpt>
      <trkpt lat="47.72868" lon="5.00533">
        <ele>458.34</ele>
        <time>2022-05-30T08:03:38Z</time>
      </trkpt>
      <trkpt lat="47.72867" lon="5.00537">
        <ele>458.31</ele>
        <time>2022-05-30T08:03:40Z</time>
      </trkpt>
      <trkpt lat="47.72867" lon="5.00541">
        <ele>457.97</ele>
        <time>2022-05-30T08:03:43Z</time>
      </trkpt>
      <trkpt lat="47.72866" lon="5.00546">
        <ele>457.79</ele>
        <time>2022-05-30T08:03:45Z</time>
      </trkpt>
      <trkpt lat="47.72866" lon="5.00551">
        <ele>457.35</ele>
        <time>2022-05-30T08:03:48Z</time>
      </trkpt>
      <trkpt lat="47.72866" lon="5.00556">
        <ele>456.93</ele>
        <time>2022-05-30T08:03:50Z</time>
      </trkpt>
      <trkpt lat="47.72865" lon="5.0056">
        <ele>457.04</ele>
        <time>2022-05-30T08:03:53Z</time>
      </trkpt>
      <trkpt lat="47.72864" lon="5.00565">
        <ele>457.11</ele>
        <time>2022-05-30T08:03:56Z</time>
      </trkpt>
      <trkpt lat="47.72862" lon="5.00569">
        <ele>457.35</ele>
        <time>2022-05-30T08:03:58Z</time>
      </trkpt>
      <trkpt lat="47.72861" lon="5.00573">
        <ele>457.38</ele>
        <time>2022-05-30T08:04:00Z</time>
      </trkpt>
      <trkpt lat="47.72859" lon="5.00577">
        <ele>457.46</ele>
        <time>2022-05-30T08:04:02Z</time>
      </trkpt>
      <trkpt lat="47.72858" lon="5.00582">
        <ele>457.38</ele>
        <time>2022-05-30T08:04:04Z</time>
      </trkpt>
      <trkpt lat="47.72856" lon="5.00586">
        <ele>457.47</ele>
        <time>2022-05-30T08:04:07Z</time>
      </trkpt>
      <trkpt lat="47.72855" lon="5.0059">
        <ele>457.47</ele>
        <time>2022-05-30T08:04:09Z</time>
      </trkpt>
      <trkpt lat="47.72853" lon="5.00594">
        <ele>457.6</ele>
        <time>2022-05-30T08:04:11Z</time>
      </trkpt>
      <trkpt lat="47.72851" lon="5.00597">
        <ele>457.78</ele>
        <time>2022-05-30T08:04:13Z</time>
      </trkpt>
      <trkpt lat="47.72849" lon="5.00602">
        <ele>457.93</ele>
        <time>2022-05-30T08:04:17Z</time>
      </trkpt>
      <trkpt lat="47.72847" lon="5.00606">
        <ele>458.12</ele>
        <time>2022-05-30T08:04:20Z</time>
      </trkpt>
      <trkpt lat="47.72844" lon="5.00609">
        <ele>458.49</ele>
        <time>2022-05-30T08:04:21Z</time>
      </trkpt>
      <trkpt lat="47.72842" lon="5.00612">
        <ele>458.65</ele>
        <time>2022-05-30T08:04:24Z</time>
      </trkpt>
      <trkpt lat="47.7284" lon="5.00616">
        <ele>458.47</ele>
        <time>2022-05-30T08:04:26Z</time>
      </trkpt>
      <trkpt lat="47.72838" lon="5.0062">
        <ele>458.31</ele>
        <time>2022-05-30T08:04:28Z</time>
      </trkpt>
      <trkpt lat="47.72837" lon="5.00625">
        <ele>457.91</ele>
        <time>2022-05-30T08:04:31Z</time>
      </trkpt>
      <trkpt lat="47.72835" lon="5.00629">
        <ele>457.79</ele>
        <time>2022-05-30T08:04:34Z</time>
      </trkpt>
      <trkpt lat="47.72834" lon="5.00633">
        <ele>457.52</ele>
        <time>2022-05-30T08:04:37Z</time>
      </trkpt>
      <trkpt lat="47.72832" lon="5.00638">
        <ele>457.33</ele>
        <time>2022-05-30T08:04:41Z</time>
      </trkpt>
      <trkpt lat="47.72831" lon="5.00642">
        <ele>456.99</ele>
        <time>2022-05-30T08:04:44Z</time>
      </trkpt>
      <trkpt lat="47.72829" lon="5.00645">
        <ele>456.97</ele>
        <time>2022-05-30T08:04:46Z</time>
      </trkpt>
      <trkpt lat="47.72827" lon="5.00649">
        <ele>456.85</ele>
        <time>2022-05-30T08:04:50Z</time>
      </trkpt>
      <trkpt lat="47.72825" lon="5.00653">
        <ele>456.77</ele>
        <time>2022-05-30T08:04:53Z</time>
      </trkpt>
      <trkpt lat="47.72823" lon="5.00656">
        <ele>456.85</ele>
        <time>2022-05-30T08:04:55Z</time>
      </trkpt>
      <trkpt lat="47.72821" lon="5.00659">
        <ele>456.97</ele>
        <time>2022-05-30T08:04:59Z</time>
      </trkpt>
      <trkpt lat="47.72818" lon="5.00662">
        <ele>457.35</ele>
        <time>2022-05-30T08:05:01Z</time>
      </trkpt>
      <trkpt lat="47.72816" lon="5.00666">
        <ele>457.43</ele>
        <time>2022-05-30T08:05:04Z</time>
      </trkpt>
      <trkpt lat="47.72814" lon="5.0067">
        <ele>457.55</ele>
        <time>2022-05-30T08:05:07Z</time>
      </trkpt>
      <trkpt lat="47.72812" lon="5.00674">
        <ele>457.65</ele>
        <time>2022-05-30T08:05:10Z</time>
      </trkpt>
      <trkpt lat="47.72811" lon="5.00677">
        <ele>457.58</ele>
        <time>2022-05-30T08:05:12Z</time>
      </trkpt>
      <trkpt lat="47.72808" lon="5.0068">
        <ele>457.99</ele>
        <time>2022-05-30T08:05:16Z</time>
      </trkpt>
      <trkpt lat="47.72805" lon="5.00683">
        <ele>458.29</ele>
        <time>2022-05-30T08:05:18Z</time>
      </trkpt>
      <trkpt lat="47.72803" lon="5.00686">
        <ele>458.16</ele>
        <time>2022-05-30T08:05:20Z</time>
      </trkpt>
      <trkpt lat="47.72801" lon="5.00689">
        <ele>458.05</ele>
        <time>2022-05-30T08:05:23Z</time>
      </trkpt>
      <trkpt lat="47.728" lon="5.00693">
        <ele>457.75</ele>
        <time>2022-05-30T08:05:26Z</time>
      </trkpt>
      <trkpt lat="47.72797" lon="5.00697">
        <ele>457.78</ele>
        <time>2022-05-30T08:05:29Z</time>
      </trkpt>
      <trkpt lat="47.72796" lon="5.007">
        <ele>457.69</ele>
        <time>2022-05-30T08:05:31Z</time>
      </trkpt>
      <trkpt lat="47.72793" lon="5.00703">
        <ele>457.77</ele>
        <time>2022-05-30T08:05:33Z</time>
      </trkpt>
      <trkpt lat="47.72791" lon="5.00707">
        <ele>457.65</ele>
        <time>2022-05-30T08:05:36Z</time>
      </trkpt>
      <trkpt lat="47.72788" lon="5.00711">
        <ele>457.55</ele>
        <time>2022-05-30T08:05:39Z</time>
      </trkpt>
      <trkpt lat="47.72786" lon="5.00714">
        <ele>457.42</ele>
        <time>2022-05-30T08:05:42Z</time>
      </trkpt>
      <trkpt lat="47.72784" lon="5.00718">
        <ele>457.16</ele>
        <time>2022-05-30T08:05:48Z</time>
      </trkpt>
      <trkpt lat="47.72782" lon="5.00722">
        <ele>456.87</ele>
        <time>2022-05-30T08:05:49Z</time>
      </trkpt>
      <trkpt lat="47.7278" lon="5.00725">
        <ele>456.7</ele>
        <time>2022-05-30T08:05:52Z</time>
      </trkpt>
      <trkpt lat="47.72778" lon="5.00729">
        <ele>456.5</ele>
        <time>2022-05-30T08:05:56Z</time>
      </trkpt>
      <trkpt lat="47.72776" lon="5.00732">
        <ele>456.36</ele>
        <time>2022-05-30T08:05:59Z</time>
      </trkpt>
      <trkpt lat="47.72774" lon="5.00735">
        <ele>456.22</ele>
        <time>2022-05-30T08:06:01Z</time>
      </trkpt>
      <trkpt lat="47.72772" lon="5.00738">
        <ele>456.07</ele>
        <time>2022-05-30T08:06:03Z</time>
      </trkpt>
      <trkpt lat="47.72769" lon="5.00741">
        <ele>455.96</ele>
        <time>2022-05-30T08:06:06Z</time>
      </trkpt>
      <trkpt lat="47.72767" lon="5.00744">
        <ele>455.82</ele>
        <time>2022-05-30T08:06:08Z</time>
      </trkpt>
      <trkpt lat="47.72765" lon="5.00747">
        <ele>455.68</ele>
        <time>2022-05-30T08:06:11Z</time>
      </trkpt>
      <trkpt lat="47.72763" lon="5.00751">
        <ele>455.5</ele>
        <time>2022-05-30T08:06:14Z</time>
      </trkpt>
      <trkpt lat="47.72761" lon="5.00753">
        <ele>455.5</ele>
        <time>2022-05-30T08:06:18Z</time>
      </trkpt>
      <trkpt lat="47.72758" lon="5.00756">
        <ele>455.5</ele>
        <time>2022-05-30T08:06:20Z</time>
      </trkpt>
      <trkpt lat="47.72756" lon="5.00758">
        <ele>455.5</ele>
        <time>2022-05-30T08:06:24Z</time>
      </trkpt>
      <trkpt lat="47.72753" lon="5.0076">
        <ele>455.53</ele>
        <time>2022-05-30T08:06:27Z</time>
      </trkpt>
      <trkpt lat="47.72749" lon="5.00763">
        <ele>455.75</ele>
        <time>2022-05-30T08:06:30Z</time>
      </trkpt>
      <trkpt lat="47.72746" lon="5.00765">
        <ele>456.31</ele>
        <time>2022-05-30T08:06:31Z</time>
      </trkpt>
      <trkpt lat="47.72744" lon="5.00768">
        <ele>456.58</ele>
        <time>2022-05-30T08:06:33Z</time>
      </trkpt>
      <trkpt lat="47.72742" lon="5.00772">
        <ele>456.77</ele>
        <time>2022-05-30T08:06:35Z</time>
      </trkpt>
      <trkpt lat="47.72739" lon="5.00775">
        <ele>457.16</ele>
        <time>2022-05-30T08:06:37Z</time>
      </trkpt>
      <trkpt lat="47.72737" lon="5.0078">
        <ele>457.11</ele>
        <time>2022-05-30T08:06:40Z</time>
      </trkpt>
      <trkpt lat="47.72736" lon="5.00784">
        <ele>456.84</ele>
        <time>2022-05-30T08:06:42Z</time>
      </trkpt>
      <trkpt lat="47.72734" lon="5.00787">
        <ele>456.78</ele>
        <time>2022-05-30T08:06:44Z</time>
      </trkpt>
      <trkpt lat="47.72733" lon="5.00792">
        <ele>456.29</ele>
        <time>2022-05-30T08:06:47Z</time>
      </trkpt>
      <trkpt lat="47.72731" lon="5.00795">
        <ele>456.1</ele>
        <time>2022-05-30T08:06:50Z</time>
      </trkpt>
      <trkpt lat="47.72729" lon="5.00798">
        <ele>455.85</ele>
        <time>2022-05-30T08:06:52Z</time>
      </trkpt>
      <trkpt lat="47.72726" lon="5.00801">
        <ele>455.59</ele>
        <time>2022-05-30T08:06:55Z</time>
      </trkpt>
      <trkpt lat="47.72723" lon="5.00804">
        <ele>455.25</ele>
        <time>2022-05-30T08:06:58Z</time>
      </trkpt>
      <trkpt lat="47.72721" lon="5.00806">
        <ele>455.18</ele>
        <time>2022-05-30T08:07:01Z</time>
      </trkpt>
      <trkpt lat="47.72718" lon="5.00808">
        <ele>455.49</ele>
        <time>2022-05-30T08:07:05Z</time>
      </trkpt>
      <trkpt lat="47.72715" lon="5.00811">
        <ele>455.63</ele>
        <time>2022-05-30T08:07:09Z</time>
      </trkpt>
      <trkpt lat="47.72713" lon="5.00814">
        <ele>455.57</ele>
        <time>2022-05-30T08:07:11Z</time>
      </trkpt>
      <trkpt lat="47.72711" lon="5.00817">
        <ele>455.53</ele>
        <time>2022-05-30T08:07:13Z</time>
      </trkpt>
      <trkpt lat="47.72708" lon="5.00821">
        <ele>455.58</ele>
        <time>2022-05-30T08:07:15Z</time>
      </trkpt>
      <trkpt lat="47.72705" lon="5.00825">
        <ele>455.65</ele>
        <time>2022-05-30T08:07:17Z</time>
      </trkpt>
      <trkpt lat="47.72702" lon="5.00827">
        <ele>456.07</ele>
        <time>2022-05-30T08:07:19Z</time>
      </trkpt>
      <trkpt lat="47.72699" lon="5.0083">
        <ele>456.35</ele>
        <time>2022-05-30T08:07:21Z</time>
      </trkpt>
      <trkpt lat="47.72696" lon="5.00833">
        <ele>456.66</ele>
        <time>2022-05-30T08:07:24Z</time>
      </trkpt>
      <trkpt lat="47.72694" lon="5.00836">
        <ele>456.73</ele>
        <time>2022-05-30T08:07:25Z</time>
      </trkpt>
      <trkpt lat="47.72692" lon="5.00838">
        <ele>456.96</ele>
        <time>2022-05-30T08:07:27Z</time>
      </trkpt>
      <trkpt lat="47.72689" lon="5.00841">
        <ele>457.32</ele>
        <time>2022-05-30T08:07:29Z</time>
      </trkpt>
      <trkpt lat="47.72684" lon="5.00846">
        <ele>457.98</ele>
        <time>2022-05-30T08:07:32Z</time>
      </trkpt>
      <trkpt lat="47.72682" lon="5.00849">
        <ele>458.13</ele>
        <time>2022-05-30T08:07:36Z</time>
      </trkpt>
      <trkpt lat="47.7268" lon="5.00852">
        <ele>458.3</ele>
        <time>2022-05-30T08:07:40Z</time>
      </trkpt>
      <trkpt lat="47.72679" lon="5.00856">
        <ele>458.08</ele>
        <time>2022-05-30T08:07:44Z</time>
      </trkpt>
      <trkpt lat="47.72679" lon="5.0086">
        <ele>457.59</ele>
        <time>2022-05-30T08:07:46Z</time>
      </trkpt>
      <trkpt lat="47.72679" lon="5.00864">
        <ele>456.81</ele>
        <time>2022-05-30T08:07:54Z</time>
      </trkpt>
      <trkpt lat="47.72678" lon="5.00868">
        <ele>456.2</ele>
        <time>2022-05-30T08:08:02Z</time>
      </trkpt>
      <trkpt lat="47.72675" lon="5.00871">
        <ele>456.32</ele>
        <time>2022-05-30T08:08:07Z</time>
      </trkpt>
      <trkpt lat="47.72673" lon="5.00872">
        <ele>456.61</ele>
        <time>2022-05-30T08:08:12Z</time>
      </trkpt>
      <trkpt lat="47.7267" lon="5.00875">
        <ele>456.66</ele>
        <time>2022-05-30T08:08:26Z</time>
      </trkpt>
      <trkpt lat="47.72668" lon="5.00875">
        <ele>457.16</ele>
        <time>2022-05-30T08:08:43Z</time>
      </trkpt>
      <trkpt lat="47.72666" lon="5.00878">
        <ele>456.85</ele>
        <time>2022-05-30T08:08:57Z</time>
      </trkpt>
      <trkpt lat="47.72666" lon="5.00882">
        <ele>455.86</ele>
        <time>2022-05-30T08:09:11Z</time>
      </trkpt>
      <trkpt lat="47.72664" lon="5.00885">
        <ele>455.5</ele>
        <time>2022-05-30T08:09:50Z</time>
      </trkpt>
      <trkpt lat="47.72663" lon="5.00889">
        <ele>454.78</ele>
        <time>2022-05-30T08:10:11Z</time>
      </trkpt>
      <trkpt lat="47.72664" lon="5.00893">
        <ele>454.28</ele>
        <time>2022-05-30T08:10:16Z</time>
      </trkpt>
      <trkpt lat="47.72665" lon="5.00897">
        <ele>453.78</ele>
        <time>2022-05-30T08:10:20Z</time>
      </trkpt>
      <trkpt lat="47.72666" lon="5.00901">
        <ele>453.27</ele>
        <time>2022-05-30T08:10:23Z</time>
      </trkpt>
      <trkpt lat="47.72666" lon="5.00905">
        <ele>452.98</ele>
        <time>2022-05-30T08:10:26Z</time>
      </trkpt>
      <trkpt lat="47.72667" lon="5.00909">
        <ele>452.51</ele>
        <time>2022-05-30T08:10:30Z</time>
      </trkpt>
      <trkpt lat="47.72667" lon="5.00914">
        <ele>452.15</ele>
        <time>2022-05-30T08:10:35Z</time>
      </trkpt>
      <trkpt lat="47.72668" lon="5.00918">
        <ele>451.86</ele>
        <time>2022-05-30T08:10:37Z</time>
      </trkpt>
      <trkpt lat="47.72668" lon="5.00922">
        <ele>451.86</ele>
        <time>2022-05-30T08:10:41Z</time>
      </trkpt>
      <trkpt lat="47.72669" lon="5.00927">
        <ele>451.75</ele>
        <time>2022-05-30T08:10:42Z</time>
      </trkpt>
      <trkpt lat="47.72669" lon="5.00932">
        <ele>451.75</ele>
        <time>2022-05-30T08:10:45Z</time>
      </trkpt>
      <trkpt lat="47.72669" lon="5.00937">
        <ele>451.75</ele>
        <time>2022-05-30T08:10:49Z</time>
      </trkpt>
      <trkpt lat="47.7267" lon="5.00941">
        <ele>451.64</ele>
        <time>2022-05-30T08:10:52Z</time>
      </trkpt>
      <trkpt lat="47.72671" lon="5.00944">
        <ele>451.53</ele>
        <time>2022-05-30T08:10:54Z</time>
      </trkpt>
      <trkpt lat="47.72673" lon="5.00948">
        <ele>451.06</ele>
        <time>2022-05-30T08:10:56Z</time>
      </trkpt>
      <trkpt lat="47.72675" lon="5.00952">
        <ele>450.56</ele>
        <time>2022-05-30T08:10:58Z</time>
      </trkpt>
      <trkpt lat="47.72676" lon="5.00955">
        <ele>450.23</ele>
        <time>2022-05-30T08:11:01Z</time>
      </trkpt>
      <trkpt lat="47.72677" lon="5.00959">
        <ele>449.84</ele>
        <time>2022-05-30T08:11:03Z</time>
      </trkpt>
      <trkpt lat="47.72678" lon="5.00963">
        <ele>449.44</ele>
        <time>2022-05-30T08:11:05Z</time>
      </trkpt>
      <trkpt lat="47.7268" lon="5.00967">
        <ele>448.94</ele>
        <time>2022-05-30T08:11:07Z</time>
      </trkpt>
      <trkpt lat="47.72681" lon="5.00971">
        <ele>448.54</ele>
        <time>2022-05-30T08:11:10Z</time>
      </trkpt>
      <trkpt lat="47.72683" lon="5.00974">
        <ele>448.24</ele>
        <time>2022-05-30T08:11:12Z</time>
      </trkpt>
      <trkpt lat="47.72685" lon="5.00979">
        <ele>448.02</ele>
        <time>2022-05-30T08:11:16Z</time>
      </trkpt>
      <trkpt lat="47.72687" lon="5.00983">
        <ele>447.8</ele>
        <time>2022-05-30T08:11:18Z</time>
      </trkpt>
      <trkpt lat="47.72689" lon="5.00986">
        <ele>447.59</ele>
        <time>2022-05-30T08:11:21Z</time>
      </trkpt>
      <trkpt lat="47.72691" lon="5.0099">
        <ele>447.37</ele>
        <time>2022-05-30T08:11:24Z</time>
      </trkpt>
      <trkpt lat="47.72692" lon="5.00994">
        <ele>447.26</ele>
        <time>2022-05-30T08:11:27Z</time>
      </trkpt>
      <trkpt lat="47.72694" lon="5.01">
        <ele>447.05</ele>
        <time>2022-05-30T08:11:30Z</time>
      </trkpt>
      <trkpt lat="47.72695" lon="5.01004">
        <ele>446.82</ele>
        <time>2022-05-30T08:11:33Z</time>
      </trkpt>
      <trkpt lat="47.72697" lon="5.01008">
        <ele>446.61</ele>
        <time>2022-05-30T08:11:34Z</time>
      </trkpt>
      <trkpt lat="47.72699" lon="5.01012">
        <ele>446.45</ele>
        <time>2022-05-30T08:11:36Z</time>
      </trkpt>
      <trkpt lat="47.72701" lon="5.01016">
        <ele>446.36</ele>
        <time>2022-05-30T08:11:40Z</time>
      </trkpt>
      <trkpt lat="47.72703" lon="5.0102">
        <ele>446.33</ele>
        <time>2022-05-30T08:11:42Z</time>
      </trkpt>
      <trkpt lat="47.72704" lon="5.01024">
        <ele>446.34</ele>
        <time>2022-05-30T08:11:45Z</time>
      </trkpt>
      <trkpt lat="47.72706" lon="5.01031">
        <ele>446.74</ele>
        <time>2022-05-30T08:11:49Z</time>
      </trkpt>
      <trkpt lat="47.72708" lon="5.01036">
        <ele>447.24</ele>
        <time>2022-05-30T08:11:51Z</time>
      </trkpt>
      <trkpt lat="47.7271" lon="5.0104">
        <ele>447.58</ele>
        <time>2022-05-30T08:11:54Z</time>
      </trkpt>
      <trkpt lat="47.72712" lon="5.01044">
        <ele>447.86</ele>
        <time>2022-05-30T08:11:56Z</time>
      </trkpt>
      <trkpt lat="47.72713" lon="5.01048">
        <ele>448.12</ele>
        <time>2022-05-30T08:11:59Z</time>
      </trkpt>
      <trkpt lat="47.72714" lon="5.01052">
        <ele>448.35</ele>
        <time>2022-05-30T08:12:01Z</time>
      </trkpt>
      <trkpt lat="47.72716" lon="5.01056">
        <ele>448.52</ele>
        <time>2022-05-30T08:12:05Z</time>
      </trkpt>
      <trkpt lat="47.72716" lon="5.01061">
        <ele>449.3</ele>
        <time>2022-05-30T08:12:07Z</time>
      </trkpt>
      <trkpt lat="47.72716" lon="5.01067">
        <ele>450.23</ele>
        <time>2022-05-30T08:12:09Z</time>
      </trkpt>
      <trkpt lat="47.72717" lon="5.01071">
        <ele>450.84</ele>
        <time>2022-05-30T08:12:11Z</time>
      </trkpt>
      <trkpt lat="47.72717" lon="5.01075">
        <ele>451.48</ele>
        <time>2022-05-30T08:12:14Z</time>
      </trkpt>
      <trkpt lat="47.72717" lon="5.0108">
        <ele>452.28</ele>
        <time>2022-05-30T08:12:17Z</time>
      </trkpt>
      <trkpt lat="47.72717" lon="5.01085">
        <ele>453.09</ele>
        <time>2022-05-30T08:12:20Z</time>
      </trkpt>
      <trkpt lat="47.72717" lon="5.0109">
        <ele>453.92</ele>
        <time>2022-05-30T08:12:22Z</time>
      </trkpt>
      <trkpt lat="47.72716" lon="5.01096">
        <ele>454.85</ele>
        <time>2022-05-30T08:12:26Z</time>
      </trkpt>
      <trkpt lat="47.72716" lon="5.011">
        <ele>455.51</ele>
        <time>2022-05-30T08:12:27Z</time>
      </trkpt>
      <trkpt lat="47.72716" lon="5.01105">
        <ele>456.33</ele>
        <time>2022-05-30T08:12:30Z</time>
      </trkpt>
      <trkpt lat="47.72716" lon="5.01109">
        <ele>456.98</ele>
        <time>2022-05-30T08:12:32Z</time>
      </trkpt>
      <trkpt lat="47.72716" lon="5.01114">
        <ele>457.65</ele>
        <time>2022-05-30T08:12:35Z</time>
      </trkpt>
      <trkpt lat="47.72716" lon="5.01119">
        <ele>458.21</ele>
        <time>2022-05-30T08:12:38Z</time>
      </trkpt>
      <trkpt lat="47.72715" lon="5.01124">
        <ele>458.59</ele>
        <time>2022-05-30T08:12:40Z</time>
      </trkpt>
      <trkpt lat="47.72715" lon="5.01128">
        <ele>459.02</ele>
        <time>2022-05-30T08:12:43Z</time>
      </trkpt>
      <trkpt lat="47.72715" lon="5.01133">
        <ele>459.55</ele>
        <time>2022-05-30T08:12:46Z</time>
      </trkpt>
      <trkpt lat="47.72716" lon="5.01137">
        <ele>460.22</ele>
        <time>2022-05-30T08:12:50Z</time>
      </trkpt>
      <trkpt lat="47.72716" lon="5.01141">
        <ele>460.51</ele>
        <time>2022-05-30T08:12:54Z</time>
      </trkpt>
      <trkpt lat="47.72716" lon="5.01145">
        <ele>460.65</ele>
        <time>2022-05-30T08:12:58Z</time>
      </trkpt>
      <trkpt lat="47.72715" lon="5.0115">
        <ele>460.58</ele>
        <time>2022-05-30T08:13:03Z</time>
      </trkpt>
      <trkpt lat="47.72714" lon="5.01154">
        <ele>460.47</ele>
        <time>2022-05-30T08:13:08Z</time>
      </trkpt>
      <trkpt lat="47.72715" lon="5.01159">
        <ele>460.9</ele>
        <time>2022-05-30T08:13:11Z</time>
      </trkpt>
      <trkpt lat="47.72714" lon="5.01164">
        <ele>460.83</ele>
        <time>2022-05-30T08:13:13Z</time>
      </trkpt>
      <trkpt lat="47.72714" lon="5.01168">
        <ele>461.06</ele>
        <time>2022-05-30T08:13:16Z</time>
      </trkpt>
      <trkpt lat="47.72715" lon="5.01173">
        <ele>461.8</ele>
        <time>2022-05-30T08:13:19Z</time>
      </trkpt>
      <trkpt lat="47.72714" lon="5.01177">
        <ele>461.93</ele>
        <time>2022-05-30T08:13:24Z</time>
      </trkpt>
      <trkpt lat="47.72714" lon="5.01182">
        <ele>462.42</ele>
        <time>2022-05-30T08:13:32Z</time>
      </trkpt>
      <trkpt lat="47.72713" lon="5.01185">
        <ele>462.44</ele>
        <time>2022-05-30T08:13:42Z</time>
      </trkpt>
      <trkpt lat="47.72711" lon="5.01189">
        <ele>462.26</ele>
        <time>2022-05-30T08:14:28Z</time>
      </trkpt>
      <trkpt lat="47.72708" lon="5.0119">
        <ele>461.51</ele>
        <time>2022-05-30T08:15:24Z</time>
      </trkpt>
      <trkpt lat="47.72706" lon="5.01192">
        <ele>461.12</ele>
        <time>2022-05-30T08:15:40Z</time>
      </trkpt>
      <trkpt lat="47.72703" lon="5.01194">
        <ele>460.43</ele>
        <time>2022-05-30T08:15:44Z</time>
      </trkpt>
      <trkpt lat="47.727" lon="5.01195">
        <ele>459.66</ele>
        <time>2022-05-30T08:15:47Z</time>
      </trkpt>
      <trkpt lat="47.72698" lon="5.01197">
        <ele>459.29</ele>
        <time>2022-05-30T08:15:49Z</time>
      </trkpt>
      <trkpt lat="47.72695" lon="5.012">
        <ele>458.76</ele>
        <time>2022-05-30T08:15:53Z</time>
      </trkpt>
      <trkpt lat="47.72693" lon="5.01203">
        <ele>458.88</ele>
        <time>2022-05-30T08:16:00Z</time>
      </trkpt>
      <trkpt lat="47.72691" lon="5.01206">
        <ele>459.09</ele>
        <time>2022-05-30T08:16:03Z</time>
      </trkpt>
      <trkpt lat="47.72688" lon="5.01208">
        <ele>459.12</ele>
        <time>2022-05-30T08:16:06Z</time>
      </trkpt>
      <trkpt lat="47.72685" lon="5.0121">
        <ele>459.11</ele>
        <time>2022-05-30T08:16:09Z</time>
      </trkpt>
      <trkpt lat="47.72683" lon="5.01212">
        <ele>459.11</ele>
        <time>2022-05-30T08:16:12Z</time>
      </trkpt>
      <trkpt lat="47.7268" lon="5.01214">
        <ele>459.01</ele>
        <time>2022-05-30T08:16:15Z</time>
      </trkpt>
      <trkpt lat="47.72677" lon="5.01216">
        <ele>458.87</ele>
        <time>2022-05-30T08:16:18Z</time>
      </trkpt>
      <trkpt lat="47.72674" lon="5.01218">
        <ele>458.67</ele>
        <time>2022-05-30T08:16:20Z</time>
      </trkpt>
      <trkpt lat="47.72671" lon="5.0122">
        <ele>458.43</ele>
        <time>2022-05-30T08:16:22Z</time>
      </trkpt>
      <trkpt lat="47.72668" lon="5.01221">
        <ele>458.14</ele>
        <time>2022-05-30T08:16:24Z</time>
      </trkpt>
      <trkpt lat="47.72665" lon="5.01223">
        <ele>457.8</ele>
        <time>2022-05-30T08:16:27Z</time>
      </trkpt>
      <trkpt lat="47.72662" lon="5.01224">
        <ele>457.45</ele>
        <time>2022-05-30T08:16:30Z</time>
      </trkpt>
      <trkpt lat="47.7266" lon="5.01225">
        <ele>457.23</ele>
        <time>2022-05-30T08:16:32Z</time>
      </trkpt>
      <trkpt lat="47.72657" lon="5.01226">
        <ele>456.91</ele>
        <time>2022-05-30T08:16:34Z</time>
      </trkpt>
      <trkpt lat="47.72654" lon="5.01227">
        <ele>456.62</ele>
        <time>2022-05-30T08:16:36Z</time>
      </trkpt>
      <trkpt lat="47.72651" lon="5.01228">
        <ele>456.33</ele>
        <time>2022-05-30T08:16:38Z</time>
      </trkpt>
      <trkpt lat="47.72648" lon="5.01229">
        <ele>456.07</ele>
        <time>2022-05-30T08:16:41Z</time>
      </trkpt>
      <trkpt lat="47.72645" lon="5.01231">
        <ele>455.84</ele>
        <time>2022-05-30T08:16:44Z</time>
      </trkpt>
      <trkpt lat="47.72643" lon="5.01233">
        <ele>455.72</ele>
        <time>2022-05-30T08:16:45Z</time>
      </trkpt>
      <trkpt lat="47.7264" lon="5.01235">
        <ele>455.54</ele>
        <time>2022-05-30T08:16:48Z</time>
      </trkpt>
      <trkpt lat="47.72638" lon="5.01238">
        <ele>455.6</ele>
        <time>2022-05-30T08:16:50Z</time>
      </trkpt>
      <trkpt lat="47.72635" lon="5.01241">
        <ele>455.82</ele>
        <time>2022-05-30T08:16:53Z</time>
      </trkpt>
      <trkpt lat="47.72632" lon="5.01243">
        <ele>456</ele>
        <time>2022-05-30T08:16:56Z</time>
      </trkpt>
      <trkpt lat="47.7263" lon="5.01245">
        <ele>456.14</ele>
        <time>2022-05-30T08:16:58Z</time>
      </trkpt>
      <trkpt lat="47.72627" lon="5.01247">
        <ele>456.32</ele>
        <time>2022-05-30T08:17:00Z</time>
      </trkpt>
      <trkpt lat="47.72625" lon="5.01249">
        <ele>456.46</ele>
        <time>2022-05-30T08:17:01Z</time>
      </trkpt>
      <trkpt lat="47.72623" lon="5.01251">
        <ele>456.69</ele>
        <time>2022-05-30T08:17:03Z</time>
      </trkpt>
      <trkpt lat="47.7262" lon="5.01255">
        <ele>457.28</ele>
        <time>2022-05-30T08:17:06Z</time>
      </trkpt>
      <trkpt lat="47.72618" lon="5.01257">
        <ele>457.64</ele>
        <time>2022-05-30T08:17:07Z</time>
      </trkpt>
      <trkpt lat="47.72616" lon="5.01259">
        <ele>458.01</ele>
        <time>2022-05-30T08:17:09Z</time>
      </trkpt>
      <trkpt lat="47.72613" lon="5.01262">
        <ele>458.6</ele>
        <time>2022-05-30T08:17:11Z</time>
      </trkpt>
      <trkpt lat="47.7261" lon="5.01264">
        <ele>459.02</ele>
        <time>2022-05-30T08:17:12Z</time>
      </trkpt>
      <trkpt lat="47.72607" lon="5.01266">
        <ele>459.28</ele>
        <time>2022-05-30T08:17:15Z</time>
      </trkpt>
      <trkpt lat="47.72604" lon="5.01268">
        <ele>459.52</ele>
        <time>2022-05-30T08:17:18Z</time>
      </trkpt>
      <trkpt lat="47.72602" lon="5.0127">
        <ele>459.74</ele>
        <time>2022-05-30T08:17:21Z</time>
      </trkpt>
      <trkpt lat="47.72599" lon="5.01272">
        <ele>459.91</ele>
        <time>2022-05-30T08:17:24Z</time>
      </trkpt>
      <trkpt lat="47.72596" lon="5.01275">
        <ele>460.16</ele>
        <time>2022-05-30T08:17:26Z</time>
      </trkpt>
      <trkpt lat="47.72594" lon="5.01277">
        <ele>460.31</ele>
        <time>2022-05-30T08:17:28Z</time>
      </trkpt>
      <trkpt lat="47.72592" lon="5.01279">
        <ele>460.43</ele>
        <time>2022-05-30T08:17:30Z</time>
      </trkpt>
      <trkpt lat="47.72588" lon="5.01281">
        <ele>460.5</ele>
        <time>2022-05-30T08:17:32Z</time>
      </trkpt>
      <trkpt lat="47.72586" lon="5.01283">
        <ele>460.64</ele>
        <time>2022-05-30T08:17:33Z</time>
      </trkpt>
      <trkpt lat="47.72583" lon="5.01284">
        <ele>460.71</ele>
        <time>2022-05-30T08:17:35Z</time>
      </trkpt>
      <trkpt lat="47.7258" lon="5.01286">
        <ele>461.25</ele>
        <time>2022-05-30T08:17:36Z</time>
      </trkpt>
      <trkpt lat="47.72577" lon="5.01287">
        <ele>461.68</ele>
        <time>2022-05-30T08:17:39Z</time>
      </trkpt>
      <trkpt lat="47.72574" lon="5.01289">
        <ele>462.22</ele>
        <time>2022-05-30T08:17:41Z</time>
      </trkpt>
      <trkpt lat="47.72571" lon="5.01291">
        <ele>462.76</ele>
        <time>2022-05-30T08:17:43Z</time>
      </trkpt>
      <trkpt lat="47.72568" lon="5.01295">
        <ele>463.52</ele>
        <time>2022-05-30T08:17:45Z</time>
      </trkpt>
      <trkpt lat="47.72566" lon="5.01297">
        <ele>463.95</ele>
        <time>2022-05-30T08:17:47Z</time>
      </trkpt>
      <trkpt lat="47.72563" lon="5.01299">
        <ele>464.49</ele>
        <time>2022-05-30T08:17:49Z</time>
      </trkpt>
      <trkpt lat="47.7256" lon="5.01301">
        <ele>465.03</ele>
        <time>2022-05-30T08:17:51Z</time>
      </trkpt>
      <trkpt lat="47.72557" lon="5.01302">
        <ele>465.46</ele>
        <time>2022-05-30T08:17:53Z</time>
      </trkpt>
      <trkpt lat="47.72553" lon="5.01305">
        <ele>465.85</ele>
        <time>2022-05-30T08:17:55Z</time>
      </trkpt>
      <trkpt lat="47.7255" lon="5.01307">
        <ele>466.05</ele>
        <time>2022-05-30T08:17:58Z</time>
      </trkpt>
      <trkpt lat="47.72548" lon="5.0131">
        <ele>466.43</ele>
        <time>2022-05-30T08:18:00Z</time>
      </trkpt>
      <trkpt lat="47.72545" lon="5.01312">
        <ele>466.48</ele>
        <time>2022-05-30T08:18:02Z</time>
      </trkpt>
      <trkpt lat="47.72541" lon="5.01314">
        <ele>466.34</ele>
        <time>2022-05-30T08:18:04Z</time>
      </trkpt>
      <trkpt lat="47.72538" lon="5.01316">
        <ele>466.2</ele>
        <time>2022-05-30T08:18:06Z</time>
      </trkpt>
      <trkpt lat="47.72535" lon="5.01318">
        <ele>465.96</ele>
        <time>2022-05-30T08:18:10Z</time>
      </trkpt>
      <trkpt lat="47.72532" lon="5.01321">
        <ele>465.66</ele>
        <time>2022-05-30T08:18:12Z</time>
      </trkpt>
      <trkpt lat="47.7253" lon="5.01323">
        <ele>465.38</ele>
        <time>2022-05-30T08:18:14Z</time>
      </trkpt>
      <trkpt lat="47.72527" lon="5.01325">
        <ele>465.05</ele>
        <time>2022-05-30T08:18:16Z</time>
      </trkpt>
      <trkpt lat="47.72524" lon="5.01326">
        <ele>465.24</ele>
        <time>2022-05-30T08:18:18Z</time>
      </trkpt>
      <trkpt lat="47.72521" lon="5.01327">
        <ele>465.41</ele>
        <time>2022-05-30T08:18:21Z</time>
      </trkpt>
      <trkpt lat="47.72518" lon="5.01329">
        <ele>465.52</ele>
        <time>2022-05-30T08:18:23Z</time>
      </trkpt>
      <trkpt lat="47.72516" lon="5.0133">
        <ele>465.58</ele>
        <time>2022-05-30T08:18:24Z</time>
      </trkpt>
      <trkpt lat="47.72513" lon="5.01332">
        <ele>465.61</ele>
        <time>2022-05-30T08:18:27Z</time>
      </trkpt>
      <trkpt lat="47.7251" lon="5.01334">
        <ele>465.64</ele>
        <time>2022-05-30T08:18:28Z</time>
      </trkpt>
      <trkpt lat="47.72508" lon="5.01336">
        <ele>465.69</ele>
        <time>2022-05-30T08:18:30Z</time>
      </trkpt>
      <trkpt lat="47.72505" lon="5.01339">
        <ele>465.63</ele>
        <time>2022-05-30T08:18:33Z</time>
      </trkpt>
      <trkpt lat="47.72503" lon="5.01343">
        <ele>465.42</ele>
        <time>2022-05-30T08:18:35Z</time>
      </trkpt>
      <trkpt lat="47.72502" lon="5.01347">
        <ele>465.16</ele>
        <time>2022-05-30T08:18:38Z</time>
      </trkpt>
      <trkpt lat="47.72501" lon="5.01351">
        <ele>464.83</ele>
        <time>2022-05-30T08:18:42Z</time>
      </trkpt>
      <trkpt lat="47.72499" lon="5.01355">
        <ele>464.38</ele>
        <time>2022-05-30T08:18:47Z</time>
      </trkpt>
      <trkpt lat="47.72499" lon="5.01359">
        <ele>464.09</ele>
        <time>2022-05-30T08:18:50Z</time>
      </trkpt>
      <trkpt lat="47.72497" lon="5.01363">
        <ele>463.91</ele>
        <time>2022-05-30T08:18:53Z</time>
      </trkpt>
      <trkpt lat="47.72497" lon="5.01367">
        <ele>464.19</ele>
        <time>2022-05-30T08:18:56Z</time>
      </trkpt>
      <trkpt lat="47.72497" lon="5.01371">
        <ele>464.46</ele>
        <time>2022-05-30T08:18:59Z</time>
      </trkpt>
      <trkpt lat="47.72498" lon="5.01375">
        <ele>464.82</ele>
        <time>2022-05-30T08:19:02Z</time>
      </trkpt>
      <trkpt lat="47.72499" lon="5.01379">
        <ele>465.19</ele>
        <time>2022-05-30T08:19:04Z</time>
      </trkpt>
      <trkpt lat="47.725" lon="5.01383">
        <ele>465.58</ele>
        <time>2022-05-30T08:19:06Z</time>
      </trkpt>
      <trkpt lat="47.72501" lon="5.01387">
        <ele>465.91</ele>
        <time>2022-05-30T08:19:08Z</time>
      </trkpt>
      <trkpt lat="47.72502" lon="5.01391">
        <ele>466.14</ele>
        <time>2022-05-30T08:19:11Z</time>
      </trkpt>
      <trkpt lat="47.72503" lon="5.01395">
        <ele>466.28</ele>
        <time>2022-05-30T08:19:13Z</time>
      </trkpt>
      <trkpt lat="47.72504" lon="5.014">
        <ele>466.43</ele>
        <time>2022-05-30T08:19:16Z</time>
      </trkpt>
      <trkpt lat="47.72505" lon="5.01404">
        <ele>466.53</ele>
        <time>2022-05-30T08:19:18Z</time>
      </trkpt>
      <trkpt lat="47.72507" lon="5.01407">
        <ele>466.58</ele>
        <time>2022-05-30T08:19:21Z</time>
      </trkpt>
      <trkpt lat="47.72509" lon="5.0141">
        <ele>466.59</ele>
        <time>2022-05-30T08:19:23Z</time>
      </trkpt>
      <trkpt lat="47.72511" lon="5.01414">
        <ele>466.58</ele>
        <time>2022-05-30T08:19:26Z</time>
      </trkpt>
      <trkpt lat="47.72512" lon="5.01418">
        <ele>466.62</ele>
        <time>2022-05-30T08:19:29Z</time>
      </trkpt>
      <trkpt lat="47.72513" lon="5.01422">
        <ele>466.74</ele>
        <time>2022-05-30T08:19:30Z</time>
      </trkpt>
      <trkpt lat="47.72513" lon="5.01427">
        <ele>466.93</ele>
        <time>2022-05-30T08:19:33Z</time>
      </trkpt>
      <trkpt lat="47.72514" lon="5.01431">
        <ele>467.01</ele>
        <time>2022-05-30T08:19:35Z</time>
      </trkpt>
      <trkpt lat="47.72515" lon="5.01435">
        <ele>467.07</ele>
        <time>2022-05-30T08:19:39Z</time>
      </trkpt>
      <trkpt lat="47.72516" lon="5.0144">
        <ele>467.14</ele>
        <time>2022-05-30T08:19:42Z</time>
      </trkpt>
      <trkpt lat="47.72518" lon="5.01446">
        <ele>467.13</ele>
        <time>2022-05-30T08:19:46Z</time>
      </trkpt>
      <trkpt lat="47.7252" lon="5.01451">
        <ele>467.14</ele>
        <time>2022-05-30T08:19:47Z</time>
      </trkpt>
      <trkpt lat="47.72521" lon="5.01456">
        <ele>467.25</ele>
        <time>2022-05-30T08:19:50Z</time>
      </trkpt>
      <trkpt lat="47.72523" lon="5.0146">
        <ele>467.17</ele>
        <time>2022-05-30T08:19:52Z</time>
      </trkpt>
      <trkpt lat="47.72524" lon="5.01464">
        <ele>467.21</ele>
        <time>2022-05-30T08:19:54Z</time>
      </trkpt>
      <trkpt lat="47.72526" lon="5.01468">
        <ele>467.09</ele>
        <time>2022-05-30T08:19:56Z</time>
      </trkpt>
      <trkpt lat="47.72528" lon="5.01472">
        <ele>467</ele>
        <time>2022-05-30T08:19:58Z</time>
      </trkpt>
      <trkpt lat="47.7253" lon="5.01476">
        <ele>467.34</ele>
        <time>2022-05-30T08:20:00Z</time>
      </trkpt>
      <trkpt lat="47.72531" lon="5.01479">
        <ele>467.58</ele>
        <time>2022-05-30T08:20:03Z</time>
      </trkpt>
      <trkpt lat="47.72533" lon="5.01483">
        <ele>467.89</ele>
        <time>2022-05-30T08:20:05Z</time>
      </trkpt>
      <trkpt lat="47.72534" lon="5.01487">
        <ele>468.17</ele>
        <time>2022-05-30T08:20:08Z</time>
      </trkpt>
      <trkpt lat="47.72536" lon="5.01491">
        <ele>468.45</ele>
        <time>2022-05-30T08:20:10Z</time>
      </trkpt>
      <trkpt lat="47.72537" lon="5.01495">
        <ele>468.7</ele>
        <time>2022-05-30T08:20:12Z</time>
      </trkpt>
      <trkpt lat="47.72538" lon="5.01499">
        <ele>468.94</ele>
        <time>2022-05-30T08:20:14Z</time>
      </trkpt>
      <trkpt lat="47.7254" lon="5.01502">
        <ele>469.22</ele>
        <time>2022-05-30T08:20:16Z</time>
      </trkpt>
      <trkpt lat="47.72541" lon="5.01506">
        <ele>469.65</ele>
        <time>2022-05-30T08:20:18Z</time>
      </trkpt>
      <trkpt lat="47.72542" lon="5.01511">
        <ele>470.19</ele>
        <time>2022-05-30T08:20:21Z</time>
      </trkpt>
      <trkpt lat="47.72542" lon="5.01515">
        <ele>470.62</ele>
        <time>2022-05-30T08:20:23Z</time>
      </trkpt>
      <trkpt lat="47.72543" lon="5.01519">
        <ele>471.05</ele>
        <time>2022-05-30T08:20:25Z</time>
      </trkpt>
      <trkpt lat="47.72544" lon="5.01524">
        <ele>471.59</ele>
        <time>2022-05-30T08:20:27Z</time>
      </trkpt>
      <trkpt lat="47.72545" lon="5.01529">
        <ele>472.12</ele>
        <time>2022-05-30T08:20:29Z</time>
      </trkpt>
      <trkpt lat="47.72546" lon="5.01533">
        <ele>472.51</ele>
        <time>2022-05-30T08:20:32Z</time>
      </trkpt>
      <trkpt lat="47.72547" lon="5.01536">
        <ele>472.77</ele>
        <time>2022-05-30T08:20:34Z</time>
      </trkpt>
      <trkpt lat="47.72549" lon="5.0154">
        <ele>473.09</ele>
        <time>2022-05-30T08:20:36Z</time>
      </trkpt>
      <trkpt lat="47.7255" lon="5.01544">
        <ele>473.4</ele>
        <time>2022-05-30T08:20:38Z</time>
      </trkpt>
      <trkpt lat="47.72551" lon="5.01548">
        <ele>473.69</ele>
        <time>2022-05-30T08:20:41Z</time>
      </trkpt>
      <trkpt lat="47.72552" lon="5.01552">
        <ele>473.97</ele>
        <time>2022-05-30T08:20:42Z</time>
      </trkpt>
      <trkpt lat="47.72554" lon="5.01557">
        <ele>474.16</ele>
        <time>2022-05-30T08:20:45Z</time>
      </trkpt>
      <trkpt lat="47.72555" lon="5.01561">
        <ele>474.24</ele>
        <time>2022-05-30T08:20:47Z</time>
      </trkpt>
      <trkpt lat="47.72556" lon="5.01566">
        <ele>474.32</ele>
        <time>2022-05-30T08:20:49Z</time>
      </trkpt>
      <trkpt lat="47.72557" lon="5.0157">
        <ele>474.34</ele>
        <time>2022-05-30T08:20:52Z</time>
      </trkpt>
      <trkpt lat="47.72559" lon="5.01577">
        <ele>474.3</ele>
        <time>2022-05-30T08:20:55Z</time>
      </trkpt>
      <trkpt lat="47.72561" lon="5.01581">
        <ele>474.15</ele>
        <time>2022-05-30T08:20:57Z</time>
      </trkpt>
      <trkpt lat="47.72562" lon="5.01584">
        <ele>474.06</ele>
        <time>2022-05-30T08:20:58Z</time>
      </trkpt>
      <trkpt lat="47.72564" lon="5.01588">
        <ele>473.68</ele>
        <time>2022-05-30T08:21:01Z</time>
      </trkpt>
      <trkpt lat="47.72565" lon="5.01593">
        <ele>473.4</ele>
        <time>2022-05-30T08:21:03Z</time>
      </trkpt>
      <trkpt lat="47.72567" lon="5.01597">
        <ele>472.95</ele>
        <time>2022-05-30T08:21:05Z</time>
      </trkpt>
      <trkpt lat="47.72568" lon="5.01602">
        <ele>472.61</ele>
        <time>2022-05-30T08:21:07Z</time>
      </trkpt>
      <trkpt lat="47.7257" lon="5.01606">
        <ele>472.07</ele>
        <time>2022-05-30T08:21:09Z</time>
      </trkpt>
      <trkpt lat="47.72571" lon="5.0161">
        <ele>471.71</ele>
        <time>2022-05-30T08:21:11Z</time>
      </trkpt>
      <trkpt lat="47.72573" lon="5.01614">
        <ele>471.19</ele>
        <time>2022-05-30T08:21:14Z</time>
      </trkpt>
      <trkpt lat="47.72574" lon="5.01619">
        <ele>470.92</ele>
        <time>2022-05-30T08:21:16Z</time>
      </trkpt>
      <trkpt lat="47.72575" lon="5.01623">
        <ele>470.67</ele>
        <time>2022-05-30T08:21:18Z</time>
      </trkpt>
      <trkpt lat="47.72576" lon="5.01628">
        <ele>470.42</ele>
        <time>2022-05-30T08:21:20Z</time>
      </trkpt>
      <trkpt lat="47.72576" lon="5.01632">
        <ele>470.39</ele>
        <time>2022-05-30T08:21:22Z</time>
      </trkpt>
      <trkpt lat="47.72578" lon="5.01636">
        <ele>469.98</ele>
        <time>2022-05-30T08:21:24Z</time>
      </trkpt>
      <trkpt lat="47.72579" lon="5.01641">
        <ele>469.77</ele>
        <time>2022-05-30T08:21:27Z</time>
      </trkpt>
      <trkpt lat="47.72581" lon="5.01645">
        <ele>469.4</ele>
        <time>2022-05-30T08:21:29Z</time>
      </trkpt>
      <trkpt lat="47.72583" lon="5.01649">
        <ele>469.06</ele>
        <time>2022-05-30T08:21:31Z</time>
      </trkpt>
      <trkpt lat="47.72584" lon="5.01653">
        <ele>468.96</ele>
        <time>2022-05-30T08:21:33Z</time>
      </trkpt>
      <trkpt lat="47.72586" lon="5.01658">
        <ele>468.87</ele>
        <time>2022-05-30T08:21:36Z</time>
      </trkpt>
      <trkpt lat="47.72587" lon="5.01663">
        <ele>468.85</ele>
        <time>2022-05-30T08:21:38Z</time>
      </trkpt>
      <trkpt lat="47.72589" lon="5.01666">
        <ele>468.79</ele>
        <time>2022-05-30T08:21:40Z</time>
      </trkpt>
      <trkpt lat="47.72591" lon="5.01669">
        <ele>468.78</ele>
        <time>2022-05-30T08:21:43Z</time>
      </trkpt>
      <trkpt lat="47.72592" lon="5.01672">
        <ele>468.82</ele>
        <time>2022-05-30T08:21:45Z</time>
      </trkpt>
      <trkpt lat="47.72594" lon="5.01677">
        <ele>468.85</ele>
        <time>2022-05-30T08:21:47Z</time>
      </trkpt>
      <trkpt lat="47.72595" lon="5.01681">
        <ele>468.88</ele>
        <time>2022-05-30T08:21:49Z</time>
      </trkpt>
      <trkpt lat="47.72596" lon="5.01685">
        <ele>468.9</ele>
        <time>2022-05-30T08:21:51Z</time>
      </trkpt>
      <trkpt lat="47.72597" lon="5.01689">
        <ele>468.92</ele>
        <time>2022-05-30T08:21:54Z</time>
      </trkpt>
      <trkpt lat="47.72599" lon="5.01693">
        <ele>468.85</ele>
        <time>2022-05-30T08:21:56Z</time>
      </trkpt>
      <trkpt lat="47.726" lon="5.01696">
        <ele>468.86</ele>
        <time>2022-05-30T08:21:58Z</time>
      </trkpt>
      <trkpt lat="47.72602" lon="5.017">
        <ele>468.86</ele>
        <time>2022-05-30T08:22:00Z</time>
      </trkpt>
      <trkpt lat="47.72603" lon="5.01704">
        <ele>468.93</ele>
        <time>2022-05-30T08:22:03Z</time>
      </trkpt>
      <trkpt lat="47.72605" lon="5.01708">
        <ele>468.93</ele>
        <time>2022-05-30T08:22:05Z</time>
      </trkpt>
      <trkpt lat="47.72607" lon="5.01712">
        <ele>468.93</ele>
        <time>2022-05-30T08:22:08Z</time>
      </trkpt>
      <trkpt lat="47.72608" lon="5.01716">
        <ele>469</ele>
        <time>2022-05-30T08:22:10Z</time>
      </trkpt>
      <trkpt lat="47.72609" lon="5.0172">
        <ele>469.07</ele>
        <time>2022-05-30T08:22:13Z</time>
      </trkpt>
      <trkpt lat="47.7261" lon="5.01726">
        <ele>469.22</ele>
        <time>2022-05-30T08:22:17Z</time>
      </trkpt>
      <trkpt lat="47.72612" lon="5.0173">
        <ele>469.27</ele>
        <time>2022-05-30T08:22:19Z</time>
      </trkpt>
      <trkpt lat="47.72613" lon="5.01735">
        <ele>469.43</ele>
        <time>2022-05-30T08:22:21Z</time>
      </trkpt>
      <trkpt lat="47.72614" lon="5.01739">
        <ele>469.54</ele>
        <time>2022-05-30T08:22:23Z</time>
      </trkpt>
      <trkpt lat="47.72615" lon="5.01743">
        <ele>469.64</ele>
        <time>2022-05-30T08:22:26Z</time>
      </trkpt>
      <trkpt lat="47.72616" lon="5.01748">
        <ele>469.76</ele>
        <time>2022-05-30T08:22:28Z</time>
      </trkpt>
      <trkpt lat="47.72617" lon="5.01752">
        <ele>469.84</ele>
        <time>2022-05-30T08:22:30Z</time>
      </trkpt>
      <trkpt lat="47.72618" lon="5.01756">
        <ele>469.91</ele>
        <time>2022-05-30T08:22:33Z</time>
      </trkpt>
      <trkpt lat="47.72617" lon="5.01762">
        <ele>470.13</ele>
        <time>2022-05-30T08:22:35Z</time>
      </trkpt>
      <trkpt lat="47.72617" lon="5.01766">
        <ele>470.24</ele>
        <time>2022-05-30T08:22:38Z</time>
      </trkpt>
      <trkpt lat="47.72617" lon="5.01771">
        <ele>470.38</ele>
        <time>2022-05-30T08:22:42Z</time>
      </trkpt>
      <trkpt lat="47.72616" lon="5.01776">
        <ele>470.6</ele>
        <time>2022-05-30T08:22:45Z</time>
      </trkpt>
      <trkpt lat="47.72616" lon="5.01781">
        <ele>470.63</ele>
        <time>2022-05-30T08:22:47Z</time>
      </trkpt>
      <trkpt lat="47.72616" lon="5.01786">
        <ele>470.6</ele>
        <time>2022-05-30T08:22:50Z</time>
      </trkpt>
      <trkpt lat="47.72616" lon="5.01791">
        <ele>470.56</ele>
        <time>2022-05-30T08:22:52Z</time>
      </trkpt>
      <trkpt lat="47.72616" lon="5.01797">
        <ele>470.53</ele>
        <time>2022-05-30T08:22:55Z</time>
      </trkpt>
      <trkpt lat="47.72616" lon="5.01801">
        <ele>470.5</ele>
        <time>2022-05-30T08:22:57Z</time>
      </trkpt>
      <trkpt lat="47.72616" lon="5.01806">
        <ele>470.47</ele>
        <time>2022-05-30T08:23:00Z</time>
      </trkpt>
      <trkpt lat="47.72617" lon="5.0181">
        <ele>470.3</ele>
        <time>2022-05-30T08:23:02Z</time>
      </trkpt>
      <trkpt lat="47.72618" lon="5.01814">
        <ele>470.11</ele>
        <time>2022-05-30T08:23:06Z</time>
      </trkpt>
      <trkpt lat="47.72618" lon="5.01818">
        <ele>470.03</ele>
        <time>2022-05-30T08:23:09Z</time>
      </trkpt>
      <trkpt lat="47.72616" lon="5.01822">
        <ele>470.26</ele>
        <time>2022-05-30T08:23:13Z</time>
      </trkpt>
      <trkpt lat="47.72616" lon="5.01827">
        <ele>470.2</ele>
        <time>2022-05-30T08:23:16Z</time>
      </trkpt>
      <trkpt lat="47.72616" lon="5.01831">
        <ele>470.15</ele>
        <time>2022-05-30T08:23:19Z</time>
      </trkpt>
      <trkpt lat="47.72615" lon="5.01836">
        <ele>470.11</ele>
        <time>2022-05-30T08:23:22Z</time>
      </trkpt>
      <trkpt lat="47.72614" lon="5.0184">
        <ele>470</ele>
        <time>2022-05-30T08:23:25Z</time>
      </trkpt>
      <trkpt lat="47.72613" lon="5.01844">
        <ele>469.89</ele>
        <time>2022-05-30T08:23:27Z</time>
      </trkpt>
      <trkpt lat="47.72611" lon="5.01847">
        <ele>470.02</ele>
        <time>2022-05-30T08:23:29Z</time>
      </trkpt>
      <trkpt lat="47.72608" lon="5.0185">
        <ele>470.02</ele>
        <time>2022-05-30T08:23:33Z</time>
      </trkpt>
      <trkpt lat="47.72606" lon="5.01853">
        <ele>469.95</ele>
        <time>2022-05-30T08:23:36Z</time>
      </trkpt>
      <trkpt lat="47.72604" lon="5.01856">
        <ele>469.88</ele>
        <time>2022-05-30T08:23:40Z</time>
      </trkpt>
      <trkpt lat="47.72602" lon="5.01859">
        <ele>469.81</ele>
        <time>2022-05-30T08:23:43Z</time>
      </trkpt>
      <trkpt lat="47.726" lon="5.01863">
        <ele>469.57</ele>
        <time>2022-05-30T08:23:45Z</time>
      </trkpt>
      <trkpt lat="47.72598" lon="5.01866">
        <ele>469.4</ele>
        <time>2022-05-30T08:23:49Z</time>
      </trkpt>
      <trkpt lat="47.72596" lon="5.0187">
        <ele>469.18</ele>
        <time>2022-05-30T08:23:51Z</time>
      </trkpt>
      <trkpt lat="47.72595" lon="5.01874">
        <ele>468.92</ele>
        <time>2022-05-30T08:23:55Z</time>
      </trkpt>
      <trkpt lat="47.72593" lon="5.01877">
        <ele>468.94</ele>
        <time>2022-05-30T08:23:57Z</time>
      </trkpt>
      <trkpt lat="47.72591" lon="5.01881">
        <ele>468.94</ele>
        <time>2022-05-30T08:23:59Z</time>
      </trkpt>
      <trkpt lat="47.7259" lon="5.01886">
        <ele>468.76</ele>
        <time>2022-05-30T08:24:02Z</time>
      </trkpt>
      <trkpt lat="47.72588" lon="5.01889">
        <ele>468.98</ele>
        <time>2022-05-30T08:24:04Z</time>
      </trkpt>
      <trkpt lat="47.72586" lon="5.01894">
        <ele>468.69</ele>
        <time>2022-05-30T08:24:08Z</time>
      </trkpt>
      <trkpt lat="47.72584" lon="5.01896">
        <ele>468.83</ele>
        <time>2022-05-30T08:24:10Z</time>
      </trkpt>
      <trkpt lat="47.72582" lon="5.019">
        <ele>468.63</ele>
        <time>2022-05-30T08:24:12Z</time>
      </trkpt>
      <trkpt lat="47.7258" lon="5.01903">
        <ele>468.57</ele>
        <time>2022-05-30T08:24:16Z</time>
      </trkpt>
      <trkpt lat="47.72578" lon="5.01906">
        <ele>468.54</ele>
        <time>2022-05-30T08:24:20Z</time>
      </trkpt>
      <trkpt lat="47.72575" lon="5.0191">
        <ele>468.62</ele>
        <time>2022-05-30T08:24:24Z</time>
      </trkpt>
      <trkpt lat="47.72573" lon="5.01913">
        <ele>468.66</ele>
        <time>2022-05-30T08:24:26Z</time>
      </trkpt>
      <trkpt lat="47.72571" lon="5.01915">
        <ele>468.85</ele>
        <time>2022-05-30T08:24:28Z</time>
      </trkpt>
      <trkpt lat="47.72568" lon="5.01918">
        <ele>469.21</ele>
        <time>2022-05-30T08:24:33Z</time>
      </trkpt>
      <trkpt lat="47.72566" lon="5.01922">
        <ele>469.31</ele>
        <time>2022-05-30T08:24:35Z</time>
      </trkpt>
      <trkpt lat="47.72564" lon="5.01925">
        <ele>469.46</ele>
        <time>2022-05-30T08:24:38Z</time>
      </trkpt>
      <trkpt lat="47.72561" lon="5.01927">
        <ele>469.85</ele>
        <time>2022-05-30T08:24:40Z</time>
      </trkpt>
      <trkpt lat="47.72559" lon="5.0193">
        <ele>469.94</ele>
        <time>2022-05-30T08:24:43Z</time>
      </trkpt>
      <trkpt lat="47.72556" lon="5.01932">
        <ele>470.27</ele>
        <time>2022-05-30T08:24:46Z</time>
      </trkpt>
      <trkpt lat="47.72553" lon="5.01936">
        <ele>470.72</ele>
        <time>2022-05-30T08:24:49Z</time>
      </trkpt>
      <trkpt lat="47.72551" lon="5.01938">
        <ele>471.18</ele>
        <time>2022-05-30T08:24:53Z</time>
      </trkpt>
      <trkpt lat="47.72549" lon="5.01941">
        <ele>471.61</ele>
        <time>2022-05-30T08:24:55Z</time>
      </trkpt>
      <trkpt lat="47.72547" lon="5.01943">
        <ele>472.17</ele>
        <time>2022-05-30T08:24:58Z</time>
      </trkpt>
      <trkpt lat="47.72545" lon="5.01948">
        <ele>472.59</ele>
        <time>2022-05-30T08:25:02Z</time>
      </trkpt>
      <trkpt lat="47.72543" lon="5.01951">
        <ele>473.15</ele>
        <time>2022-05-30T08:25:05Z</time>
      </trkpt>
      <trkpt lat="47.72542" lon="5.01956">
        <ele>473.25</ele>
        <time>2022-05-30T08:25:09Z</time>
      </trkpt>
      <trkpt lat="47.72539" lon="5.01959">
        <ele>474.22</ele>
        <time>2022-05-30T08:25:12Z</time>
      </trkpt>
      <trkpt lat="47.72537" lon="5.01963">
        <ele>474.79</ele>
        <time>2022-05-30T08:25:14Z</time>
      </trkpt>
      <trkpt lat="47.72535" lon="5.01965">
        <ele>475.47</ele>
        <time>2022-05-30T08:25:17Z</time>
      </trkpt>
      <trkpt lat="47.72532" lon="5.01969">
        <ele>476.46</ele>
        <time>2022-05-30T08:25:20Z</time>
      </trkpt>
      <trkpt lat="47.72529" lon="5.01972">
        <ele>477.52</ele>
        <time>2022-05-30T08:25:22Z</time>
      </trkpt>
      <trkpt lat="47.72527" lon="5.01975">
        <ele>478.16</ele>
        <time>2022-05-30T08:25:26Z</time>
      </trkpt>
      <trkpt lat="47.72525" lon="5.01979">
        <ele>478.44</ele>
        <time>2022-05-30T08:25:31Z</time>
      </trkpt>
      <trkpt lat="47.72523" lon="5.01982">
        <ele>478.7</ele>
        <time>2022-05-30T08:25:33Z</time>
      </trkpt>
      <trkpt lat="47.72521" lon="5.01985">
        <ele>478.95</ele>
        <time>2022-05-30T08:25:35Z</time>
      </trkpt>
      <trkpt lat="47.72519" lon="5.01988">
        <ele>479.2</ele>
        <time>2022-05-30T08:25:37Z</time>
      </trkpt>
      <trkpt lat="47.72517" lon="5.01991">
        <ele>479.45</ele>
        <time>2022-05-30T08:25:41Z</time>
      </trkpt>
      <trkpt lat="47.72514" lon="5.01994">
        <ele>479.78</ele>
        <time>2022-05-30T08:25:44Z</time>
      </trkpt>
      <trkpt lat="47.72511" lon="5.01997">
        <ele>480.1</ele>
        <time>2022-05-30T08:25:47Z</time>
      </trkpt>
      <trkpt lat="47.72509" lon="5.02">
        <ele>480.35</ele>
        <time>2022-05-30T08:25:50Z</time>
      </trkpt>
      <trkpt lat="47.72507" lon="5.02003">
        <ele>480.52</ele>
        <time>2022-05-30T08:25:51Z</time>
      </trkpt>
      <trkpt lat="47.72504" lon="5.02007">
        <ele>480.86</ele>
        <time>2022-05-30T08:25:55Z</time>
      </trkpt>
      <trkpt lat="47.72501" lon="5.02009">
        <ele>481.22</ele>
        <time>2022-05-30T08:25:56Z</time>
      </trkpt>
      <trkpt lat="47.72499" lon="5.02012">
        <ele>481.54</ele>
        <time>2022-05-30T08:25:58Z</time>
      </trkpt>
      <trkpt lat="47.72496" lon="5.02014">
        <ele>481.94</ele>
        <time>2022-05-30T08:26:01Z</time>
      </trkpt>
      <trkpt lat="47.72494" lon="5.02016">
        <ele>482.22</ele>
        <time>2022-05-30T08:26:06Z</time>
      </trkpt>
      <trkpt lat="47.72491" lon="5.02018">
        <ele>482.62</ele>
        <time>2022-05-30T08:26:08Z</time>
      </trkpt>
      <trkpt lat="47.72489" lon="5.02019">
        <ele>482.87</ele>
        <time>2022-05-30T08:26:11Z</time>
      </trkpt>
      <trkpt lat="47.72486" lon="5.02021">
        <ele>483.27</ele>
        <time>2022-05-30T08:26:13Z</time>
      </trkpt>
      <trkpt lat="47.72483" lon="5.02023">
        <ele>483.66</ele>
        <time>2022-05-30T08:26:16Z</time>
      </trkpt>
      <trkpt lat="47.7248" lon="5.02025">
        <ele>484.06</ele>
        <time>2022-05-30T08:26:18Z</time>
      </trkpt>
      <trkpt lat="47.72478" lon="5.02028">
        <ele>484.36</ele>
        <time>2022-05-30T08:26:22Z</time>
      </trkpt>
      <trkpt lat="47.72475" lon="5.02029">
        <ele>484.65</ele>
        <time>2022-05-30T08:26:24Z</time>
      </trkpt>
      <trkpt lat="47.72472" lon="5.0203">
        <ele>484.9</ele>
        <time>2022-05-30T08:26:27Z</time>
      </trkpt>
      <trkpt lat="47.72469" lon="5.02032">
        <ele>484.6</ele>
        <time>2022-05-30T08:26:28Z</time>
      </trkpt>
      <trkpt lat="47.72466" lon="5.02033">
        <ele>484.32</ele>
        <time>2022-05-30T08:26:30Z</time>
      </trkpt>
      <trkpt lat="47.72463" lon="5.02034">
        <ele>484.04</ele>
        <time>2022-05-30T08:26:32Z</time>
      </trkpt>
      <trkpt lat="47.7246" lon="5.02036">
        <ele>483.69</ele>
        <time>2022-05-30T08:26:34Z</time>
      </trkpt>
      <trkpt lat="47.72458" lon="5.02039">
        <ele>483.37</ele>
        <time>2022-05-30T08:26:39Z</time>
      </trkpt>
      <trkpt lat="47.72456" lon="5.02042">
        <ele>483.02</ele>
        <time>2022-05-30T08:26:41Z</time>
      </trkpt>
      <trkpt lat="47.72453" lon="5.02043">
        <ele>482.69</ele>
        <time>2022-05-30T08:26:44Z</time>
      </trkpt>
      <trkpt lat="47.7245" lon="5.02044">
        <ele>482.35</ele>
        <time>2022-05-30T08:26:48Z</time>
      </trkpt>
      <trkpt lat="47.72447" lon="5.02045">
        <ele>482</ele>
        <time>2022-05-30T08:26:51Z</time>
      </trkpt>
      <trkpt lat="47.72444" lon="5.02046">
        <ele>481.67</ele>
        <time>2022-05-30T08:26:53Z</time>
      </trkpt>
      <trkpt lat="47.7244" lon="5.02048">
        <ele>481.41</ele>
        <time>2022-05-30T08:26:56Z</time>
      </trkpt>
      <trkpt lat="47.72438" lon="5.0205">
        <ele>481.26</ele>
        <time>2022-05-30T08:26:59Z</time>
      </trkpt>
      <trkpt lat="47.72435" lon="5.02053">
        <ele>481.09</ele>
        <time>2022-05-30T08:27:01Z</time>
      </trkpt>
      <trkpt lat="47.72433" lon="5.02056">
        <ele>480.93</ele>
        <time>2022-05-30T08:27:04Z</time>
      </trkpt>
      <trkpt lat="47.7243" lon="5.02057">
        <ele>480.79</ele>
        <time>2022-05-30T08:27:07Z</time>
      </trkpt>
      <trkpt lat="47.72428" lon="5.02057">
        <ele>480.8</ele>
        <time>2022-05-30T08:27:09Z</time>
      </trkpt>
      <trkpt lat="47.72425" lon="5.02058">
        <ele>480.68</ele>
        <time>2022-05-30T08:27:15Z</time>
      </trkpt>
      <trkpt lat="47.72422" lon="5.02059">
        <ele>480.58</ele>
        <time>2022-05-30T08:27:19Z</time>
      </trkpt>
      <trkpt lat="47.72419" lon="5.02061">
        <ele>480.38</ele>
        <time>2022-05-30T08:27:21Z</time>
      </trkpt>
      <trkpt lat="47.72416" lon="5.02062">
        <ele>480.29</ele>
        <time>2022-05-30T08:27:26Z</time>
      </trkpt>
      <trkpt lat="47.72414" lon="5.02064">
        <ele>480.05</ele>
        <time>2022-05-30T08:27:28Z</time>
      </trkpt>
      <trkpt lat="47.72411" lon="5.02065">
        <ele>479.91</ele>
        <time>2022-05-30T08:27:33Z</time>
      </trkpt>
      <trkpt lat="47.72408" lon="5.02067">
        <ele>479.71</ele>
        <time>2022-05-30T08:27:36Z</time>
      </trkpt>
      <trkpt lat="47.72406" lon="5.02068">
        <ele>479.62</ele>
        <time>2022-05-30T08:27:39Z</time>
      </trkpt>
      <trkpt lat="47.72403" lon="5.02069">
        <ele>479.53</ele>
        <time>2022-05-30T08:27:41Z</time>
      </trkpt>
      <trkpt lat="47.724" lon="5.02071">
        <ele>479.4</ele>
        <time>2022-05-30T08:27:45Z</time>
      </trkpt>
      <trkpt lat="47.72397" lon="5.02073">
        <ele>479.3</ele>
        <time>2022-05-30T08:27:47Z</time>
      </trkpt>
      <trkpt lat="47.72393" lon="5.02075">
        <ele>479.24</ele>
        <time>2022-05-30T08:27:50Z</time>
      </trkpt>
      <trkpt lat="47.72391" lon="5.02077">
        <ele>479.19</ele>
        <time>2022-05-30T08:27:52Z</time>
      </trkpt>
      <trkpt lat="47.72388" lon="5.02079">
        <ele>478.96</ele>
        <time>2022-05-30T08:27:54Z</time>
      </trkpt>
      <trkpt lat="47.72385" lon="5.0208">
        <ele>478.28</ele>
        <time>2022-05-30T08:27:56Z</time>
      </trkpt>
      <trkpt lat="47.72382" lon="5.02083">
        <ele>477.52</ele>
        <time>2022-05-30T08:28:00Z</time>
      </trkpt>
      <trkpt lat="47.7238" lon="5.02085">
        <ele>476.98</ele>
        <time>2022-05-30T08:28:02Z</time>
      </trkpt>
      <trkpt lat="47.72377" lon="5.02088">
        <ele>476.17</ele>
        <time>2022-05-30T08:28:05Z</time>
      </trkpt>
      <trkpt lat="47.72375" lon="5.0209">
        <ele>475.64</ele>
        <time>2022-05-30T08:28:08Z</time>
      </trkpt>
      <trkpt lat="47.72373" lon="5.02093">
        <ele>475.07</ele>
        <time>2022-05-30T08:28:10Z</time>
      </trkpt>
      <trkpt lat="47.7237" lon="5.02095">
        <ele>474.37</ele>
        <time>2022-05-30T08:28:12Z</time>
      </trkpt>
      <trkpt lat="47.72368" lon="5.02096">
        <ele>473.92</ele>
        <time>2022-05-30T08:28:16Z</time>
      </trkpt>
      <trkpt lat="47.72365" lon="5.02098">
        <ele>473.24</ele>
        <time>2022-05-30T08:28:18Z</time>
      </trkpt>
      <trkpt lat="47.72362" lon="5.021">
        <ele>472.57</ele>
        <time>2022-05-30T08:28:20Z</time>
      </trkpt>
      <trkpt lat="47.72359" lon="5.02101">
        <ele>471.98</ele>
        <time>2022-05-30T08:28:22Z</time>
      </trkpt>
      <trkpt lat="47.72357" lon="5.02102">
        <ele>471.59</ele>
        <time>2022-05-30T08:28:25Z</time>
      </trkpt>
      <trkpt lat="47.72354" lon="5.02104">
        <ele>470.98</ele>
        <time>2022-05-30T08:28:28Z</time>
      </trkpt>
      <trkpt lat="47.72351" lon="5.02106">
        <ele>470.36</ele>
        <time>2022-05-30T08:28:31Z</time>
      </trkpt>
      <trkpt lat="47.72349" lon="5.02108">
        <ele>469.93</ele>
        <time>2022-05-30T08:28:34Z</time>
      </trkpt>
      <trkpt lat="47.72346" lon="5.02109">
        <ele>469.36</ele>
        <time>2022-05-30T08:28:36Z</time>
      </trkpt>
      <trkpt lat="47.72343" lon="5.0211">
        <ele>468.78</ele>
        <time>2022-05-30T08:28:37Z</time>
      </trkpt>
      <trkpt lat="47.7234" lon="5.02111">
        <ele>468.2</ele>
        <time>2022-05-30T08:28:40Z</time>
      </trkpt>
      <trkpt lat="47.72338" lon="5.02113">
        <ele>467.77</ele>
        <time>2022-05-30T08:28:42Z</time>
      </trkpt>
      <trkpt lat="47.72335" lon="5.02116">
        <ele>467.12</ele>
        <time>2022-05-30T08:28:46Z</time>
      </trkpt>
      <trkpt lat="47.72332" lon="5.02119">
        <ele>466.49</ele>
        <time>2022-05-30T08:28:48Z</time>
      </trkpt>
      <trkpt lat="47.7233" lon="5.02121">
        <ele>466.09</ele>
        <time>2022-05-30T08:28:50Z</time>
      </trkpt>
      <trkpt lat="47.72328" lon="5.02124">
        <ele>465.67</ele>
        <time>2022-05-30T08:28:52Z</time>
      </trkpt>
      <trkpt lat="47.72325" lon="5.02126">
        <ele>465.12</ele>
        <time>2022-05-30T08:28:53Z</time>
      </trkpt>
      <trkpt lat="47.72322" lon="5.02128">
        <ele>464.6</ele>
        <time>2022-05-30T08:28:55Z</time>
      </trkpt>
      <trkpt lat="47.72319" lon="5.0213">
        <ele>464.09</ele>
        <time>2022-05-30T08:28:57Z</time>
      </trkpt>
      <trkpt lat="47.72317" lon="5.02133">
        <ele>463.74</ele>
        <time>2022-05-30T08:28:59Z</time>
      </trkpt>
      <trkpt lat="47.72314" lon="5.02135">
        <ele>463.26</ele>
        <time>2022-05-30T08:29:01Z</time>
      </trkpt>
      <trkpt lat="47.72311" lon="5.02137">
        <ele>462.8</ele>
        <time>2022-05-30T08:29:03Z</time>
      </trkpt>
      <trkpt lat="47.72309" lon="5.02139">
        <ele>462.49</ele>
        <time>2022-05-30T08:29:05Z</time>
      </trkpt>
      <trkpt lat="47.72306" lon="5.02141">
        <ele>461.99</ele>
        <time>2022-05-30T08:29:08Z</time>
      </trkpt>
      <trkpt lat="47.72303" lon="5.02143">
        <ele>462.33</ele>
        <time>2022-05-30T08:29:12Z</time>
      </trkpt>
      <trkpt lat="47.723" lon="5.02145">
        <ele>462.82</ele>
        <time>2022-05-30T08:29:14Z</time>
      </trkpt>
      <trkpt lat="47.72298" lon="5.02148">
        <ele>463.12</ele>
        <time>2022-05-30T08:29:17Z</time>
      </trkpt>
      <trkpt lat="47.72296" lon="5.02151">
        <ele>463.43</ele>
        <time>2022-05-30T08:29:19Z</time>
      </trkpt>
      <trkpt lat="47.72293" lon="5.02154">
        <ele>463.96</ele>
        <time>2022-05-30T08:29:23Z</time>
      </trkpt>
      <trkpt lat="47.7229" lon="5.02157">
        <ele>464.51</ele>
        <time>2022-05-30T08:29:25Z</time>
      </trkpt>
      <trkpt lat="47.72287" lon="5.0216">
        <ele>465.09</ele>
        <time>2022-05-30T08:29:27Z</time>
      </trkpt>
      <trkpt lat="47.72285" lon="5.02162">
        <ele>465.48</ele>
        <time>2022-05-30T08:29:30Z</time>
      </trkpt>
      <trkpt lat="47.72283" lon="5.02165">
        <ele>465.88</ele>
        <time>2022-05-30T08:29:31Z</time>
      </trkpt>
      <trkpt lat="47.72281" lon="5.02169">
        <ele>466.3</ele>
        <time>2022-05-30T08:29:34Z</time>
      </trkpt>
      <trkpt lat="47.72278" lon="5.02172">
        <ele>466.95</ele>
        <time>2022-05-30T08:29:37Z</time>
      </trkpt>
      <trkpt lat="47.72276" lon="5.02174">
        <ele>467.14</ele>
        <time>2022-05-30T08:29:39Z</time>
      </trkpt>
      <trkpt lat="47.72273" lon="5.02176">
        <ele>467.4</ele>
        <time>2022-05-30T08:29:42Z</time>
      </trkpt>
      <trkpt lat="47.7227" lon="5.02178">
        <ele>467.67</ele>
        <time>2022-05-30T08:29:44Z</time>
      </trkpt>
      <trkpt lat="47.72268" lon="5.02179">
        <ele>467.86</ele>
        <time>2022-05-30T08:29:46Z</time>
      </trkpt>
      <trkpt lat="47.72265" lon="5.02181">
        <ele>468.16</ele>
        <time>2022-05-30T08:29:48Z</time>
      </trkpt>
      <trkpt lat="47.72262" lon="5.02183">
        <ele>468.47</ele>
        <time>2022-05-30T08:29:51Z</time>
      </trkpt>
      <trkpt lat="47.72258" lon="5.02184">
        <ele>468.87</ele>
        <time>2022-05-30T08:29:54Z</time>
      </trkpt>
      <trkpt lat="47.72255" lon="5.02185">
        <ele>469.18</ele>
        <time>2022-05-30T08:29:56Z</time>
      </trkpt>
      <trkpt lat="47.72252" lon="5.02187">
        <ele>469.54</ele>
        <time>2022-05-30T08:29:57Z</time>
      </trkpt>
      <trkpt lat="47.72249" lon="5.0219">
        <ele>469.96</ele>
        <time>2022-05-30T08:30:00Z</time>
      </trkpt>
      <trkpt lat="47.72247" lon="5.02192">
        <ele>470.26</ele>
        <time>2022-05-30T08:30:03Z</time>
      </trkpt>
      <trkpt lat="47.72244" lon="5.02194">
        <ele>470.64</ele>
        <time>2022-05-30T08:30:06Z</time>
      </trkpt>
      <trkpt lat="47.72241" lon="5.02195">
        <ele>470.98</ele>
        <time>2022-05-30T08:30:11Z</time>
      </trkpt>
      <trkpt lat="47.72238" lon="5.02196">
        <ele>471.32</ele>
        <time>2022-05-30T08:30:12Z</time>
      </trkpt>
      <trkpt lat="47.72235" lon="5.02199">
        <ele>471.71</ele>
        <time>2022-05-30T08:30:15Z</time>
      </trkpt>
      <trkpt lat="47.72233" lon="5.022">
        <ele>471.96</ele>
        <time>2022-05-30T08:30:17Z</time>
      </trkpt>
      <trkpt lat="47.7223" lon="5.02202">
        <ele>472.36</ele>
        <time>2022-05-30T08:30:20Z</time>
      </trkpt>
      <trkpt lat="47.72227" lon="5.02205">
        <ele>472.8</ele>
        <time>2022-05-30T08:30:23Z</time>
      </trkpt>
      <trkpt lat="47.72224" lon="5.02208">
        <ele>473.26</ele>
        <time>2022-05-30T08:30:26Z</time>
      </trkpt>
      <trkpt lat="47.72222" lon="5.02211">
        <ele>473.6</ele>
        <time>2022-05-30T08:30:27Z</time>
      </trkpt>
      <trkpt lat="47.7222" lon="5.02213">
        <ele>473.69</ele>
        <time>2022-05-30T08:30:30Z</time>
      </trkpt>
      <trkpt lat="47.72217" lon="5.02215">
        <ele>473.79</ele>
        <time>2022-05-30T08:30:34Z</time>
      </trkpt>
      <trkpt lat="47.72214" lon="5.02217">
        <ele>473.87</ele>
        <time>2022-05-30T08:30:36Z</time>
      </trkpt>
      <trkpt lat="47.72211" lon="5.02219">
        <ele>473.93</ele>
        <time>2022-05-30T08:30:38Z</time>
      </trkpt>
      <trkpt lat="47.72208" lon="5.02221">
        <ele>473.98</ele>
        <time>2022-05-30T08:30:41Z</time>
      </trkpt>
      <trkpt lat="47.72205" lon="5.02223">
        <ele>474.02</ele>
        <time>2022-05-30T08:30:44Z</time>
      </trkpt>
      <trkpt lat="47.72202" lon="5.02225">
        <ele>474.07</ele>
        <time>2022-05-30T08:30:47Z</time>
      </trkpt>
      <trkpt lat="47.72199" lon="5.02227">
        <ele>474.14</ele>
        <time>2022-05-30T08:30:50Z</time>
      </trkpt>
      <trkpt lat="47.72196" lon="5.02229">
        <ele>474.23</ele>
        <time>2022-05-30T08:30:52Z</time>
      </trkpt>
      <trkpt lat="47.72194" lon="5.02231">
        <ele>474.32</ele>
        <time>2022-05-30T08:30:55Z</time>
      </trkpt>
      <trkpt lat="47.72191" lon="5.02233">
        <ele>474.42</ele>
        <time>2022-05-30T08:30:58Z</time>
      </trkpt>
      <trkpt lat="47.72188" lon="5.02235">
        <ele>474.48</ele>
        <time>2022-05-30T08:31:01Z</time>
      </trkpt>
      <trkpt lat="47.72186" lon="5.02237">
        <ele>474.51</ele>
        <time>2022-05-30T08:31:05Z</time>
      </trkpt>
      <trkpt lat="47.72183" lon="5.02239">
        <ele>474.52</ele>
        <time>2022-05-30T08:31:08Z</time>
      </trkpt>
      <trkpt lat="47.7218" lon="5.0224">
        <ele>474.49</ele>
        <time>2022-05-30T08:31:12Z</time>
      </trkpt>
      <trkpt lat="47.72177" lon="5.02242">
        <ele>474.45</ele>
        <time>2022-05-30T08:31:15Z</time>
      </trkpt>
      <trkpt lat="47.72174" lon="5.02244">
        <ele>474.37</ele>
        <time>2022-05-30T08:31:17Z</time>
      </trkpt>
      <trkpt lat="47.72171" lon="5.02247">
        <ele>474.23</ele>
        <time>2022-05-30T08:31:19Z</time>
      </trkpt>
      <trkpt lat="47.72169" lon="5.02249">
        <ele>474.11</ele>
        <time>2022-05-30T08:31:22Z</time>
      </trkpt>
      <trkpt lat="47.72166" lon="5.02251">
        <ele>474.18</ele>
        <time>2022-05-30T08:31:23Z</time>
      </trkpt>
      <trkpt lat="47.72164" lon="5.02254">
        <ele>474.68</ele>
        <time>2022-05-30T08:31:26Z</time>
      </trkpt>
      <trkpt lat="47.72161" lon="5.02256">
        <ele>475.31</ele>
        <time>2022-05-30T08:31:28Z</time>
      </trkpt>
      <trkpt lat="47.72159" lon="5.02258">
        <ele>475.71</ele>
        <time>2022-05-30T08:31:30Z</time>
      </trkpt>
      <trkpt lat="47.72156" lon="5.0226">
        <ele>476.25</ele>
        <time>2022-05-30T08:31:33Z</time>
      </trkpt>
      <trkpt lat="47.72153" lon="5.02262">
        <ele>476.75</ele>
        <time>2022-05-30T08:31:34Z</time>
      </trkpt>
      <trkpt lat="47.7215" lon="5.02263">
        <ele>477.23</ele>
        <time>2022-05-30T08:31:36Z</time>
      </trkpt>
      <trkpt lat="47.72147" lon="5.02263">
        <ele>477.72</ele>
        <time>2022-05-30T08:31:39Z</time>
      </trkpt>
      <trkpt lat="47.72145" lon="5.02265">
        <ele>477.96</ele>
        <time>2022-05-30T08:31:42Z</time>
      </trkpt>
      <trkpt lat="47.72142" lon="5.02267">
        <ele>478.31</ele>
        <time>2022-05-30T08:31:45Z</time>
      </trkpt>
      <trkpt lat="47.7214" lon="5.02269">
        <ele>478.47</ele>
        <time>2022-05-30T08:31:47Z</time>
      </trkpt>
      <trkpt lat="47.72137" lon="5.02272">
        <ele>478.73</ele>
        <time>2022-05-30T08:31:50Z</time>
      </trkpt>
      <trkpt lat="47.72134" lon="5.02274">
        <ele>479.1</ele>
        <time>2022-05-30T08:31:51Z</time>
      </trkpt>
      <trkpt lat="47.72132" lon="5.02276">
        <ele>479.34</ele>
        <time>2022-05-30T08:31:53Z</time>
      </trkpt>
      <trkpt lat="47.7213" lon="5.02279">
        <ele>479.5</ele>
        <time>2022-05-30T08:31:56Z</time>
      </trkpt>
      <trkpt lat="47.72127" lon="5.02281">
        <ele>479.89</ele>
        <time>2022-05-30T08:31:58Z</time>
      </trkpt>
      <trkpt lat="47.72124" lon="5.02285">
        <ele>480.18</ele>
        <time>2022-05-30T08:32:01Z</time>
      </trkpt>
      <trkpt lat="47.72122" lon="5.02288">
        <ele>480.38</ele>
        <time>2022-05-30T08:32:03Z</time>
      </trkpt>
      <trkpt lat="47.72119" lon="5.02289">
        <ele>480.95</ele>
        <time>2022-05-30T08:32:06Z</time>
      </trkpt>
      <trkpt lat="47.72116" lon="5.02291">
        <ele>481.48</ele>
        <time>2022-05-30T08:32:09Z</time>
      </trkpt>
      <trkpt lat="47.72113" lon="5.02293">
        <ele>482.04</ele>
        <time>2022-05-30T08:32:12Z</time>
      </trkpt>
      <trkpt lat="47.72111" lon="5.02295">
        <ele>482.38</ele>
        <time>2022-05-30T08:32:14Z</time>
      </trkpt>
      <trkpt lat="47.72108" lon="5.02298">
        <ele>482.24</ele>
        <time>2022-05-30T08:32:15Z</time>
      </trkpt>
      <trkpt lat="47.72105" lon="5.023">
        <ele>482.16</ele>
        <time>2022-05-30T08:32:18Z</time>
      </trkpt>
      <trkpt lat="47.72102" lon="5.02302">
        <ele>482.09</ele>
        <time>2022-05-30T08:32:22Z</time>
      </trkpt>
      <trkpt lat="47.721" lon="5.02304">
        <ele>482.03</ele>
        <time>2022-05-30T08:32:24Z</time>
      </trkpt>
      <trkpt lat="47.72097" lon="5.02307">
        <ele>481.98</ele>
        <time>2022-05-30T08:32:28Z</time>
      </trkpt>
      <trkpt lat="47.72094" lon="5.02308">
        <ele>481.99</ele>
        <time>2022-05-30T08:32:30Z</time>
      </trkpt>
      <trkpt lat="47.72092" lon="5.0231">
        <ele>482.01</ele>
        <time>2022-05-30T08:32:33Z</time>
      </trkpt>
      <trkpt lat="47.72089" lon="5.02312">
        <ele>482.09</ele>
        <time>2022-05-30T08:32:36Z</time>
      </trkpt>
      <trkpt lat="47.72086" lon="5.02313">
        <ele>482.19</ele>
        <time>2022-05-30T08:32:39Z</time>
      </trkpt>
      <trkpt lat="47.72083" lon="5.02315">
        <ele>482.33</ele>
        <time>2022-05-30T08:32:42Z</time>
      </trkpt>
      <trkpt lat="47.7208" lon="5.02317">
        <ele>482.29</ele>
        <time>2022-05-30T08:32:45Z</time>
      </trkpt>
      <trkpt lat="47.72078" lon="5.02318">
        <ele>482.26</ele>
        <time>2022-05-30T08:32:47Z</time>
      </trkpt>
      <trkpt lat="47.72075" lon="5.0232">
        <ele>482.22</ele>
        <time>2022-05-30T08:32:49Z</time>
      </trkpt>
      <trkpt lat="47.72072" lon="5.02322">
        <ele>482.18</ele>
        <time>2022-05-30T08:32:53Z</time>
      </trkpt>
      <trkpt lat="47.72068" lon="5.02323">
        <ele>482.08</ele>
        <time>2022-05-30T08:32:55Z</time>
      </trkpt>
      <trkpt lat="47.72065" lon="5.02325">
        <ele>482.04</ele>
        <time>2022-05-30T08:32:56Z</time>
      </trkpt>
      <trkpt lat="47.72062" lon="5.02326">
        <ele>481.97</ele>
        <time>2022-05-30T08:32:58Z</time>
      </trkpt>
      <trkpt lat="47.72059" lon="5.02328">
        <ele>481.93</ele>
        <time>2022-05-30T08:33:01Z</time>
      </trkpt>
      <trkpt lat="47.72057" lon="5.0233">
        <ele>481.93</ele>
        <time>2022-05-30T08:33:02Z</time>
      </trkpt>
      <trkpt lat="47.72054" lon="5.02333">
        <ele>481.88</ele>
        <time>2022-05-30T08:33:04Z</time>
      </trkpt>
      <trkpt lat="47.72051" lon="5.02335">
        <ele>481.72</ele>
        <time>2022-05-30T08:33:07Z</time>
      </trkpt>
      <trkpt lat="47.72049" lon="5.02338">
        <ele>481.66</ele>
        <time>2022-05-30T08:33:10Z</time>
      </trkpt>
      <trkpt lat="47.72047" lon="5.0234">
        <ele>481.55</ele>
        <time>2022-05-30T08:33:12Z</time>
      </trkpt>
      <trkpt lat="47.72044" lon="5.02342">
        <ele>481.35</ele>
        <time>2022-05-30T08:33:16Z</time>
      </trkpt>
      <trkpt lat="47.72041" lon="5.02343">
        <ele>481.12</ele>
        <time>2022-05-30T08:33:17Z</time>
      </trkpt>
      <trkpt lat="47.72038" lon="5.02345">
        <ele>480.89</ele>
        <time>2022-05-30T08:33:20Z</time>
      </trkpt>
      <trkpt lat="47.72036" lon="5.02347">
        <ele>480.74</ele>
        <time>2022-05-30T08:33:22Z</time>
      </trkpt>
      <trkpt lat="47.72033" lon="5.02349">
        <ele>480.48</ele>
        <time>2022-05-30T08:33:25Z</time>
      </trkpt>
      <trkpt lat="47.72031" lon="5.02351">
        <ele>480.31</ele>
        <time>2022-05-30T08:33:28Z</time>
      </trkpt>
      <trkpt lat="47.72028" lon="5.02352">
        <ele>480.02</ele>
        <time>2022-05-30T08:33:30Z</time>
      </trkpt>
      <trkpt lat="47.72025" lon="5.02354">
        <ele>480.03</ele>
        <time>2022-05-30T08:33:32Z</time>
      </trkpt>
      <trkpt lat="47.72022" lon="5.02355">
        <ele>480.05</ele>
        <time>2022-05-30T08:33:34Z</time>
      </trkpt>
      <trkpt lat="47.72019" lon="5.02356">
        <ele>480.06</ele>
        <time>2022-05-30T08:33:39Z</time>
      </trkpt>
      <trkpt lat="47.72016" lon="5.02358">
        <ele>480.05</ele>
        <time>2022-05-30T08:33:41Z</time>
      </trkpt>
      <trkpt lat="47.72013" lon="5.02361">
        <ele>480</ele>
        <time>2022-05-30T08:33:43Z</time>
      </trkpt>
      <trkpt lat="47.72011" lon="5.02363">
        <ele>480.07</ele>
        <time>2022-05-30T08:33:46Z</time>
      </trkpt>
      <trkpt lat="47.72009" lon="5.02366">
        <ele>480.18</ele>
        <time>2022-05-30T08:33:48Z</time>
      </trkpt>
      <trkpt lat="47.72007" lon="5.02369">
        <ele>480.28</ele>
        <time>2022-05-30T08:33:53Z</time>
      </trkpt>
      <trkpt lat="47.72004" lon="5.02371">
        <ele>480.36</ele>
        <time>2022-05-30T08:33:59Z</time>
      </trkpt>
      <trkpt lat="47.72001" lon="5.02372">
        <ele>480.39</ele>
        <time>2022-05-30T08:34:02Z</time>
      </trkpt>
      <trkpt lat="47.71998" lon="5.02373">
        <ele>480.53</ele>
        <time>2022-05-30T08:34:06Z</time>
      </trkpt>
      <trkpt lat="47.71997" lon="5.02377">
        <ele>480.74</ele>
        <time>2022-05-30T08:34:11Z</time>
      </trkpt>
      <trkpt lat="47.71995" lon="5.0238">
        <ele>480.98</ele>
        <time>2022-05-30T08:34:16Z</time>
      </trkpt>
      <trkpt lat="47.71995" lon="5.02384">
        <ele>481.15</ele>
        <time>2022-05-30T08:34:20Z</time>
      </trkpt>
      <trkpt lat="47.71995" lon="5.02388">
        <ele>481.32</ele>
        <time>2022-05-30T08:34:23Z</time>
      </trkpt>
      <trkpt lat="47.71996" lon="5.02392">
        <ele>481.58</ele>
        <time>2022-05-30T08:34:27Z</time>
      </trkpt>
      <trkpt lat="47.71997" lon="5.02397">
        <ele>482</ele>
        <time>2022-05-30T08:34:31Z</time>
      </trkpt>
      <trkpt lat="47.71997" lon="5.02401">
        <ele>482.38</ele>
        <time>2022-05-30T08:34:35Z</time>
      </trkpt>
      <trkpt lat="47.71998" lon="5.02406">
        <ele>482.86</ele>
        <time>2022-05-30T08:34:38Z</time>
      </trkpt>
      <trkpt lat="47.71999" lon="5.0241">
        <ele>483.27</ele>
        <time>2022-05-30T08:34:41Z</time>
      </trkpt>
      <trkpt lat="47.72001" lon="5.02414">
        <ele>483.61</ele>
        <time>2022-05-30T08:34:44Z</time>
      </trkpt>
      <trkpt lat="47.72002" lon="5.02418">
        <ele>483.81</ele>
        <time>2022-05-30T08:34:47Z</time>
      </trkpt>
      <trkpt lat="47.72003" lon="5.02423">
        <ele>483.78</ele>
        <time>2022-05-30T08:34:50Z</time>
      </trkpt>
      <trkpt lat="47.72004" lon="5.02429">
        <ele>483.69</ele>
        <time>2022-05-30T08:34:53Z</time>
      </trkpt>
      <trkpt lat="47.72005" lon="5.02432">
        <ele>483.52</ele>
        <time>2022-05-30T08:34:54Z</time>
      </trkpt>
      <trkpt lat="47.72006" lon="5.02436">
        <ele>483.3</ele>
        <time>2022-05-30T08:34:58Z</time>
      </trkpt>
      <trkpt lat="47.72008" lon="5.02441">
        <ele>482.75</ele>
        <time>2022-05-30T08:35:01Z</time>
      </trkpt>
      <trkpt lat="47.72009" lon="5.02445">
        <ele>482.33</ele>
        <time>2022-05-30T08:35:03Z</time>
      </trkpt>
      <trkpt lat="47.72011" lon="5.0245">
        <ele>481.07</ele>
        <time>2022-05-30T08:35:06Z</time>
      </trkpt>
      <trkpt lat="47.72012" lon="5.02454">
        <ele>480.27</ele>
        <time>2022-05-30T08:35:07Z</time>
      </trkpt>
      <trkpt lat="47.72013" lon="5.02459">
        <ele>479.37</ele>
        <time>2022-05-30T08:35:10Z</time>
      </trkpt>
      <trkpt lat="47.72014" lon="5.02462">
        <ele>478.76</ele>
        <time>2022-05-30T08:35:14Z</time>
      </trkpt>
      <trkpt lat="47.72015" lon="5.02467">
        <ele>477.94</ele>
        <time>2022-05-30T08:35:16Z</time>
      </trkpt>
      <trkpt lat="47.72015" lon="5.02471">
        <ele>477.45</ele>
        <time>2022-05-30T08:35:19Z</time>
      </trkpt>
      <trkpt lat="47.72015" lon="5.02475">
        <ele>477.16</ele>
        <time>2022-05-30T08:35:21Z</time>
      </trkpt>
      <trkpt lat="47.72016" lon="5.02479">
        <ele>476.81</ele>
        <time>2022-05-30T08:35:23Z</time>
      </trkpt>
      <trkpt lat="47.72017" lon="5.02483">
        <ele>476.49</ele>
        <time>2022-05-30T08:35:25Z</time>
      </trkpt>
      <trkpt lat="47.72018" lon="5.02488">
        <ele>476.16</ele>
        <time>2022-05-30T08:35:27Z</time>
      </trkpt>
      <trkpt lat="47.7202" lon="5.02491">
        <ele>475.83</ele>
        <time>2022-05-30T08:35:29Z</time>
      </trkpt>
      <trkpt lat="47.72021" lon="5.02496">
        <ele>475.59</ele>
        <time>2022-05-30T08:35:31Z</time>
      </trkpt>
      <trkpt lat="47.72022" lon="5.025">
        <ele>475.42</ele>
        <time>2022-05-30T08:35:35Z</time>
      </trkpt>
      <trkpt lat="47.72023" lon="5.02504">
        <ele>475.49</ele>
        <time>2022-05-30T08:35:37Z</time>
      </trkpt>
      <trkpt lat="47.72025" lon="5.02508">
        <ele>475.49</ele>
        <time>2022-05-30T08:35:42Z</time>
      </trkpt>
      <trkpt lat="47.72025" lon="5.02512">
        <ele>475.63</ele>
        <time>2022-05-30T08:35:47Z</time>
      </trkpt>
      <trkpt lat="47.72027" lon="5.02517">
        <ele>475.67</ele>
        <time>2022-05-30T08:35:50Z</time>
      </trkpt>
      <trkpt lat="47.72028" lon="5.02521">
        <ele>475.74</ele>
        <time>2022-05-30T08:35:53Z</time>
      </trkpt>
      <trkpt lat="47.72031" lon="5.02525">
        <ele>475.67</ele>
        <time>2022-05-30T08:35:56Z</time>
      </trkpt>
      <trkpt lat="47.72033" lon="5.02528">
        <ele>475.63</ele>
        <time>2022-05-30T08:35:58Z</time>
      </trkpt>
      <trkpt lat="47.72035" lon="5.02532">
        <ele>475.63</ele>
        <time>2022-05-30T08:36:01Z</time>
      </trkpt>
      <trkpt lat="47.72037" lon="5.02535">
        <ele>475.6</ele>
        <time>2022-05-30T08:36:03Z</time>
      </trkpt>
      <trkpt lat="47.72038" lon="5.0254">
        <ele>475.7</ele>
        <time>2022-05-30T08:36:06Z</time>
      </trkpt>
      <trkpt lat="47.7204" lon="5.02545">
        <ele>475.74</ele>
        <time>2022-05-30T08:36:08Z</time>
      </trkpt>
      <trkpt lat="47.72041" lon="5.02548">
        <ele>475.78</ele>
        <time>2022-05-30T08:36:11Z</time>
      </trkpt>
      <trkpt lat="47.72043" lon="5.02553">
        <ele>475.81</ele>
        <time>2022-05-30T08:36:14Z</time>
      </trkpt>
      <trkpt lat="47.72045" lon="5.02558">
        <ele>475.9</ele>
        <time>2022-05-30T08:36:16Z</time>
      </trkpt>
      <trkpt lat="47.72046" lon="5.02561">
        <ele>476.01</ele>
        <time>2022-05-30T08:36:17Z</time>
      </trkpt>
      <trkpt lat="47.72048" lon="5.02565">
        <ele>476.13</ele>
        <time>2022-05-30T08:36:19Z</time>
      </trkpt>
      <trkpt lat="47.72049" lon="5.02569">
        <ele>476.33</ele>
        <time>2022-05-30T08:36:24Z</time>
      </trkpt>
      <trkpt lat="47.72051" lon="5.02573">
        <ele>476.48</ele>
        <time>2022-05-30T08:36:26Z</time>
      </trkpt>
      <trkpt lat="47.72052" lon="5.02577">
        <ele>476.7</ele>
        <time>2022-05-30T08:36:29Z</time>
      </trkpt>
      <trkpt lat="47.72053" lon="5.02581">
        <ele>476.93</ele>
        <time>2022-05-30T08:36:31Z</time>
      </trkpt>
      <trkpt lat="47.72054" lon="5.02585">
        <ele>477.11</ele>
        <time>2022-05-30T08:36:33Z</time>
      </trkpt>
      <trkpt lat="47.72056" lon="5.02589">
        <ele>477.14</ele>
        <time>2022-05-30T08:36:34Z</time>
      </trkpt>
      <trkpt lat="47.72057" lon="5.02593">
        <ele>477.12</ele>
        <time>2022-05-30T08:36:36Z</time>
      </trkpt>
      <trkpt lat="47.72058" lon="5.02597">
        <ele>477.1</ele>
        <time>2022-05-30T08:36:38Z</time>
      </trkpt>
      <trkpt lat="47.7206" lon="5.026">
        <ele>476.86</ele>
        <time>2022-05-30T08:36:41Z</time>
      </trkpt>
      <trkpt lat="47.72062" lon="5.02604">
        <ele>476.64</ele>
        <time>2022-05-30T08:36:44Z</time>
      </trkpt>
      <trkpt lat="47.72063" lon="5.02607">
        <ele>476.55</ele>
        <time>2022-05-30T08:36:45Z</time>
      </trkpt>
      <trkpt lat="47.72065" lon="5.02611">
        <ele>476.3</ele>
        <time>2022-05-30T08:36:47Z</time>
      </trkpt>
      <trkpt lat="47.72067" lon="5.02615">
        <ele>475.81</ele>
        <time>2022-05-30T08:36:50Z</time>
      </trkpt>
      <trkpt lat="47.72068" lon="5.0262">
        <ele>475.52</ele>
        <time>2022-05-30T08:36:53Z</time>
      </trkpt>
      <trkpt lat="47.72068" lon="5.02624">
        <ele>475.41</ele>
        <time>2022-05-30T08:36:57Z</time>
      </trkpt>
      <trkpt lat="47.72069" lon="5.02628">
        <ele>475.23</ele>
        <time>2022-05-30T08:36:59Z</time>
      </trkpt>
      <trkpt lat="47.72069" lon="5.02632">
        <ele>475.14</ele>
        <time>2022-05-30T08:37:02Z</time>
      </trkpt>
      <trkpt lat="47.7207" lon="5.02637">
        <ele>475.03</ele>
        <time>2022-05-30T08:37:05Z</time>
      </trkpt>
      <trkpt lat="47.72071" lon="5.0264">
        <ele>475.04</ele>
        <time>2022-05-30T08:37:07Z</time>
      </trkpt>
      <trkpt lat="47.72073" lon="5.02645">
        <ele>475.22</ele>
        <time>2022-05-30T08:37:08Z</time>
      </trkpt>
      <trkpt lat="47.72075" lon="5.02648">
        <ele>475.33</ele>
        <time>2022-05-30T08:37:09Z</time>
      </trkpt>
      <trkpt lat="47.72077" lon="5.02652">
        <ele>475.47</ele>
        <time>2022-05-30T08:37:11Z</time>
      </trkpt>
      <trkpt lat="47.72079" lon="5.02656">
        <ele>475.62</ele>
        <time>2022-05-30T08:37:14Z</time>
      </trkpt>
      <trkpt lat="47.72081" lon="5.02659">
        <ele>475.72</ele>
        <time>2022-05-30T08:37:15Z</time>
      </trkpt>
      <trkpt lat="47.72083" lon="5.02664">
        <ele>475.9</ele>
        <time>2022-05-30T08:37:17Z</time>
      </trkpt>
      <trkpt lat="47.72084" lon="5.02667">
        <ele>476</ele>
        <time>2022-05-30T08:37:21Z</time>
      </trkpt>
      <trkpt lat="47.72086" lon="5.02671">
        <ele>476.03</ele>
        <time>2022-05-30T08:37:25Z</time>
      </trkpt>
      <trkpt lat="47.72087" lon="5.02675">
        <ele>476.08</ele>
        <time>2022-05-30T08:37:27Z</time>
      </trkpt>
      <trkpt lat="47.72089" lon="5.0268">
        <ele>476.2</ele>
        <time>2022-05-30T08:37:29Z</time>
      </trkpt>
      <trkpt lat="47.72089" lon="5.02684">
        <ele>476.25</ele>
        <time>2022-05-30T08:37:33Z</time>
      </trkpt>
      <trkpt lat="47.7209" lon="5.02689">
        <ele>476.39</ele>
        <time>2022-05-30T08:37:36Z</time>
      </trkpt>
      <trkpt lat="47.72092" lon="5.02693">
        <ele>476.59</ele>
        <time>2022-05-30T08:37:38Z</time>
      </trkpt>
      <trkpt lat="47.72093" lon="5.02698">
        <ele>476.7</ele>
        <time>2022-05-30T08:37:40Z</time>
      </trkpt>
      <trkpt lat="47.72094" lon="5.02702">
        <ele>476.77</ele>
        <time>2022-05-30T08:37:42Z</time>
      </trkpt>
      <trkpt lat="47.72096" lon="5.02706">
        <ele>476.91</ele>
        <time>2022-05-30T08:37:44Z</time>
      </trkpt>
      <trkpt lat="47.72097" lon="5.02711">
        <ele>476.98</ele>
        <time>2022-05-30T08:37:48Z</time>
      </trkpt>
      <trkpt lat="47.72099" lon="5.02715">
        <ele>477.13</ele>
        <time>2022-05-30T08:37:50Z</time>
      </trkpt>
      <trkpt lat="47.721" lon="5.02719">
        <ele>477.2</ele>
        <time>2022-05-30T08:37:54Z</time>
      </trkpt>
      <trkpt lat="47.72101" lon="5.02723">
        <ele>477.23</ele>
        <time>2022-05-30T08:37:56Z</time>
      </trkpt>
      <trkpt lat="47.72102" lon="5.02728">
        <ele>477</ele>
        <time>2022-05-30T08:37:59Z</time>
      </trkpt>
      <trkpt lat="47.72103" lon="5.02732">
        <ele>476.81</ele>
        <time>2022-05-30T08:38:01Z</time>
      </trkpt>
      <trkpt lat="47.72104" lon="5.02736">
        <ele>476.62</ele>
        <time>2022-05-30T08:38:03Z</time>
      </trkpt>
      <trkpt lat="47.72105" lon="5.0274">
        <ele>476.42</ele>
        <time>2022-05-30T08:38:04Z</time>
      </trkpt>
      <trkpt lat="47.72106" lon="5.02744">
        <ele>476.21</ele>
        <time>2022-05-30T08:38:06Z</time>
      </trkpt>
      <trkpt lat="47.72107" lon="5.02748">
        <ele>475.99</ele>
        <time>2022-05-30T08:38:09Z</time>
      </trkpt>
      <trkpt lat="47.72109" lon="5.02751">
        <ele>475.83</ele>
        <time>2022-05-30T08:38:11Z</time>
      </trkpt>
      <trkpt lat="47.72111" lon="5.02755">
        <ele>475.46</ele>
        <time>2022-05-30T08:38:13Z</time>
      </trkpt>
      <trkpt lat="47.72113" lon="5.02759">
        <ele>474.85</ele>
        <time>2022-05-30T08:38:16Z</time>
      </trkpt>
      <trkpt lat="47.72116" lon="5.02763">
        <ele>474.15</ele>
        <time>2022-05-30T08:38:18Z</time>
      </trkpt>
      <trkpt lat="47.72117" lon="5.02767">
        <ele>473.66</ele>
        <time>2022-05-30T08:38:20Z</time>
      </trkpt>
      <trkpt lat="47.72119" lon="5.02771">
        <ele>473.09</ele>
        <time>2022-05-30T08:38:22Z</time>
      </trkpt>
      <trkpt lat="47.72121" lon="5.02774">
        <ele>472.65</ele>
        <time>2022-05-30T08:38:24Z</time>
      </trkpt>
      <trkpt lat="47.72122" lon="5.02779">
        <ele>472.17</ele>
        <time>2022-05-30T08:38:26Z</time>
      </trkpt>
      <trkpt lat="47.72124" lon="5.02783">
        <ele>471.88</ele>
        <time>2022-05-30T08:38:28Z</time>
      </trkpt>
      <trkpt lat="47.72125" lon="5.02786">
        <ele>471.7</ele>
        <time>2022-05-30T08:38:30Z</time>
      </trkpt>
      <trkpt lat="47.72126" lon="5.0279">
        <ele>471.49</ele>
        <time>2022-05-30T08:38:34Z</time>
      </trkpt>
      <trkpt lat="47.72127" lon="5.02794">
        <ele>471.27</ele>
        <time>2022-05-30T08:38:36Z</time>
      </trkpt>
      <trkpt lat="47.72128" lon="5.02798">
        <ele>471.06</ele>
        <time>2022-05-30T08:38:39Z</time>
      </trkpt>
      <trkpt lat="47.7213" lon="5.02802">
        <ele>470.77</ele>
        <time>2022-05-30T08:38:42Z</time>
      </trkpt>
      <trkpt lat="47.7213" lon="5.02806">
        <ele>470.65</ele>
        <time>2022-05-30T08:38:45Z</time>
      </trkpt>
      <trkpt lat="47.72132" lon="5.0281">
        <ele>470.62</ele>
        <time>2022-05-30T08:38:48Z</time>
      </trkpt>
      <trkpt lat="47.72133" lon="5.02814">
        <ele>470.66</ele>
        <time>2022-05-30T08:38:51Z</time>
      </trkpt>
      <trkpt lat="47.72134" lon="5.02818">
        <ele>470.72</ele>
        <time>2022-05-30T08:38:53Z</time>
      </trkpt>
      <trkpt lat="47.72136" lon="5.02822">
        <ele>470.74</ele>
        <time>2022-05-30T08:38:55Z</time>
      </trkpt>
      <trkpt lat="47.72137" lon="5.02827">
        <ele>470.86</ele>
        <time>2022-05-30T08:38:59Z</time>
      </trkpt>
      <trkpt lat="47.72139" lon="5.02831">
        <ele>470.92</ele>
        <time>2022-05-30T08:39:01Z</time>
      </trkpt>
      <trkpt lat="47.7214" lon="5.02835">
        <ele>471.1</ele>
        <time>2022-05-30T08:39:04Z</time>
      </trkpt>
      <trkpt lat="47.72141" lon="5.02839">
        <ele>471.31</ele>
        <time>2022-05-30T08:39:06Z</time>
      </trkpt>
      <trkpt lat="47.72142" lon="5.02843">
        <ele>471.54</ele>
        <time>2022-05-30T08:39:08Z</time>
      </trkpt>
      <trkpt lat="47.72144" lon="5.02847">
        <ele>471.86</ele>
        <time>2022-05-30T08:39:09Z</time>
      </trkpt>
      <trkpt lat="47.72145" lon="5.02851">
        <ele>472.14</ele>
        <time>2022-05-30T08:39:11Z</time>
      </trkpt>
      <trkpt lat="47.72147" lon="5.02855">
        <ele>472.53</ele>
        <time>2022-05-30T08:39:13Z</time>
      </trkpt>
      <trkpt lat="47.72149" lon="5.02858">
        <ele>472.9</ele>
        <time>2022-05-30T08:39:17Z</time>
      </trkpt>
      <trkpt lat="47.7215" lon="5.02862">
        <ele>473.25</ele>
        <time>2022-05-30T08:39:20Z</time>
      </trkpt>
      <trkpt lat="47.72152" lon="5.02866">
        <ele>473.68</ele>
        <time>2022-05-30T08:39:22Z</time>
      </trkpt>
      <trkpt lat="47.72153" lon="5.0287">
        <ele>474</ele>
        <time>2022-05-30T08:39:24Z</time>
      </trkpt>
      <trkpt lat="47.72154" lon="5.02874">
        <ele>474.31</ele>
        <time>2022-05-30T08:39:26Z</time>
      </trkpt>
      <trkpt lat="47.72156" lon="5.02877">
        <ele>474.64</ele>
        <time>2022-05-30T08:39:29Z</time>
      </trkpt>
      <trkpt lat="47.72157" lon="5.02881">
        <ele>474.92</ele>
        <time>2022-05-30T08:39:31Z</time>
      </trkpt>
      <trkpt lat="47.72159" lon="5.02886">
        <ele>475.32</ele>
        <time>2022-05-30T08:39:35Z</time>
      </trkpt>
      <trkpt lat="47.7216" lon="5.02889">
        <ele>475.52</ele>
        <time>2022-05-30T08:39:38Z</time>
      </trkpt>
      <trkpt lat="47.72161" lon="5.02893">
        <ele>475.62</ele>
        <time>2022-05-30T08:39:42Z</time>
      </trkpt>
      <trkpt lat="47.72162" lon="5.02897">
        <ele>475.71</ele>
        <time>2022-05-30T08:39:43Z</time>
      </trkpt>
      <trkpt lat="47.72164" lon="5.029">
        <ele>475.85</ele>
        <time>2022-05-30T08:39:45Z</time>
      </trkpt>
      <trkpt lat="47.72166" lon="5.02904">
        <ele>475.97</ele>
        <time>2022-05-30T08:39:48Z</time>
      </trkpt>
      <trkpt lat="47.72168" lon="5.02908">
        <ele>475.92</ele>
        <time>2022-05-30T08:39:50Z</time>
      </trkpt>
      <trkpt lat="47.72169" lon="5.02912">
        <ele>475.89</ele>
        <time>2022-05-30T08:39:53Z</time>
      </trkpt>
      <trkpt lat="47.7217" lon="5.02916">
        <ele>475.87</ele>
        <time>2022-05-30T08:39:55Z</time>
      </trkpt>
      <trkpt lat="47.7217" lon="5.02921">
        <ele>475.62</ele>
        <time>2022-05-30T08:39:57Z</time>
      </trkpt>
      <trkpt lat="47.72171" lon="5.02925">
        <ele>475.38</ele>
        <time>2022-05-30T08:39:59Z</time>
      </trkpt>
      <trkpt lat="47.72172" lon="5.02929">
        <ele>475.18</ele>
        <time>2022-05-30T08:40:01Z</time>
      </trkpt>
      <trkpt lat="47.72174" lon="5.02933">
        <ele>475.03</ele>
        <time>2022-05-30T08:40:04Z</time>
      </trkpt>
      <trkpt lat="47.72176" lon="5.02936">
        <ele>474.97</ele>
        <time>2022-05-30T08:40:06Z</time>
      </trkpt>
      <trkpt lat="47.72177" lon="5.0294">
        <ele>474.89</ele>
        <time>2022-05-30T08:40:10Z</time>
      </trkpt>
      <trkpt lat="47.72178" lon="5.02944">
        <ele>474.83</ele>
        <time>2022-05-30T08:40:13Z</time>
      </trkpt>
      <trkpt lat="47.72179" lon="5.02948">
        <ele>474.7</ele>
        <time>2022-05-30T08:40:15Z</time>
      </trkpt>
      <trkpt lat="47.7218" lon="5.02952">
        <ele>474.56</ele>
        <time>2022-05-30T08:40:18Z</time>
      </trkpt>
      <trkpt lat="47.72182" lon="5.02957">
        <ele>474.4</ele>
        <time>2022-05-30T08:40:21Z</time>
      </trkpt>
      <trkpt lat="47.72183" lon="5.02962">
        <ele>474.17</ele>
        <time>2022-05-30T08:40:23Z</time>
      </trkpt>
      <trkpt lat="47.72184" lon="5.02966">
        <ele>473.99</ele>
        <time>2022-05-30T08:40:25Z</time>
      </trkpt>
      <trkpt lat="47.72185" lon="5.0297">
        <ele>473.79</ele>
        <time>2022-05-30T08:40:28Z</time>
      </trkpt>
      <trkpt lat="47.72187" lon="5.02975">
        <ele>473.39</ele>
        <time>2022-05-30T08:40:30Z</time>
      </trkpt>
      <trkpt lat="47.72189" lon="5.02978">
        <ele>473.05</ele>
        <time>2022-05-30T08:40:32Z</time>
      </trkpt>
      <trkpt lat="47.7219" lon="5.02982">
        <ele>472.54</ele>
        <time>2022-05-30T08:40:35Z</time>
      </trkpt>
      <trkpt lat="47.72191" lon="5.02986">
        <ele>472.02</ele>
        <time>2022-05-30T08:40:39Z</time>
      </trkpt>
      <trkpt lat="47.72193" lon="5.02989">
        <ele>471.59</ele>
        <time>2022-05-30T08:40:42Z</time>
      </trkpt>
      <trkpt lat="47.72195" lon="5.02992">
        <ele>471.11</ele>
        <time>2022-05-30T08:40:45Z</time>
      </trkpt>
      <trkpt lat="47.72196" lon="5.02996">
        <ele>470.46</ele>
        <time>2022-05-30T08:40:48Z</time>
      </trkpt>
      <trkpt lat="47.72198" lon="5.03">
        <ele>469.74</ele>
        <time>2022-05-30T08:40:53Z</time>
      </trkpt>
      <trkpt lat="47.722" lon="5.03004">
        <ele>468.91</ele>
        <time>2022-05-30T08:40:55Z</time>
      </trkpt>
      <trkpt lat="47.72201" lon="5.03007">
        <ele>468.33</ele>
        <time>2022-05-30T08:40:58Z</time>
      </trkpt>
      <trkpt lat="47.72204" lon="5.03011">
        <ele>467.47</ele>
        <time>2022-05-30T08:41:00Z</time>
      </trkpt>
      <trkpt lat="47.72207" lon="5.03013">
        <ele>466.97</ele>
        <time>2022-05-30T08:41:03Z</time>
      </trkpt>
      <trkpt lat="47.7221" lon="5.03012">
        <ele>466.96</ele>
        <time>2022-05-30T08:41:06Z</time>
      </trkpt>
      <trkpt lat="47.72213" lon="5.0301">
        <ele>467.1</ele>
        <time>2022-05-30T08:41:10Z</time>
      </trkpt>
      <trkpt lat="47.72216" lon="5.03008">
        <ele>467.23</ele>
        <time>2022-05-30T08:41:13Z</time>
      </trkpt>
      <trkpt lat="47.72219" lon="5.03007">
        <ele>467.19</ele>
        <time>2022-05-30T08:41:15Z</time>
      </trkpt>
      <trkpt lat="47.72222" lon="5.03006">
        <ele>467.15</ele>
        <time>2022-05-30T08:41:18Z</time>
      </trkpt>
      <trkpt lat="47.72225" lon="5.03004">
        <ele>467.52</ele>
        <time>2022-05-30T08:41:20Z</time>
      </trkpt>
      <trkpt lat="47.72228" lon="5.03003">
        <ele>467.78</ele>
        <time>2022-05-30T08:41:22Z</time>
      </trkpt>
      <trkpt lat="47.72231" lon="5.03002">
        <ele>468.03</ele>
        <time>2022-05-30T08:41:24Z</time>
      </trkpt>
      <trkpt lat="47.72234" lon="5.03">
        <ele>468.42</ele>
        <time>2022-05-30T08:41:29Z</time>
      </trkpt>
      <trkpt lat="47.72236" lon="5.02999">
        <ele>468.57</ele>
        <time>2022-05-30T08:41:31Z</time>
      </trkpt>
      <trkpt lat="47.72239" lon="5.02997">
        <ele>468.8</ele>
        <time>2022-05-30T08:41:33Z</time>
      </trkpt>
      <trkpt lat="47.72242" lon="5.02996">
        <ele>468.94</ele>
        <time>2022-05-30T08:41:36Z</time>
      </trkpt>
      <trkpt lat="47.72245" lon="5.02994">
        <ele>469.11</ele>
        <time>2022-05-30T08:41:40Z</time>
      </trkpt>
      <trkpt lat="47.72248" lon="5.02992">
        <ele>469.26</ele>
        <time>2022-05-30T08:41:42Z</time>
      </trkpt>
      <trkpt lat="47.7225" lon="5.02991">
        <ele>469.32</ele>
        <time>2022-05-30T08:41:44Z</time>
      </trkpt>
      <trkpt lat="47.72253" lon="5.0299">
        <ele>468.94</ele>
        <time>2022-05-30T08:41:46Z</time>
      </trkpt>
      <trkpt lat="47.72256" lon="5.02988">
        <ele>468.63</ele>
        <time>2022-05-30T08:41:49Z</time>
      </trkpt>
      <trkpt lat="47.72258" lon="5.02986">
        <ele>468.5</ele>
        <time>2022-05-30T08:41:50Z</time>
      </trkpt>
      <trkpt lat="47.72261" lon="5.02983">
        <ele>468.36</ele>
        <time>2022-05-30T08:41:53Z</time>
      </trkpt>
      <trkpt lat="47.72264" lon="5.02981">
        <ele>468.2</ele>
        <time>2022-05-30T08:41:56Z</time>
      </trkpt>
      <trkpt lat="47.72267" lon="5.02979">
        <ele>468.08</ele>
        <time>2022-05-30T08:42:01Z</time>
      </trkpt>
      <trkpt lat="47.72269" lon="5.02978">
        <ele>468</ele>
        <time>2022-05-30T08:42:07Z</time>
      </trkpt>
      <trkpt lat="47.72272" lon="5.02978">
        <ele>467.71</ele>
        <time>2022-05-30T08:42:11Z</time>
      </trkpt>
      <trkpt lat="47.72275" lon="5.02977">
        <ele>467.56</ele>
        <time>2022-05-30T08:42:13Z</time>
      </trkpt>
      <trkpt lat="47.72278" lon="5.02978">
        <ele>467.12</ele>
        <time>2022-05-30T08:42:17Z</time>
      </trkpt>
      <trkpt lat="47.72281" lon="5.02979">
        <ele>466.41</ele>
        <time>2022-05-30T08:42:18Z</time>
      </trkpt>
      <trkpt lat="47.72284" lon="5.02981">
        <ele>465.6</ele>
        <time>2022-05-30T08:42:21Z</time>
      </trkpt>
      <trkpt lat="47.72286" lon="5.02985">
        <ele>464.79</ele>
        <time>2022-05-30T08:42:24Z</time>
      </trkpt>
      <trkpt lat="47.72287" lon="5.02989">
        <ele>464.19</ele>
        <time>2022-05-30T08:42:27Z</time>
      </trkpt>
      <trkpt lat="47.72288" lon="5.02992">
        <ele>463.73</ele>
        <time>2022-05-30T08:42:32Z</time>
      </trkpt>
      <trkpt lat="47.7229" lon="5.02996">
        <ele>463.07</ele>
        <time>2022-05-30T08:42:35Z</time>
      </trkpt>
      <trkpt lat="47.72291" lon="5.02999">
        <ele>462.66</ele>
        <time>2022-05-30T08:42:40Z</time>
      </trkpt>
      <trkpt lat="47.72293" lon="5.03003">
        <ele>462.1</ele>
        <time>2022-05-30T08:42:43Z</time>
      </trkpt>
      <trkpt lat="47.72294" lon="5.03007">
        <ele>461.68</ele>
        <time>2022-05-30T08:42:45Z</time>
      </trkpt>
      <trkpt lat="47.72296" lon="5.03012">
        <ele>461.15</ele>
        <time>2022-05-30T08:42:48Z</time>
      </trkpt>
      <trkpt lat="47.72297" lon="5.03017">
        <ele>460.75</ele>
        <time>2022-05-30T08:42:50Z</time>
      </trkpt>
      <trkpt lat="47.72299" lon="5.03021">
        <ele>460.42</ele>
        <time>2022-05-30T08:42:54Z</time>
      </trkpt>
      <trkpt lat="47.723" lon="5.03025">
        <ele>460.16</ele>
        <time>2022-05-30T08:42:57Z</time>
      </trkpt>
      <trkpt lat="47.72302" lon="5.0303">
        <ele>459.77</ele>
        <time>2022-05-30T08:43:00Z</time>
      </trkpt>
      <trkpt lat="47.72303" lon="5.03034">
        <ele>459.35</ele>
        <time>2022-05-30T08:43:01Z</time>
      </trkpt>
      <trkpt lat="47.72305" lon="5.03039">
        <ele>458.8</ele>
        <time>2022-05-30T08:43:05Z</time>
      </trkpt>
      <trkpt lat="47.72306" lon="5.03044">
        <ele>458.29</ele>
        <time>2022-05-30T08:43:06Z</time>
      </trkpt>
      <trkpt lat="47.72306" lon="5.03049">
        <ele>457.76</ele>
        <time>2022-05-30T08:43:08Z</time>
      </trkpt>
      <trkpt lat="47.72307" lon="5.03053">
        <ele>457.46</ele>
        <time>2022-05-30T08:43:12Z</time>
      </trkpt>
      <trkpt lat="47.72307" lon="5.03057">
        <ele>457.41</ele>
        <time>2022-05-30T08:43:13Z</time>
      </trkpt>
      <trkpt lat="47.72307" lon="5.03062">
        <ele>458.11</ele>
        <time>2022-05-30T08:43:15Z</time>
      </trkpt>
      <trkpt lat="47.72308" lon="5.03067">
        <ele>458.93</ele>
        <time>2022-05-30T08:43:18Z</time>
      </trkpt>
      <trkpt lat="47.7231" lon="5.03071">
        <ele>459.69</ele>
        <time>2022-05-30T08:43:20Z</time>
      </trkpt>
      <trkpt lat="47.72311" lon="5.03076">
        <ele>460.44</ele>
        <time>2022-05-30T08:43:23Z</time>
      </trkpt>
      <trkpt lat="47.72312" lon="5.0308">
        <ele>461.04</ele>
        <time>2022-05-30T08:43:26Z</time>
      </trkpt>
      <trkpt lat="47.72314" lon="5.03083">
        <ele>461.57</ele>
        <time>2022-05-30T08:43:29Z</time>
      </trkpt>
      <trkpt lat="47.72315" lon="5.03087">
        <ele>462.56</ele>
        <time>2022-05-30T08:43:31Z</time>
      </trkpt>
      <trkpt lat="47.72318" lon="5.0309">
        <ele>463.39</ele>
        <time>2022-05-30T08:43:34Z</time>
      </trkpt>
      <trkpt lat="47.7232" lon="5.03093">
        <ele>464.1</ele>
        <time>2022-05-30T08:43:36Z</time>
      </trkpt>
      <trkpt lat="47.72322" lon="5.03096">
        <ele>464.75</ele>
        <time>2022-05-30T08:43:39Z</time>
      </trkpt>
      <trkpt lat="47.72325" lon="5.03099">
        <ele>465.33</ele>
        <time>2022-05-30T08:43:43Z</time>
      </trkpt>
      <trkpt lat="47.72326" lon="5.03102">
        <ele>465.87</ele>
        <time>2022-05-30T08:43:45Z</time>
      </trkpt>
      <trkpt lat="47.72329" lon="5.03105">
        <ele>466.29</ele>
        <time>2022-05-30T08:43:47Z</time>
      </trkpt>
      <trkpt lat="47.72331" lon="5.03108">
        <ele>466.68</ele>
        <time>2022-05-30T08:43:49Z</time>
      </trkpt>
      <trkpt lat="47.72334" lon="5.03111">
        <ele>467.03</ele>
        <time>2022-05-30T08:43:52Z</time>
      </trkpt>
      <trkpt lat="47.72336" lon="5.03113">
        <ele>467.51</ele>
        <time>2022-05-30T08:43:54Z</time>
      </trkpt>
      <trkpt lat="47.72338" lon="5.03116">
        <ele>468.13</ele>
        <time>2022-05-30T08:43:57Z</time>
      </trkpt>
      <trkpt lat="47.72341" lon="5.03118">
        <ele>468.59</ele>
        <time>2022-05-30T08:44:00Z</time>
      </trkpt>
      <trkpt lat="47.72343" lon="5.0312">
        <ele>468.96</ele>
        <time>2022-05-30T08:44:04Z</time>
      </trkpt>
      <trkpt lat="47.72346" lon="5.03123">
        <ele>469.47</ele>
        <time>2022-05-30T08:44:08Z</time>
      </trkpt>
      <trkpt lat="47.72348" lon="5.03125">
        <ele>469.76</ele>
        <time>2022-05-30T08:44:11Z</time>
      </trkpt>
      <trkpt lat="47.7235" lon="5.03128">
        <ele>470.15</ele>
        <time>2022-05-30T08:44:13Z</time>
      </trkpt>
      <trkpt lat="47.72352" lon="5.03132">
        <ele>470.59</ele>
        <time>2022-05-30T08:44:16Z</time>
      </trkpt>
      <trkpt lat="47.72355" lon="5.03135">
        <ele>470.85</ele>
        <time>2022-05-30T08:44:18Z</time>
      </trkpt>
      <trkpt lat="47.72357" lon="5.03138">
        <ele>471.07</ele>
        <time>2022-05-30T08:44:20Z</time>
      </trkpt>
      <trkpt lat="47.72359" lon="5.03142">
        <ele>471.19</ele>
        <time>2022-05-30T08:44:23Z</time>
      </trkpt>
      <trkpt lat="47.72361" lon="5.03145">
        <ele>471.22</ele>
        <time>2022-05-30T08:44:24Z</time>
      </trkpt>
      <trkpt lat="47.72363" lon="5.03148">
        <ele>471.42</ele>
        <time>2022-05-30T08:44:26Z</time>
      </trkpt>
      <trkpt lat="47.72365" lon="5.03151">
        <ele>471.64</ele>
        <time>2022-05-30T08:44:27Z</time>
      </trkpt>
      <trkpt lat="47.72368" lon="5.03153">
        <ele>471.88</ele>
        <time>2022-05-30T08:44:29Z</time>
      </trkpt>
      <trkpt lat="47.7237" lon="5.03156">
        <ele>472.13</ele>
        <time>2022-05-30T08:44:31Z</time>
      </trkpt>
      <trkpt lat="47.72374" lon="5.03159">
        <ele>472.52</ele>
        <time>2022-05-30T08:44:34Z</time>
      </trkpt>
      <trkpt lat="47.72376" lon="5.03162">
        <ele>472.81</ele>
        <time>2022-05-30T08:44:35Z</time>
      </trkpt>
      <trkpt lat="47.72378" lon="5.03164">
        <ele>473.06</ele>
        <time>2022-05-30T08:44:39Z</time>
      </trkpt>
      <trkpt lat="47.72381" lon="5.03167">
        <ele>473.43</ele>
        <time>2022-05-30T08:44:41Z</time>
      </trkpt>
      <trkpt lat="47.72383" lon="5.03169">
        <ele>473.55</ele>
        <time>2022-05-30T08:44:43Z</time>
      </trkpt>
      <trkpt lat="47.72386" lon="5.03171">
        <ele>473.68</ele>
        <time>2022-05-30T08:44:45Z</time>
      </trkpt>
      <trkpt lat="47.72388" lon="5.03174">
        <ele>473.7</ele>
        <time>2022-05-30T08:44:47Z</time>
      </trkpt>
      <trkpt lat="47.7239" lon="5.03176">
        <ele>473.66</ele>
        <time>2022-05-30T08:44:49Z</time>
      </trkpt>
      <trkpt lat="47.72393" lon="5.03179">
        <ele>473.56</ele>
        <time>2022-05-30T08:44:52Z</time>
      </trkpt>
      <trkpt lat="47.72395" lon="5.03182">
        <ele>473.45</ele>
        <time>2022-05-30T08:44:54Z</time>
      </trkpt>
      <trkpt lat="47.72397" lon="5.03185">
        <ele>473.34</ele>
        <time>2022-05-30T08:44:57Z</time>
      </trkpt>
      <trkpt lat="47.72399" lon="5.03187">
        <ele>473.27</ele>
        <time>2022-05-30T08:45:00Z</time>
      </trkpt>
      <trkpt lat="47.72401" lon="5.0319">
        <ele>473.16</ele>
        <time>2022-05-30T08:45:02Z</time>
      </trkpt>
      <trkpt lat="47.72403" lon="5.03193">
        <ele>473.05</ele>
        <time>2022-05-30T08:45:06Z</time>
      </trkpt>
      <trkpt lat="47.72405" lon="5.03197">
        <ele>472.89</ele>
        <time>2022-05-30T08:45:09Z</time>
      </trkpt>
      <trkpt lat="47.72406" lon="5.03201">
        <ele>472.71</ele>
        <time>2022-05-30T08:45:13Z</time>
      </trkpt>
      <trkpt lat="47.72408" lon="5.03205">
        <ele>472.48</ele>
        <time>2022-05-30T08:45:15Z</time>
      </trkpt>
      <trkpt lat="47.72411" lon="5.03207">
        <ele>472.28</ele>
        <time>2022-05-30T08:45:17Z</time>
      </trkpt>
      <trkpt lat="47.72414" lon="5.03209">
        <ele>472.05</ele>
        <time>2022-05-30T08:45:19Z</time>
      </trkpt>
      <trkpt lat="47.72417" lon="5.0321">
        <ele>471.91</ele>
        <time>2022-05-30T08:45:22Z</time>
      </trkpt>
      <trkpt lat="47.7242" lon="5.03211">
        <ele>472.14</ele>
        <time>2022-05-30T08:45:25Z</time>
      </trkpt>
      <trkpt lat="47.72422" lon="5.03211">
        <ele>472.34</ele>
        <time>2022-05-30T08:45:27Z</time>
      </trkpt>
      <trkpt lat="47.72425" lon="5.0321">
        <ele>472.68</ele>
        <time>2022-05-30T08:45:30Z</time>
      </trkpt>
      <trkpt lat="47.72428" lon="5.03208">
        <ele>473.03</ele>
        <time>2022-05-30T08:45:33Z</time>
      </trkpt>
      <trkpt lat="47.72431" lon="5.03205">
        <ele>473.34</ele>
        <time>2022-05-30T08:45:37Z</time>
      </trkpt>
      <trkpt lat="47.72433" lon="5.03203">
        <ele>473.52</ele>
        <time>2022-05-30T08:45:40Z</time>
      </trkpt>
      <trkpt lat="47.72436" lon="5.03201">
        <ele>473.72</ele>
        <time>2022-05-30T08:45:42Z</time>
      </trkpt>
      <trkpt lat="47.72439" lon="5.03198">
        <ele>473.86</ele>
        <time>2022-05-30T08:45:44Z</time>
      </trkpt>
      <trkpt lat="47.72441" lon="5.03196">
        <ele>473.91</ele>
        <time>2022-05-30T08:45:46Z</time>
      </trkpt>
      <trkpt lat="47.72444" lon="5.03194">
        <ele>474</ele>
        <time>2022-05-30T08:45:49Z</time>
      </trkpt>
      <trkpt lat="47.72447" lon="5.03192">
        <ele>474.26</ele>
        <time>2022-05-30T08:45:51Z</time>
      </trkpt>
      <trkpt lat="47.7245" lon="5.03191">
        <ele>474.5</ele>
        <time>2022-05-30T08:45:53Z</time>
      </trkpt>
      <trkpt lat="47.72453" lon="5.0319">
        <ele>474.73</ele>
        <time>2022-05-30T08:45:55Z</time>
      </trkpt>
      <trkpt lat="47.72456" lon="5.03188">
        <ele>474.97</ele>
        <time>2022-05-30T08:45:58Z</time>
      </trkpt>
      <trkpt lat="47.72458" lon="5.03187">
        <ele>475.11</ele>
        <time>2022-05-30T08:46:01Z</time>
      </trkpt>
      <trkpt lat="47.72461" lon="5.03184">
        <ele>475.34</ele>
        <time>2022-05-30T08:46:04Z</time>
      </trkpt>
      <trkpt lat="47.72464" lon="5.03182">
        <ele>475.54</ele>
        <time>2022-05-30T08:46:07Z</time>
      </trkpt>
      <trkpt lat="47.72467" lon="5.0318">
        <ele>475.72</ele>
        <time>2022-05-30T08:46:08Z</time>
      </trkpt>
      <trkpt lat="47.72469" lon="5.03178">
        <ele>475.84</ele>
        <time>2022-05-30T08:46:11Z</time>
      </trkpt>
      <trkpt lat="47.72472" lon="5.03177">
        <ele>475.99</ele>
        <time>2022-05-30T08:46:14Z</time>
      </trkpt>
      <trkpt lat="47.72475" lon="5.03175">
        <ele>476.07</ele>
        <time>2022-05-30T08:46:16Z</time>
      </trkpt>
      <trkpt lat="47.72479" lon="5.03173">
        <ele>476.19</ele>
        <time>2022-05-30T08:46:20Z</time>
      </trkpt>
      <trkpt lat="47.72482" lon="5.03172">
        <ele>476.28</ele>
        <time>2022-05-30T08:46:22Z</time>
      </trkpt>
      <trkpt lat="47.72484" lon="5.0317">
        <ele>476.37</ele>
        <time>2022-05-30T08:46:25Z</time>
      </trkpt>
      <trkpt lat="47.72487" lon="5.03169">
        <ele>476.49</ele>
        <time>2022-05-30T08:46:28Z</time>
      </trkpt>
      <trkpt lat="47.7249" lon="5.03167">
        <ele>476.63</ele>
        <time>2022-05-30T08:46:32Z</time>
      </trkpt>
      <trkpt lat="47.72492" lon="5.03164">
        <ele>476.74</ele>
        <time>2022-05-30T08:46:34Z</time>
      </trkpt>
      <trkpt lat="47.72495" lon="5.03161">
        <ele>476.86</ele>
        <time>2022-05-30T08:46:36Z</time>
      </trkpt>
      <trkpt lat="47.72498" lon="5.03159">
        <ele>476.95</ele>
        <time>2022-05-30T08:46:38Z</time>
      </trkpt>
      <trkpt lat="47.72501" lon="5.03157">
        <ele>476.87</ele>
        <time>2022-05-30T08:46:40Z</time>
      </trkpt>
      <trkpt lat="47.72504" lon="5.03155">
        <ele>476.48</ele>
        <time>2022-05-30T08:46:44Z</time>
      </trkpt>
      <trkpt lat="47.72507" lon="5.03152">
        <ele>476.13</ele>
        <time>2022-05-30T08:46:45Z</time>
      </trkpt>
      <trkpt lat="47.7251" lon="5.0315">
        <ele>475.78</ele>
        <time>2022-05-30T08:46:47Z</time>
      </trkpt>
      <trkpt lat="47.72513" lon="5.03148">
        <ele>475.44</ele>
        <time>2022-05-30T08:46:50Z</time>
      </trkpt>
      <trkpt lat="47.72516" lon="5.03147">
        <ele>475.1</ele>
        <time>2022-05-30T08:46:52Z</time>
      </trkpt>
      <trkpt lat="47.72519" lon="5.03146">
        <ele>474.77</ele>
        <time>2022-05-30T08:46:55Z</time>
      </trkpt>
      <trkpt lat="47.72521" lon="5.03144">
        <ele>474.59</ele>
        <time>2022-05-30T08:46:59Z</time>
      </trkpt>
      <trkpt lat="47.72524" lon="5.03143">
        <ele>474.28</ele>
        <time>2022-05-30T08:47:05Z</time>
      </trkpt>
      <trkpt lat="47.72527" lon="5.03141">
        <ele>474.01</ele>
        <time>2022-05-30T08:47:07Z</time>
      </trkpt>
      <trkpt lat="47.7253" lon="5.03139">
        <ele>474</ele>
        <time>2022-05-30T08:47:10Z</time>
      </trkpt>
      <trkpt lat="47.72533" lon="5.03136">
        <ele>474.02</ele>
        <time>2022-05-30T08:47:12Z</time>
      </trkpt>
      <trkpt lat="47.72535" lon="5.03134">
        <ele>474.05</ele>
        <time>2022-05-30T08:47:14Z</time>
      </trkpt>
      <trkpt lat="47.72537" lon="5.03132">
        <ele>474.08</ele>
        <time>2022-05-30T08:47:16Z</time>
      </trkpt>
      <trkpt lat="47.7254" lon="5.03129">
        <ele>474.16</ele>
        <time>2022-05-30T08:47:18Z</time>
      </trkpt>
      <trkpt lat="47.72542" lon="5.03127">
        <ele>474.22</ele>
        <time>2022-05-30T08:47:20Z</time>
      </trkpt>
      <trkpt lat="47.72544" lon="5.03124">
        <ele>474.31</ele>
        <time>2022-05-30T08:47:23Z</time>
      </trkpt>
      <trkpt lat="47.72548" lon="5.03123">
        <ele>474.42</ele>
        <time>2022-05-30T08:47:25Z</time>
      </trkpt>
      <trkpt lat="47.7255" lon="5.03121">
        <ele>474.52</ele>
        <time>2022-05-30T08:47:27Z</time>
      </trkpt>
      <trkpt lat="47.72553" lon="5.03118">
        <ele>474.68</ele>
        <time>2022-05-30T08:47:29Z</time>
      </trkpt>
      <trkpt lat="47.72556" lon="5.03116">
        <ele>474.81</ele>
        <time>2022-05-30T08:47:33Z</time>
      </trkpt>
      <trkpt lat="47.72559" lon="5.03115">
        <ele>474.77</ele>
        <time>2022-05-30T08:47:35Z</time>
      </trkpt>
      <trkpt lat="47.72561" lon="5.03113">
        <ele>474.76</ele>
        <time>2022-05-30T08:47:38Z</time>
      </trkpt>
      <trkpt lat="47.72564" lon="5.03112">
        <ele>474.68</ele>
        <time>2022-05-30T08:47:41Z</time>
      </trkpt>
      <trkpt lat="47.72567" lon="5.0311">
        <ele>474.55</ele>
        <time>2022-05-30T08:47:44Z</time>
      </trkpt>
      <trkpt lat="47.7257" lon="5.03109">
        <ele>474.4</ele>
        <time>2022-05-30T08:47:46Z</time>
      </trkpt>
      <trkpt lat="47.72573" lon="5.03107">
        <ele>474.22</ele>
        <time>2022-05-30T08:47:48Z</time>
      </trkpt>
      <trkpt lat="47.72576" lon="5.03106">
        <ele>474.08</ele>
        <time>2022-05-30T08:47:50Z</time>
      </trkpt>
      <trkpt lat="47.72578" lon="5.03104">
        <ele>473.94</ele>
        <time>2022-05-30T08:47:52Z</time>
      </trkpt>
      <trkpt lat="47.72581" lon="5.03102">
        <ele>473.76</ele>
        <time>2022-05-30T08:47:54Z</time>
      </trkpt>
      <trkpt lat="47.72584" lon="5.031">
        <ele>473.61</ele>
        <time>2022-05-30T08:47:57Z</time>
      </trkpt>
      <trkpt lat="47.72586" lon="5.03097">
        <ele>473.54</ele>
        <time>2022-05-30T08:47:58Z</time>
      </trkpt>
      <trkpt lat="47.72588" lon="5.03094">
        <ele>473.45</ele>
        <time>2022-05-30T08:48:00Z</time>
      </trkpt>
      <trkpt lat="47.72591" lon="5.03091">
        <ele>473.35</ele>
        <time>2022-05-30T08:48:03Z</time>
      </trkpt>
      <trkpt lat="47.72594" lon="5.0309">
        <ele>473.33</ele>
        <time>2022-05-30T08:48:06Z</time>
      </trkpt>
      <trkpt lat="47.72596" lon="5.03089">
        <ele>473.3</ele>
        <time>2022-05-30T08:48:09Z</time>
      </trkpt>
      <trkpt lat="47.72599" lon="5.03087">
        <ele>473.21</ele>
        <time>2022-05-30T08:48:12Z</time>
      </trkpt>
      <trkpt lat="47.72602" lon="5.03086">
        <ele>473.16</ele>
        <time>2022-05-30T08:48:15Z</time>
      </trkpt>
      <trkpt lat="47.72605" lon="5.03084">
        <ele>473.04</ele>
        <time>2022-05-30T08:48:18Z</time>
      </trkpt>
      <trkpt lat="47.72608" lon="5.03083">
        <ele>472.99</ele>
        <time>2022-05-30T08:48:20Z</time>
      </trkpt>
      <trkpt lat="47.7261" lon="5.03082">
        <ele>472.95</ele>
        <time>2022-05-30T08:48:22Z</time>
      </trkpt>
      <trkpt lat="47.72613" lon="5.0308">
        <ele>472.82</ele>
        <time>2022-05-30T08:48:25Z</time>
      </trkpt>
      <trkpt lat="47.72616" lon="5.03079">
        <ele>472.7</ele>
        <time>2022-05-30T08:48:27Z</time>
      </trkpt>
      <trkpt lat="47.72618" lon="5.03078">
        <ele>472.61</ele>
        <time>2022-05-30T08:48:29Z</time>
      </trkpt>
      <trkpt lat="47.72621" lon="5.03076">
        <ele>472.47</ele>
        <time>2022-05-30T08:48:32Z</time>
      </trkpt>
      <trkpt lat="47.72624" lon="5.03074">
        <ele>472.36</ele>
        <time>2022-05-30T08:48:34Z</time>
      </trkpt>
      <trkpt lat="47.72627" lon="5.03072">
        <ele>472.25</ele>
        <time>2022-05-30T08:48:37Z</time>
      </trkpt>
      <trkpt lat="47.7263" lon="5.0307">
        <ele>472.17</ele>
        <time>2022-05-30T08:48:39Z</time>
      </trkpt>
      <trkpt lat="47.72632" lon="5.03067">
        <ele>472.1</ele>
        <time>2022-05-30T08:48:42Z</time>
      </trkpt>
      <trkpt lat="47.72635" lon="5.03064">
        <ele>472.04</ele>
        <time>2022-05-30T08:48:45Z</time>
      </trkpt>
      <trkpt lat="47.72637" lon="5.03062">
        <ele>472.02</ele>
        <time>2022-05-30T08:48:47Z</time>
      </trkpt>
      <trkpt lat="47.7264" lon="5.03061">
        <ele>472.09</ele>
        <time>2022-05-30T08:48:50Z</time>
      </trkpt>
      <trkpt lat="47.72643" lon="5.0306">
        <ele>472.35</ele>
        <time>2022-05-30T08:48:55Z</time>
      </trkpt>
      <trkpt lat="47.72646" lon="5.03059">
        <ele>472.64</ele>
        <time>2022-05-30T08:48:56Z</time>
      </trkpt>
      <trkpt lat="47.72649" lon="5.03057">
        <ele>473.02</ele>
        <time>2022-05-30T08:48:59Z</time>
      </trkpt>
      <trkpt lat="47.72652" lon="5.03056">
        <ele>473.39</ele>
        <time>2022-05-30T08:49:01Z</time>
      </trkpt>
      <trkpt lat="47.72655" lon="5.03053">
        <ele>473.89</ele>
        <time>2022-05-30T08:49:04Z</time>
      </trkpt>
      <trkpt lat="47.72657" lon="5.03051">
        <ele>474.23</ele>
        <time>2022-05-30T08:49:06Z</time>
      </trkpt>
      <trkpt lat="47.7266" lon="5.03048">
        <ele>474.76</ele>
        <time>2022-05-30T08:49:10Z</time>
      </trkpt>
      <trkpt lat="47.72662" lon="5.03046">
        <ele>475.13</ele>
        <time>2022-05-30T08:49:13Z</time>
      </trkpt>
      <trkpt lat="47.72665" lon="5.03043">
        <ele>475.7</ele>
        <time>2022-05-30T08:49:16Z</time>
      </trkpt>
      <trkpt lat="47.72668" lon="5.03041">
        <ele>475.95</ele>
        <time>2022-05-30T08:49:18Z</time>
      </trkpt>
      <trkpt lat="47.7267" lon="5.03039">
        <ele>475.98</ele>
        <time>2022-05-30T08:49:22Z</time>
      </trkpt>
      <trkpt lat="47.72673" lon="5.03037">
        <ele>475.96</ele>
        <time>2022-05-30T08:49:25Z</time>
      </trkpt>
      <trkpt lat="47.72676" lon="5.03034">
        <ele>476.07</ele>
        <time>2022-05-30T08:49:29Z</time>
      </trkpt>
      <trkpt lat="47.72678" lon="5.03032">
        <ele>476.16</ele>
        <time>2022-05-30T08:49:31Z</time>
      </trkpt>
      <trkpt lat="47.72682" lon="5.0303">
        <ele>476.2</ele>
        <time>2022-05-30T08:49:34Z</time>
      </trkpt>
      <trkpt lat="47.72684" lon="5.03029">
        <ele>476.23</ele>
        <time>2022-05-30T08:49:36Z</time>
      </trkpt>
      <trkpt lat="47.72687" lon="5.03027">
        <ele>476.35</ele>
        <time>2022-05-30T08:49:39Z</time>
      </trkpt>
      <trkpt lat="47.7269" lon="5.03025">
        <ele>476.42</ele>
        <time>2022-05-30T08:49:42Z</time>
      </trkpt>
      <trkpt lat="47.72693" lon="5.03022">
        <ele>476.51</ele>
        <time>2022-05-30T08:49:43Z</time>
      </trkpt>
      <trkpt lat="47.72696" lon="5.03019">
        <ele>476.45</ele>
        <time>2022-05-30T08:49:45Z</time>
      </trkpt>
      <trkpt lat="47.72699" lon="5.03017">
        <ele>476.22</ele>
        <time>2022-05-30T08:49:47Z</time>
      </trkpt>
      <trkpt lat="47.72702" lon="5.03016">
        <ele>475.92</ele>
        <time>2022-05-30T08:49:50Z</time>
      </trkpt>
      <trkpt lat="47.72705" lon="5.03013">
        <ele>475.72</ele>
        <time>2022-05-30T08:49:53Z</time>
      </trkpt>
      <trkpt lat="47.72708" lon="5.03011">
        <ele>475.45</ele>
        <time>2022-05-30T08:49:54Z</time>
      </trkpt>
      <trkpt lat="47.7271" lon="5.0301">
        <ele>475.24</ele>
        <time>2022-05-30T08:49:56Z</time>
      </trkpt>
      <trkpt lat="47.72713" lon="5.03007">
        <ele>474.99</ele>
        <time>2022-05-30T08:49:58Z</time>
      </trkpt>
      <trkpt lat="47.72716" lon="5.03005">
        <ele>474.68</ele>
        <time>2022-05-30T08:50:01Z</time>
      </trkpt>
      <trkpt lat="47.72718" lon="5.03003">
        <ele>474.48</ele>
        <time>2022-05-30T08:50:04Z</time>
      </trkpt>
      <trkpt lat="47.72721" lon="5.03001">
        <ele>474.14</ele>
        <time>2022-05-30T08:50:07Z</time>
      </trkpt>
      <trkpt lat="47.72723" lon="5.02999">
        <ele>474.09</ele>
        <time>2022-05-30T08:50:11Z</time>
      </trkpt>
      <trkpt lat="47.72727" lon="5.02996">
        <ele>474.28</ele>
        <time>2022-05-30T08:50:14Z</time>
      </trkpt>
      <trkpt lat="47.72729" lon="5.02993">
        <ele>474.64</ele>
        <time>2022-05-30T08:50:17Z</time>
      </trkpt>
      <trkpt lat="47.72732" lon="5.02991">
        <ele>474.82</ele>
        <time>2022-05-30T08:50:19Z</time>
      </trkpt>
      <trkpt lat="47.72735" lon="5.02989">
        <ele>475.03</ele>
        <time>2022-05-30T08:50:23Z</time>
      </trkpt>
      <trkpt lat="47.72738" lon="5.02987">
        <ele>475.27</ele>
        <time>2022-05-30T08:50:24Z</time>
      </trkpt>
      <trkpt lat="47.72741" lon="5.02984">
        <ele>475.73</ele>
        <time>2022-05-30T08:50:26Z</time>
      </trkpt>
      <trkpt lat="47.72744" lon="5.02982">
        <ele>476.04</ele>
        <time>2022-05-30T08:50:29Z</time>
      </trkpt>
      <trkpt lat="47.72747" lon="5.0298">
        <ele>476.38</ele>
        <time>2022-05-30T08:50:32Z</time>
      </trkpt>
      <trkpt lat="47.7275" lon="5.02979">
        <ele>476.54</ele>
        <time>2022-05-30T08:50:34Z</time>
      </trkpt>
      <trkpt lat="47.72753" lon="5.02977">
        <ele>476.83</ele>
        <time>2022-05-30T08:50:39Z</time>
      </trkpt>
      <trkpt lat="47.72755" lon="5.02975">
        <ele>477.11</ele>
        <time>2022-05-30T08:50:40Z</time>
      </trkpt>
      <trkpt lat="47.72757" lon="5.02972">
        <ele>477.51</ele>
        <time>2022-05-30T08:50:42Z</time>
      </trkpt>
      <trkpt lat="47.7276" lon="5.02969">
        <ele>477.43</ele>
        <time>2022-05-30T08:50:44Z</time>
      </trkpt>
      <trkpt lat="47.72762" lon="5.02966">
        <ele>477.39</ele>
        <time>2022-05-30T08:50:48Z</time>
      </trkpt>
      <trkpt lat="47.72765" lon="5.02966">
        <ele>477.13</ele>
        <time>2022-05-30T08:50:53Z</time>
      </trkpt>
      <trkpt lat="47.72768" lon="5.02966">
        <ele>476.86</ele>
        <time>2022-05-30T08:50:57Z</time>
      </trkpt>
      <trkpt lat="47.72771" lon="5.02965">
        <ele>476.61</ele>
        <time>2022-05-30T08:51:02Z</time>
      </trkpt>
      <trkpt lat="47.72774" lon="5.02965">
        <ele>476.34</ele>
        <time>2022-05-30T08:51:06Z</time>
      </trkpt>
      <trkpt lat="47.72777" lon="5.02965">
        <ele>476.07</ele>
        <time>2022-05-30T08:51:10Z</time>
      </trkpt>
      <trkpt lat="47.7278" lon="5.02963">
        <ele>475.71</ele>
        <time>2022-05-30T08:51:14Z</time>
      </trkpt>
      <trkpt lat="47.72782" lon="5.02961">
        <ele>475.45</ele>
        <time>2022-05-30T08:51:18Z</time>
      </trkpt>
      <trkpt lat="47.72784" lon="5.02958">
        <ele>475.22</ele>
        <time>2022-05-30T08:51:24Z</time>
      </trkpt>
      <trkpt lat="47.72787" lon="5.02957">
        <ele>474.85</ele>
        <time>2022-05-30T08:51:27Z</time>
      </trkpt>
      <trkpt lat="47.7279" lon="5.02955">
        <ele>474.51</ele>
        <time>2022-05-30T08:51:32Z</time>
      </trkpt>
      <trkpt lat="47.72793" lon="5.02953">
        <ele>474.19</ele>
        <time>2022-05-30T08:51:37Z</time>
      </trkpt>
      <trkpt lat="47.72796" lon="5.02951">
        <ele>473.88</ele>
        <time>2022-05-30T08:51:39Z</time>
      </trkpt>
      <trkpt lat="47.72799" lon="5.0295">
        <ele>473.56</ele>
        <time>2022-05-30T08:51:43Z</time>
      </trkpt>
      <trkpt lat="47.72802" lon="5.02949">
        <ele>473.24</ele>
        <time>2022-05-30T08:51:47Z</time>
      </trkpt>
      <trkpt lat="47.72805" lon="5.0295">
        <ele>472.86</ele>
        <time>2022-05-30T08:51:49Z</time>
      </trkpt>
      <trkpt lat="47.72808" lon="5.02951">
        <ele>472.74</ele>
        <time>2022-05-30T08:51:53Z</time>
      </trkpt>
      <trkpt lat="47.7281" lon="5.02952">
        <ele>472.68</ele>
        <time>2022-05-30T08:51:55Z</time>
      </trkpt>
      <trkpt lat="47.72812" lon="5.02956">
        <ele>472.49</ele>
        <time>2022-05-30T08:52:00Z</time>
      </trkpt>
      <trkpt lat="47.72813" lon="5.02959">
        <ele>472.34</ele>
        <time>2022-05-30T08:52:06Z</time>
      </trkpt>
      <trkpt lat="47.72816" lon="5.02959">
        <ele>472.28</ele>
        <time>2022-05-30T08:52:12Z</time>
      </trkpt>
      <trkpt lat="47.72819" lon="5.02958">
        <ele>472.28</ele>
        <time>2022-05-30T08:52:16Z</time>
      </trkpt>
      <trkpt lat="47.72822" lon="5.02956">
        <ele>472.34</ele>
        <time>2022-05-30T08:52:20Z</time>
      </trkpt>
      <trkpt lat="47.72824" lon="5.02954">
        <ele>472.43</ele>
        <time>2022-05-30T08:52:24Z</time>
      </trkpt>
      <trkpt lat="47.72827" lon="5.02951">
        <ele>472.58</ele>
        <time>2022-05-30T08:52:29Z</time>
      </trkpt>
      <trkpt lat="47.7283" lon="5.02948">
        <ele>472.76</ele>
        <time>2022-05-30T08:52:32Z</time>
      </trkpt>
      <trkpt lat="47.72832" lon="5.02945">
        <ele>472.96</ele>
        <time>2022-05-30T08:52:36Z</time>
      </trkpt>
      <trkpt lat="47.72835" lon="5.02944">
        <ele>472.69</ele>
        <time>2022-05-30T08:52:40Z</time>
      </trkpt>
      <trkpt lat="47.72837" lon="5.02941">
        <ele>472.25</ele>
        <time>2022-05-30T08:52:45Z</time>
      </trkpt>
      <trkpt lat="47.72838" lon="5.02938">
        <ele>472.01</ele>
        <time>2022-05-30T08:52:49Z</time>
      </trkpt>
      <trkpt lat="47.7284" lon="5.02933">
        <ele>471.59</ele>
        <time>2022-05-30T08:52:55Z</time>
      </trkpt>
      <trkpt lat="47.72842" lon="5.02931">
        <ele>471.26</ele>
        <time>2022-05-30T08:53:00Z</time>
      </trkpt>
      <trkpt lat="47.72844" lon="5.02928">
        <ele>470.94</ele>
        <time>2022-05-30T08:53:05Z</time>
      </trkpt>
      <trkpt lat="47.72846" lon="5.02925">
        <ele>470.66</ele>
        <time>2022-05-30T08:53:10Z</time>
      </trkpt>
      <trkpt lat="47.72848" lon="5.02921">
        <ele>470.41</ele>
        <time>2022-05-30T08:53:17Z</time>
      </trkpt>
      <trkpt lat="47.72848" lon="5.02917">
        <ele>470.42</ele>
        <time>2022-05-30T08:53:23Z</time>
      </trkpt>
      <trkpt lat="47.72847" lon="5.02912">
        <ele>470.44</ele>
        <time>2022-05-30T08:53:29Z</time>
      </trkpt>
      <trkpt lat="47.72849" lon="5.02908">
        <ele>470.17</ele>
        <time>2022-05-30T08:53:31Z</time>
      </trkpt>
      <trkpt lat="47.72852" lon="5.02905">
        <ele>469.85</ele>
        <time>2022-05-30T08:53:35Z</time>
      </trkpt>
      <trkpt lat="47.72852" lon="5.02901">
        <ele>469.8</ele>
        <time>2022-05-30T08:53:45Z</time>
      </trkpt>
      <trkpt lat="47.7285" lon="5.02898">
        <ele>469.93</ele>
        <time>2022-05-30T08:54:22Z</time>
      </trkpt>
      <trkpt lat="47.72851" lon="5.02894">
        <ele>469.79</ele>
        <time>2022-05-30T08:55:11Z</time>
      </trkpt>
      <trkpt lat="47.72851" lon="5.0289">
        <ele>469.74</ele>
        <time>2022-05-30T08:55:13Z</time>
      </trkpt>
      <trkpt lat="47.72849" lon="5.02886">
        <ele>469.96</ele>
        <time>2022-05-30T08:55:19Z</time>
      </trkpt>
      <trkpt lat="47.72848" lon="5.02882">
        <ele>470.18</ele>
        <time>2022-05-30T08:55:22Z</time>
      </trkpt>
      <trkpt lat="47.72847" lon="5.02877">
        <ele>470.45</ele>
        <time>2022-05-30T08:55:26Z</time>
      </trkpt>
      <trkpt lat="47.72846" lon="5.02873">
        <ele>470.71</ele>
        <time>2022-05-30T08:55:29Z</time>
      </trkpt>
      <trkpt lat="47.72844" lon="5.02869">
        <ele>471.11</ele>
        <time>2022-05-30T08:55:32Z</time>
      </trkpt>
      <trkpt lat="47.72843" lon="5.02865">
        <ele>471.43</ele>
        <time>2022-05-30T08:55:35Z</time>
      </trkpt>
      <trkpt lat="47.72843" lon="5.0286">
        <ele>471.55</ele>
        <time>2022-05-30T08:55:39Z</time>
      </trkpt>
      <trkpt lat="47.72843" lon="5.02856">
        <ele>471.36</ele>
        <time>2022-05-30T08:55:43Z</time>
      </trkpt>
      <trkpt lat="47.72843" lon="5.02852">
        <ele>471.17</ele>
        <time>2022-05-30T08:55:46Z</time>
      </trkpt>
      <trkpt lat="47.72843" lon="5.02847">
        <ele>470.92</ele>
        <time>2022-05-30T08:55:48Z</time>
      </trkpt>
      <trkpt lat="47.72843" lon="5.02842">
        <ele>470.68</ele>
        <time>2022-05-30T08:55:50Z</time>
      </trkpt>
      <trkpt lat="47.72843" lon="5.02837">
        <ele>470.44</ele>
        <time>2022-05-30T08:55:52Z</time>
      </trkpt>
      <trkpt lat="47.72841" lon="5.02833">
        <ele>470.62</ele>
        <time>2022-05-30T08:55:55Z</time>
      </trkpt>
      <trkpt lat="47.7284" lon="5.02829">
        <ele>470.76</ele>
        <time>2022-05-30T08:55:58Z</time>
      </trkpt>
      <trkpt lat="47.7284" lon="5.02825">
        <ele>470.73</ele>
        <time>2022-05-30T08:56:03Z</time>
      </trkpt>
      <trkpt lat="47.72839" lon="5.02821">
        <ele>470.89</ele>
        <time>2022-05-30T08:56:08Z</time>
      </trkpt>
      <trkpt lat="47.72839" lon="5.02816">
        <ele>470.85</ele>
        <time>2022-05-30T08:56:10Z</time>
      </trkpt>
      <trkpt lat="47.72839" lon="5.02812">
        <ele>470.82</ele>
        <time>2022-05-30T08:56:12Z</time>
      </trkpt>
      <trkpt lat="47.72838" lon="5.02807">
        <ele>471</ele>
        <time>2022-05-30T08:56:15Z</time>
      </trkpt>
      <trkpt lat="47.72837" lon="5.02804">
        <ele>471.21</ele>
        <time>2022-05-30T08:56:16Z</time>
      </trkpt>
      <trkpt lat="47.72835" lon="5.028">
        <ele>471.64</ele>
        <time>2022-05-30T08:56:18Z</time>
      </trkpt>
      <trkpt lat="47.72834" lon="5.02796">
        <ele>471.86</ele>
        <time>2022-05-30T08:56:21Z</time>
      </trkpt>
      <trkpt lat="47.72834" lon="5.02792">
        <ele>471.86</ele>
        <time>2022-05-30T08:56:24Z</time>
      </trkpt>
      <trkpt lat="47.72833" lon="5.02787">
        <ele>472</ele>
        <time>2022-05-30T08:56:26Z</time>
      </trkpt>
      <trkpt lat="47.72833" lon="5.02782">
        <ele>472</ele>
        <time>2022-05-30T08:56:29Z</time>
      </trkpt>
      <trkpt lat="47.72833" lon="5.02778">
        <ele>472</ele>
        <time>2022-05-30T08:56:31Z</time>
      </trkpt>
      <trkpt lat="47.72833" lon="5.02773">
        <ele>471.49</ele>
        <time>2022-05-30T08:56:33Z</time>
      </trkpt>
      <trkpt lat="47.72833" lon="5.02768">
        <ele>470.96</ele>
        <time>2022-05-30T08:56:36Z</time>
      </trkpt>
      <trkpt lat="47.72834" lon="5.02763">
        <ele>470.25</ele>
        <time>2022-05-30T08:56:38Z</time>
      </trkpt>
      <trkpt lat="47.72834" lon="5.02759">
        <ele>469.81</ele>
        <time>2022-05-30T08:56:40Z</time>
      </trkpt>
      <trkpt lat="47.72834" lon="5.02753">
        <ele>469.16</ele>
        <time>2022-05-30T08:56:43Z</time>
      </trkpt>
      <trkpt lat="47.72834" lon="5.02748">
        <ele>468.55</ele>
        <time>2022-05-30T08:56:45Z</time>
      </trkpt>
      <trkpt lat="47.72834" lon="5.02744">
        <ele>467.98</ele>
        <time>2022-05-30T08:56:46Z</time>
      </trkpt>
      <trkpt lat="47.72835" lon="5.0274">
        <ele>467.18</ele>
        <time>2022-05-30T08:56:48Z</time>
      </trkpt>
      <trkpt lat="47.72836" lon="5.02736">
        <ele>466.41</ele>
        <time>2022-05-30T08:56:50Z</time>
      </trkpt>
      <trkpt lat="47.72836" lon="5.02731">
        <ele>465.72</ele>
        <time>2022-05-30T08:56:52Z</time>
      </trkpt>
      <trkpt lat="47.72836" lon="5.02724">
        <ele>464.76</ele>
        <time>2022-05-30T08:56:55Z</time>
      </trkpt>
      <trkpt lat="47.72836" lon="5.02719">
        <ele>464.17</ele>
        <time>2022-05-30T08:56:57Z</time>
      </trkpt>
      <trkpt lat="47.72836" lon="5.02714">
        <ele>463.63</ele>
        <time>2022-05-30T08:56:59Z</time>
      </trkpt>
      <trkpt lat="47.72837" lon="5.0271">
        <ele>463.02</ele>
        <time>2022-05-30T08:57:03Z</time>
      </trkpt>
      <trkpt lat="47.72838" lon="5.02706">
        <ele>462.41</ele>
        <time>2022-05-30T08:57:05Z</time>
      </trkpt>
      <trkpt lat="47.72839" lon="5.02701">
        <ele>461.69</ele>
        <time>2022-05-30T08:57:06Z</time>
      </trkpt>
      <trkpt lat="47.72839" lon="5.02697">
        <ele>461.26</ele>
        <time>2022-05-30T08:57:08Z</time>
      </trkpt>
      <trkpt lat="47.7284" lon="5.02692">
        <ele>460.6</ele>
        <time>2022-05-30T08:57:11Z</time>
      </trkpt>
      <trkpt lat="47.7284" lon="5.02687">
        <ele>460.2</ele>
        <time>2022-05-30T08:57:13Z</time>
      </trkpt>
      <trkpt lat="47.7284" lon="5.02682">
        <ele>459.8</ele>
        <time>2022-05-30T08:57:16Z</time>
      </trkpt>
      <trkpt lat="47.7284" lon="5.02678">
        <ele>459.47</ele>
        <time>2022-05-30T08:57:18Z</time>
      </trkpt>
      <trkpt lat="47.7284" lon="5.02673">
        <ele>459.07</ele>
        <time>2022-05-30T08:57:20Z</time>
      </trkpt>
      <trkpt lat="47.7284" lon="5.02668">
        <ele>458.67</ele>
        <time>2022-05-30T08:57:22Z</time>
      </trkpt>
      <trkpt lat="47.72839" lon="5.02664">
        <ele>458.54</ele>
        <time>2022-05-30T08:57:25Z</time>
      </trkpt>
      <trkpt lat="47.72839" lon="5.02659">
        <ele>458.11</ele>
        <time>2022-05-30T08:57:27Z</time>
      </trkpt>
      <trkpt lat="47.72838" lon="5.02655">
        <ele>458.01</ele>
        <time>2022-05-30T08:57:31Z</time>
      </trkpt>
      <trkpt lat="47.72838" lon="5.02651">
        <ele>457.67</ele>
        <time>2022-05-30T08:57:35Z</time>
      </trkpt>
      <trkpt lat="47.72837" lon="5.02646">
        <ele>457.52</ele>
        <time>2022-05-30T08:57:37Z</time>
      </trkpt>
      <trkpt lat="47.72837" lon="5.02641">
        <ele>457.12</ele>
        <time>2022-05-30T08:57:41Z</time>
      </trkpt>
      <trkpt lat="47.72837" lon="5.02636">
        <ele>456.33</ele>
        <time>2022-05-30T08:57:44Z</time>
      </trkpt>
      <trkpt lat="47.72838" lon="5.02631">
        <ele>455</ele>
        <time>2022-05-30T08:57:47Z</time>
      </trkpt>
      <trkpt lat="47.72838" lon="5.02627">
        <ele>454.16</ele>
        <time>2022-05-30T08:57:48Z</time>
      </trkpt>
      <trkpt lat="47.72838" lon="5.02623">
        <ele>453.32</ele>
        <time>2022-05-30T08:57:50Z</time>
      </trkpt>
      <trkpt lat="47.72838" lon="5.02619">
        <ele>452.48</ele>
        <time>2022-05-30T08:57:51Z</time>
      </trkpt>
      <trkpt lat="47.72838" lon="5.02614">
        <ele>451.43</ele>
        <time>2022-05-30T08:57:53Z</time>
      </trkpt>
      <trkpt lat="47.72838" lon="5.0261">
        <ele>450.64</ele>
        <time>2022-05-30T08:57:54Z</time>
      </trkpt>
      <trkpt lat="47.72838" lon="5.02604">
        <ele>449.63</ele>
        <time>2022-05-30T08:57:58Z</time>
      </trkpt>
      <trkpt lat="47.72837" lon="5.026">
        <ele>449.18</ele>
        <time>2022-05-30T08:58:00Z</time>
      </trkpt>
      <trkpt lat="47.72836" lon="5.02596">
        <ele>448.71</ele>
        <time>2022-05-30T08:58:04Z</time>
      </trkpt>
      <trkpt lat="47.72834" lon="5.02591">
        <ele>448.25</ele>
        <time>2022-05-30T08:58:06Z</time>
      </trkpt>
      <trkpt lat="47.72833" lon="5.02587">
        <ele>447.69</ele>
        <time>2022-05-30T08:58:08Z</time>
      </trkpt>
      <trkpt lat="47.72832" lon="5.02582">
        <ele>446.95</ele>
        <time>2022-05-30T08:58:10Z</time>
      </trkpt>
      <trkpt lat="47.72832" lon="5.02577">
        <ele>446.23</ele>
        <time>2022-05-30T08:58:12Z</time>
      </trkpt>
      <trkpt lat="47.72833" lon="5.02572">
        <ele>445.4</ele>
        <time>2022-05-30T08:58:14Z</time>
      </trkpt>
      <trkpt lat="47.72832" lon="5.02568">
        <ele>444.94</ele>
        <time>2022-05-30T08:58:16Z</time>
      </trkpt>
      <trkpt lat="47.72832" lon="5.02564">
        <ele>444.36</ele>
        <time>2022-05-30T08:58:20Z</time>
      </trkpt>
      <trkpt lat="47.72833" lon="5.02559">
        <ele>443.53</ele>
        <time>2022-05-30T08:58:24Z</time>
      </trkpt>
      <trkpt lat="47.72833" lon="5.02555">
        <ele>442.98</ele>
        <time>2022-05-30T08:58:26Z</time>
      </trkpt>
      <trkpt lat="47.72833" lon="5.0255">
        <ele>442.44</ele>
        <time>2022-05-30T08:58:28Z</time>
      </trkpt>
      <trkpt lat="47.72833" lon="5.02546">
        <ele>442</ele>
        <time>2022-05-30T08:58:30Z</time>
      </trkpt>
      <trkpt lat="47.72833" lon="5.02541">
        <ele>441.46</ele>
        <time>2022-05-30T08:58:33Z</time>
      </trkpt>
      <trkpt lat="47.72833" lon="5.02537">
        <ele>441.03</ele>
        <time>2022-05-30T08:58:39Z</time>
      </trkpt>
      <trkpt lat="47.72834" lon="5.02532">
        <ele>440.4</ele>
        <time>2022-05-30T08:58:41Z</time>
      </trkpt>
      <trkpt lat="47.72834" lon="5.02527">
        <ele>439.9</ele>
        <time>2022-05-30T08:58:44Z</time>
      </trkpt>
      <trkpt lat="47.72834" lon="5.02522">
        <ele>439.54</ele>
        <time>2022-05-30T08:58:46Z</time>
      </trkpt>
      <trkpt lat="47.72835" lon="5.02517">
        <ele>439.1</ele>
        <time>2022-05-30T08:58:49Z</time>
      </trkpt>
      <trkpt lat="47.72835" lon="5.02512">
        <ele>438.74</ele>
        <time>2022-05-30T08:58:51Z</time>
      </trkpt>
      <trkpt lat="47.72834" lon="5.02508">
        <ele>438.53</ele>
        <time>2022-05-30T08:58:54Z</time>
      </trkpt>
      <trkpt lat="47.72833" lon="5.02504">
        <ele>438.32</ele>
        <time>2022-05-30T08:58:57Z</time>
      </trkpt>
      <trkpt lat="47.72831" lon="5.02501">
        <ele>438.32</ele>
        <time>2022-05-30T08:59:00Z</time>
      </trkpt>
      <trkpt lat="47.72828" lon="5.02498">
        <ele>438.29</ele>
        <time>2022-05-30T08:59:04Z</time>
      </trkpt>
      <trkpt lat="47.72826" lon="5.02495">
        <ele>438.07</ele>
        <time>2022-05-30T08:59:07Z</time>
      </trkpt>
      <trkpt lat="47.72824" lon="5.02492">
        <ele>437.86</ele>
        <time>2022-05-30T08:59:10Z</time>
      </trkpt>
      <trkpt lat="47.72822" lon="5.02488">
        <ele>437.5</ele>
        <time>2022-05-30T08:59:13Z</time>
      </trkpt>
      <trkpt lat="47.7282" lon="5.02485">
        <ele>437.28</ele>
        <time>2022-05-30T08:59:14Z</time>
      </trkpt>
      <trkpt lat="47.72818" lon="5.02481">
        <ele>436.92</ele>
        <time>2022-05-30T08:59:17Z</time>
      </trkpt>
      <trkpt lat="47.72817" lon="5.02478">
        <ele>436.6</ele>
        <time>2022-05-30T08:59:20Z</time>
      </trkpt>
      <trkpt lat="47.72815" lon="5.02474">
        <ele>436.24</ele>
        <time>2022-05-30T08:59:21Z</time>
      </trkpt>
      <trkpt lat="47.72813" lon="5.0247">
        <ele>436.04</ele>
        <time>2022-05-30T08:59:23Z</time>
      </trkpt>
      <trkpt lat="47.72812" lon="5.02466">
        <ele>435.86</ele>
        <time>2022-05-30T08:59:25Z</time>
      </trkpt>
      <trkpt lat="47.7281" lon="5.02462">
        <ele>435.78</ele>
        <time>2022-05-30T08:59:29Z</time>
      </trkpt>
      <trkpt lat="47.72809" lon="5.02458">
        <ele>435.6</ele>
        <time>2022-05-30T08:59:31Z</time>
      </trkpt>
      <trkpt lat="47.72808" lon="5.02454">
        <ele>435.42</ele>
        <time>2022-05-30T08:59:34Z</time>
      </trkpt>
      <trkpt lat="47.72807" lon="5.0245">
        <ele>435.24</ele>
        <time>2022-05-30T08:59:36Z</time>
      </trkpt>
      <trkpt lat="47.72806" lon="5.02446">
        <ele>435.06</ele>
        <time>2022-05-30T08:59:40Z</time>
      </trkpt>
      <trkpt lat="47.72804" lon="5.02442">
        <ele>434.42</ele>
        <time>2022-05-30T08:59:42Z</time>
      </trkpt>
      <trkpt lat="47.72804" lon="5.02438">
        <ele>433.55</ele>
        <time>2022-05-30T08:59:43Z</time>
      </trkpt>
      <trkpt lat="47.72803" lon="5.02434">
        <ele>432.65</ele>
        <time>2022-05-30T08:59:45Z</time>
      </trkpt>
      <trkpt lat="47.72802" lon="5.0243">
        <ele>431.75</ele>
        <time>2022-05-30T08:59:48Z</time>
      </trkpt>
      <trkpt lat="47.728" lon="5.02426">
        <ele>430.82</ele>
        <time>2022-05-30T08:59:51Z</time>
      </trkpt>
      <trkpt lat="47.72799" lon="5.02422">
        <ele>429.92</ele>
        <time>2022-05-30T08:59:53Z</time>
      </trkpt>
      <trkpt lat="47.72797" lon="5.02418">
        <ele>428.98</ele>
        <time>2022-05-30T08:59:55Z</time>
      </trkpt>
      <trkpt lat="47.72794" lon="5.02415">
        <ele>428.42</ele>
        <time>2022-05-30T08:59:58Z</time>
      </trkpt>
      <trkpt lat="47.72793" lon="5.02412">
        <ele>428.1</ele>
        <time>2022-05-30T08:59:59Z</time>
      </trkpt>
      <trkpt lat="47.72791" lon="5.02408">
        <ele>427.72</ele>
        <time>2022-05-30T09:00:02Z</time>
      </trkpt>
      <trkpt lat="47.7279" lon="5.02403">
        <ele>427.3</ele>
        <time>2022-05-30T09:00:05Z</time>
      </trkpt>
      <trkpt lat="47.72788" lon="5.02399">
        <ele>427.03</ele>
        <time>2022-05-30T09:00:08Z</time>
      </trkpt>
      <trkpt lat="47.72787" lon="5.02395">
        <ele>426.78</ele>
        <time>2022-05-30T09:00:10Z</time>
      </trkpt>
      <trkpt lat="47.72785" lon="5.02391">
        <ele>426.62</ele>
        <time>2022-05-30T09:00:14Z</time>
      </trkpt>
      <trkpt lat="47.72783" lon="5.02387">
        <ele>426.61</ele>
        <time>2022-05-30T09:00:17Z</time>
      </trkpt>
      <trkpt lat="47.72781" lon="5.02383">
        <ele>426.74</ele>
        <time>2022-05-30T09:00:19Z</time>
      </trkpt>
      <trkpt lat="47.72779" lon="5.02379">
        <ele>426.9</ele>
        <time>2022-05-30T09:00:21Z</time>
      </trkpt>
      <trkpt lat="47.72777" lon="5.02375">
        <ele>426.93</ele>
        <time>2022-05-30T09:00:23Z</time>
      </trkpt>
      <trkpt lat="47.72775" lon="5.02371">
        <ele>426.74</ele>
        <time>2022-05-30T09:00:26Z</time>
      </trkpt>
      <trkpt lat="47.72773" lon="5.02367">
        <ele>426.52</ele>
        <time>2022-05-30T09:00:28Z</time>
      </trkpt>
      <trkpt lat="47.72771" lon="5.02364">
        <ele>426.29</ele>
        <time>2022-05-30T09:00:32Z</time>
      </trkpt>
      <trkpt lat="47.72769" lon="5.0236">
        <ele>425.86</ele>
        <time>2022-05-30T09:00:34Z</time>
      </trkpt>
      <trkpt lat="47.72768" lon="5.02357">
        <ele>425.26</ele>
        <time>2022-05-30T09:00:36Z</time>
      </trkpt>
      <trkpt lat="47.72765" lon="5.02353">
        <ele>424.29</ele>
        <time>2022-05-30T09:00:38Z</time>
      </trkpt>
      <trkpt lat="47.72764" lon="5.02349">
        <ele>423.55</ele>
        <time>2022-05-30T09:00:40Z</time>
      </trkpt>
      <trkpt lat="47.72762" lon="5.02346">
        <ele>422.88</ele>
        <time>2022-05-30T09:00:44Z</time>
      </trkpt>
      <trkpt lat="47.72761" lon="5.02342">
        <ele>422.16</ele>
        <time>2022-05-30T09:00:45Z</time>
      </trkpt>
      <trkpt lat="47.7276" lon="5.02338">
        <ele>421.45</ele>
        <time>2022-05-30T09:00:47Z</time>
      </trkpt>
      <trkpt lat="47.72759" lon="5.02334">
        <ele>420.75</ele>
        <time>2022-05-30T09:00:52Z</time>
      </trkpt>
      <trkpt lat="47.72761" lon="5.0233">
        <ele>420.31</ele>
        <time>2022-05-30T09:00:58Z</time>
      </trkpt>
      <trkpt lat="47.72762" lon="5.02326">
        <ele>419.81</ele>
        <time>2022-05-30T09:01:08Z</time>
      </trkpt>
      <trkpt lat="47.72764" lon="5.02323">
        <ele>419.52</ele>
        <time>2022-05-30T09:01:14Z</time>
      </trkpt>
      <trkpt lat="47.72762" lon="5.02319">
        <ele>418.8</ele>
        <time>2022-05-30T09:01:28Z</time>
      </trkpt>
      <trkpt lat="47.72765" lon="5.02318">
        <ele>418.87</ele>
        <time>2022-05-30T09:01:35Z</time>
      </trkpt>
      <trkpt lat="47.72767" lon="5.0232">
        <ele>419.3</ele>
        <time>2022-05-30T09:01:38Z</time>
      </trkpt>
      <trkpt lat="47.72769" lon="5.02323">
        <ele>419.88</ele>
        <time>2022-05-30T09:01:40Z</time>
      </trkpt>
      <trkpt lat="47.7277" lon="5.02327">
        <ele>420.53</ele>
        <time>2022-05-30T09:01:43Z</time>
      </trkpt>
      <trkpt lat="47.72768" lon="5.02331">
        <ele>420.96</ele>
        <time>2022-05-30T09:01:46Z</time>
      </trkpt>
      <trkpt lat="47.72766" lon="5.02334">
        <ele>421.26</ele>
        <time>2022-05-30T09:02:42Z</time>
      </trkpt>
      <trkpt lat="47.72763" lon="5.02336">
        <ele>421.36</ele>
        <time>2022-05-30T09:02:45Z</time>
      </trkpt>
      <trkpt lat="47.7276" lon="5.02334">
        <ele>420.82</ele>
        <time>2022-05-30T09:02:57Z</time>
      </trkpt>
      <trkpt lat="47.72759" lon="5.0233">
        <ele>420.17</ele>
        <time>2022-05-30T09:03:02Z</time>
      </trkpt>
      <trkpt lat="47.7276" lon="5.02326">
        <ele>419.66</ele>
        <time>2022-05-30T09:03:07Z</time>
      </trkpt>
      <trkpt lat="47.72762" lon="5.02322">
        <ele>419.23</ele>
        <time>2022-05-30T09:03:10Z</time>
      </trkpt>
      <trkpt lat="47.72763" lon="5.02318">
        <ele>418.73</ele>
        <time>2022-05-30T09:03:13Z</time>
      </trkpt>
      <trkpt lat="47.72763" lon="5.02314">
        <ele>418.15</ele>
        <time>2022-05-30T09:03:18Z</time>
      </trkpt>
      <trkpt lat="47.72764" lon="5.0231">
        <ele>417.65</ele>
        <time>2022-05-30T09:03:21Z</time>
      </trkpt>
      <trkpt lat="47.72764" lon="5.02305">
        <ele>416.93</ele>
        <time>2022-05-30T09:03:23Z</time>
      </trkpt>
      <trkpt lat="47.72765" lon="5.02301">
        <ele>416.44</ele>
        <time>2022-05-30T09:03:27Z</time>
      </trkpt>
      <trkpt lat="47.72767" lon="5.02297">
        <ele>416.06</ele>
        <time>2022-05-30T09:03:29Z</time>
      </trkpt>
      <trkpt lat="47.72769" lon="5.02294">
        <ele>415.86</ele>
        <time>2022-05-30T09:03:31Z</time>
      </trkpt>
      <trkpt lat="47.72771" lon="5.02289">
        <ele>415.43</ele>
        <time>2022-05-30T09:03:33Z</time>
      </trkpt>
      <trkpt lat="47.72772" lon="5.02286">
        <ele>415.18</ele>
        <time>2022-05-30T09:03:35Z</time>
      </trkpt>
      <trkpt lat="47.72773" lon="5.02282">
        <ele>414.82</ele>
        <time>2022-05-30T09:03:40Z</time>
      </trkpt>
      <trkpt lat="47.72775" lon="5.02278">
        <ele>414.63</ele>
        <time>2022-05-30T09:03:43Z</time>
      </trkpt>
      <trkpt lat="47.72776" lon="5.02275">
        <ele>414.36</ele>
        <time>2022-05-30T09:03:46Z</time>
      </trkpt>
      <trkpt lat="47.72778" lon="5.0227">
        <ele>413.9</ele>
        <time>2022-05-30T09:03:50Z</time>
      </trkpt>
      <trkpt lat="47.7278" lon="5.02267">
        <ele>413.66</ele>
        <time>2022-05-30T09:03:52Z</time>
      </trkpt>
      <trkpt lat="47.72782" lon="5.02263">
        <ele>413.25</ele>
        <time>2022-05-30T09:03:53Z</time>
      </trkpt>
      <trkpt lat="47.72784" lon="5.02257">
        <ele>412.51</ele>
        <time>2022-05-30T09:03:56Z</time>
      </trkpt>
      <trkpt lat="47.72785" lon="5.02254">
        <ele>412.13</ele>
        <time>2022-05-30T09:03:57Z</time>
      </trkpt>
      <trkpt lat="47.72787" lon="5.0225">
        <ele>411.66</ele>
        <time>2022-05-30T09:03:59Z</time>
      </trkpt>
      <trkpt lat="47.72789" lon="5.02246">
        <ele>411.32</ele>
        <time>2022-05-30T09:04:00Z</time>
      </trkpt>
      <trkpt lat="47.7279" lon="5.02242">
        <ele>410.89</ele>
        <time>2022-05-30T09:04:02Z</time>
      </trkpt>
      <trkpt lat="47.72792" lon="5.02238">
        <ele>410.51</ele>
        <time>2022-05-30T09:04:05Z</time>
      </trkpt>
      <trkpt lat="47.72793" lon="5.02234">
        <ele>410.05</ele>
        <time>2022-05-30T09:04:06Z</time>
      </trkpt>
      <trkpt lat="47.72795" lon="5.02229">
        <ele>409.5</ele>
        <time>2022-05-30T09:04:08Z</time>
      </trkpt>
      <trkpt lat="47.72797" lon="5.02226">
        <ele>409.19</ele>
        <time>2022-05-30T09:04:11Z</time>
      </trkpt>
      <trkpt lat="47.72798" lon="5.02222">
        <ele>408.71</ele>
        <time>2022-05-30T09:04:13Z</time>
      </trkpt>
      <trkpt lat="47.728" lon="5.02219">
        <ele>408.45</ele>
        <time>2022-05-30T09:04:15Z</time>
      </trkpt>
      <trkpt lat="47.72802" lon="5.02215">
        <ele>408</ele>
        <time>2022-05-30T09:04:17Z</time>
      </trkpt>
      <trkpt lat="47.72804" lon="5.02212">
        <ele>407.58</ele>
        <time>2022-05-30T09:04:20Z</time>
      </trkpt>
      <trkpt lat="47.72806" lon="5.02207">
        <ele>406.84</ele>
        <time>2022-05-30T09:04:22Z</time>
      </trkpt>
      <trkpt lat="47.72808" lon="5.02203">
        <ele>406.41</ele>
        <time>2022-05-30T09:04:23Z</time>
      </trkpt>
      <trkpt lat="47.72809" lon="5.02199">
        <ele>405.9</ele>
        <time>2022-05-30T09:04:25Z</time>
      </trkpt>
      <trkpt lat="47.7281" lon="5.02195">
        <ele>405.4</ele>
        <time>2022-05-30T09:04:28Z</time>
      </trkpt>
      <trkpt lat="47.72813" lon="5.02191">
        <ele>405.25</ele>
        <time>2022-05-30T09:04:31Z</time>
      </trkpt>
      <trkpt lat="47.72815" lon="5.02187">
        <ele>405.05</ele>
        <time>2022-05-30T09:04:32Z</time>
      </trkpt>
      <trkpt lat="47.72816" lon="5.02184">
        <ele>404.86</ele>
        <time>2022-05-30T09:04:35Z</time>
      </trkpt>
      <trkpt lat="47.72818" lon="5.0218">
        <ele>404.62</ele>
        <time>2022-05-30T09:04:37Z</time>
      </trkpt>
      <trkpt lat="47.7282" lon="5.02177">
        <ele>404.46</ele>
        <time>2022-05-30T09:04:40Z</time>
      </trkpt>
      <trkpt lat="47.72822" lon="5.02173">
        <ele>404.18</ele>
        <time>2022-05-30T09:04:43Z</time>
      </trkpt>
      <trkpt lat="47.72824" lon="5.0217">
        <ele>403.98</ele>
        <time>2022-05-30T09:04:44Z</time>
      </trkpt>
      <trkpt lat="47.72826" lon="5.02165">
        <ele>403.75</ele>
        <time>2022-05-30T09:04:46Z</time>
      </trkpt>
      <trkpt lat="47.72828" lon="5.02162">
        <ele>403.84</ele>
        <time>2022-05-30T09:04:48Z</time>
      </trkpt>
      <trkpt lat="47.7283" lon="5.02158">
        <ele>403.92</ele>
        <time>2022-05-30T09:04:50Z</time>
      </trkpt>
      <trkpt lat="47.72832" lon="5.02154">
        <ele>403.97</ele>
        <time>2022-05-30T09:04:52Z</time>
      </trkpt>
      <trkpt lat="47.72833" lon="5.0215">
        <ele>404</ele>
        <time>2022-05-30T09:04:53Z</time>
      </trkpt>
      <trkpt lat="47.72836" lon="5.02146">
        <ele>404.05</ele>
        <time>2022-05-30T09:04:56Z</time>
      </trkpt>
      <trkpt lat="47.72838" lon="5.02143">
        <ele>404.05</ele>
        <time>2022-05-30T09:04:58Z</time>
      </trkpt>
      <trkpt lat="47.7284" lon="5.0214">
        <ele>404.02</ele>
        <time>2022-05-30T09:05:00Z</time>
      </trkpt>
      <trkpt lat="47.72842" lon="5.02137">
        <ele>403.95</ele>
        <time>2022-05-30T09:05:02Z</time>
      </trkpt>
      <trkpt lat="47.72844" lon="5.02133">
        <ele>403.87</ele>
        <time>2022-05-30T09:05:04Z</time>
      </trkpt>
      <trkpt lat="47.72846" lon="5.0213">
        <ele>403.83</ele>
        <time>2022-05-30T09:05:06Z</time>
      </trkpt>
      <trkpt lat="47.72848" lon="5.02127">
        <ele>403.8</ele>
        <time>2022-05-30T09:05:07Z</time>
      </trkpt>
      <trkpt lat="47.72851" lon="5.02124">
        <ele>403.8</ele>
        <time>2022-05-30T09:05:09Z</time>
      </trkpt>
      <trkpt lat="47.72853" lon="5.02121">
        <ele>403.81</ele>
        <time>2022-05-30T09:05:11Z</time>
      </trkpt>
      <trkpt lat="47.72856" lon="5.02118">
        <ele>403.86</ele>
        <time>2022-05-30T09:05:13Z</time>
      </trkpt>
      <trkpt lat="47.72858" lon="5.02115">
        <ele>403.9</ele>
        <time>2022-05-30T09:05:16Z</time>
      </trkpt>
      <trkpt lat="47.72861" lon="5.02112">
        <ele>404</ele>
        <time>2022-05-30T09:05:18Z</time>
      </trkpt>
      <trkpt lat="47.72864" lon="5.02109">
        <ele>403.74</ele>
        <time>2022-05-30T09:05:22Z</time>
      </trkpt>
      <trkpt lat="47.72867" lon="5.02107">
        <ele>403.49</ele>
        <time>2022-05-30T09:05:24Z</time>
      </trkpt>
      <trkpt lat="47.72871" lon="5.02107">
        <ele>403.35</ele>
        <time>2022-05-30T09:05:27Z</time>
      </trkpt>
      <trkpt lat="47.72875" lon="5.02107">
        <ele>403.2</ele>
        <time>2022-05-30T09:05:28Z</time>
      </trkpt>
      <trkpt lat="47.72878" lon="5.02107">
        <ele>403.1</ele>
        <time>2022-05-30T09:05:31Z</time>
      </trkpt>
      <trkpt lat="47.72881" lon="5.02105">
        <ele>402.84</ele>
        <time>2022-05-30T09:05:33Z</time>
      </trkpt>
      <trkpt lat="47.72884" lon="5.02101">
        <ele>402.45</ele>
        <time>2022-05-30T09:05:35Z</time>
      </trkpt>
      <trkpt lat="47.72887" lon="5.02098">
        <ele>402.12</ele>
        <time>2022-05-30T09:05:37Z</time>
      </trkpt>
      <trkpt lat="47.72889" lon="5.02094">
        <ele>401.77</ele>
        <time>2022-05-30T09:05:39Z</time>
      </trkpt>
      <trkpt lat="47.72892" lon="5.02092">
        <ele>401.74</ele>
        <time>2022-05-30T09:05:41Z</time>
      </trkpt>
      <trkpt lat="47.72895" lon="5.02089">
        <ele>401.71</ele>
        <time>2022-05-30T09:05:43Z</time>
      </trkpt>
      <trkpt lat="47.72898" lon="5.02087">
        <ele>401.79</ele>
        <time>2022-05-30T09:05:47Z</time>
      </trkpt>
      <trkpt lat="47.72902" lon="5.02084">
        <ele>401.96</ele>
        <time>2022-05-30T09:05:49Z</time>
      </trkpt>
      <trkpt lat="47.72904" lon="5.02082">
        <ele>402.14</ele>
        <time>2022-05-30T09:05:51Z</time>
      </trkpt>
      <trkpt lat="47.72907" lon="5.02079">
        <ele>402.46</ele>
        <time>2022-05-30T09:05:53Z</time>
      </trkpt>
      <trkpt lat="47.72909" lon="5.02075">
        <ele>402.75</ele>
        <time>2022-05-30T09:05:55Z</time>
      </trkpt>
      <trkpt lat="47.72912" lon="5.02072">
        <ele>403.07</ele>
        <time>2022-05-30T09:05:58Z</time>
      </trkpt>
      <trkpt lat="47.72917" lon="5.02069">
        <ele>403.59</ele>
        <time>2022-05-30T09:06:02Z</time>
      </trkpt>
      <trkpt lat="47.72923" lon="5.02068">
        <ele>405.02</ele>
        <time>2022-05-30T09:06:06Z</time>
      </trkpt>
      <trkpt lat="47.72927" lon="5.02066">
        <ele>406</ele>
        <time>2022-05-30T09:06:08Z</time>
      </trkpt>
      <trkpt lat="47.7293" lon="5.02063">
        <ele>406.74</ele>
        <time>2022-05-30T09:06:09Z</time>
      </trkpt>
      <trkpt lat="47.72932" lon="5.02059">
        <ele>407.26</ele>
        <time>2022-05-30T09:06:12Z</time>
      </trkpt>
      <trkpt lat="47.72935" lon="5.02056">
        <ele>407.95</ele>
        <time>2022-05-30T09:06:13Z</time>
      </trkpt>
      <trkpt lat="47.72937" lon="5.02054">
        <ele>408.49</ele>
        <time>2022-05-30T09:06:15Z</time>
      </trkpt>
      <trkpt lat="47.7294" lon="5.02051">
        <ele>409.34</ele>
        <time>2022-05-30T09:06:18Z</time>
      </trkpt>
      <trkpt lat="47.72942" lon="5.02049">
        <ele>409.92</ele>
        <time>2022-05-30T09:06:19Z</time>
      </trkpt>
      <trkpt lat="47.72945" lon="5.02047">
        <ele>410.62</ele>
        <time>2022-05-30T09:06:22Z</time>
      </trkpt>
      <trkpt lat="47.72948" lon="5.02045">
        <ele>410.74</ele>
        <time>2022-05-30T09:06:24Z</time>
      </trkpt>
      <trkpt lat="47.7295" lon="5.02044">
        <ele>410.78</ele>
        <time>2022-05-30T09:06:26Z</time>
      </trkpt>
      <trkpt lat="47.72953" lon="5.02042">
        <ele>410.83</ele>
        <time>2022-05-30T09:06:30Z</time>
      </trkpt>
      <trkpt lat="47.72955" lon="5.02039">
        <ele>410.89</ele>
        <time>2022-05-30T09:06:34Z</time>
      </trkpt>
      <trkpt lat="47.72958" lon="5.02037">
        <ele>410.85</ele>
        <time>2022-05-30T09:06:36Z</time>
      </trkpt>
      <trkpt lat="47.7296" lon="5.02034">
        <ele>410.81</ele>
        <time>2022-05-30T09:06:39Z</time>
      </trkpt>
      <trkpt lat="47.72963" lon="5.02032">
        <ele>410.66</ele>
        <time>2022-05-30T09:06:40Z</time>
      </trkpt>
      <trkpt lat="47.72966" lon="5.0203">
        <ele>410.47</ele>
        <time>2022-05-30T09:06:42Z</time>
      </trkpt>
      <trkpt lat="47.7297" lon="5.02029">
        <ele>410.19</ele>
        <time>2022-05-30T09:06:44Z</time>
      </trkpt>
      <trkpt lat="47.72974" lon="5.02027">
        <ele>410.18</ele>
        <time>2022-05-30T09:06:46Z</time>
      </trkpt>
      <trkpt lat="47.72976" lon="5.02025">
        <ele>410.17</ele>
        <time>2022-05-30T09:06:48Z</time>
      </trkpt>
      <trkpt lat="47.72979" lon="5.0202">
        <ele>409.75</ele>
        <time>2022-05-30T09:06:51Z</time>
      </trkpt>
      <trkpt lat="47.72982" lon="5.02017">
        <ele>409.68</ele>
        <time>2022-05-30T09:06:52Z</time>
      </trkpt>
      <trkpt lat="47.72984" lon="5.02014">
        <ele>409.43</ele>
        <time>2022-05-30T09:06:54Z</time>
      </trkpt>
      <trkpt lat="47.72987" lon="5.0201">
        <ele>409.12</ele>
        <time>2022-05-30T09:06:57Z</time>
      </trkpt>
      <trkpt lat="47.72989" lon="5.02007">
        <ele>408.83</ele>
        <time>2022-05-30T09:06:58Z</time>
      </trkpt>
      <trkpt lat="47.72992" lon="5.02004">
        <ele>408.67</ele>
        <time>2022-05-30T09:07:00Z</time>
      </trkpt>
      <trkpt lat="47.72996" lon="5.02">
        <ele>408.42</ele>
        <time>2022-05-30T09:07:03Z</time>
      </trkpt>
      <trkpt lat="47.73002" lon="5.01997">
        <ele>408.98</ele>
        <time>2022-05-30T09:07:08Z</time>
      </trkpt>
      <trkpt lat="47.73005" lon="5.01999">
        <ele>409.45</ele>
        <time>2022-05-30T09:07:12Z</time>
      </trkpt>
      <trkpt lat="47.73008" lon="5.01998">
        <ele>409.66</ele>
        <time>2022-05-30T09:07:17Z</time>
      </trkpt>
      <trkpt lat="47.73011" lon="5.01995">
        <ele>409.61</ele>
        <time>2022-05-30T09:07:19Z</time>
      </trkpt>
      <trkpt lat="47.73013" lon="5.01992">
        <ele>409.42</ele>
        <time>2022-05-30T09:07:21Z</time>
      </trkpt>
      <trkpt lat="47.73015" lon="5.01989">
        <ele>409.19</ele>
        <time>2022-05-30T09:07:23Z</time>
      </trkpt>
      <trkpt lat="47.73016" lon="5.01984">
        <ele>408.58</ele>
        <time>2022-05-30T09:07:25Z</time>
      </trkpt>
      <trkpt lat="47.73018" lon="5.0198">
        <ele>408.1</ele>
        <time>2022-05-30T09:07:27Z</time>
      </trkpt>
      <trkpt lat="47.73019" lon="5.01976">
        <ele>407.55</ele>
        <time>2022-05-30T09:07:30Z</time>
      </trkpt>
      <trkpt lat="47.7302" lon="5.01972">
        <ele>407</ele>
        <time>2022-05-30T09:07:32Z</time>
      </trkpt>
      <trkpt lat="47.73021" lon="5.01967">
        <ele>406.95</ele>
        <time>2022-05-30T09:07:35Z</time>
      </trkpt>
      <trkpt lat="47.73023" lon="5.01962">
        <ele>406.82</ele>
        <time>2022-05-30T09:07:38Z</time>
      </trkpt>
      <trkpt lat="47.73025" lon="5.01959">
        <ele>406.67</ele>
        <time>2022-05-30T09:07:40Z</time>
      </trkpt>
      <trkpt lat="47.73027" lon="5.01956">
        <ele>406.47</ele>
        <time>2022-05-30T09:07:44Z</time>
      </trkpt>
      <trkpt lat="47.73029" lon="5.01953">
        <ele>406.1</ele>
        <time>2022-05-30T09:07:47Z</time>
      </trkpt>
      <trkpt lat="47.73031" lon="5.0195">
        <ele>405.6</ele>
        <time>2022-05-30T09:07:48Z</time>
      </trkpt>
      <trkpt lat="47.73033" lon="5.01947">
        <ele>405.03</ele>
        <time>2022-05-30T09:07:50Z</time>
      </trkpt>
      <trkpt lat="47.73036" lon="5.01944">
        <ele>404.2</ele>
        <time>2022-05-30T09:07:51Z</time>
      </trkpt>
      <trkpt lat="47.73037" lon="5.01941">
        <ele>403.84</ele>
        <time>2022-05-30T09:07:54Z</time>
      </trkpt>
      <trkpt lat="47.7304" lon="5.01938">
        <ele>403.03</ele>
        <time>2022-05-30T09:07:56Z</time>
      </trkpt>
      <trkpt lat="47.73042" lon="5.01935">
        <ele>402.41</ele>
        <time>2022-05-30T09:07:58Z</time>
      </trkpt>
      <trkpt lat="47.73045" lon="5.01932">
        <ele>401.55</ele>
        <time>2022-05-30T09:08:00Z</time>
      </trkpt>
      <trkpt lat="47.73048" lon="5.0193">
        <ele>400.73</ele>
        <time>2022-05-30T09:08:02Z</time>
      </trkpt>
      <trkpt lat="47.7305" lon="5.01927">
        <ele>400.07</ele>
        <time>2022-05-30T09:08:04Z</time>
      </trkpt>
      <trkpt lat="47.73052" lon="5.01924">
        <ele>399.39</ele>
        <time>2022-05-30T09:08:06Z</time>
      </trkpt>
      <trkpt lat="47.73054" lon="5.01921">
        <ele>398.7</ele>
        <time>2022-05-30T09:08:08Z</time>
      </trkpt>
      <trkpt lat="47.73057" lon="5.01918">
        <ele>398</ele>
        <time>2022-05-30T09:08:09Z</time>
      </trkpt>
      <trkpt lat="47.73059" lon="5.01915">
        <ele>397.67</ele>
        <time>2022-05-30T09:08:10Z</time>
      </trkpt>
      <trkpt lat="47.73061" lon="5.01911">
        <ele>397.28</ele>
        <time>2022-05-30T09:08:13Z</time>
      </trkpt>
      <trkpt lat="47.73063" lon="5.01909">
        <ele>396.97</ele>
        <time>2022-05-30T09:08:14Z</time>
      </trkpt>
      <trkpt lat="47.73066" lon="5.01906">
        <ele>396.43</ele>
        <time>2022-05-30T09:08:16Z</time>
      </trkpt>
      <trkpt lat="47.73069" lon="5.01902">
        <ele>395.74</ele>
        <time>2022-05-30T09:08:19Z</time>
      </trkpt>
      <trkpt lat="47.73071" lon="5.019">
        <ele>395.29</ele>
        <time>2022-05-30T09:08:20Z</time>
      </trkpt>
      <trkpt lat="47.73074" lon="5.01897">
        <ele>394.55</ele>
        <time>2022-05-30T09:08:23Z</time>
      </trkpt>
      <trkpt lat="47.73076" lon="5.01894">
        <ele>393.91</ele>
        <time>2022-05-30T09:08:25Z</time>
      </trkpt>
      <trkpt lat="47.73079" lon="5.01891">
        <ele>393.05</ele>
        <time>2022-05-30T09:08:27Z</time>
      </trkpt>
      <trkpt lat="47.73082" lon="5.01886">
        <ele>391.95</ele>
        <time>2022-05-30T09:08:30Z</time>
      </trkpt>
      <trkpt lat="47.73085" lon="5.01881">
        <ele>391.09</ele>
        <time>2022-05-30T09:08:32Z</time>
      </trkpt>
      <trkpt lat="47.73087" lon="5.01878">
        <ele>390.69</ele>
        <time>2022-05-30T09:08:34Z</time>
      </trkpt>
      <trkpt lat="47.7309" lon="5.01874">
        <ele>390.15</ele>
        <time>2022-05-30T09:08:36Z</time>
      </trkpt>
      <trkpt lat="47.73091" lon="5.0187">
        <ele>389.68</ele>
        <time>2022-05-30T09:08:38Z</time>
      </trkpt>
      <trkpt lat="47.73093" lon="5.01867">
        <ele>389.29</ele>
        <time>2022-05-30T09:08:39Z</time>
      </trkpt>
      <trkpt lat="47.73095" lon="5.01864">
        <ele>388.89</ele>
        <time>2022-05-30T09:08:41Z</time>
      </trkpt>
      <trkpt lat="47.73096" lon="5.0186">
        <ele>388.51</ele>
        <time>2022-05-30T09:08:44Z</time>
      </trkpt>
      <trkpt lat="47.73098" lon="5.01856">
        <ele>388.28</ele>
        <time>2022-05-30T09:08:45Z</time>
      </trkpt>
      <trkpt lat="47.731" lon="5.01853">
        <ele>388.05</ele>
        <time>2022-05-30T09:08:47Z</time>
      </trkpt>
      <trkpt lat="47.73102" lon="5.0185">
        <ele>387.79</ele>
        <time>2022-05-30T09:08:49Z</time>
      </trkpt>
      <trkpt lat="47.73105" lon="5.01847">
        <ele>387.43</ele>
        <time>2022-05-30T09:08:50Z</time>
      </trkpt>
      <trkpt lat="47.73109" lon="5.01844">
        <ele>386.94</ele>
        <time>2022-05-30T09:08:53Z</time>
      </trkpt>
      <trkpt lat="47.73112" lon="5.01842">
        <ele>386.71</ele>
        <time>2022-05-30T09:08:55Z</time>
      </trkpt>
      <trkpt lat="47.73114" lon="5.0184">
        <ele>386.74</ele>
        <time>2022-05-30T09:08:56Z</time>
      </trkpt>
      <trkpt lat="47.73117" lon="5.01837">
        <ele>386.74</ele>
        <time>2022-05-30T09:08:58Z</time>
      </trkpt>
      <trkpt lat="47.73119" lon="5.01834">
        <ele>386.63</ele>
        <time>2022-05-30T09:09:00Z</time>
      </trkpt>
      <trkpt lat="47.73121" lon="5.0183">
        <ele>386.79</ele>
        <time>2022-05-30T09:09:02Z</time>
      </trkpt>
      <trkpt lat="47.73124" lon="5.01827">
        <ele>387.05</ele>
        <time>2022-05-30T09:09:04Z</time>
      </trkpt>
      <trkpt lat="47.73126" lon="5.01824">
        <ele>387.23</ele>
        <time>2022-05-30T09:09:06Z</time>
      </trkpt>
      <trkpt lat="47.73128" lon="5.01822">
        <ele>387.38</ele>
        <time>2022-05-30T09:09:08Z</time>
      </trkpt>
      <trkpt lat="47.73131" lon="5.01819">
        <ele>387.58</ele>
        <time>2022-05-30T09:09:11Z</time>
      </trkpt>
      <trkpt lat="47.73133" lon="5.01817">
        <ele>387.7</ele>
        <time>2022-05-30T09:09:13Z</time>
      </trkpt>
      <trkpt lat="47.73136" lon="5.01815">
        <ele>387.86</ele>
        <time>2022-05-30T09:09:16Z</time>
      </trkpt>
      <trkpt lat="47.73139" lon="5.01814">
        <ele>388.01</ele>
        <time>2022-05-30T09:09:18Z</time>
      </trkpt>
      <trkpt lat="47.73141" lon="5.01811">
        <ele>388.26</ele>
        <time>2022-05-30T09:09:21Z</time>
      </trkpt>
      <trkpt lat="47.73143" lon="5.01807">
        <ele>388.46</ele>
        <time>2022-05-30T09:09:24Z</time>
      </trkpt>
      <trkpt lat="47.73146" lon="5.01804">
        <ele>388.68</ele>
        <time>2022-05-30T09:09:26Z</time>
      </trkpt>
      <trkpt lat="47.73148" lon="5.01801">
        <ele>388.71</ele>
        <time>2022-05-30T09:09:27Z</time>
      </trkpt>
      <trkpt lat="47.7315" lon="5.01799">
        <ele>388.78</ele>
        <time>2022-05-30T09:09:30Z</time>
      </trkpt>
      <trkpt lat="47.73153" lon="5.01795">
        <ele>388.76</ele>
        <time>2022-05-30T09:09:32Z</time>
      </trkpt>
      <trkpt lat="47.73155" lon="5.01793">
        <ele>388.76</ele>
        <time>2022-05-30T09:09:34Z</time>
      </trkpt>
      <trkpt lat="47.73157" lon="5.01789">
        <ele>388.58</ele>
        <time>2022-05-30T09:09:38Z</time>
      </trkpt>
      <trkpt lat="47.73159" lon="5.01786">
        <ele>388.45</ele>
        <time>2022-05-30T09:09:39Z</time>
      </trkpt>
      <trkpt lat="47.73161" lon="5.01783">
        <ele>388.28</ele>
        <time>2022-05-30T09:09:41Z</time>
      </trkpt>
      <trkpt lat="47.73163" lon="5.01779">
        <ele>387.99</ele>
        <time>2022-05-30T09:09:43Z</time>
      </trkpt>
      <trkpt lat="47.73166" lon="5.01776">
        <ele>387.78</ele>
        <time>2022-05-30T09:09:45Z</time>
      </trkpt>
      <trkpt lat="47.73168" lon="5.01772">
        <ele>387.52</ele>
        <time>2022-05-30T09:09:47Z</time>
      </trkpt>
      <trkpt lat="47.73171" lon="5.01768">
        <ele>387.41</ele>
        <time>2022-05-30T09:09:49Z</time>
      </trkpt>
      <trkpt lat="47.73173" lon="5.01765">
        <ele>387.3</ele>
        <time>2022-05-30T09:09:52Z</time>
      </trkpt>
      <trkpt lat="47.73175" lon="5.01762">
        <ele>387.2</ele>
        <time>2022-05-30T09:09:54Z</time>
      </trkpt>
      <trkpt lat="47.73176" lon="5.01758">
        <ele>386.87</ele>
        <time>2022-05-30T09:09:56Z</time>
      </trkpt>
      <trkpt lat="47.73178" lon="5.01754">
        <ele>386.66</ele>
        <time>2022-05-30T09:09:59Z</time>
      </trkpt>
      <trkpt lat="47.73179" lon="5.0175">
        <ele>386.33</ele>
        <time>2022-05-30T09:10:01Z</time>
      </trkpt>
      <trkpt lat="47.7318" lon="5.01746">
        <ele>386.38</ele>
        <time>2022-05-30T09:10:03Z</time>
      </trkpt>
      <trkpt lat="47.73182" lon="5.01742">
        <ele>386.47</ele>
        <time>2022-05-30T09:10:05Z</time>
      </trkpt>
      <trkpt lat="47.73184" lon="5.01739">
        <ele>386.53</ele>
        <time>2022-05-30T09:10:07Z</time>
      </trkpt>
      <trkpt lat="47.73187" lon="5.01736">
        <ele>386.59</ele>
        <time>2022-05-30T09:10:10Z</time>
      </trkpt>
      <trkpt lat="47.73189" lon="5.01732">
        <ele>386.5</ele>
        <time>2022-05-30T09:10:12Z</time>
      </trkpt>
      <trkpt lat="47.73191" lon="5.01729">
        <ele>386.4</ele>
        <time>2022-05-30T09:10:14Z</time>
      </trkpt>
      <trkpt lat="47.73193" lon="5.01725">
        <ele>386.18</ele>
        <time>2022-05-30T09:10:17Z</time>
      </trkpt>
      <trkpt lat="47.73195" lon="5.01722">
        <ele>386.03</ele>
        <time>2022-05-30T09:10:19Z</time>
      </trkpt>
      <trkpt lat="47.73196" lon="5.01717">
        <ele>385.89</ele>
        <time>2022-05-30T09:10:21Z</time>
      </trkpt>
      <trkpt lat="47.73197" lon="5.01714">
        <ele>385.81</ele>
        <time>2022-05-30T09:10:23Z</time>
      </trkpt>
      <trkpt lat="47.73199" lon="5.0171">
        <ele>385.67</ele>
        <time>2022-05-30T09:10:25Z</time>
      </trkpt>
      <trkpt lat="47.732" lon="5.01706">
        <ele>385.47</ele>
        <time>2022-05-30T09:10:28Z</time>
      </trkpt>
      <trkpt lat="47.73201" lon="5.01702">
        <ele>385.23</ele>
        <time>2022-05-30T09:10:29Z</time>
      </trkpt>
      <trkpt lat="47.73204" lon="5.01696">
        <ele>384.77</ele>
        <time>2022-05-30T09:10:32Z</time>
      </trkpt>
      <trkpt lat="47.73207" lon="5.01691">
        <ele>384.18</ele>
        <time>2022-05-30T09:10:36Z</time>
      </trkpt>
      <trkpt lat="47.7321" lon="5.01686">
        <ele>383.53</ele>
        <time>2022-05-30T09:10:38Z</time>
      </trkpt>
      <trkpt lat="47.73213" lon="5.01681">
        <ele>382.88</ele>
        <time>2022-05-30T09:10:41Z</time>
      </trkpt>
      <trkpt lat="47.73215" lon="5.01677">
        <ele>382.38</ele>
        <time>2022-05-30T09:10:44Z</time>
      </trkpt>
      <trkpt lat="47.73219" lon="5.01669">
        <ele>381.37</ele>
        <time>2022-05-30T09:10:48Z</time>
      </trkpt>
      <trkpt lat="47.73221" lon="5.01665">
        <ele>380.98</ele>
        <time>2022-05-30T09:10:50Z</time>
      </trkpt>
      <trkpt lat="47.73223" lon="5.01662">
        <ele>380.86</ele>
        <time>2022-05-30T09:10:53Z</time>
      </trkpt>
      <trkpt lat="47.73226" lon="5.01659">
        <ele>380.82</ele>
        <time>2022-05-30T09:10:54Z</time>
      </trkpt>
      <trkpt lat="47.73229" lon="5.01656">
        <ele>380.77</ele>
        <time>2022-05-30T09:10:57Z</time>
      </trkpt>
      <trkpt lat="47.73231" lon="5.01652">
        <ele>380.62</ele>
        <time>2022-05-30T09:10:59Z</time>
      </trkpt>
      <trkpt lat="47.73234" lon="5.01649">
        <ele>380.52</ele>
        <time>2022-05-30T09:11:01Z</time>
      </trkpt>
      <trkpt lat="47.73237" lon="5.01646">
        <ele>380.39</ele>
        <time>2022-05-30T09:11:03Z</time>
      </trkpt>
      <trkpt lat="47.73239" lon="5.01644">
        <ele>380.3</ele>
        <time>2022-05-30T09:11:05Z</time>
      </trkpt>
      <trkpt lat="47.73241" lon="5.0164">
        <ele>380.07</ele>
        <time>2022-05-30T09:11:08Z</time>
      </trkpt>
      <trkpt lat="47.73244" lon="5.01636">
        <ele>379.87</ele>
        <time>2022-05-30T09:11:11Z</time>
      </trkpt>
      <trkpt lat="47.73246" lon="5.01632">
        <ele>379.72</ele>
        <time>2022-05-30T09:11:13Z</time>
      </trkpt>
      <trkpt lat="47.73249" lon="5.01628">
        <ele>379.59</ele>
        <time>2022-05-30T09:11:15Z</time>
      </trkpt>
      <trkpt lat="47.73253" lon="5.01624">
        <ele>379.31</ele>
        <time>2022-05-30T09:11:19Z</time>
      </trkpt>
      <trkpt lat="47.73258" lon="5.01619">
        <ele>378.91</ele>
        <time>2022-05-30T09:11:23Z</time>
      </trkpt>
      <trkpt lat="47.73262" lon="5.01615">
        <ele>378.65</ele>
        <time>2022-05-30T09:11:26Z</time>
      </trkpt>
      <trkpt lat="47.73265" lon="5.01611">
        <ele>378.46</ele>
        <time>2022-05-30T09:11:29Z</time>
      </trkpt>
      <trkpt lat="47.73268" lon="5.01608">
        <ele>378.28</ele>
        <time>2022-05-30T09:11:31Z</time>
      </trkpt>
      <trkpt lat="47.7327" lon="5.01604">
        <ele>378.1</ele>
        <time>2022-05-30T09:11:34Z</time>
      </trkpt>
      <trkpt lat="47.73274" lon="5.01599">
        <ele>377.76</ele>
        <time>2022-05-30T09:11:37Z</time>
      </trkpt>
      <trkpt lat="47.73276" lon="5.01596">
        <ele>377.55</ele>
        <time>2022-05-30T09:11:39Z</time>
      </trkpt>
      <trkpt lat="47.73279" lon="5.01593">
        <ele>377.44</ele>
        <time>2022-05-30T09:11:41Z</time>
      </trkpt>
      <trkpt lat="47.73281" lon="5.0159">
        <ele>377.44</ele>
        <time>2022-05-30T09:11:43Z</time>
      </trkpt>
      <trkpt lat="47.73284" lon="5.01586">
        <ele>377.38</ele>
        <time>2022-05-30T09:11:45Z</time>
      </trkpt>
      <trkpt lat="47.73287" lon="5.01582">
        <ele>377.35</ele>
        <time>2022-05-30T09:11:48Z</time>
      </trkpt>
      <trkpt lat="47.7329" lon="5.01577">
        <ele>377.47</ele>
        <time>2022-05-30T09:11:51Z</time>
      </trkpt>
      <trkpt lat="47.73293" lon="5.01574">
        <ele>377.52</ele>
        <time>2022-05-30T09:11:52Z</time>
      </trkpt>
      <trkpt lat="47.73296" lon="5.0157">
        <ele>377.51</ele>
        <time>2022-05-30T09:11:55Z</time>
      </trkpt>
      <trkpt lat="47.73299" lon="5.01566">
        <ele>377.43</ele>
        <time>2022-05-30T09:11:58Z</time>
      </trkpt>
      <trkpt lat="47.73302" lon="5.01562">
        <ele>377.3</ele>
        <time>2022-05-30T09:12:01Z</time>
      </trkpt>
      <trkpt lat="47.73305" lon="5.01558">
        <ele>377.1</ele>
        <time>2022-05-30T09:12:03Z</time>
      </trkpt>
      <trkpt lat="47.73308" lon="5.01554">
        <ele>377.34</ele>
        <time>2022-05-30T09:12:07Z</time>
      </trkpt>
      <trkpt lat="47.73311" lon="5.01551">
        <ele>377.69</ele>
        <time>2022-05-30T09:12:08Z</time>
      </trkpt>
      <trkpt lat="47.73314" lon="5.01547">
        <ele>377.94</ele>
        <time>2022-05-30T09:12:11Z</time>
      </trkpt>
      <trkpt lat="47.73317" lon="5.01543">
        <ele>378.09</ele>
        <time>2022-05-30T09:12:14Z</time>
      </trkpt>
      <trkpt lat="47.73319" lon="5.01539">
        <ele>378.07</ele>
        <time>2022-05-30T09:12:16Z</time>
      </trkpt>
      <trkpt lat="47.73322" lon="5.01536">
        <ele>378.12</ele>
        <time>2022-05-30T09:12:19Z</time>
      </trkpt>
      <trkpt lat="47.73325" lon="5.01533">
        <ele>378.09</ele>
        <time>2022-05-30T09:12:21Z</time>
      </trkpt>
      <trkpt lat="47.73327" lon="5.01529">
        <ele>377.87</ele>
        <time>2022-05-30T09:12:23Z</time>
      </trkpt>
      <trkpt lat="47.7333" lon="5.01526">
        <ele>377.77</ele>
        <time>2022-05-30T09:12:26Z</time>
      </trkpt>
      <trkpt lat="47.73332" lon="5.01523">
        <ele>377.62</ele>
        <time>2022-05-30T09:12:28Z</time>
      </trkpt>
      <trkpt lat="47.73335" lon="5.0152">
        <ele>377.89</ele>
        <time>2022-05-30T09:12:29Z</time>
      </trkpt>
      <trkpt lat="47.73338" lon="5.01518">
        <ele>378.52</ele>
        <time>2022-05-30T09:12:31Z</time>
      </trkpt>
      <trkpt lat="47.7334" lon="5.01515">
        <ele>378.78</ele>
        <time>2022-05-30T09:12:34Z</time>
      </trkpt>
      <trkpt lat="47.73343" lon="5.01512">
        <ele>379.25</ele>
        <time>2022-05-30T09:12:37Z</time>
      </trkpt>
      <trkpt lat="47.73347" lon="5.01508">
        <ele>379.81</ele>
        <time>2022-05-30T09:12:39Z</time>
      </trkpt>
      <trkpt lat="47.73349" lon="5.01504">
        <ele>379.83</ele>
        <time>2022-05-30T09:12:42Z</time>
      </trkpt>
      <trkpt lat="47.73352" lon="5.01501">
        <ele>380.15</ele>
        <time>2022-05-30T09:12:44Z</time>
      </trkpt>
      <trkpt lat="47.73355" lon="5.01498">
        <ele>380.56</ele>
        <time>2022-05-30T09:12:46Z</time>
      </trkpt>
      <trkpt lat="47.73358" lon="5.01494">
        <ele>380.83</ele>
        <time>2022-05-30T09:12:50Z</time>
      </trkpt>
      <trkpt lat="47.73361" lon="5.0149">
        <ele>380.9</ele>
        <time>2022-05-30T09:12:52Z</time>
      </trkpt>
      <trkpt lat="47.73363" lon="5.01487">
        <ele>381.11</ele>
        <time>2022-05-30T09:12:54Z</time>
      </trkpt>
      <trkpt lat="47.73366" lon="5.01484">
        <ele>381.58</ele>
        <time>2022-05-30T09:12:56Z</time>
      </trkpt>
      <trkpt lat="47.73369" lon="5.0148">
        <ele>381.91</ele>
        <time>2022-05-30T09:12:58Z</time>
      </trkpt>
      <trkpt lat="47.73372" lon="5.01476">
        <ele>382.21</ele>
        <time>2022-05-30T09:13:01Z</time>
      </trkpt>
      <trkpt lat="47.73374" lon="5.01473">
        <ele>382.34</ele>
        <time>2022-05-30T09:13:03Z</time>
      </trkpt>
      <trkpt lat="47.73377" lon="5.01469">
        <ele>382.69</ele>
        <time>2022-05-30T09:13:07Z</time>
      </trkpt>
      <trkpt lat="47.7338" lon="5.01465">
        <ele>382.97</ele>
        <time>2022-05-30T09:13:08Z</time>
      </trkpt>
      <trkpt lat="47.73382" lon="5.01459">
        <ele>382.71</ele>
        <time>2022-05-30T09:13:12Z</time>
      </trkpt>
      <trkpt lat="47.73385" lon="5.01455">
        <ele>382.8</ele>
        <time>2022-05-30T09:13:15Z</time>
      </trkpt>
      <trkpt lat="47.73388" lon="5.01452">
        <ele>382.93</ele>
        <time>2022-05-30T09:13:18Z</time>
      </trkpt>
      <trkpt lat="47.7339" lon="5.01449">
        <ele>382.72</ele>
        <time>2022-05-30T09:13:20Z</time>
      </trkpt>
      <trkpt lat="47.73392" lon="5.01446">
        <ele>382.44</ele>
        <time>2022-05-30T09:13:22Z</time>
      </trkpt>
      <trkpt lat="47.73394" lon="5.01442">
        <ele>382.1</ele>
        <time>2022-05-30T09:13:24Z</time>
      </trkpt>
      <trkpt lat="47.73397" lon="5.01438">
        <ele>381.89</ele>
        <time>2022-05-30T09:13:27Z</time>
      </trkpt>
      <trkpt lat="47.73399" lon="5.01434">
        <ele>381.6</ele>
        <time>2022-05-30T09:13:30Z</time>
      </trkpt>
      <trkpt lat="47.73401" lon="5.01431">
        <ele>381.42</ele>
        <time>2022-05-30T09:13:32Z</time>
      </trkpt>
      <trkpt lat="47.73403" lon="5.01427">
        <ele>381.13</ele>
        <time>2022-05-30T09:13:33Z</time>
      </trkpt>
      <trkpt lat="47.73405" lon="5.01423">
        <ele>380.84</ele>
        <time>2022-05-30T09:13:36Z</time>
      </trkpt>
      <trkpt lat="47.73407" lon="5.01419">
        <ele>380.56</ele>
        <time>2022-05-30T09:13:38Z</time>
      </trkpt>
      <trkpt lat="47.73409" lon="5.01414">
        <ele>380.28</ele>
        <time>2022-05-30T09:13:40Z</time>
      </trkpt>
      <trkpt lat="47.73411" lon="5.01409">
        <ele>380.1</ele>
        <time>2022-05-30T09:13:43Z</time>
      </trkpt>
      <trkpt lat="47.73413" lon="5.01404">
        <ele>379.88</ele>
        <time>2022-05-30T09:13:46Z</time>
      </trkpt>
      <trkpt lat="47.73414" lon="5.014">
        <ele>379.67</ele>
        <time>2022-05-30T09:13:48Z</time>
      </trkpt>
      <trkpt lat="47.73415" lon="5.01395">
        <ele>379.37</ele>
        <time>2022-05-30T09:13:50Z</time>
      </trkpt>
      <trkpt lat="47.73417" lon="5.0139">
        <ele>379.12</ele>
        <time>2022-05-30T09:13:53Z</time>
      </trkpt>
      <trkpt lat="47.73419" lon="5.01386">
        <ele>379.13</ele>
        <time>2022-05-30T09:13:55Z</time>
      </trkpt>
      <trkpt lat="47.7342" lon="5.01381">
        <ele>379.01</ele>
        <time>2022-05-30T09:13:58Z</time>
      </trkpt>
      <trkpt lat="47.73421" lon="5.01377">
        <ele>378.91</ele>
        <time>2022-05-30T09:14:01Z</time>
      </trkpt>
      <trkpt lat="47.73423" lon="5.0137">
        <ele>378.69</ele>
        <time>2022-05-30T09:14:03Z</time>
      </trkpt>
      <trkpt lat="47.73425" lon="5.01364">
        <ele>378.47</ele>
        <time>2022-05-30T09:14:07Z</time>
      </trkpt>
      <trkpt lat="47.73427" lon="5.01358">
        <ele>378.29</ele>
        <time>2022-05-30T09:14:10Z</time>
      </trkpt>
      <trkpt lat="47.73428" lon="5.01353">
        <ele>378.17</ele>
        <time>2022-05-30T09:14:13Z</time>
      </trkpt>
      <trkpt lat="47.7343" lon="5.01349">
        <ele>378.06</ele>
        <time>2022-05-30T09:14:15Z</time>
      </trkpt>
      <trkpt lat="47.73431" lon="5.01344">
        <ele>377.88</ele>
        <time>2022-05-30T09:14:18Z</time>
      </trkpt>
      <trkpt lat="47.73433" lon="5.0134">
        <ele>377.69</ele>
        <time>2022-05-30T09:14:20Z</time>
      </trkpt>
      <trkpt lat="47.73434" lon="5.01336">
        <ele>377.5</ele>
        <time>2022-05-30T09:14:22Z</time>
      </trkpt>
      <trkpt lat="47.73435" lon="5.01331">
        <ele>377.26</ele>
        <time>2022-05-30T09:14:24Z</time>
      </trkpt>
      <trkpt lat="47.73436" lon="5.01326">
        <ele>377.04</ele>
        <time>2022-05-30T09:14:27Z</time>
      </trkpt>
      <trkpt lat="47.73437" lon="5.01321">
        <ele>376.82</ele>
        <time>2022-05-30T09:14:30Z</time>
      </trkpt>
      <trkpt lat="47.73439" lon="5.01316">
        <ele>376.57</ele>
        <time>2022-05-30T09:14:31Z</time>
      </trkpt>
      <trkpt lat="47.7344" lon="5.01311">
        <ele>376.36</ele>
        <time>2022-05-30T09:14:34Z</time>
      </trkpt>
      <trkpt lat="47.73442" lon="5.01307">
        <ele>376.14</ele>
        <time>2022-05-30T09:14:36Z</time>
      </trkpt>
      <trkpt lat="47.73444" lon="5.01302">
        <ele>376.4</ele>
        <time>2022-05-30T09:14:39Z</time>
      </trkpt>
      <trkpt lat="47.73446" lon="5.01298">
        <ele>376.96</ele>
        <time>2022-05-30T09:14:41Z</time>
      </trkpt>
      <trkpt lat="47.73448" lon="5.01293">
        <ele>377.58</ele>
        <time>2022-05-30T09:14:43Z</time>
      </trkpt>
      <trkpt lat="47.73449" lon="5.01288">
        <ele>378.03</ele>
        <time>2022-05-30T09:14:45Z</time>
      </trkpt>
      <trkpt lat="47.7345" lon="5.01284">
        <ele>378.35</ele>
        <time>2022-05-30T09:14:47Z</time>
      </trkpt>
      <trkpt lat="47.73452" lon="5.01279">
        <ele>378.66</ele>
        <time>2022-05-30T09:14:50Z</time>
      </trkpt>
      <trkpt lat="47.73453" lon="5.01274">
        <ele>378.37</ele>
        <time>2022-05-30T09:14:53Z</time>
      </trkpt>
      <trkpt lat="47.73455" lon="5.0127">
        <ele>377.99</ele>
        <time>2022-05-30T09:14:56Z</time>
      </trkpt>
      <trkpt lat="47.73457" lon="5.01267">
        <ele>377.73</ele>
        <time>2022-05-30T09:14:57Z</time>
      </trkpt>
      <trkpt lat="47.7346" lon="5.01262">
        <ele>377.37</ele>
        <time>2022-05-30T09:14:59Z</time>
      </trkpt>
      <trkpt lat="47.73462" lon="5.01256">
        <ele>377.01</ele>
        <time>2022-05-30T09:15:03Z</time>
      </trkpt>
      <trkpt lat="47.73464" lon="5.01251">
        <ele>376.76</ele>
        <time>2022-05-30T09:15:05Z</time>
      </trkpt>
      <trkpt lat="47.73466" lon="5.01245">
        <ele>376.86</ele>
        <time>2022-05-30T09:15:08Z</time>
      </trkpt>
      <trkpt lat="47.73467" lon="5.01241">
        <ele>376.93</ele>
        <time>2022-05-30T09:15:10Z</time>
      </trkpt>
      <trkpt lat="47.73469" lon="5.01236">
        <ele>377</ele>
        <time>2022-05-30T09:15:13Z</time>
      </trkpt>
      <trkpt lat="47.73471" lon="5.01232">
        <ele>377.01</ele>
        <time>2022-05-30T09:15:15Z</time>
      </trkpt>
      <trkpt lat="47.73472" lon="5.01228">
        <ele>377</ele>
        <time>2022-05-30T09:15:17Z</time>
      </trkpt>
      <trkpt lat="47.73474" lon="5.01224">
        <ele>377.07</ele>
        <time>2022-05-30T09:15:19Z</time>
      </trkpt>
      <trkpt lat="47.73476" lon="5.0122">
        <ele>377.14</ele>
        <time>2022-05-30T09:15:21Z</time>
      </trkpt>
      <trkpt lat="47.73477" lon="5.01216">
        <ele>377.17</ele>
        <time>2022-05-30T09:15:23Z</time>
      </trkpt>
      <trkpt lat="47.73479" lon="5.01212">
        <ele>377.24</ele>
        <time>2022-05-30T09:15:26Z</time>
      </trkpt>
      <trkpt lat="47.73481" lon="5.01207">
        <ele>377.32</ele>
        <time>2022-05-30T09:15:27Z</time>
      </trkpt>
      <trkpt lat="47.73482" lon="5.01203">
        <ele>377.35</ele>
        <time>2022-05-30T09:15:30Z</time>
      </trkpt>
      <trkpt lat="47.73484" lon="5.01199">
        <ele>377.42</ele>
        <time>2022-05-30T09:15:32Z</time>
      </trkpt>
      <trkpt lat="47.73486" lon="5.01195">
        <ele>377.5</ele>
        <time>2022-05-30T09:15:34Z</time>
      </trkpt>
      <trkpt lat="47.73487" lon="5.01191">
        <ele>377.53</ele>
        <time>2022-05-30T09:15:37Z</time>
      </trkpt>
      <trkpt lat="47.73488" lon="5.01186">
        <ele>377.57</ele>
        <time>2022-05-30T09:15:38Z</time>
      </trkpt>
      <trkpt lat="47.73489" lon="5.01182">
        <ele>377.6</ele>
        <time>2022-05-30T09:15:40Z</time>
      </trkpt>
      <trkpt lat="47.7349" lon="5.01178">
        <ele>377.64</ele>
        <time>2022-05-30T09:15:42Z</time>
      </trkpt>
      <trkpt lat="47.73492" lon="5.01174">
        <ele>377.71</ele>
        <time>2022-05-30T09:15:44Z</time>
      </trkpt>
      <trkpt lat="47.73493" lon="5.0117">
        <ele>377.75</ele>
        <time>2022-05-30T09:15:47Z</time>
      </trkpt>
      <trkpt lat="47.73495" lon="5.01166">
        <ele>377.82</ele>
        <time>2022-05-30T09:15:49Z</time>
      </trkpt>
      <trkpt lat="47.73496" lon="5.01162">
        <ele>377.86</ele>
        <time>2022-05-30T09:15:51Z</time>
      </trkpt>
      <trkpt lat="47.73498" lon="5.01158">
        <ele>377.93</ele>
        <time>2022-05-30T09:15:53Z</time>
      </trkpt>
      <trkpt lat="47.73499" lon="5.01154">
        <ele>377.96</ele>
        <time>2022-05-30T09:15:55Z</time>
      </trkpt>
      <trkpt lat="47.73501" lon="5.0115">
        <ele>378.05</ele>
        <time>2022-05-30T09:15:58Z</time>
      </trkpt>
      <trkpt lat="47.73502" lon="5.01145">
        <ele>378.09</ele>
        <time>2022-05-30T09:16:00Z</time>
      </trkpt>
      <trkpt lat="47.73504" lon="5.0114">
        <ele>378.15</ele>
        <time>2022-05-30T09:16:02Z</time>
      </trkpt>
      <trkpt lat="47.73505" lon="5.01136">
        <ele>377.93</ele>
        <time>2022-05-30T09:16:06Z</time>
      </trkpt>
      <trkpt lat="47.73508" lon="5.01132">
        <ele>377.65</ele>
        <time>2022-05-30T09:16:08Z</time>
      </trkpt>
      <trkpt lat="47.7351" lon="5.01129">
        <ele>377.39</ele>
        <time>2022-05-30T09:16:09Z</time>
      </trkpt>
      <trkpt lat="47.73511" lon="5.01126">
        <ele>377.1</ele>
        <time>2022-05-30T09:16:12Z</time>
      </trkpt>
      <trkpt lat="47.73513" lon="5.01121">
        <ele>376.58</ele>
        <time>2022-05-30T09:16:14Z</time>
      </trkpt>
      <trkpt lat="47.73515" lon="5.01117">
        <ele>376.11</ele>
        <time>2022-05-30T09:16:16Z</time>
      </trkpt>
      <trkpt lat="47.73516" lon="5.01111">
        <ele>375.42</ele>
        <time>2022-05-30T09:16:18Z</time>
      </trkpt>
      <trkpt lat="47.73517" lon="5.01106">
        <ele>375.39</ele>
        <time>2022-05-30T09:16:21Z</time>
      </trkpt>
      <trkpt lat="47.73518" lon="5.01101">
        <ele>375.35</ele>
        <time>2022-05-30T09:16:23Z</time>
      </trkpt>
      <trkpt lat="47.73519" lon="5.01097">
        <ele>375.32</ele>
        <time>2022-05-30T09:16:25Z</time>
      </trkpt>
      <trkpt lat="47.7352" lon="5.01092">
        <ele>375.28</ele>
        <time>2022-05-30T09:16:28Z</time>
      </trkpt>
      <trkpt lat="47.73521" lon="5.01088">
        <ele>375.24</ele>
        <time>2022-05-30T09:16:30Z</time>
      </trkpt>
      <trkpt lat="47.73522" lon="5.01083">
        <ele>375.24</ele>
        <time>2022-05-30T09:16:32Z</time>
      </trkpt>
      <trkpt lat="47.73523" lon="5.01078">
        <ele>375.62</ele>
        <time>2022-05-30T09:16:34Z</time>
      </trkpt>
      <trkpt lat="47.73524" lon="5.01074">
        <ele>375.9</ele>
        <time>2022-05-30T09:16:36Z</time>
      </trkpt>
      <trkpt lat="47.73525" lon="5.01069">
        <ele>376.24</ele>
        <time>2022-05-30T09:16:39Z</time>
      </trkpt>
      <trkpt lat="47.73526" lon="5.01064">
        <ele>376.55</ele>
        <time>2022-05-30T09:16:40Z</time>
      </trkpt>
      <trkpt lat="47.73527" lon="5.01059">
        <ele>376.83</ele>
        <time>2022-05-30T09:16:44Z</time>
      </trkpt>
      <trkpt lat="47.73527" lon="5.01055">
        <ele>377.09</ele>
        <time>2022-05-30T09:16:45Z</time>
      </trkpt>
      <trkpt lat="47.73527" lon="5.01047">
        <ele>377.12</ele>
        <time>2022-05-30T09:16:48Z</time>
      </trkpt>
      <trkpt lat="47.73527" lon="5.01042">
        <ele>377.14</ele>
        <time>2022-05-30T09:16:51Z</time>
      </trkpt>
      <trkpt lat="47.73528" lon="5.01036">
        <ele>376.99</ele>
        <time>2022-05-30T09:16:53Z</time>
      </trkpt>
      <trkpt lat="47.73529" lon="5.0103">
        <ele>376.92</ele>
        <time>2022-05-30T09:16:56Z</time>
      </trkpt>
      <trkpt lat="47.73529" lon="5.01024">
        <ele>377.04</ele>
        <time>2022-05-30T09:16:59Z</time>
      </trkpt>
      <trkpt lat="47.7353" lon="5.01018">
        <ele>377.16</ele>
        <time>2022-05-30T09:17:01Z</time>
      </trkpt>
      <trkpt lat="47.7353" lon="5.01012">
        <ele>377.36</ele>
        <time>2022-05-30T09:17:04Z</time>
      </trkpt>
      <trkpt lat="47.73531" lon="5.01006">
        <ele>377.46</ele>
        <time>2022-05-30T09:17:07Z</time>
      </trkpt>
      <trkpt lat="47.73532" lon="5.01">
        <ele>377.54</ele>
        <time>2022-05-30T09:17:09Z</time>
      </trkpt>
      <trkpt lat="47.73532" lon="5.00995">
        <ele>377.57</ele>
        <time>2022-05-30T09:17:12Z</time>
      </trkpt>
      <trkpt lat="47.73533" lon="5.00988">
        <ele>377.52</ele>
        <time>2022-05-30T09:17:15Z</time>
      </trkpt>
      <trkpt lat="47.73534" lon="5.00983">
        <ele>377.47</ele>
        <time>2022-05-30T09:17:17Z</time>
      </trkpt>
      <trkpt lat="47.73535" lon="5.00978">
        <ele>377.43</ele>
        <time>2022-05-30T09:17:20Z</time>
      </trkpt>
      <trkpt lat="47.73536" lon="5.00973">
        <ele>377.4</ele>
        <time>2022-05-30T09:17:22Z</time>
      </trkpt>
      <trkpt lat="47.73537" lon="5.00969">
        <ele>377.37</ele>
        <time>2022-05-30T09:17:25Z</time>
      </trkpt>
      <trkpt lat="47.73539" lon="5.00963">
        <ele>377.33</ele>
        <time>2022-05-30T09:17:27Z</time>
      </trkpt>
      <trkpt lat="47.7354" lon="5.00955">
        <ele>377.39</ele>
        <time>2022-05-30T09:17:29Z</time>
      </trkpt>
      <trkpt lat="47.73542" lon="5.0095">
        <ele>377.39</ele>
        <time>2022-05-30T09:17:32Z</time>
      </trkpt>
      <trkpt lat="47.73543" lon="5.00945">
        <ele>377.44</ele>
        <time>2022-05-30T09:17:36Z</time>
      </trkpt>
      <trkpt lat="47.73544" lon="5.0094">
        <ele>377.26</ele>
        <time>2022-05-30T09:17:38Z</time>
      </trkpt>
      <trkpt lat="47.73546" lon="5.00935">
        <ele>377</ele>
        <time>2022-05-30T09:17:41Z</time>
      </trkpt>
      <trkpt lat="47.73548" lon="5.0093">
        <ele>376.75</ele>
        <time>2022-05-30T09:17:43Z</time>
      </trkpt>
      <trkpt lat="47.7355" lon="5.00924">
        <ele>376.46</ele>
        <time>2022-05-30T09:17:46Z</time>
      </trkpt>
      <trkpt lat="47.73552" lon="5.00918">
        <ele>376.18</ele>
        <time>2022-05-30T09:17:49Z</time>
      </trkpt>
      <trkpt lat="47.73554" lon="5.00912">
        <ele>375.75</ele>
        <time>2022-05-30T09:17:52Z</time>
      </trkpt>
      <trkpt lat="47.73555" lon="5.00906">
        <ele>375.28</ele>
        <time>2022-05-30T09:17:55Z</time>
      </trkpt>
      <trkpt lat="47.73557" lon="5.00902">
        <ele>374.84</ele>
        <time>2022-05-30T09:17:57Z</time>
      </trkpt>
      <trkpt lat="47.73558" lon="5.00897">
        <ele>374.44</ele>
        <time>2022-05-30T09:17:59Z</time>
      </trkpt>
      <trkpt lat="47.73559" lon="5.00893">
        <ele>374.14</ele>
        <time>2022-05-30T09:18:01Z</time>
      </trkpt>
      <trkpt lat="47.73561" lon="5.00887">
        <ele>373.82</ele>
        <time>2022-05-30T09:18:04Z</time>
      </trkpt>
      <trkpt lat="47.73562" lon="5.00882">
        <ele>373.83</ele>
        <time>2022-05-30T09:18:07Z</time>
      </trkpt>
      <trkpt lat="47.73564" lon="5.00876">
        <ele>373.84</ele>
        <time>2022-05-30T09:18:09Z</time>
      </trkpt>
      <trkpt lat="47.73565" lon="5.0087">
        <ele>373.89</ele>
        <time>2022-05-30T09:18:13Z</time>
      </trkpt>
      <trkpt lat="47.73566" lon="5.00866">
        <ele>373.93</ele>
        <time>2022-05-30T09:18:14Z</time>
      </trkpt>
      <trkpt lat="47.73568" lon="5.00862">
        <ele>373.99</ele>
        <time>2022-05-30T09:18:16Z</time>
      </trkpt>
      <trkpt lat="47.73569" lon="5.00858">
        <ele>373.94</ele>
        <time>2022-05-30T09:18:18Z</time>
      </trkpt>
      <trkpt lat="47.73571" lon="5.00853">
        <ele>373.87</ele>
        <time>2022-05-30T09:18:21Z</time>
      </trkpt>
      <trkpt lat="47.73573" lon="5.00846">
        <ele>373.8</ele>
        <time>2022-05-30T09:18:24Z</time>
      </trkpt>
      <trkpt lat="47.73575" lon="5.00841">
        <ele>373.78</ele>
        <time>2022-05-30T09:18:27Z</time>
      </trkpt>
      <trkpt lat="47.73576" lon="5.00836">
        <ele>373.76</ele>
        <time>2022-05-30T09:18:29Z</time>
      </trkpt>
      <trkpt lat="47.73578" lon="5.0083">
        <ele>373.73</ele>
        <time>2022-05-30T09:18:31Z</time>
      </trkpt>
      <trkpt lat="47.73579" lon="5.00824">
        <ele>373.61</ele>
        <time>2022-05-30T09:18:34Z</time>
      </trkpt>
      <trkpt lat="47.73581" lon="5.00819">
        <ele>373.49</ele>
        <time>2022-05-30T09:18:37Z</time>
      </trkpt>
      <trkpt lat="47.73582" lon="5.00813">
        <ele>373.29</ele>
        <time>2022-05-30T09:18:39Z</time>
      </trkpt>
      <trkpt lat="47.73583" lon="5.00808">
        <ele>373.1</ele>
        <time>2022-05-30T09:18:42Z</time>
      </trkpt>
      <trkpt lat="47.73585" lon="5.00802">
        <ele>373.11</ele>
        <time>2022-05-30T09:18:44Z</time>
      </trkpt>
      <trkpt lat="47.73586" lon="5.00798">
        <ele>373.17</ele>
        <time>2022-05-30T09:18:47Z</time>
      </trkpt>
      <trkpt lat="47.73588" lon="5.00792">
        <ele>373.25</ele>
        <time>2022-05-30T09:18:50Z</time>
      </trkpt>
      <trkpt lat="47.73589" lon="5.00787">
        <ele>373.27</ele>
        <time>2022-05-30T09:18:51Z</time>
      </trkpt>
      <trkpt lat="47.73591" lon="5.00782">
        <ele>373.32</ele>
        <time>2022-05-30T09:18:55Z</time>
      </trkpt>
      <trkpt lat="47.73592" lon="5.00776">
        <ele>373.29</ele>
        <time>2022-05-30T09:18:58Z</time>
      </trkpt>
      <trkpt lat="47.73594" lon="5.00771">
        <ele>373.29</ele>
        <time>2022-05-30T09:19:00Z</time>
      </trkpt>
      <trkpt lat="47.73596" lon="5.00767">
        <ele>373.28</ele>
        <time>2022-05-30T09:19:02Z</time>
      </trkpt>
      <trkpt lat="47.73598" lon="5.00763">
        <ele>373.25</ele>
        <time>2022-05-30T09:19:04Z</time>
      </trkpt>
      <trkpt lat="47.73599" lon="5.00757">
        <ele>373.14</ele>
        <time>2022-05-30T09:19:07Z</time>
      </trkpt>
      <trkpt lat="47.73601" lon="5.00753">
        <ele>373.07</ele>
        <time>2022-05-30T09:19:09Z</time>
      </trkpt>
      <trkpt lat="47.73601" lon="5.00749">
        <ele>373.01</ele>
        <time>2022-05-30T09:19:11Z</time>
      </trkpt>
      <trkpt lat="47.73602" lon="5.00745">
        <ele>373.06</ele>
        <time>2022-05-30T09:19:13Z</time>
      </trkpt>
      <trkpt lat="47.73603" lon="5.0074">
        <ele>373.11</ele>
        <time>2022-05-30T09:19:15Z</time>
      </trkpt>
      <trkpt lat="47.73605" lon="5.00735">
        <ele>373.12</ele>
        <time>2022-05-30T09:19:17Z</time>
      </trkpt>
      <trkpt lat="47.73604" lon="5.0073">
        <ele>373.18</ele>
        <time>2022-05-30T09:19:20Z</time>
      </trkpt>
      <trkpt lat="47.73605" lon="5.00722">
        <ele>373.22</ele>
        <time>2022-05-30T09:19:23Z</time>
      </trkpt>
      <trkpt lat="47.73606" lon="5.00715">
        <ele>373.09</ele>
        <time>2022-05-30T09:19:26Z</time>
      </trkpt>
      <trkpt lat="47.73607" lon="5.00708">
        <ele>373</ele>
        <time>2022-05-30T09:19:29Z</time>
      </trkpt>
      <trkpt lat="47.73609" lon="5.00702">
        <ele>372.97</ele>
        <time>2022-05-30T09:19:33Z</time>
      </trkpt>
      <trkpt lat="47.7361" lon="5.00695">
        <ele>372.96</ele>
        <time>2022-05-30T09:19:35Z</time>
      </trkpt>
      <trkpt lat="47.73612" lon="5.00688">
        <ele>372.78</ele>
        <time>2022-05-30T09:19:38Z</time>
      </trkpt>
      <trkpt lat="47.73613" lon="5.00681">
        <ele>372.55</ele>
        <time>2022-05-30T09:19:41Z</time>
      </trkpt>
      <trkpt lat="47.73613" lon="5.00676">
        <ele>372.38</ele>
        <time>2022-05-30T09:19:44Z</time>
      </trkpt>
      <trkpt lat="47.73614" lon="5.00671">
        <ele>372.24</ele>
        <time>2022-05-30T09:19:47Z</time>
      </trkpt>
      <trkpt lat="47.73615" lon="5.00666">
        <ele>372.14</ele>
        <time>2022-05-30T09:19:48Z</time>
      </trkpt>
      <trkpt lat="47.73615" lon="5.0066">
        <ele>372.11</ele>
        <time>2022-05-30T09:19:51Z</time>
      </trkpt>
      <trkpt lat="47.73615" lon="5.00653">
        <ele>372.07</ele>
        <time>2022-05-30T09:19:54Z</time>
      </trkpt>
      <trkpt lat="47.73616" lon="5.00647">
        <ele>372.05</ele>
        <time>2022-05-30T09:19:56Z</time>
      </trkpt>
      <trkpt lat="47.73616" lon="5.00639">
        <ele>372</ele>
        <time>2022-05-30T09:20:00Z</time>
      </trkpt>
      <trkpt lat="47.73616" lon="5.00632">
        <ele>371.96</ele>
        <time>2022-05-30T09:20:03Z</time>
      </trkpt>
      <trkpt lat="47.73616" lon="5.00624">
        <ele>371.91</ele>
        <time>2022-05-30T09:20:07Z</time>
      </trkpt>
      <trkpt lat="47.73616" lon="5.00618">
        <ele>371.87</ele>
        <time>2022-05-30T09:20:09Z</time>
      </trkpt>
      <trkpt lat="47.73616" lon="5.00611">
        <ele>371.82</ele>
        <time>2022-05-30T09:20:13Z</time>
      </trkpt>
      <trkpt lat="47.73616" lon="5.00603">
        <ele>371.58</ele>
        <time>2022-05-30T09:20:16Z</time>
      </trkpt>
      <trkpt lat="47.73615" lon="5.00597">
        <ele>371.42</ele>
        <time>2022-05-30T09:20:19Z</time>
      </trkpt>
      <trkpt lat="47.73615" lon="5.0059">
        <ele>371.21</ele>
        <time>2022-05-30T09:20:22Z</time>
      </trkpt>
      <trkpt lat="47.73616" lon="5.00585">
        <ele>371.05</ele>
        <time>2022-05-30T09:20:24Z</time>
      </trkpt>
      <trkpt lat="47.73616" lon="5.00577">
        <ele>370.54</ele>
        <time>2022-05-30T09:20:27Z</time>
      </trkpt>
      <trkpt lat="47.73617" lon="5.00569">
        <ele>369.97</ele>
        <time>2022-05-30T09:20:29Z</time>
      </trkpt>
      <trkpt lat="47.73617" lon="5.00562">
        <ele>369.46</ele>
        <time>2022-05-30T09:20:33Z</time>
      </trkpt>
      <trkpt lat="47.73617" lon="5.00556">
        <ele>369.03</ele>
        <time>2022-05-30T09:20:36Z</time>
      </trkpt>
      <trkpt lat="47.73617" lon="5.0055">
        <ele>369.16</ele>
        <time>2022-05-30T09:20:39Z</time>
      </trkpt>
      <trkpt lat="47.73616" lon="5.00544">
        <ele>369.34</ele>
        <time>2022-05-30T09:20:43Z</time>
      </trkpt>
      <trkpt lat="47.73616" lon="5.00538">
        <ele>369.52</ele>
        <time>2022-05-30T09:20:45Z</time>
      </trkpt>
      <trkpt lat="47.73616" lon="5.00532">
        <ele>369.7</ele>
        <time>2022-05-30T09:20:48Z</time>
      </trkpt>
      <trkpt lat="47.73616" lon="5.00525">
        <ele>369.82</ele>
        <time>2022-05-30T09:20:51Z</time>
      </trkpt>
      <trkpt lat="47.73616" lon="5.00519">
        <ele>369.82</ele>
        <time>2022-05-30T09:20:53Z</time>
      </trkpt>
      <trkpt lat="47.73616" lon="5.00514">
        <ele>369.82</ele>
        <time>2022-05-30T09:20:56Z</time>
      </trkpt>
      <trkpt lat="47.73616" lon="5.00508">
        <ele>369.82</ele>
        <time>2022-05-30T09:20:58Z</time>
      </trkpt>
      <trkpt lat="47.73615" lon="5.00503">
        <ele>369.86</ele>
        <time>2022-05-30T09:21:01Z</time>
      </trkpt>
      <trkpt lat="47.73615" lon="5.00496">
        <ele>369.94</ele>
        <time>2022-05-30T09:21:03Z</time>
      </trkpt>
      <trkpt lat="47.73615" lon="5.0049">
        <ele>370.07</ele>
        <time>2022-05-30T09:21:05Z</time>
      </trkpt>
      <trkpt lat="47.73615" lon="5.00483">
        <ele>370.21</ele>
        <time>2022-05-30T09:21:09Z</time>
      </trkpt>
      <trkpt lat="47.73615" lon="5.00476">
        <ele>370.36</ele>
        <time>2022-05-30T09:21:13Z</time>
      </trkpt>
      <trkpt lat="47.73615" lon="5.00469">
        <ele>370.52</ele>
        <time>2022-05-30T09:21:16Z</time>
      </trkpt>
      <trkpt lat="47.73615" lon="5.00462">
        <ele>370.7</ele>
        <time>2022-05-30T09:21:18Z</time>
      </trkpt>
      <trkpt lat="47.73615" lon="5.00456">
        <ele>370.86</ele>
        <time>2022-05-30T09:21:22Z</time>
      </trkpt>
      <trkpt lat="47.73616" lon="5.0045">
        <ele>370.81</ele>
        <time>2022-05-30T09:21:25Z</time>
      </trkpt>
      <trkpt lat="47.73617" lon="5.00444">
        <ele>370.71</ele>
        <time>2022-05-30T09:21:27Z</time>
      </trkpt>
      <trkpt lat="47.73618" lon="5.00437">
        <ele>370.18</ele>
        <time>2022-05-30T09:21:31Z</time>
      </trkpt>
      <trkpt lat="47.73618" lon="5.00432">
        <ele>369.95</ele>
        <time>2022-05-30T09:21:33Z</time>
      </trkpt>
      <trkpt lat="47.73619" lon="5.00425">
        <ele>369.49</ele>
        <time>2022-05-30T09:21:36Z</time>
      </trkpt>
      <trkpt lat="47.7362" lon="5.0042">
        <ele>369.16</ele>
        <time>2022-05-30T09:21:38Z</time>
      </trkpt>
      <trkpt lat="47.73622" lon="5.00415">
        <ele>368.88</ele>
        <time>2022-05-30T09:21:41Z</time>
      </trkpt>
      <trkpt lat="47.73623" lon="5.0041">
        <ele>368.96</ele>
        <time>2022-05-30T09:21:44Z</time>
      </trkpt>
      <trkpt lat="47.73624" lon="5.00406">
        <ele>368.99</ele>
        <time>2022-05-30T09:21:47Z</time>
      </trkpt>
      <trkpt lat="47.73625" lon="5.00402">
        <ele>369.03</ele>
        <time>2022-05-30T09:21:48Z</time>
      </trkpt>
      <trkpt lat="47.73627" lon="5.00396">
        <ele>369.03</ele>
        <time>2022-05-30T09:21:52Z</time>
      </trkpt>
      <trkpt lat="47.73629" lon="5.00392">
        <ele>368.96</ele>
        <time>2022-05-30T09:21:54Z</time>
      </trkpt>
      <trkpt lat="47.73631" lon="5.00389">
        <ele>368.85</ele>
        <time>2022-05-30T09:21:56Z</time>
      </trkpt>
      <trkpt lat="47.73633" lon="5.00385">
        <ele>368.61</ele>
        <time>2022-05-30T09:21:58Z</time>
      </trkpt>
      <trkpt lat="47.73635" lon="5.00379">
        <ele>368.37</ele>
        <time>2022-05-30T09:22:01Z</time>
      </trkpt>
      <trkpt lat="47.73638" lon="5.00375">
        <ele>368.08</ele>
        <time>2022-05-30T09:22:04Z</time>
      </trkpt>
      <trkpt lat="47.7364" lon="5.00371">
        <ele>367.85</ele>
        <time>2022-05-30T09:22:06Z</time>
      </trkpt>
      <trkpt lat="47.73642" lon="5.00367">
        <ele>367.58</ele>
        <time>2022-05-30T09:22:08Z</time>
      </trkpt>
      <trkpt lat="47.73644" lon="5.00363">
        <ele>367.28</ele>
        <time>2022-05-30T09:22:10Z</time>
      </trkpt>
      <trkpt lat="47.73647" lon="5.00358">
        <ele>366.79</ele>
        <time>2022-05-30T09:22:12Z</time>
      </trkpt>
      <trkpt lat="47.73649" lon="5.00354">
        <ele>366.47</ele>
        <time>2022-05-30T09:22:15Z</time>
      </trkpt>
      <trkpt lat="47.73651" lon="5.00348">
        <ele>366.2</ele>
        <time>2022-05-30T09:22:17Z</time>
      </trkpt>
      <trkpt lat="47.73653" lon="5.00345">
        <ele>365.98</ele>
        <time>2022-05-30T09:22:19Z</time>
      </trkpt>
      <trkpt lat="47.73655" lon="5.00341">
        <ele>365.8</ele>
        <time>2022-05-30T09:22:21Z</time>
      </trkpt>
      <trkpt lat="47.73657" lon="5.00337">
        <ele>365.66</ele>
        <time>2022-05-30T09:22:23Z</time>
      </trkpt>
      <trkpt lat="47.7366" lon="5.00332">
        <ele>365.51</ele>
        <time>2022-05-30T09:22:25Z</time>
      </trkpt>
      <trkpt lat="47.73663" lon="5.00327">
        <ele>365.54</ele>
        <time>2022-05-30T09:22:28Z</time>
      </trkpt>
      <trkpt lat="47.73665" lon="5.00323">
        <ele>365.73</ele>
        <time>2022-05-30T09:22:31Z</time>
      </trkpt>
      <trkpt lat="47.73668" lon="5.00319">
        <ele>365.86</ele>
        <time>2022-05-30T09:22:34Z</time>
      </trkpt>
      <trkpt lat="47.7367" lon="5.00314">
        <ele>365.9</ele>
        <time>2022-05-30T09:22:36Z</time>
      </trkpt>
      <trkpt lat="47.73672" lon="5.0031">
        <ele>365.81</ele>
        <time>2022-05-30T09:22:39Z</time>
      </trkpt>
      <trkpt lat="47.73674" lon="5.00306">
        <ele>365.66</ele>
        <time>2022-05-30T09:22:40Z</time>
      </trkpt>
      <trkpt lat="47.73676" lon="5.00302">
        <ele>365.15</ele>
        <time>2022-05-30T09:22:43Z</time>
      </trkpt>
      <trkpt lat="47.73679" lon="5.00299">
        <ele>364.52</ele>
        <time>2022-05-30T09:22:46Z</time>
      </trkpt>
      <trkpt lat="47.73682" lon="5.00296">
        <ele>363.93</ele>
        <time>2022-05-30T09:22:47Z</time>
      </trkpt>
      <trkpt lat="47.73684" lon="5.00292">
        <ele>363.51</ele>
        <time>2022-05-30T09:22:50Z</time>
      </trkpt>
      <trkpt lat="47.73687" lon="5.00288">
        <ele>363</ele>
        <time>2022-05-30T09:22:53Z</time>
      </trkpt>
      <trkpt lat="47.73689" lon="5.00283">
        <ele>362.66</ele>
        <time>2022-05-30T09:22:55Z</time>
      </trkpt>
      <trkpt lat="47.73691" lon="5.00279">
        <ele>362.38</ele>
        <time>2022-05-30T09:22:58Z</time>
      </trkpt>
      <trkpt lat="47.73694" lon="5.00274">
        <ele>361.92</ele>
        <time>2022-05-30T09:23:01Z</time>
      </trkpt>
      <trkpt lat="47.73697" lon="5.00271">
        <ele>361.64</ele>
        <time>2022-05-30T09:23:04Z</time>
      </trkpt>
      <trkpt lat="47.73699" lon="5.00267">
        <ele>361.38</ele>
        <time>2022-05-30T09:23:06Z</time>
      </trkpt>
      <trkpt lat="47.73701" lon="5.00262">
        <ele>361.06</ele>
        <time>2022-05-30T09:23:08Z</time>
      </trkpt>
      <trkpt lat="47.73703" lon="5.00259">
        <ele>360.81</ele>
        <time>2022-05-30T09:23:11Z</time>
      </trkpt>
      <trkpt lat="47.73705" lon="5.00255">
        <ele>360.49</ele>
        <time>2022-05-30T09:23:13Z</time>
      </trkpt>
      <trkpt lat="47.73708" lon="5.00252">
        <ele>360.13</ele>
        <time>2022-05-30T09:23:14Z</time>
      </trkpt>
      <trkpt lat="47.7371" lon="5.00249">
        <ele>359.93</ele>
        <time>2022-05-30T09:23:17Z</time>
      </trkpt>
      <trkpt lat="47.73713" lon="5.00246">
        <ele>359.86</ele>
        <time>2022-05-30T09:23:19Z</time>
      </trkpt>
      <trkpt lat="47.73715" lon="5.00243">
        <ele>359.84</ele>
        <time>2022-05-30T09:23:21Z</time>
      </trkpt>
      <trkpt lat="47.73718" lon="5.00239">
        <ele>359.76</ele>
        <time>2022-05-30T09:23:24Z</time>
      </trkpt>
      <trkpt lat="47.73721" lon="5.00235">
        <ele>359.65</ele>
        <time>2022-05-30T09:23:26Z</time>
      </trkpt>
      <trkpt lat="47.73724" lon="5.00231">
        <ele>359.55</ele>
        <time>2022-05-30T09:23:29Z</time>
      </trkpt>
      <trkpt lat="47.73727" lon="5.00228">
        <ele>359.38</ele>
        <time>2022-05-30T09:23:31Z</time>
      </trkpt>
      <trkpt lat="47.7373" lon="5.00225">
        <ele>359.14</ele>
        <time>2022-05-30T09:23:34Z</time>
      </trkpt>
      <trkpt lat="47.73733" lon="5.00221">
        <ele>358.87</ele>
        <time>2022-05-30T09:23:36Z</time>
      </trkpt>
      <trkpt lat="47.73736" lon="5.00219">
        <ele>358.63</ele>
        <time>2022-05-30T09:23:38Z</time>
      </trkpt>
      <trkpt lat="47.73739" lon="5.00216">
        <ele>358.46</ele>
        <time>2022-05-30T09:23:41Z</time>
      </trkpt>
      <trkpt lat="47.73742" lon="5.00213">
        <ele>358.34</ele>
        <time>2022-05-30T09:23:43Z</time>
      </trkpt>
      <trkpt lat="47.73746" lon="5.00211">
        <ele>358.12</ele>
        <time>2022-05-30T09:23:46Z</time>
      </trkpt>
      <trkpt lat="47.7375" lon="5.00207">
        <ele>358.1</ele>
        <time>2022-05-30T09:23:48Z</time>
      </trkpt>
      <trkpt lat="47.73754" lon="5.00204">
        <ele>358.32</ele>
        <time>2022-05-30T09:23:51Z</time>
      </trkpt>
      <trkpt lat="47.73757" lon="5.002">
        <ele>358.5</ele>
        <time>2022-05-30T09:23:55Z</time>
      </trkpt>
      <trkpt lat="47.73762" lon="5.00195">
        <ele>358.55</ele>
        <time>2022-05-30T09:23:59Z</time>
      </trkpt>
      <trkpt lat="47.73764" lon="5.00193">
        <ele>358.65</ele>
        <time>2022-05-30T09:24:01Z</time>
      </trkpt>
      <trkpt lat="47.73767" lon="5.0019">
        <ele>358.83</ele>
        <time>2022-05-30T09:24:03Z</time>
      </trkpt>
      <trkpt lat="47.7377" lon="5.00186">
        <ele>359.06</ele>
        <time>2022-05-30T09:24:05Z</time>
      </trkpt>
      <trkpt lat="47.73774" lon="5.00183">
        <ele>359.07</ele>
        <time>2022-05-30T09:24:08Z</time>
      </trkpt>
      <trkpt lat="47.73777" lon="5.0018">
        <ele>359.1</ele>
        <time>2022-05-30T09:24:10Z</time>
      </trkpt>
      <trkpt lat="47.7378" lon="5.00178">
        <ele>359.35</ele>
        <time>2022-05-30T09:24:12Z</time>
      </trkpt>
      <trkpt lat="47.73783" lon="5.00175">
        <ele>359.68</ele>
        <time>2022-05-30T09:24:15Z</time>
      </trkpt>
      <trkpt lat="47.73786" lon="5.00172">
        <ele>359.9</ele>
        <time>2022-05-30T09:24:18Z</time>
      </trkpt>
      <trkpt lat="47.73789" lon="5.00169">
        <ele>360</ele>
        <time>2022-05-30T09:24:20Z</time>
      </trkpt>
      <trkpt lat="47.73792" lon="5.00166">
        <ele>360.01</ele>
        <time>2022-05-30T09:24:21Z</time>
      </trkpt>
      <trkpt lat="47.73795" lon="5.00163">
        <ele>360.02</ele>
        <time>2022-05-30T09:24:25Z</time>
      </trkpt>
      <trkpt lat="47.73798" lon="5.00158">
        <ele>359.94</ele>
        <time>2022-05-30T09:24:28Z</time>
      </trkpt>
      <trkpt lat="47.73801" lon="5.00154">
        <ele>359.77</ele>
        <time>2022-05-30T09:24:31Z</time>
      </trkpt>
      <trkpt lat="47.73805" lon="5.0015">
        <ele>359.44</ele>
        <time>2022-05-30T09:24:33Z</time>
      </trkpt>
      <trkpt lat="47.73808" lon="5.00145">
        <ele>359.22</ele>
        <time>2022-05-30T09:24:37Z</time>
      </trkpt>
      <trkpt lat="47.73811" lon="5.00141">
        <ele>359.08</ele>
        <time>2022-05-30T09:24:40Z</time>
      </trkpt>
      <trkpt lat="47.73815" lon="5.00137">
        <ele>359.04</ele>
        <time>2022-05-30T09:24:43Z</time>
      </trkpt>
      <trkpt lat="47.73817" lon="5.00134">
        <ele>359.1</ele>
        <time>2022-05-30T09:24:45Z</time>
      </trkpt>
      <trkpt lat="47.7382" lon="5.00132">
        <ele>359.12</ele>
        <time>2022-05-30T09:24:47Z</time>
      </trkpt>
      <trkpt lat="47.73822" lon="5.00129">
        <ele>359.15</ele>
        <time>2022-05-30T09:24:48Z</time>
      </trkpt>
      <trkpt lat="47.73824" lon="5.00124">
        <ele>359.18</ele>
        <time>2022-05-30T09:24:51Z</time>
      </trkpt>
      <trkpt lat="47.73827" lon="5.00121">
        <ele>359.15</ele>
        <time>2022-05-30T09:24:53Z</time>
      </trkpt>
      <trkpt lat="47.7383" lon="5.00118">
        <ele>359.09</ele>
        <time>2022-05-30T09:24:55Z</time>
      </trkpt>
      <trkpt lat="47.73833" lon="5.00115">
        <ele>359.01</ele>
        <time>2022-05-30T09:24:58Z</time>
      </trkpt>
      <trkpt lat="47.73837" lon="5.00111">
        <ele>359.41</ele>
        <time>2022-05-30T09:25:00Z</time>
      </trkpt>
      <trkpt lat="47.7384" lon="5.00108">
        <ele>360.14</ele>
        <time>2022-05-30T09:25:03Z</time>
      </trkpt>
      <trkpt lat="47.73843" lon="5.00106">
        <ele>360.72</ele>
        <time>2022-05-30T09:25:06Z</time>
      </trkpt>
      <trkpt lat="47.73847" lon="5.00102">
        <ele>361.63</ele>
        <time>2022-05-30T09:25:09Z</time>
      </trkpt>
      <trkpt lat="47.7385" lon="5.00099">
        <ele>362.28</ele>
        <time>2022-05-30T09:25:12Z</time>
      </trkpt>
      <trkpt lat="47.73854" lon="5.00096">
        <ele>363</ele>
        <time>2022-05-30T09:25:13Z</time>
      </trkpt>
      <trkpt lat="47.73857" lon="5.00093">
        <ele>363.61</ele>
        <time>2022-05-30T09:25:17Z</time>
      </trkpt>
      <trkpt lat="47.7386" lon="5.0009">
        <ele>364.19</ele>
        <time>2022-05-30T09:25:19Z</time>
      </trkpt>
      <trkpt lat="47.73864" lon="5.00087">
        <ele>365.23</ele>
        <time>2022-05-30T09:25:22Z</time>
      </trkpt>
      <trkpt lat="47.73867" lon="5.00083">
        <ele>366.26</ele>
        <time>2022-05-30T09:25:24Z</time>
      </trkpt>
      <trkpt lat="47.73869" lon="5.00079">
        <ele>366.59</ele>
        <time>2022-05-30T09:25:27Z</time>
      </trkpt>
      <trkpt lat="47.73872" lon="5.00076">
        <ele>367.19</ele>
        <time>2022-05-30T09:25:29Z</time>
      </trkpt>
      <trkpt lat="47.73874" lon="5.00072">
        <ele>367.57</ele>
        <time>2022-05-30T09:25:31Z</time>
      </trkpt>
      <trkpt lat="47.73876" lon="5.00068">
        <ele>367.96</ele>
        <time>2022-05-30T09:25:34Z</time>
      </trkpt>
      <trkpt lat="47.73878" lon="5.00064">
        <ele>368.38</ele>
        <time>2022-05-30T09:25:35Z</time>
      </trkpt>
      <trkpt lat="47.7388" lon="5.00059">
        <ele>368.8</ele>
        <time>2022-05-30T09:25:37Z</time>
      </trkpt>
      <trkpt lat="47.73882" lon="5.00054">
        <ele>369.18</ele>
        <time>2022-05-30T09:25:41Z</time>
      </trkpt>
      <trkpt lat="47.73884" lon="5.0005">
        <ele>369.44</ele>
        <time>2022-05-30T09:25:43Z</time>
      </trkpt>
      <trkpt lat="47.73885" lon="5.00047">
        <ele>369.49</ele>
        <time>2022-05-30T09:25:44Z</time>
      </trkpt>
      <trkpt lat="47.73886" lon="5.00042">
        <ele>369.4</ele>
        <time>2022-05-30T09:25:54Z</time>
      </trkpt>
      <trkpt lat="47.73887" lon="5.00039">
        <ele>369.41</ele>
        <time>2022-05-30T09:26:16Z</time>
      </trkpt>
      <trkpt lat="47.7389" lon="5.00038">
        <ele>369.92</ele>
        <time>2022-05-30T09:26:20Z</time>
      </trkpt>
      <trkpt lat="47.73893" lon="5.00041">
        <ele>370.62</ele>
        <time>2022-05-30T09:26:23Z</time>
      </trkpt>
      <trkpt lat="47.73893" lon="5.00045">
        <ele>370.89</ele>
        <time>2022-05-30T09:26:44Z</time>
      </trkpt>
      <trkpt lat="47.73892" lon="5.0004">
        <ele>370.39</ele>
        <time>2022-05-30T09:29:03Z</time>
      </trkpt>
      <trkpt lat="47.73891" lon="5.00036">
        <ele>369.95</ele>
        <time>2022-05-30T09:29:07Z</time>
      </trkpt>
      <trkpt lat="47.7389" lon="5.00032">
        <ele>369.5</ele>
        <time>2022-05-30T09:29:10Z</time>
      </trkpt>
      <trkpt lat="47.73889" lon="5.00027">
        <ele>368.96</ele>
        <time>2022-05-30T09:29:12Z</time>
      </trkpt>
      <trkpt lat="47.7389" lon="5.00022">
        <ele>368.77</ele>
        <time>2022-05-30T09:29:16Z</time>
      </trkpt>
      <trkpt lat="47.73889" lon="5.00017">
        <ele>368.24</ele>
        <time>2022-05-30T09:29:17Z</time>
      </trkpt>
      <trkpt lat="47.73889" lon="5.00013">
        <ele>367.95</ele>
        <time>2022-05-30T09:29:20Z</time>
      </trkpt>
      <trkpt lat="47.73888" lon="5.00008">
        <ele>367.51</ele>
        <time>2022-05-30T09:29:23Z</time>
      </trkpt>
      <trkpt lat="47.73887" lon="5.00004">
        <ele>367.18</ele>
        <time>2022-05-30T09:29:26Z</time>
      </trkpt>
      <trkpt lat="47.73886" lon="5">
        <ele>366.9</ele>
        <time>2022-05-30T09:29:28Z</time>
      </trkpt>
      <trkpt lat="47.73886" lon="4.99996">
        <ele>366.77</ele>
        <time>2022-05-30T09:29:30Z</time>
      </trkpt>
      <trkpt lat="47.73885" lon="4.99992">
        <ele>366.61</ele>
        <time>2022-05-30T09:29:32Z</time>
      </trkpt>
      <trkpt lat="47.73884" lon="4.99987">
        <ele>366.44</ele>
        <time>2022-05-30T09:29:35Z</time>
      </trkpt>
      <trkpt lat="47.73884" lon="4.99983">
        <ele>366.32</ele>
        <time>2022-05-30T09:29:37Z</time>
      </trkpt>
      <trkpt lat="47.73883" lon="4.99979">
        <ele>366.19</ele>
        <time>2022-05-30T09:29:40Z</time>
      </trkpt>
      <trkpt lat="47.73883" lon="4.99973">
        <ele>366.02</ele>
        <time>2022-05-30T09:29:42Z</time>
      </trkpt>
      <trkpt lat="47.73882" lon="4.99969">
        <ele>366.03</ele>
        <time>2022-05-30T09:29:45Z</time>
      </trkpt>
      <trkpt lat="47.73882" lon="4.99964">
        <ele>366.07</ele>
        <time>2022-05-30T09:29:47Z</time>
      </trkpt>
      <trkpt lat="47.73882" lon="4.99959">
        <ele>366.12</ele>
        <time>2022-05-30T09:29:49Z</time>
      </trkpt>
      <trkpt lat="47.73882" lon="4.99954">
        <ele>366.16</ele>
        <time>2022-05-30T09:29:51Z</time>
      </trkpt>
      <trkpt lat="47.73881" lon="4.99949">
        <ele>366.24</ele>
        <time>2022-05-30T09:29:53Z</time>
      </trkpt>
      <trkpt lat="47.73881" lon="4.99943">
        <ele>366.34</ele>
        <time>2022-05-30T09:29:57Z</time>
      </trkpt>
      <trkpt lat="47.7388" lon="4.99938">
        <ele>366.55</ele>
        <time>2022-05-30T09:29:59Z</time>
      </trkpt>
      <trkpt lat="47.7388" lon="4.99934">
        <ele>366.7</ele>
        <time>2022-05-30T09:30:01Z</time>
      </trkpt>
      <trkpt lat="47.7388" lon="4.99929">
        <ele>366.88</ele>
        <time>2022-05-30T09:30:03Z</time>
      </trkpt>
      <trkpt lat="47.73879" lon="4.99925">
        <ele>367.06</ele>
        <time>2022-05-30T09:30:06Z</time>
      </trkpt>
      <trkpt lat="47.73879" lon="4.99921">
        <ele>367.2</ele>
        <time>2022-05-30T09:30:07Z</time>
      </trkpt>
      <trkpt lat="47.73879" lon="4.99917">
        <ele>367.34</ele>
        <time>2022-05-30T09:30:10Z</time>
      </trkpt>
      <trkpt lat="47.73879" lon="4.99913">
        <ele>367.36</ele>
        <time>2022-05-30T09:30:11Z</time>
      </trkpt>
      <trkpt lat="47.73878" lon="4.99909">
        <ele>367.39</ele>
        <time>2022-05-30T09:30:13Z</time>
      </trkpt>
      <trkpt lat="47.73878" lon="4.99904">
        <ele>367.39</ele>
        <time>2022-05-30T09:30:16Z</time>
      </trkpt>
      <trkpt lat="47.73878" lon="4.999">
        <ele>367.39</ele>
        <time>2022-05-30T09:30:18Z</time>
      </trkpt>
      <trkpt lat="47.73877" lon="4.99895">
        <ele>367.43</ele>
        <time>2022-05-30T09:30:21Z</time>
      </trkpt>
      <trkpt lat="47.73877" lon="4.9989">
        <ele>367.43</ele>
        <time>2022-05-30T09:30:23Z</time>
      </trkpt>
      <trkpt lat="47.73876" lon="4.99883">
        <ele>367.35</ele>
        <time>2022-05-30T09:30:27Z</time>
      </trkpt>
      <trkpt lat="47.73876" lon="4.99878">
        <ele>367.25</ele>
        <time>2022-05-30T09:30:29Z</time>
      </trkpt>
      <trkpt lat="47.73875" lon="4.99873">
        <ele>367.21</ele>
        <time>2022-05-30T09:30:31Z</time>
      </trkpt>
      <trkpt lat="47.73875" lon="4.99868">
        <ele>367.12</ele>
        <time>2022-05-30T09:30:33Z</time>
      </trkpt>
      <trkpt lat="47.73875" lon="4.99863">
        <ele>367.03</ele>
        <time>2022-05-30T09:30:36Z</time>
      </trkpt>
      <trkpt lat="47.73874" lon="4.99857">
        <ele>367.08</ele>
        <time>2022-05-30T09:30:38Z</time>
      </trkpt>
      <trkpt lat="47.73874" lon="4.99853">
        <ele>367.09</ele>
        <time>2022-05-30T09:30:41Z</time>
      </trkpt>
      <trkpt lat="47.73873" lon="4.99848">
        <ele>367.21</ele>
        <time>2022-05-30T09:30:43Z</time>
      </trkpt>
      <trkpt lat="47.73873" lon="4.99844">
        <ele>367.23</ele>
        <time>2022-05-30T09:30:45Z</time>
      </trkpt>
      <trkpt lat="47.73873" lon="4.99839">
        <ele>367.26</ele>
        <time>2022-05-30T09:30:48Z</time>
      </trkpt>
      <trkpt lat="47.73872" lon="4.99833">
        <ele>367.44</ele>
        <time>2022-05-30T09:30:50Z</time>
      </trkpt>
      <trkpt lat="47.73873" lon="4.99826">
        <ele>367.51</ele>
        <time>2022-05-30T09:30:54Z</time>
      </trkpt>
      <trkpt lat="47.73873" lon="4.9982">
        <ele>367.7</ele>
        <time>2022-05-30T09:30:57Z</time>
      </trkpt>
      <trkpt lat="47.73872" lon="4.99814">
        <ele>367.98</ele>
        <time>2022-05-30T09:31:00Z</time>
      </trkpt>
      <trkpt lat="47.73872" lon="4.99808">
        <ele>368.15</ele>
        <time>2022-05-30T09:31:02Z</time>
      </trkpt>
      <trkpt lat="47.73872" lon="4.99803">
        <ele>368.12</ele>
        <time>2022-05-30T09:31:05Z</time>
      </trkpt>
      <trkpt lat="47.73871" lon="4.99799">
        <ele>368.05</ele>
        <time>2022-05-30T09:31:07Z</time>
      </trkpt>
      <trkpt lat="47.73871" lon="4.99794">
        <ele>367.87</ele>
        <time>2022-05-30T09:31:09Z</time>
      </trkpt>
      <trkpt lat="47.73872" lon="4.99789">
        <ele>367.62</ele>
        <time>2022-05-30T09:31:12Z</time>
      </trkpt>
      <trkpt lat="47.73872" lon="4.99785">
        <ele>367.48</ele>
        <time>2022-05-30T09:31:14Z</time>
      </trkpt>
      <trkpt lat="47.73872" lon="4.9978">
        <ele>367.3</ele>
        <time>2022-05-30T09:31:16Z</time>
      </trkpt>
      <trkpt lat="47.73872" lon="4.99776">
        <ele>367.24</ele>
        <time>2022-05-30T09:31:18Z</time>
      </trkpt>
      <trkpt lat="47.73872" lon="4.99772">
        <ele>367.3</ele>
        <time>2022-05-30T09:31:20Z</time>
      </trkpt>
      <trkpt lat="47.73872" lon="4.99767">
        <ele>367.37</ele>
        <time>2022-05-30T09:31:23Z</time>
      </trkpt>
      <trkpt lat="47.73872" lon="4.99763">
        <ele>367.42</ele>
        <time>2022-05-30T09:31:25Z</time>
      </trkpt>
      <trkpt lat="47.73872" lon="4.99758">
        <ele>367.5</ele>
        <time>2022-05-30T09:31:28Z</time>
      </trkpt>
      <trkpt lat="47.73872" lon="4.99753">
        <ele>367.57</ele>
        <time>2022-05-30T09:31:30Z</time>
      </trkpt>
      <trkpt lat="47.73872" lon="4.99748">
        <ele>367.61</ele>
        <time>2022-05-30T09:31:33Z</time>
      </trkpt>
      <trkpt lat="47.73872" lon="4.99744">
        <ele>367.61</ele>
        <time>2022-05-30T09:31:35Z</time>
      </trkpt>
      <trkpt lat="47.73873" lon="4.99739">
        <ele>367.57</ele>
        <time>2022-05-30T09:31:37Z</time>
      </trkpt>
      <trkpt lat="47.73873" lon="4.99735">
        <ele>367.57</ele>
        <time>2022-05-30T09:31:40Z</time>
      </trkpt>
      <trkpt lat="47.73873" lon="4.9973">
        <ele>367.57</ele>
        <time>2022-05-30T09:31:42Z</time>
      </trkpt>
      <trkpt lat="47.73873" lon="4.99725">
        <ele>367.57</ele>
        <time>2022-05-30T09:31:45Z</time>
      </trkpt>
      <trkpt lat="47.73873" lon="4.9972">
        <ele>367.65</ele>
        <time>2022-05-30T09:31:47Z</time>
      </trkpt>
      <trkpt lat="47.73874" lon="4.99714">
        <ele>367.83</ele>
        <time>2022-05-30T09:31:50Z</time>
      </trkpt>
      <trkpt lat="47.73874" lon="4.99707">
        <ele>368.08</ele>
        <time>2022-05-30T09:31:53Z</time>
      </trkpt>
      <trkpt lat="47.73874" lon="4.99701">
        <ele>368.3</ele>
        <time>2022-05-30T09:31:56Z</time>
      </trkpt>
      <trkpt lat="47.73874" lon="4.99696">
        <ele>368.48</ele>
        <time>2022-05-30T09:31:58Z</time>
      </trkpt>
      <trkpt lat="47.73874" lon="4.99691">
        <ele>368.59</ele>
        <time>2022-05-30T09:32:01Z</time>
      </trkpt>
      <trkpt lat="47.73874" lon="4.99686">
        <ele>368.68</ele>
        <time>2022-05-30T09:32:03Z</time>
      </trkpt>
      <trkpt lat="47.73875" lon="4.99682">
        <ele>368.72</ele>
        <time>2022-05-30T09:32:06Z</time>
      </trkpt>
      <trkpt lat="47.73874" lon="4.99677">
        <ele>368.83</ele>
        <time>2022-05-30T09:32:08Z</time>
      </trkpt>
      <trkpt lat="47.73874" lon="4.99673">
        <ele>368.89</ele>
        <time>2022-05-30T09:32:09Z</time>
      </trkpt>
      <trkpt lat="47.73875" lon="4.99669">
        <ele>368.96</ele>
        <time>2022-05-30T09:32:12Z</time>
      </trkpt>
      <trkpt lat="47.73875" lon="4.99664">
        <ele>368.95</ele>
        <time>2022-05-30T09:32:15Z</time>
      </trkpt>
      <trkpt lat="47.73875" lon="4.99658">
        <ele>368.84</ele>
        <time>2022-05-30T09:32:17Z</time>
      </trkpt>
      <trkpt lat="47.73875" lon="4.99652">
        <ele>368.74</ele>
        <time>2022-05-30T09:32:21Z</time>
      </trkpt>
      <trkpt lat="47.73875" lon="4.99647">
        <ele>368.65</ele>
        <time>2022-05-30T09:32:23Z</time>
      </trkpt>
      <trkpt lat="47.73876" lon="4.99642">
        <ele>368.52</ele>
        <time>2022-05-30T09:32:26Z</time>
      </trkpt>
      <trkpt lat="47.73876" lon="4.99637">
        <ele>368.53</ele>
        <time>2022-05-30T09:32:28Z</time>
      </trkpt>
      <trkpt lat="47.73876" lon="4.99632">
        <ele>368.71</ele>
        <time>2022-05-30T09:32:30Z</time>
      </trkpt>
      <trkpt lat="47.73876" lon="4.99626">
        <ele>368.93</ele>
        <time>2022-05-30T09:32:33Z</time>
      </trkpt>
      <trkpt lat="47.73876" lon="4.9962">
        <ele>369.14</ele>
        <time>2022-05-30T09:32:37Z</time>
      </trkpt>
      <trkpt lat="47.73876" lon="4.99612">
        <ele>369.43</ele>
        <time>2022-05-30T09:32:41Z</time>
      </trkpt>
      <trkpt lat="47.73876" lon="4.99607">
        <ele>369.32</ele>
        <time>2022-05-30T09:32:43Z</time>
      </trkpt>
      <trkpt lat="47.73877" lon="4.99603">
        <ele>369.14</ele>
        <time>2022-05-30T09:32:45Z</time>
      </trkpt>
      <trkpt lat="47.73877" lon="4.99597">
        <ele>368.92</ele>
        <time>2022-05-30T09:32:47Z</time>
      </trkpt>
      <trkpt lat="47.73877" lon="4.99593">
        <ele>368.78</ele>
        <time>2022-05-30T09:32:49Z</time>
      </trkpt>
      <trkpt lat="47.73877" lon="4.99587">
        <ele>368.56</ele>
        <time>2022-05-30T09:32:52Z</time>
      </trkpt>
      <trkpt lat="47.73876" lon="4.99581">
        <ele>368.13</ele>
        <time>2022-05-30T09:32:55Z</time>
      </trkpt>
      <trkpt lat="47.73877" lon="4.99576">
        <ele>367.37</ele>
        <time>2022-05-30T09:32:58Z</time>
      </trkpt>
      <trkpt lat="47.73877" lon="4.99571">
        <ele>366.65</ele>
        <time>2022-05-30T09:33:01Z</time>
      </trkpt>
      <trkpt lat="47.73878" lon="4.99567">
        <ele>366.04</ele>
        <time>2022-05-30T09:33:03Z</time>
      </trkpt>
      <trkpt lat="47.73878" lon="4.99563">
        <ele>365.46</ele>
        <time>2022-05-30T09:33:06Z</time>
      </trkpt>
      <trkpt lat="47.73878" lon="4.99559">
        <ele>364.89</ele>
        <time>2022-05-30T09:33:08Z</time>
      </trkpt>
      <trkpt lat="47.73878" lon="4.99554">
        <ele>364.38</ele>
        <time>2022-05-30T09:33:10Z</time>
      </trkpt>
      <trkpt lat="47.73878" lon="4.9955">
        <ele>364.36</ele>
        <time>2022-05-30T09:33:12Z</time>
      </trkpt>
      <trkpt lat="47.73879" lon="4.99544">
        <ele>364.33</ele>
        <time>2022-05-30T09:33:15Z</time>
      </trkpt>
      <trkpt lat="47.7388" lon="4.99538">
        <ele>364.35</ele>
        <time>2022-05-30T09:33:18Z</time>
      </trkpt>
      <trkpt lat="47.7388" lon="4.99532">
        <ele>364.35</ele>
        <time>2022-05-30T09:33:23Z</time>
      </trkpt>
      <trkpt lat="47.73881" lon="4.99527">
        <ele>364.46</ele>
        <time>2022-05-30T09:33:25Z</time>
      </trkpt>
      <trkpt lat="47.73881" lon="4.99522">
        <ele>364.67</ele>
        <time>2022-05-30T09:33:28Z</time>
      </trkpt>
      <trkpt lat="47.7388" lon="4.99517">
        <ele>364.86</ele>
        <time>2022-05-30T09:33:30Z</time>
      </trkpt>
      <trkpt lat="47.7388" lon="4.99512">
        <ele>365.09</ele>
        <time>2022-05-30T09:33:32Z</time>
      </trkpt>
      <trkpt lat="47.73881" lon="4.99508">
        <ele>365.24</ele>
        <time>2022-05-30T09:33:35Z</time>
      </trkpt>
      <trkpt lat="47.73882" lon="4.99505">
        <ele>365.32</ele>
        <time>2022-05-30T09:33:37Z</time>
      </trkpt>
      <trkpt lat="47.73882" lon="4.995">
        <ele>365.5</ele>
        <time>2022-05-30T09:33:39Z</time>
      </trkpt>
      <trkpt lat="47.73882" lon="4.99495">
        <ele>365.99</ele>
        <time>2022-05-30T09:33:41Z</time>
      </trkpt>
      <trkpt lat="47.73882" lon="4.99491">
        <ele>366.39</ele>
        <time>2022-05-30T09:33:43Z</time>
      </trkpt>
      <trkpt lat="47.73883" lon="4.99486">
        <ele>366.83</ele>
        <time>2022-05-30T09:33:45Z</time>
      </trkpt>
      <trkpt lat="47.73884" lon="4.99482">
        <ele>367.18</ele>
        <time>2022-05-30T09:33:48Z</time>
      </trkpt>
      <trkpt lat="47.73885" lon="4.99478">
        <ele>367.55</ele>
        <time>2022-05-30T09:33:50Z</time>
      </trkpt>
      <trkpt lat="47.73886" lon="4.99474">
        <ele>367.92</ele>
        <time>2022-05-30T09:33:52Z</time>
      </trkpt>
      <trkpt lat="47.73888" lon="4.99469">
        <ele>368.04</ele>
        <time>2022-05-30T09:33:55Z</time>
      </trkpt>
      <trkpt lat="47.73889" lon="4.99465">
        <ele>367.99</ele>
        <time>2022-05-30T09:33:56Z</time>
      </trkpt>
      <trkpt lat="47.7389" lon="4.9946">
        <ele>367.94</ele>
        <time>2022-05-30T09:33:59Z</time>
      </trkpt>
      <trkpt lat="47.73891" lon="4.99455">
        <ele>367.9</ele>
        <time>2022-05-30T09:34:01Z</time>
      </trkpt>
      <trkpt lat="47.73892" lon="4.99451">
        <ele>367.86</ele>
        <time>2022-05-30T09:34:03Z</time>
      </trkpt>
      <trkpt lat="47.73893" lon="4.99446">
        <ele>367.84</ele>
        <time>2022-05-30T09:34:05Z</time>
      </trkpt>
      <trkpt lat="47.73894" lon="4.99442">
        <ele>367.92</ele>
        <time>2022-05-30T09:34:07Z</time>
      </trkpt>
      <trkpt lat="47.73895" lon="4.99437">
        <ele>368.11</ele>
        <time>2022-05-30T09:34:10Z</time>
      </trkpt>
      <trkpt lat="47.73896" lon="4.99432">
        <ele>368.31</ele>
        <time>2022-05-30T09:34:12Z</time>
      </trkpt>
      <trkpt lat="47.73897" lon="4.99427">
        <ele>368.52</ele>
        <time>2022-05-30T09:34:14Z</time>
      </trkpt>
      <trkpt lat="47.73899" lon="4.99424">
        <ele>368.64</ele>
        <time>2022-05-30T09:34:16Z</time>
      </trkpt>
      <trkpt lat="47.73901" lon="4.9942">
        <ele>368.83</ele>
        <time>2022-05-30T09:34:18Z</time>
      </trkpt>
      <trkpt lat="47.73904" lon="4.99416">
        <ele>368.99</ele>
        <time>2022-05-30T09:34:20Z</time>
      </trkpt>
      <trkpt lat="47.73906" lon="4.99412">
        <ele>368.9</ele>
        <time>2022-05-30T09:34:22Z</time>
      </trkpt>
      <trkpt lat="47.73908" lon="4.99407">
        <ele>368.76</ele>
        <time>2022-05-30T09:34:24Z</time>
      </trkpt>
      <trkpt lat="47.7391" lon="4.99403">
        <ele>368.63</ele>
        <time>2022-05-30T09:34:27Z</time>
      </trkpt>
      <trkpt lat="47.73912" lon="4.99399">
        <ele>368.47</ele>
        <time>2022-05-30T09:34:29Z</time>
      </trkpt>
      <trkpt lat="47.73914" lon="4.99395">
        <ele>368.29</ele>
        <time>2022-05-30T09:34:31Z</time>
      </trkpt>
      <trkpt lat="47.73916" lon="4.9939">
        <ele>368.06</ele>
        <time>2022-05-30T09:34:34Z</time>
      </trkpt>
      <trkpt lat="47.73918" lon="4.99387">
        <ele>367.72</ele>
        <time>2022-05-30T09:34:36Z</time>
      </trkpt>
      <trkpt lat="47.7392" lon="4.99383">
        <ele>367.22</ele>
        <time>2022-05-30T09:34:39Z</time>
      </trkpt>
      <trkpt lat="47.73922" lon="4.9938">
        <ele>366.78</ele>
        <time>2022-05-30T09:34:41Z</time>
      </trkpt>
      <trkpt lat="47.73924" lon="4.99377">
        <ele>366.35</ele>
        <time>2022-05-30T09:34:43Z</time>
      </trkpt>
      <trkpt lat="47.73927" lon="4.99374">
        <ele>365.81</ele>
        <time>2022-05-30T09:34:46Z</time>
      </trkpt>
      <trkpt lat="47.73929" lon="4.9937">
        <ele>365.31</ele>
        <time>2022-05-30T09:34:48Z</time>
      </trkpt>
      <trkpt lat="47.73932" lon="4.99367">
        <ele>364.77</ele>
        <time>2022-05-30T09:34:50Z</time>
      </trkpt>
      <trkpt lat="47.73934" lon="4.99364">
        <ele>364.34</ele>
        <time>2022-05-30T09:34:52Z</time>
      </trkpt>
      <trkpt lat="47.73936" lon="4.99361">
        <ele>363.92</ele>
        <time>2022-05-30T09:34:54Z</time>
      </trkpt>
      <trkpt lat="47.73937" lon="4.99358">
        <ele>363.92</ele>
        <time>2022-05-30T09:34:56Z</time>
      </trkpt>
      <trkpt lat="47.73939" lon="4.99354">
        <ele>363.84</ele>
        <time>2022-05-30T09:34:59Z</time>
      </trkpt>
      <trkpt lat="47.73941" lon="4.9935">
        <ele>363.77</ele>
        <time>2022-05-30T09:35:01Z</time>
      </trkpt>
      <trkpt lat="47.73943" lon="4.99346">
        <ele>363.7</ele>
        <time>2022-05-30T09:35:04Z</time>
      </trkpt>
      <trkpt lat="47.73944" lon="4.99343">
        <ele>363.7</ele>
        <time>2022-05-30T09:35:06Z</time>
      </trkpt>
      <trkpt lat="47.73947" lon="4.99339">
        <ele>363.76</ele>
        <time>2022-05-30T09:35:09Z</time>
      </trkpt>
      <trkpt lat="47.73948" lon="4.99335">
        <ele>363.92</ele>
        <time>2022-05-30T09:35:11Z</time>
      </trkpt>
      <trkpt lat="47.73949" lon="4.99332">
        <ele>364.05</ele>
        <time>2022-05-30T09:35:14Z</time>
      </trkpt>
      <trkpt lat="47.73951" lon="4.99327">
        <ele>364.23</ele>
        <time>2022-05-30T09:35:16Z</time>
      </trkpt>
      <trkpt lat="47.73952" lon="4.99323">
        <ele>364.37</ele>
        <time>2022-05-30T09:35:19Z</time>
      </trkpt>
      <trkpt lat="47.73953" lon="4.99319">
        <ele>364.52</ele>
        <time>2022-05-30T09:35:21Z</time>
      </trkpt>
      <trkpt lat="47.73955" lon="4.99315">
        <ele>364.66</ele>
        <time>2022-05-30T09:35:24Z</time>
      </trkpt>
      <trkpt lat="47.73957" lon="4.99312">
        <ele>364.77</ele>
        <time>2022-05-30T09:35:26Z</time>
      </trkpt>
      <trkpt lat="47.73957" lon="4.99308">
        <ele>364.91</ele>
        <time>2022-05-30T09:35:44Z</time>
      </trkpt>
      <trkpt lat="47.73954" lon="4.99308">
        <ele>364.91</ele>
        <time>2022-05-30T09:36:09Z</time>
      </trkpt>
      <trkpt lat="47.73953" lon="4.99317">
        <ele>364.59</ele>
        <time>2022-05-30T09:36:12Z</time>
      </trkpt>
      <trkpt lat="47.73954" lon="4.99321">
        <ele>364.44</ele>
        <time>2022-05-30T09:36:13Z</time>
      </trkpt>
      <trkpt lat="47.73954" lon="4.99326">
        <ele>364.26</ele>
        <time>2022-05-30T09:36:17Z</time>
      </trkpt>
      <trkpt lat="47.73951" lon="4.99326">
        <ele>364.26</ele>
        <time>2022-05-30T09:45:32Z</time>
      </trkpt>
      <trkpt lat="47.73951" lon="4.99321">
        <ele>364.44</ele>
        <time>2022-05-30T09:45:35Z</time>
      </trkpt>
      <trkpt lat="47.73952" lon="4.99317">
        <ele>364.59</ele>
        <time>2022-05-30T09:45:39Z</time>
      </trkpt>
      <trkpt lat="47.73951" lon="4.99312">
        <ele>364.77</ele>
        <time>2022-05-30T09:45:47Z</time>
      </trkpt>
      <trkpt lat="47.73951" lon="4.99308">
        <ele>364.91</ele>
        <time>2022-05-30T09:45:50Z</time>
      </trkpt>
      <trkpt lat="47.73951" lon="4.99304">
        <ele>364.97</ele>
        <time>2022-05-30T09:45:52Z</time>
      </trkpt>
      <trkpt lat="47.73949" lon="4.99301">
        <ele>364.89</ele>
        <time>2022-05-30T09:45:55Z</time>
      </trkpt>
      <trkpt lat="47.73949" lon="4.99296">
        <ele>364.77</ele>
        <time>2022-05-30T09:45:58Z</time>
      </trkpt>
      <trkpt lat="47.73951" lon="4.99293">
        <ele>364.76</ele>
        <time>2022-05-30T09:45:59Z</time>
      </trkpt>
      <trkpt lat="47.73956" lon="4.9929">
        <ele>364.91</ele>
        <time>2022-05-30T09:46:00Z</time>
      </trkpt>
      <trkpt lat="47.73958" lon="4.99286">
        <ele>364.98</ele>
        <time>2022-05-30T09:46:02Z</time>
      </trkpt>
      <trkpt lat="47.73959" lon="4.99281">
        <ele>365.04</ele>
        <time>2022-05-30T09:46:05Z</time>
      </trkpt>
      <trkpt lat="47.7396" lon="4.99277">
        <ele>365.1</ele>
        <time>2022-05-30T09:46:07Z</time>
      </trkpt>
      <trkpt lat="47.73961" lon="4.99272">
        <ele>365.07</ele>
        <time>2022-05-30T09:46:11Z</time>
      </trkpt>
      <trkpt lat="47.73962" lon="4.99269">
        <ele>365.06</ele>
        <time>2022-05-30T09:46:14Z</time>
      </trkpt>
      <trkpt lat="47.73962" lon="4.99264">
        <ele>364.95</ele>
        <time>2022-05-30T09:46:16Z</time>
      </trkpt>
      <trkpt lat="47.73961" lon="4.99258">
        <ele>364.77</ele>
        <time>2022-05-30T09:46:20Z</time>
      </trkpt>
      <trkpt lat="47.7396" lon="4.99254">
        <ele>364.64</ele>
        <time>2022-05-30T09:46:22Z</time>
      </trkpt>
      <trkpt lat="47.73959" lon="4.9925">
        <ele>364.52</ele>
        <time>2022-05-30T09:46:25Z</time>
      </trkpt>
      <trkpt lat="47.73958" lon="4.99246">
        <ele>364.2</ele>
        <time>2022-05-30T09:46:30Z</time>
      </trkpt>
      <trkpt lat="47.73958" lon="4.99242">
        <ele>363.91</ele>
        <time>2022-05-30T09:47:07Z</time>
      </trkpt>
    </trkseg>
  </trk>
</gpx>